<?xml version="1.0" encoding="UTF-8" standalone="no" ?>
<gpx xmlns="http://www.topografix.com/GPX/1/1" xmlns:xsi="http://www.w3.org/2001/XMLSchema-instance" xsi:schemaLocation="http://www.topografix.com/GPX/1/1 http://www.topografix.com/GPX/1/1/gpx.xsd" version="1.1" creator="VisuGPX - https://www.visugpx.com">
  <metadata>
    <name>Sortie VTT en Moulière </name>
  </metadata>
  <trk>
    <name><![CDATA[Sortie VTT en Moulière _1]]></name>
    <trkseg>
      <trkpt lat="46.66835" lon="0.40292">
        <ele>86.2</ele>
        <time>2024-09-08T06:14:56Z</time>
      </trkpt>
      <trkpt lat="46.6684" lon="0.40296">
        <ele>86.2</ele>
        <time>2024-09-08T06:15:11Z</time>
      </trkpt>
      <trkpt lat="46.66849" lon="0.40314">
        <ele>86</ele>
        <time>2024-09-08T06:15:17Z</time>
      </trkpt>
      <trkpt lat="46.66867" lon="0.40324">
        <ele>86</ele>
        <time>2024-09-08T06:15:24Z</time>
      </trkpt>
      <trkpt lat="46.66885" lon="0.40329">
        <ele>86</ele>
        <time>2024-09-08T06:15:29Z</time>
      </trkpt>
      <trkpt lat="46.66891" lon="0.4032">
        <ele>85.6</ele>
        <time>2024-09-08T06:15:32Z</time>
      </trkpt>
      <trkpt lat="46.66898" lon="0.40296">
        <ele>85.4</ele>
        <time>2024-09-08T06:15:38Z</time>
      </trkpt>
      <trkpt lat="46.66912" lon="0.40298">
        <ele>85.4</ele>
        <time>2024-09-08T06:15:42Z</time>
      </trkpt>
      <trkpt lat="46.66936" lon="0.40304">
        <ele>85.4</ele>
        <time>2024-09-08T06:15:48Z</time>
      </trkpt>
      <trkpt lat="46.66941" lon="0.40305">
        <ele>85.4</ele>
        <time>2024-09-08T06:15:51Z</time>
      </trkpt>
      <trkpt lat="46.66942" lon="0.40306">
        <ele>85.4</ele>
        <time>2024-09-08T06:15:52Z</time>
      </trkpt>
      <trkpt lat="46.66948" lon="0.40307">
        <ele>85.6</ele>
        <time>2024-09-08T06:15:54Z</time>
      </trkpt>
      <trkpt lat="46.66951" lon="0.40305">
        <ele>85.6</ele>
        <time>2024-09-08T06:15:55Z</time>
      </trkpt>
      <trkpt lat="46.66959" lon="0.40289">
        <ele>85.8</ele>
        <time>2024-09-08T06:15:58Z</time>
      </trkpt>
      <trkpt lat="46.6696" lon="0.40282">
        <ele>85.8</ele>
        <time>2024-09-08T06:15:59Z</time>
      </trkpt>
      <trkpt lat="46.66965" lon="0.40245">
        <ele>86.6</ele>
        <time>2024-09-08T06:16:04Z</time>
      </trkpt>
      <trkpt lat="46.66967" lon="0.40223">
        <ele>87</ele>
        <time>2024-09-08T06:16:08Z</time>
      </trkpt>
      <trkpt lat="46.66969" lon="0.4022">
        <ele>87.4</ele>
        <time>2024-09-08T06:16:09Z</time>
      </trkpt>
      <trkpt lat="46.66971" lon="0.40218">
        <ele>87.6</ele>
        <time>2024-09-08T06:16:10Z</time>
      </trkpt>
      <trkpt lat="46.66977" lon="0.40219">
        <ele>87.8</ele>
        <time>2024-09-08T06:16:12Z</time>
      </trkpt>
      <trkpt lat="46.6699" lon="0.40233">
        <ele>88</ele>
        <time>2024-09-08T06:16:16Z</time>
      </trkpt>
      <trkpt lat="46.67022" lon="0.40266">
        <ele>87</ele>
        <time>2024-09-08T06:16:24Z</time>
      </trkpt>
      <trkpt lat="46.67047" lon="0.40287">
        <ele>86.2</ele>
        <time>2024-09-08T06:16:29Z</time>
      </trkpt>
      <trkpt lat="46.67071" lon="0.40309">
        <ele>85.8</ele>
        <time>2024-09-08T06:16:34Z</time>
      </trkpt>
      <trkpt lat="46.67097" lon="0.40337">
        <ele>85.2</ele>
        <time>2024-09-08T06:16:40Z</time>
      </trkpt>
      <trkpt lat="46.67117" lon="0.40355">
        <ele>84.6</ele>
        <time>2024-09-08T06:16:44Z</time>
      </trkpt>
      <trkpt lat="46.67137" lon="0.40375">
        <ele>84</ele>
        <time>2024-09-08T06:16:48Z</time>
      </trkpt>
      <trkpt lat="46.67162" lon="0.40399">
        <ele>83.8</ele>
        <time>2024-09-08T06:16:53Z</time>
      </trkpt>
      <trkpt lat="46.67202" lon="0.40437">
        <ele>83.4</ele>
        <time>2024-09-08T06:17:01Z</time>
      </trkpt>
      <trkpt lat="46.67218" lon="0.40451">
        <ele>83.2</ele>
        <time>2024-09-08T06:17:04Z</time>
      </trkpt>
      <trkpt lat="46.67245" lon="0.40471">
        <ele>83</ele>
        <time>2024-09-08T06:17:09Z</time>
      </trkpt>
      <trkpt lat="46.67278" lon="0.40489">
        <ele>82.6</ele>
        <time>2024-09-08T06:17:15Z</time>
      </trkpt>
      <trkpt lat="46.67284" lon="0.4049">
        <ele>82.6</ele>
        <time>2024-09-08T06:17:16Z</time>
      </trkpt>
      <trkpt lat="46.67289" lon="0.40489">
        <ele>82.6</ele>
        <time>2024-09-08T06:17:17Z</time>
      </trkpt>
      <trkpt lat="46.67299" lon="0.40482">
        <ele>82.8</ele>
        <time>2024-09-08T06:17:19Z</time>
      </trkpt>
      <trkpt lat="46.67313" lon="0.40473">
        <ele>82.8</ele>
        <time>2024-09-08T06:17:22Z</time>
      </trkpt>
      <trkpt lat="46.67317" lon="0.40474">
        <ele>83.2</ele>
        <time>2024-09-08T06:17:23Z</time>
      </trkpt>
      <trkpt lat="46.67319" lon="0.40476">
        <ele>83.2</ele>
        <time>2024-09-08T06:17:24Z</time>
      </trkpt>
      <trkpt lat="46.67328" lon="0.40484">
        <ele>83.8</ele>
        <time>2024-09-08T06:17:27Z</time>
      </trkpt>
      <trkpt lat="46.67352" lon="0.40497">
        <ele>82.6</ele>
        <time>2024-09-08T06:17:32Z</time>
      </trkpt>
      <trkpt lat="46.67378" lon="0.40512">
        <ele>82</ele>
        <time>2024-09-08T06:17:37Z</time>
      </trkpt>
      <trkpt lat="46.67388" lon="0.40517">
        <ele>82</ele>
        <time>2024-09-08T06:17:39Z</time>
      </trkpt>
      <trkpt lat="46.67411" lon="0.40532">
        <ele>81</ele>
        <time>2024-09-08T06:17:44Z</time>
      </trkpt>
      <trkpt lat="46.67416" lon="0.40535">
        <ele>80.8</ele>
        <time>2024-09-08T06:17:45Z</time>
      </trkpt>
      <trkpt lat="46.67448" lon="0.40559">
        <ele>80.2</ele>
        <time>2024-09-08T06:17:51Z</time>
      </trkpt>
      <trkpt lat="46.67463" lon="0.4057">
        <ele>79.8</ele>
        <time>2024-09-08T06:17:54Z</time>
      </trkpt>
      <trkpt lat="46.67481" lon="0.40583">
        <ele>79.8</ele>
        <time>2024-09-08T06:17:57Z</time>
      </trkpt>
      <trkpt lat="46.67524" lon="0.40615">
        <ele>79</ele>
        <time>2024-09-08T06:18:05Z</time>
      </trkpt>
      <trkpt lat="46.67529" lon="0.40619">
        <ele>78.8</ele>
        <time>2024-09-08T06:18:06Z</time>
      </trkpt>
      <trkpt lat="46.67561" lon="0.4064">
        <ele>78.6</ele>
        <time>2024-09-08T06:18:12Z</time>
      </trkpt>
      <trkpt lat="46.67582" lon="0.40655">
        <ele>78.6</ele>
        <time>2024-09-08T06:18:16Z</time>
      </trkpt>
      <trkpt lat="46.67603" lon="0.40671">
        <ele>78</ele>
        <time>2024-09-08T06:18:20Z</time>
      </trkpt>
      <trkpt lat="46.67609" lon="0.40675">
        <ele>77.6</ele>
        <time>2024-09-08T06:18:21Z</time>
      </trkpt>
      <trkpt lat="46.67657" lon="0.40709">
        <ele>76.8</ele>
        <time>2024-09-08T06:18:30Z</time>
      </trkpt>
      <trkpt lat="46.6769" lon="0.40734">
        <ele>76.8</ele>
        <time>2024-09-08T06:18:37Z</time>
      </trkpt>
      <trkpt lat="46.677" lon="0.40742">
        <ele>76.6</ele>
        <time>2024-09-08T06:18:39Z</time>
      </trkpt>
      <trkpt lat="46.67723" lon="0.40757">
        <ele>76.6</ele>
        <time>2024-09-08T06:18:44Z</time>
      </trkpt>
      <trkpt lat="46.67744" lon="0.40776">
        <ele>75.8</ele>
        <time>2024-09-08T06:18:49Z</time>
      </trkpt>
      <trkpt lat="46.67752" lon="0.40783">
        <ele>75.6</ele>
        <time>2024-09-08T06:18:51Z</time>
      </trkpt>
      <trkpt lat="46.67764" lon="0.40792">
        <ele>75.2</ele>
        <time>2024-09-08T06:18:54Z</time>
      </trkpt>
      <trkpt lat="46.67773" lon="0.40798">
        <ele>75</ele>
        <time>2024-09-08T06:18:56Z</time>
      </trkpt>
      <trkpt lat="46.67791" lon="0.40808">
        <ele>75</ele>
        <time>2024-09-08T06:19:00Z</time>
      </trkpt>
      <trkpt lat="46.6781" lon="0.40812">
        <ele>74.8</ele>
        <time>2024-09-08T06:19:05Z</time>
      </trkpt>
      <trkpt lat="46.67835" lon="0.4082">
        <ele>74.8</ele>
        <time>2024-09-08T06:19:11Z</time>
      </trkpt>
      <trkpt lat="46.6784" lon="0.40821">
        <ele>75</ele>
        <time>2024-09-08T06:19:12Z</time>
      </trkpt>
      <trkpt lat="46.67856" lon="0.40825">
        <ele>75.2</ele>
        <time>2024-09-08T06:19:15Z</time>
      </trkpt>
      <trkpt lat="46.67861" lon="0.40827">
        <ele>75.2</ele>
        <time>2024-09-08T06:19:16Z</time>
      </trkpt>
      <trkpt lat="46.6789" lon="0.40844">
        <ele>75.6</ele>
        <time>2024-09-08T06:19:22Z</time>
      </trkpt>
      <trkpt lat="46.67906" lon="0.40853">
        <ele>76</ele>
        <time>2024-09-08T06:19:28Z</time>
      </trkpt>
      <trkpt lat="46.67911" lon="0.40857">
        <ele>76.2</ele>
        <time>2024-09-08T06:19:31Z</time>
      </trkpt>
      <trkpt lat="46.67911" lon="0.40863">
        <ele>76.4</ele>
        <time>2024-09-08T06:19:33Z</time>
      </trkpt>
      <trkpt lat="46.67908" lon="0.4087">
        <ele>76.8</ele>
        <time>2024-09-08T06:19:36Z</time>
      </trkpt>
      <trkpt lat="46.67906" lon="0.40877">
        <ele>77</ele>
        <time>2024-09-08T06:19:39Z</time>
      </trkpt>
      <trkpt lat="46.67907" lon="0.40892">
        <ele>77.4</ele>
        <time>2024-09-08T06:19:44Z</time>
      </trkpt>
      <trkpt lat="46.67911" lon="0.40897">
        <ele>77.4</ele>
        <time>2024-09-08T06:19:49Z</time>
      </trkpt>
      <trkpt lat="46.67912" lon="0.40898">
        <ele>77.4</ele>
        <time>2024-09-08T06:19:50Z</time>
      </trkpt>
      <trkpt lat="46.67911" lon="0.40903">
        <ele>77.6</ele>
        <time>2024-09-08T06:19:52Z</time>
      </trkpt>
      <trkpt lat="46.67909" lon="0.40905">
        <ele>77.6</ele>
        <time>2024-09-08T06:19:53Z</time>
      </trkpt>
      <trkpt lat="46.67898" lon="0.40913">
        <ele>77.8</ele>
        <time>2024-09-08T06:19:57Z</time>
      </trkpt>
      <trkpt lat="46.67895" lon="0.40915">
        <ele>77.8</ele>
        <time>2024-09-08T06:19:58Z</time>
      </trkpt>
      <trkpt lat="46.67878" lon="0.40917">
        <ele>77.4</ele>
        <time>2024-09-08T06:20:02Z</time>
      </trkpt>
      <trkpt lat="46.67848" lon="0.40913">
        <ele>77.4</ele>
        <time>2024-09-08T06:20:09Z</time>
      </trkpt>
      <trkpt lat="46.67813" lon="0.40911">
        <ele>77.4</ele>
        <time>2024-09-08T06:20:17Z</time>
      </trkpt>
      <trkpt lat="46.67786" lon="0.40912">
        <ele>77.2</ele>
        <time>2024-09-08T06:20:24Z</time>
      </trkpt>
      <trkpt lat="46.67784" lon="0.40916">
        <ele>77.2</ele>
        <time>2024-09-08T06:20:25Z</time>
      </trkpt>
      <trkpt lat="46.67782" lon="0.40927">
        <ele>76.8</ele>
        <time>2024-09-08T06:20:27Z</time>
      </trkpt>
      <trkpt lat="46.67782" lon="0.40934">
        <ele>76.8</ele>
        <time>2024-09-08T06:20:28Z</time>
      </trkpt>
      <trkpt lat="46.67781" lon="0.40958">
        <ele>77.2</ele>
        <time>2024-09-08T06:20:32Z</time>
      </trkpt>
      <trkpt lat="46.67781" lon="0.40963">
        <ele>77.4</ele>
        <time>2024-09-08T06:20:33Z</time>
      </trkpt>
      <trkpt lat="46.6778" lon="0.40968">
        <ele>78</ele>
        <time>2024-09-08T06:20:34Z</time>
      </trkpt>
      <trkpt lat="46.67772" lon="0.40991">
        <ele>79.2</ele>
        <time>2024-09-08T06:20:39Z</time>
      </trkpt>
      <trkpt lat="46.67768" lon="0.40998">
        <ele>79.6</ele>
        <time>2024-09-08T06:20:41Z</time>
      </trkpt>
      <trkpt lat="46.67759" lon="0.41011">
        <ele>80</ele>
        <time>2024-09-08T06:20:45Z</time>
      </trkpt>
      <trkpt lat="46.67754" lon="0.41016">
        <ele>80.6</ele>
        <time>2024-09-08T06:20:47Z</time>
      </trkpt>
      <trkpt lat="46.67746" lon="0.41025">
        <ele>82</ele>
        <time>2024-09-08T06:20:51Z</time>
      </trkpt>
      <trkpt lat="46.67744" lon="0.41028">
        <ele>82.2</ele>
        <time>2024-09-08T06:20:52Z</time>
      </trkpt>
      <trkpt lat="46.67738" lon="0.41035">
        <ele>83.2</ele>
        <time>2024-09-08T06:20:55Z</time>
      </trkpt>
      <trkpt lat="46.67732" lon="0.41043">
        <ele>84.4</ele>
        <time>2024-09-08T06:20:58Z</time>
      </trkpt>
      <trkpt lat="46.67728" lon="0.41049">
        <ele>84.8</ele>
        <time>2024-09-08T06:21:00Z</time>
      </trkpt>
      <trkpt lat="46.67721" lon="0.41059">
        <ele>85.6</ele>
        <time>2024-09-08T06:21:03Z</time>
      </trkpt>
      <trkpt lat="46.67705" lon="0.41084">
        <ele>86.4</ele>
        <time>2024-09-08T06:21:10Z</time>
      </trkpt>
      <trkpt lat="46.67698" lon="0.41095">
        <ele>86.6</ele>
        <time>2024-09-08T06:21:13Z</time>
      </trkpt>
      <trkpt lat="46.67684" lon="0.41117">
        <ele>87.2</ele>
        <time>2024-09-08T06:21:19Z</time>
      </trkpt>
      <trkpt lat="46.67679" lon="0.41125">
        <ele>87.8</ele>
        <time>2024-09-08T06:21:21Z</time>
      </trkpt>
      <trkpt lat="46.67665" lon="0.41144">
        <ele>89.2</ele>
        <time>2024-09-08T06:21:27Z</time>
      </trkpt>
      <trkpt lat="46.67645" lon="0.41173">
        <ele>90</ele>
        <time>2024-09-08T06:21:36Z</time>
      </trkpt>
      <trkpt lat="46.6764" lon="0.41179">
        <ele>90.8</ele>
        <time>2024-09-08T06:21:38Z</time>
      </trkpt>
      <trkpt lat="46.67622" lon="0.41202">
        <ele>91</ele>
        <time>2024-09-08T06:21:45Z</time>
      </trkpt>
      <trkpt lat="46.67609" lon="0.41218">
        <ele>91.8</ele>
        <time>2024-09-08T06:21:50Z</time>
      </trkpt>
      <trkpt lat="46.67598" lon="0.41231">
        <ele>92.4</ele>
        <time>2024-09-08T06:21:54Z</time>
      </trkpt>
      <trkpt lat="46.67591" lon="0.4124">
        <ele>93</ele>
        <time>2024-09-08T06:21:57Z</time>
      </trkpt>
      <trkpt lat="46.67577" lon="0.4126">
        <ele>94</ele>
        <time>2024-09-08T06:22:03Z</time>
      </trkpt>
      <trkpt lat="46.67574" lon="0.41263">
        <ele>94.2</ele>
        <time>2024-09-08T06:22:04Z</time>
      </trkpt>
      <trkpt lat="46.67553" lon="0.41292">
        <ele>95.4</ele>
        <time>2024-09-08T06:22:13Z</time>
      </trkpt>
      <trkpt lat="46.67547" lon="0.41301">
        <ele>96.6</ele>
        <time>2024-09-08T06:22:16Z</time>
      </trkpt>
      <trkpt lat="46.6754" lon="0.41311">
        <ele>97.8</ele>
        <time>2024-09-08T06:22:19Z</time>
      </trkpt>
      <trkpt lat="46.67526" lon="0.41331">
        <ele>98.2</ele>
        <time>2024-09-08T06:22:25Z</time>
      </trkpt>
      <trkpt lat="46.67519" lon="0.41341">
        <ele>98.8</ele>
        <time>2024-09-08T06:22:28Z</time>
      </trkpt>
      <trkpt lat="46.67511" lon="0.41355">
        <ele>100</ele>
        <time>2024-09-08T06:22:32Z</time>
      </trkpt>
      <trkpt lat="46.67505" lon="0.41366">
        <ele>100.4</ele>
        <time>2024-09-08T06:22:35Z</time>
      </trkpt>
      <trkpt lat="46.67489" lon="0.41398">
        <ele>101.2</ele>
        <time>2024-09-08T06:22:43Z</time>
      </trkpt>
      <trkpt lat="46.67483" lon="0.4141">
        <ele>101.6</ele>
        <time>2024-09-08T06:22:46Z</time>
      </trkpt>
      <trkpt lat="46.67461" lon="0.41452">
        <ele>102.2</ele>
        <time>2024-09-08T06:22:56Z</time>
      </trkpt>
      <trkpt lat="46.67446" lon="0.4148">
        <ele>103.4</ele>
        <time>2024-09-08T06:23:03Z</time>
      </trkpt>
      <trkpt lat="46.67433" lon="0.41504">
        <ele>104.2</ele>
        <time>2024-09-08T06:23:09Z</time>
      </trkpt>
      <trkpt lat="46.67429" lon="0.41512">
        <ele>104.6</ele>
        <time>2024-09-08T06:23:11Z</time>
      </trkpt>
      <trkpt lat="46.67418" lon="0.41532">
        <ele>105.6</ele>
        <time>2024-09-08T06:23:16Z</time>
      </trkpt>
      <trkpt lat="46.67414" lon="0.4154">
        <ele>105.8</ele>
        <time>2024-09-08T06:23:18Z</time>
      </trkpt>
      <trkpt lat="46.67402" lon="0.41563">
        <ele>106.8</ele>
        <time>2024-09-08T06:23:24Z</time>
      </trkpt>
      <trkpt lat="46.67394" lon="0.41578">
        <ele>107.2</ele>
        <time>2024-09-08T06:23:28Z</time>
      </trkpt>
      <trkpt lat="46.67381" lon="0.41601">
        <ele>107.8</ele>
        <time>2024-09-08T06:23:34Z</time>
      </trkpt>
      <trkpt lat="46.6737" lon="0.41621">
        <ele>108.4</ele>
        <time>2024-09-08T06:23:39Z</time>
      </trkpt>
      <trkpt lat="46.67358" lon="0.41645">
        <ele>109</ele>
        <time>2024-09-08T06:23:45Z</time>
      </trkpt>
      <trkpt lat="46.6735" lon="0.41659">
        <ele>110</ele>
        <time>2024-09-08T06:23:49Z</time>
      </trkpt>
      <trkpt lat="46.67328" lon="0.41699">
        <ele>111</ele>
        <time>2024-09-08T06:24:00Z</time>
      </trkpt>
      <trkpt lat="46.67326" lon="0.41702">
        <ele>111</ele>
        <time>2024-09-08T06:24:01Z</time>
      </trkpt>
      <trkpt lat="46.67307" lon="0.41737">
        <ele>112</ele>
        <time>2024-09-08T06:24:10Z</time>
      </trkpt>
      <trkpt lat="46.67305" lon="0.41741">
        <ele>112</ele>
        <time>2024-09-08T06:24:11Z</time>
      </trkpt>
      <trkpt lat="46.67293" lon="0.41765">
        <ele>111.8</ele>
        <time>2024-09-08T06:24:18Z</time>
      </trkpt>
      <trkpt lat="46.67299" lon="0.41778">
        <ele>111.6</ele>
        <time>2024-09-08T06:24:22Z</time>
      </trkpt>
      <trkpt lat="46.67318" lon="0.41795">
        <ele>111.4</ele>
        <time>2024-09-08T06:24:28Z</time>
      </trkpt>
      <trkpt lat="46.67328" lon="0.41806">
        <ele>111.2</ele>
        <time>2024-09-08T06:24:31Z</time>
      </trkpt>
      <trkpt lat="46.67341" lon="0.4182">
        <ele>111.4</ele>
        <time>2024-09-08T06:24:35Z</time>
      </trkpt>
      <trkpt lat="46.67361" lon="0.41841">
        <ele>111.4</ele>
        <time>2024-09-08T06:24:41Z</time>
      </trkpt>
      <trkpt lat="46.67375" lon="0.41857">
        <ele>111.6</ele>
        <time>2024-09-08T06:24:45Z</time>
      </trkpt>
      <trkpt lat="46.67381" lon="0.41866">
        <ele>111.8</ele>
        <time>2024-09-08T06:24:47Z</time>
      </trkpt>
      <trkpt lat="46.67409" lon="0.41906">
        <ele>111</ele>
        <time>2024-09-08T06:24:56Z</time>
      </trkpt>
      <trkpt lat="46.67416" lon="0.41915">
        <ele>111</ele>
        <time>2024-09-08T06:24:58Z</time>
      </trkpt>
      <trkpt lat="46.67452" lon="0.41968">
        <ele>110.2</ele>
        <time>2024-09-08T06:25:09Z</time>
      </trkpt>
      <trkpt lat="46.67456" lon="0.41973">
        <ele>110</ele>
        <time>2024-09-08T06:25:10Z</time>
      </trkpt>
      <trkpt lat="46.6748" lon="0.42007">
        <ele>109.6</ele>
        <time>2024-09-08T06:25:17Z</time>
      </trkpt>
      <trkpt lat="46.67509" lon="0.42047">
        <ele>108.8</ele>
        <time>2024-09-08T06:25:25Z</time>
      </trkpt>
      <trkpt lat="46.67521" lon="0.42062">
        <ele>108.4</ele>
        <time>2024-09-08T06:25:28Z</time>
      </trkpt>
      <trkpt lat="46.67565" lon="0.42111">
        <ele>108</ele>
        <time>2024-09-08T06:25:38Z</time>
      </trkpt>
      <trkpt lat="46.67598" lon="0.42146">
        <ele>107.6</ele>
        <time>2024-09-08T06:25:45Z</time>
      </trkpt>
      <trkpt lat="46.67621" lon="0.42171">
        <ele>107</ele>
        <time>2024-09-08T06:25:50Z</time>
      </trkpt>
      <trkpt lat="46.67664" lon="0.42217">
        <ele>106.6</ele>
        <time>2024-09-08T06:25:59Z</time>
      </trkpt>
      <trkpt lat="46.677" lon="0.42257">
        <ele>105.6</ele>
        <time>2024-09-08T06:26:07Z</time>
      </trkpt>
      <trkpt lat="46.67704" lon="0.42262">
        <ele>105.4</ele>
        <time>2024-09-08T06:26:08Z</time>
      </trkpt>
      <trkpt lat="46.67732" lon="0.4229">
        <ele>105.2</ele>
        <time>2024-09-08T06:26:14Z</time>
      </trkpt>
      <trkpt lat="46.67771" lon="0.42333">
        <ele>105.2</ele>
        <time>2024-09-08T06:26:23Z</time>
      </trkpt>
      <trkpt lat="46.67805" lon="0.42369">
        <ele>105.2</ele>
        <time>2024-09-08T06:26:31Z</time>
      </trkpt>
      <trkpt lat="46.6781" lon="0.42374">
        <ele>105</ele>
        <time>2024-09-08T06:26:32Z</time>
      </trkpt>
      <trkpt lat="46.6784" lon="0.42406">
        <ele>105.2</ele>
        <time>2024-09-08T06:26:39Z</time>
      </trkpt>
      <trkpt lat="46.67844" lon="0.42411">
        <ele>105.2</ele>
        <time>2024-09-08T06:26:40Z</time>
      </trkpt>
      <trkpt lat="46.67877" lon="0.42448">
        <ele>104.8</ele>
        <time>2024-09-08T06:26:48Z</time>
      </trkpt>
      <trkpt lat="46.67904" lon="0.42478">
        <ele>104.6</ele>
        <time>2024-09-08T06:26:55Z</time>
      </trkpt>
      <trkpt lat="46.6792" lon="0.42495">
        <ele>104.2</ele>
        <time>2024-09-08T06:26:59Z</time>
      </trkpt>
      <trkpt lat="46.67936" lon="0.42513">
        <ele>104</ele>
        <time>2024-09-08T06:27:03Z</time>
      </trkpt>
      <trkpt lat="46.6797" lon="0.42549">
        <ele>103.2</ele>
        <time>2024-09-08T06:27:11Z</time>
      </trkpt>
      <trkpt lat="46.68009" lon="0.42592">
        <ele>102.4</ele>
        <time>2024-09-08T06:27:20Z</time>
      </trkpt>
      <trkpt lat="46.68018" lon="0.42601">
        <ele>102.2</ele>
        <time>2024-09-08T06:27:22Z</time>
      </trkpt>
      <trkpt lat="46.68037" lon="0.42622">
        <ele>101</ele>
        <time>2024-09-08T06:27:26Z</time>
      </trkpt>
      <trkpt lat="46.68052" lon="0.42639">
        <ele>99.8</ele>
        <time>2024-09-08T06:27:29Z</time>
      </trkpt>
      <trkpt lat="46.68062" lon="0.42651">
        <ele>98.8</ele>
        <time>2024-09-08T06:27:31Z</time>
      </trkpt>
      <trkpt lat="46.6809" lon="0.42682">
        <ele>97.8</ele>
        <time>2024-09-08T06:27:36Z</time>
      </trkpt>
      <trkpt lat="46.68096" lon="0.42689">
        <ele>97</ele>
        <time>2024-09-08T06:27:37Z</time>
      </trkpt>
      <trkpt lat="46.68109" lon="0.42703">
        <ele>96</ele>
        <time>2024-09-08T06:27:39Z</time>
      </trkpt>
      <trkpt lat="46.68122" lon="0.42718">
        <ele>94.6</ele>
        <time>2024-09-08T06:27:41Z</time>
      </trkpt>
      <trkpt lat="46.68135" lon="0.42733">
        <ele>93.8</ele>
        <time>2024-09-08T06:27:43Z</time>
      </trkpt>
      <trkpt lat="46.68142" lon="0.4274">
        <ele>93</ele>
        <time>2024-09-08T06:27:44Z</time>
      </trkpt>
      <trkpt lat="46.68155" lon="0.42755">
        <ele>91.6</ele>
        <time>2024-09-08T06:27:46Z</time>
      </trkpt>
      <trkpt lat="46.68174" lon="0.42777">
        <ele>90.2</ele>
        <time>2024-09-08T06:27:49Z</time>
      </trkpt>
      <trkpt lat="46.6819" lon="0.42795">
        <ele>89</ele>
        <time>2024-09-08T06:27:52Z</time>
      </trkpt>
      <trkpt lat="46.68201" lon="0.42803">
        <ele>88.4</ele>
        <time>2024-09-08T06:27:54Z</time>
      </trkpt>
      <trkpt lat="46.68232" lon="0.42832">
        <ele>89.6</ele>
        <time>2024-09-08T06:28:01Z</time>
      </trkpt>
      <trkpt lat="46.6824" lon="0.4284">
        <ele>90.2</ele>
        <time>2024-09-08T06:28:03Z</time>
      </trkpt>
      <trkpt lat="46.6826" lon="0.42862">
        <ele>91.2</ele>
        <time>2024-09-08T06:28:08Z</time>
      </trkpt>
      <trkpt lat="46.68292" lon="0.42897">
        <ele>90.6</ele>
        <time>2024-09-08T06:28:15Z</time>
      </trkpt>
      <trkpt lat="46.68307" lon="0.42915">
        <ele>89.8</ele>
        <time>2024-09-08T06:28:18Z</time>
      </trkpt>
      <trkpt lat="46.68327" lon="0.42938">
        <ele>88.6</ele>
        <time>2024-09-08T06:28:22Z</time>
      </trkpt>
      <trkpt lat="46.68332" lon="0.42944">
        <ele>88.4</ele>
        <time>2024-09-08T06:28:23Z</time>
      </trkpt>
      <trkpt lat="46.68345" lon="0.42959">
        <ele>87.6</ele>
        <time>2024-09-08T06:28:26Z</time>
      </trkpt>
      <trkpt lat="46.68348" lon="0.42964">
        <ele>87.2</ele>
        <time>2024-09-08T06:28:27Z</time>
      </trkpt>
      <trkpt lat="46.6836" lon="0.42979">
        <ele>86.2</ele>
        <time>2024-09-08T06:28:32Z</time>
      </trkpt>
      <trkpt lat="46.68362" lon="0.42981">
        <ele>86.2</ele>
        <time>2024-09-08T06:28:33Z</time>
      </trkpt>
      <trkpt lat="46.68371" lon="0.42987">
        <ele>85.8</ele>
        <time>2024-09-08T06:28:39Z</time>
      </trkpt>
      <trkpt lat="46.68372" lon="0.42988">
        <ele>85.6</ele>
        <time>2024-09-08T06:28:45Z</time>
      </trkpt>
      <trkpt lat="46.68372" lon="0.42988">
        <ele>85.6</ele>
        <time>2024-09-08T06:29:08Z</time>
      </trkpt>
      <trkpt lat="46.68372" lon="0.42987">
        <ele>85.4</ele>
        <time>2024-09-08T06:29:20Z</time>
      </trkpt>
      <trkpt lat="46.68372" lon="0.42987">
        <ele>85.6</ele>
        <time>2024-09-08T06:29:54Z</time>
      </trkpt>
      <trkpt lat="46.68376" lon="0.42993">
        <ele>85.6</ele>
        <time>2024-09-08T06:30:00Z</time>
      </trkpt>
      <trkpt lat="46.68386" lon="0.43003">
        <ele>85.6</ele>
        <time>2024-09-08T06:30:06Z</time>
      </trkpt>
      <trkpt lat="46.68404" lon="0.43023">
        <ele>86.4</ele>
        <time>2024-09-08T06:30:14Z</time>
      </trkpt>
      <trkpt lat="46.68415" lon="0.43035">
        <ele>87.4</ele>
        <time>2024-09-08T06:30:18Z</time>
      </trkpt>
      <trkpt lat="46.68423" lon="0.43044">
        <ele>87.8</ele>
        <time>2024-09-08T06:30:21Z</time>
      </trkpt>
      <trkpt lat="46.68435" lon="0.43057">
        <ele>88.4</ele>
        <time>2024-09-08T06:30:25Z</time>
      </trkpt>
      <trkpt lat="46.68443" lon="0.43066">
        <ele>89</ele>
        <time>2024-09-08T06:30:28Z</time>
      </trkpt>
      <trkpt lat="46.68446" lon="0.43068">
        <ele>89.6</ele>
        <time>2024-09-08T06:30:29Z</time>
      </trkpt>
      <trkpt lat="46.68455" lon="0.43077">
        <ele>90.6</ele>
        <time>2024-09-08T06:30:32Z</time>
      </trkpt>
      <trkpt lat="46.68461" lon="0.43083">
        <ele>91.8</ele>
        <time>2024-09-08T06:30:34Z</time>
      </trkpt>
      <trkpt lat="46.68467" lon="0.43088">
        <ele>92.6</ele>
        <time>2024-09-08T06:30:36Z</time>
      </trkpt>
      <trkpt lat="46.6847" lon="0.4309">
        <ele>93.4</ele>
        <time>2024-09-08T06:30:37Z</time>
      </trkpt>
      <trkpt lat="46.68479" lon="0.43097">
        <ele>94.6</ele>
        <time>2024-09-08T06:30:40Z</time>
      </trkpt>
      <trkpt lat="46.68488" lon="0.43105">
        <ele>95.6</ele>
        <time>2024-09-08T06:30:43Z</time>
      </trkpt>
      <trkpt lat="46.68493" lon="0.43112">
        <ele>96.2</ele>
        <time>2024-09-08T06:30:45Z</time>
      </trkpt>
      <trkpt lat="46.685" lon="0.43119">
        <ele>96.6</ele>
        <time>2024-09-08T06:30:47Z</time>
      </trkpt>
      <trkpt lat="46.68525" lon="0.43149">
        <ele>97.6</ele>
        <time>2024-09-08T06:30:55Z</time>
      </trkpt>
      <trkpt lat="46.68528" lon="0.43153">
        <ele>97.6</ele>
        <time>2024-09-08T06:30:56Z</time>
      </trkpt>
      <trkpt lat="46.68531" lon="0.43157">
        <ele>97.6</ele>
        <time>2024-09-08T06:30:57Z</time>
      </trkpt>
      <trkpt lat="46.68541" lon="0.43168">
        <ele>97.8</ele>
        <time>2024-09-08T06:31:00Z</time>
      </trkpt>
      <trkpt lat="46.68562" lon="0.43198">
        <ele>97.8</ele>
        <time>2024-09-08T06:31:07Z</time>
      </trkpt>
      <trkpt lat="46.68582" lon="0.43224">
        <ele>98.4</ele>
        <time>2024-09-08T06:31:13Z</time>
      </trkpt>
      <trkpt lat="46.68617" lon="0.43262">
        <ele>98.4</ele>
        <time>2024-09-08T06:31:23Z</time>
      </trkpt>
      <trkpt lat="46.68631" lon="0.43276">
        <ele>99</ele>
        <time>2024-09-08T06:31:27Z</time>
      </trkpt>
      <trkpt lat="46.68649" lon="0.43291">
        <ele>99.8</ele>
        <time>2024-09-08T06:31:32Z</time>
      </trkpt>
      <trkpt lat="46.68659" lon="0.433">
        <ele>100</ele>
        <time>2024-09-08T06:31:35Z</time>
      </trkpt>
      <trkpt lat="46.68676" lon="0.43315">
        <ele>100.4</ele>
        <time>2024-09-08T06:31:40Z</time>
      </trkpt>
      <trkpt lat="46.68697" lon="0.43333">
        <ele>101</ele>
        <time>2024-09-08T06:31:46Z</time>
      </trkpt>
      <trkpt lat="46.68703" lon="0.43339">
        <ele>101.2</ele>
        <time>2024-09-08T06:31:48Z</time>
      </trkpt>
      <trkpt lat="46.68713" lon="0.43347">
        <ele>102.4</ele>
        <time>2024-09-08T06:31:51Z</time>
      </trkpt>
      <trkpt lat="46.68719" lon="0.43353">
        <ele>102.6</ele>
        <time>2024-09-08T06:31:53Z</time>
      </trkpt>
      <trkpt lat="46.68728" lon="0.4336">
        <ele>103.4</ele>
        <time>2024-09-08T06:31:56Z</time>
      </trkpt>
      <trkpt lat="46.68738" lon="0.43369">
        <ele>103.8</ele>
        <time>2024-09-08T06:32:00Z</time>
      </trkpt>
      <trkpt lat="46.68758" lon="0.43388">
        <ele>104.4</ele>
        <time>2024-09-08T06:32:08Z</time>
      </trkpt>
      <trkpt lat="46.68761" lon="0.4339">
        <ele>104.4</ele>
        <time>2024-09-08T06:32:09Z</time>
      </trkpt>
      <trkpt lat="46.68774" lon="0.43402">
        <ele>105.4</ele>
        <time>2024-09-08T06:32:14Z</time>
      </trkpt>
      <trkpt lat="46.68782" lon="0.4341">
        <ele>105.6</ele>
        <time>2024-09-08T06:32:17Z</time>
      </trkpt>
      <trkpt lat="46.68808" lon="0.43435">
        <ele>105.8</ele>
        <time>2024-09-08T06:32:27Z</time>
      </trkpt>
      <trkpt lat="46.68822" lon="0.43447">
        <ele>106.6</ele>
        <time>2024-09-08T06:32:32Z</time>
      </trkpt>
      <trkpt lat="46.68834" lon="0.4346">
        <ele>107</ele>
        <time>2024-09-08T06:32:37Z</time>
      </trkpt>
      <trkpt lat="46.68845" lon="0.4347">
        <ele>107.6</ele>
        <time>2024-09-08T06:32:41Z</time>
      </trkpt>
      <trkpt lat="46.68859" lon="0.43483">
        <ele>108.2</ele>
        <time>2024-09-08T06:32:46Z</time>
      </trkpt>
      <trkpt lat="46.68862" lon="0.43486">
        <ele>108.2</ele>
        <time>2024-09-08T06:32:47Z</time>
      </trkpt>
      <trkpt lat="46.68876" lon="0.435">
        <ele>108.6</ele>
        <time>2024-09-08T06:32:52Z</time>
      </trkpt>
      <trkpt lat="46.6889" lon="0.43513">
        <ele>109</ele>
        <time>2024-09-08T06:32:57Z</time>
      </trkpt>
      <trkpt lat="46.68914" lon="0.43536">
        <ele>109.2</ele>
        <time>2024-09-08T06:33:05Z</time>
      </trkpt>
      <trkpt lat="46.68944" lon="0.43564">
        <ele>109.4</ele>
        <time>2024-09-08T06:33:15Z</time>
      </trkpt>
      <trkpt lat="46.6895" lon="0.4357">
        <ele>109.8</ele>
        <time>2024-09-08T06:33:17Z</time>
      </trkpt>
      <trkpt lat="46.68972" lon="0.43592">
        <ele>109.6</ele>
        <time>2024-09-08T06:33:24Z</time>
      </trkpt>
      <trkpt lat="46.68998" lon="0.43619">
        <ele>109.8</ele>
        <time>2024-09-08T06:33:32Z</time>
      </trkpt>
      <trkpt lat="46.69035" lon="0.43656">
        <ele>109.2</ele>
        <time>2024-09-08T06:33:42Z</time>
      </trkpt>
      <trkpt lat="46.69059" lon="0.43679">
        <ele>108.6</ele>
        <time>2024-09-08T06:33:48Z</time>
      </trkpt>
      <trkpt lat="46.69071" lon="0.43692">
        <ele>108.6</ele>
        <time>2024-09-08T06:33:51Z</time>
      </trkpt>
      <trkpt lat="46.6909" lon="0.43714">
        <ele>107.6</ele>
        <time>2024-09-08T06:33:57Z</time>
      </trkpt>
      <trkpt lat="46.69093" lon="0.4372">
        <ele>107.4</ele>
        <time>2024-09-08T06:33:59Z</time>
      </trkpt>
      <trkpt lat="46.69094" lon="0.43724">
        <ele>107.4</ele>
        <time>2024-09-08T06:34:00Z</time>
      </trkpt>
      <trkpt lat="46.69092" lon="0.43731">
        <ele>107.4</ele>
        <time>2024-09-08T06:34:02Z</time>
      </trkpt>
      <trkpt lat="46.6908" lon="0.43759">
        <ele>107</ele>
        <time>2024-09-08T06:34:08Z</time>
      </trkpt>
      <trkpt lat="46.69063" lon="0.43799">
        <ele>107.2</ele>
        <time>2024-09-08T06:34:16Z</time>
      </trkpt>
      <trkpt lat="46.69039" lon="0.43858">
        <ele>108.4</ele>
        <time>2024-09-08T06:34:27Z</time>
      </trkpt>
      <trkpt lat="46.69026" lon="0.43889">
        <ele>108.6</ele>
        <time>2024-09-08T06:34:33Z</time>
      </trkpt>
      <trkpt lat="46.69019" lon="0.43905">
        <ele>109</ele>
        <time>2024-09-08T06:34:36Z</time>
      </trkpt>
      <trkpt lat="46.69011" lon="0.43924">
        <ele>109.8</ele>
        <time>2024-09-08T06:34:40Z</time>
      </trkpt>
      <trkpt lat="46.69002" lon="0.43942">
        <ele>110.2</ele>
        <time>2024-09-08T06:34:44Z</time>
      </trkpt>
      <trkpt lat="46.68998" lon="0.43951">
        <ele>111</ele>
        <time>2024-09-08T06:34:46Z</time>
      </trkpt>
      <trkpt lat="46.68988" lon="0.43975">
        <ele>112.4</ele>
        <time>2024-09-08T06:34:51Z</time>
      </trkpt>
      <trkpt lat="46.68986" lon="0.43979">
        <ele>112.8</ele>
        <time>2024-09-08T06:34:52Z</time>
      </trkpt>
      <trkpt lat="46.6898" lon="0.43993">
        <ele>113.6</ele>
        <time>2024-09-08T06:34:55Z</time>
      </trkpt>
      <trkpt lat="46.68971" lon="0.44014">
        <ele>114.8</ele>
        <time>2024-09-08T06:35:00Z</time>
      </trkpt>
      <trkpt lat="46.68969" lon="0.44018">
        <ele>115.2</ele>
        <time>2024-09-08T06:35:01Z</time>
      </trkpt>
      <trkpt lat="46.68962" lon="0.44034">
        <ele>116</ele>
        <time>2024-09-08T06:35:06Z</time>
      </trkpt>
      <trkpt lat="46.68961" lon="0.44038">
        <ele>116.2</ele>
        <time>2024-09-08T06:35:07Z</time>
      </trkpt>
      <trkpt lat="46.68952" lon="0.44066">
        <ele>116.8</ele>
        <time>2024-09-08T06:35:13Z</time>
      </trkpt>
      <trkpt lat="46.68953" lon="0.44071">
        <ele>116.8</ele>
        <time>2024-09-08T06:35:14Z</time>
      </trkpt>
      <trkpt lat="46.68957" lon="0.44082">
        <ele>117</ele>
        <time>2024-09-08T06:35:17Z</time>
      </trkpt>
      <trkpt lat="46.68957" lon="0.44097">
        <ele>117.2</ele>
        <time>2024-09-08T06:35:20Z</time>
      </trkpt>
      <trkpt lat="46.68957" lon="0.44103">
        <ele>117.2</ele>
        <time>2024-09-08T06:35:21Z</time>
      </trkpt>
      <trkpt lat="46.68962" lon="0.44123">
        <ele>117.2</ele>
        <time>2024-09-08T06:35:25Z</time>
      </trkpt>
      <trkpt lat="46.68976" lon="0.4415">
        <ele>118</ele>
        <time>2024-09-08T06:35:31Z</time>
      </trkpt>
      <trkpt lat="46.68992" lon="0.44176">
        <ele>118</ele>
        <time>2024-09-08T06:35:36Z</time>
      </trkpt>
      <trkpt lat="46.68994" lon="0.44181">
        <ele>118</ele>
        <time>2024-09-08T06:35:37Z</time>
      </trkpt>
      <trkpt lat="46.68999" lon="0.4419">
        <ele>118.2</ele>
        <time>2024-09-08T06:35:39Z</time>
      </trkpt>
      <trkpt lat="46.69008" lon="0.44205">
        <ele>118.4</ele>
        <time>2024-09-08T06:35:42Z</time>
      </trkpt>
      <trkpt lat="46.6902" lon="0.44227">
        <ele>118.8</ele>
        <time>2024-09-08T06:35:47Z</time>
      </trkpt>
      <trkpt lat="46.69034" lon="0.44257">
        <ele>118.4</ele>
        <time>2024-09-08T06:35:53Z</time>
      </trkpt>
      <trkpt lat="46.69052" lon="0.44286">
        <ele>118</ele>
        <time>2024-09-08T06:35:58Z</time>
      </trkpt>
      <trkpt lat="46.69064" lon="0.44306">
        <ele>117</ele>
        <time>2024-09-08T06:36:01Z</time>
      </trkpt>
      <trkpt lat="46.69075" lon="0.44328">
        <ele>116.4</ele>
        <time>2024-09-08T06:36:04Z</time>
      </trkpt>
      <trkpt lat="46.69078" lon="0.44335">
        <ele>116.4</ele>
        <time>2024-09-08T06:36:05Z</time>
      </trkpt>
      <trkpt lat="46.69082" lon="0.44342">
        <ele>116.4</ele>
        <time>2024-09-08T06:36:06Z</time>
      </trkpt>
      <trkpt lat="46.69094" lon="0.44358">
        <ele>116.2</ele>
        <time>2024-09-08T06:36:09Z</time>
      </trkpt>
      <trkpt lat="46.69097" lon="0.44363">
        <ele>116.2</ele>
        <time>2024-09-08T06:36:10Z</time>
      </trkpt>
      <trkpt lat="46.691" lon="0.44368">
        <ele>116</ele>
        <time>2024-09-08T06:36:11Z</time>
      </trkpt>
      <trkpt lat="46.69114" lon="0.44393">
        <ele>115.8</ele>
        <time>2024-09-08T06:36:15Z</time>
      </trkpt>
      <trkpt lat="46.69118" lon="0.444">
        <ele>115.6</ele>
        <time>2024-09-08T06:36:16Z</time>
      </trkpt>
      <trkpt lat="46.69127" lon="0.44413">
        <ele>115.6</ele>
        <time>2024-09-08T06:36:18Z</time>
      </trkpt>
      <trkpt lat="46.69131" lon="0.4442">
        <ele>115.4</ele>
        <time>2024-09-08T06:36:19Z</time>
      </trkpt>
      <trkpt lat="46.69146" lon="0.44444">
        <ele>115.2</ele>
        <time>2024-09-08T06:36:23Z</time>
      </trkpt>
      <trkpt lat="46.6915" lon="0.44451">
        <ele>115.2</ele>
        <time>2024-09-08T06:36:24Z</time>
      </trkpt>
      <trkpt lat="46.69155" lon="0.44459">
        <ele>115</ele>
        <time>2024-09-08T06:36:25Z</time>
      </trkpt>
      <trkpt lat="46.69163" lon="0.44472">
        <ele>114.4</ele>
        <time>2024-09-08T06:36:27Z</time>
      </trkpt>
      <trkpt lat="46.6917" lon="0.44484">
        <ele>113.8</ele>
        <time>2024-09-08T06:36:29Z</time>
      </trkpt>
      <trkpt lat="46.6918" lon="0.44501">
        <ele>112.6</ele>
        <time>2024-09-08T06:36:32Z</time>
      </trkpt>
      <trkpt lat="46.69187" lon="0.44511">
        <ele>111.2</ele>
        <time>2024-09-08T06:36:34Z</time>
      </trkpt>
      <trkpt lat="46.69191" lon="0.44516">
        <ele>110</ele>
        <time>2024-09-08T06:36:35Z</time>
      </trkpt>
      <trkpt lat="46.69195" lon="0.44522">
        <ele>109</ele>
        <time>2024-09-08T06:36:36Z</time>
      </trkpt>
      <trkpt lat="46.692" lon="0.44528">
        <ele>108.6</ele>
        <time>2024-09-08T06:36:37Z</time>
      </trkpt>
      <trkpt lat="46.69213" lon="0.44549">
        <ele>107.4</ele>
        <time>2024-09-08T06:36:40Z</time>
      </trkpt>
      <trkpt lat="46.69218" lon="0.44557">
        <ele>107</ele>
        <time>2024-09-08T06:36:41Z</time>
      </trkpt>
      <trkpt lat="46.69223" lon="0.44565">
        <ele>106.2</ele>
        <time>2024-09-08T06:36:42Z</time>
      </trkpt>
      <trkpt lat="46.69231" lon="0.44579">
        <ele>105.2</ele>
        <time>2024-09-08T06:36:44Z</time>
      </trkpt>
      <trkpt lat="46.69238" lon="0.44592">
        <ele>105</ele>
        <time>2024-09-08T06:36:46Z</time>
      </trkpt>
      <trkpt lat="46.69241" lon="0.44597">
        <ele>105</ele>
        <time>2024-09-08T06:36:47Z</time>
      </trkpt>
      <trkpt lat="46.69247" lon="0.44618">
        <ele>105.2</ele>
        <time>2024-09-08T06:36:51Z</time>
      </trkpt>
      <trkpt lat="46.69247" lon="0.44625">
        <ele>105.2</ele>
        <time>2024-09-08T06:36:53Z</time>
      </trkpt>
      <trkpt lat="46.69246" lon="0.4463">
        <ele>106.6</ele>
        <time>2024-09-08T06:36:55Z</time>
      </trkpt>
      <trkpt lat="46.69246" lon="0.44632">
        <ele>107.4</ele>
        <time>2024-09-08T06:36:56Z</time>
      </trkpt>
      <trkpt lat="46.69245" lon="0.44635">
        <ele>107.6</ele>
        <time>2024-09-08T06:36:57Z</time>
      </trkpt>
      <trkpt lat="46.69242" lon="0.44646">
        <ele>109</ele>
        <time>2024-09-08T06:37:00Z</time>
      </trkpt>
      <trkpt lat="46.69241" lon="0.44655">
        <ele>109.2</ele>
        <time>2024-09-08T06:37:02Z</time>
      </trkpt>
      <trkpt lat="46.69234" lon="0.44666">
        <ele>109.4</ele>
        <time>2024-09-08T06:37:05Z</time>
      </trkpt>
      <trkpt lat="46.69231" lon="0.44668">
        <ele>109.6</ele>
        <time>2024-09-08T06:37:06Z</time>
      </trkpt>
      <trkpt lat="46.69227" lon="0.44675">
        <ele>109.6</ele>
        <time>2024-09-08T06:37:08Z</time>
      </trkpt>
      <trkpt lat="46.69225" lon="0.44684">
        <ele>109.8</ele>
        <time>2024-09-08T06:37:10Z</time>
      </trkpt>
      <trkpt lat="46.69213" lon="0.44697">
        <ele>109.4</ele>
        <time>2024-09-08T06:37:14Z</time>
      </trkpt>
      <trkpt lat="46.69191" lon="0.44711">
        <ele>109.6</ele>
        <time>2024-09-08T06:37:20Z</time>
      </trkpt>
      <trkpt lat="46.69176" lon="0.44729">
        <ele>109.4</ele>
        <time>2024-09-08T06:37:25Z</time>
      </trkpt>
      <trkpt lat="46.69155" lon="0.4475">
        <ele>109</ele>
        <time>2024-09-08T06:37:30Z</time>
      </trkpt>
      <trkpt lat="46.69147" lon="0.44771">
        <ele>108.4</ele>
        <time>2024-09-08T06:37:34Z</time>
      </trkpt>
      <trkpt lat="46.69147" lon="0.44776">
        <ele>108.4</ele>
        <time>2024-09-08T06:37:35Z</time>
      </trkpt>
      <trkpt lat="46.69152" lon="0.44798">
        <ele>108</ele>
        <time>2024-09-08T06:37:39Z</time>
      </trkpt>
      <trkpt lat="46.69157" lon="0.44815">
        <ele>108</ele>
        <time>2024-09-08T06:37:42Z</time>
      </trkpt>
      <trkpt lat="46.69166" lon="0.44844">
        <ele>107.8</ele>
        <time>2024-09-08T06:37:46Z</time>
      </trkpt>
      <trkpt lat="46.69181" lon="0.44889">
        <ele>106.8</ele>
        <time>2024-09-08T06:37:52Z</time>
      </trkpt>
      <trkpt lat="46.69202" lon="0.44932">
        <ele>106</ele>
        <time>2024-09-08T06:37:58Z</time>
      </trkpt>
      <trkpt lat="46.69225" lon="0.44967">
        <ele>105.8</ele>
        <time>2024-09-08T06:38:03Z</time>
      </trkpt>
      <trkpt lat="46.6923" lon="0.44973">
        <ele>105.8</ele>
        <time>2024-09-08T06:38:04Z</time>
      </trkpt>
      <trkpt lat="46.69257" lon="0.45008">
        <ele>104.4</ele>
        <time>2024-09-08T06:38:09Z</time>
      </trkpt>
      <trkpt lat="46.69269" lon="0.45021">
        <ele>103.8</ele>
        <time>2024-09-08T06:38:11Z</time>
      </trkpt>
      <trkpt lat="46.69273" lon="0.45027">
        <ele>103.4</ele>
        <time>2024-09-08T06:38:12Z</time>
      </trkpt>
      <trkpt lat="46.69276" lon="0.4504">
        <ele>102.4</ele>
        <time>2024-09-08T06:38:14Z</time>
      </trkpt>
      <trkpt lat="46.69272" lon="0.45054">
        <ele>102</ele>
        <time>2024-09-08T06:38:16Z</time>
      </trkpt>
      <trkpt lat="46.69269" lon="0.45061">
        <ele>101.8</ele>
        <time>2024-09-08T06:38:17Z</time>
      </trkpt>
      <trkpt lat="46.69249" lon="0.45119">
        <ele>102.6</ele>
        <time>2024-09-08T06:38:25Z</time>
      </trkpt>
      <trkpt lat="46.69224" lon="0.45158">
        <ele>103.6</ele>
        <time>2024-09-08T06:38:32Z</time>
      </trkpt>
      <trkpt lat="46.69209" lon="0.4518">
        <ele>105</ele>
        <time>2024-09-08T06:38:36Z</time>
      </trkpt>
      <trkpt lat="46.69188" lon="0.45209">
        <ele>106</ele>
        <time>2024-09-08T06:38:42Z</time>
      </trkpt>
      <trkpt lat="46.69165" lon="0.45241">
        <ele>106.6</ele>
        <time>2024-09-08T06:38:49Z</time>
      </trkpt>
      <trkpt lat="46.69163" lon="0.45246">
        <ele>106.6</ele>
        <time>2024-09-08T06:38:50Z</time>
      </trkpt>
      <trkpt lat="46.69157" lon="0.45256">
        <ele>106.6</ele>
        <time>2024-09-08T06:38:52Z</time>
      </trkpt>
      <trkpt lat="46.69154" lon="0.45261">
        <ele>106.6</ele>
        <time>2024-09-08T06:38:53Z</time>
      </trkpt>
      <trkpt lat="46.69149" lon="0.45271">
        <ele>107.4</ele>
        <time>2024-09-08T06:38:55Z</time>
      </trkpt>
      <trkpt lat="46.69137" lon="0.45292">
        <ele>108</ele>
        <time>2024-09-08T06:39:00Z</time>
      </trkpt>
      <trkpt lat="46.69119" lon="0.45327">
        <ele>108.2</ele>
        <time>2024-09-08T06:39:08Z</time>
      </trkpt>
      <trkpt lat="46.6911" lon="0.45349">
        <ele>108.6</ele>
        <time>2024-09-08T06:39:12Z</time>
      </trkpt>
      <trkpt lat="46.69101" lon="0.45371">
        <ele>109.6</ele>
        <time>2024-09-08T06:39:16Z</time>
      </trkpt>
      <trkpt lat="46.69098" lon="0.45376">
        <ele>109.6</ele>
        <time>2024-09-08T06:39:17Z</time>
      </trkpt>
      <trkpt lat="46.69079" lon="0.45414">
        <ele>109.4</ele>
        <time>2024-09-08T06:39:24Z</time>
      </trkpt>
      <trkpt lat="46.6907" lon="0.45432">
        <ele>108.6</ele>
        <time>2024-09-08T06:39:27Z</time>
      </trkpt>
      <trkpt lat="46.69061" lon="0.45453">
        <ele>107.2</ele>
        <time>2024-09-08T06:39:30Z</time>
      </trkpt>
      <trkpt lat="46.69051" lon="0.45481">
        <ele>106</ele>
        <time>2024-09-08T06:39:34Z</time>
      </trkpt>
      <trkpt lat="46.69044" lon="0.45497">
        <ele>105.6</ele>
        <time>2024-09-08T06:39:36Z</time>
      </trkpt>
      <trkpt lat="46.69037" lon="0.45516">
        <ele>105</ele>
        <time>2024-09-08T06:39:38Z</time>
      </trkpt>
      <trkpt lat="46.69024" lon="0.45546">
        <ele>103.8</ele>
        <time>2024-09-08T06:39:41Z</time>
      </trkpt>
      <trkpt lat="46.69015" lon="0.45566">
        <ele>102.8</ele>
        <time>2024-09-08T06:39:43Z</time>
      </trkpt>
      <trkpt lat="46.69002" lon="0.45595">
        <ele>101.6</ele>
        <time>2024-09-08T06:39:46Z</time>
      </trkpt>
      <trkpt lat="46.68996" lon="0.45612">
        <ele>101.2</ele>
        <time>2024-09-08T06:39:48Z</time>
      </trkpt>
      <trkpt lat="46.68991" lon="0.4564">
        <ele>100.2</ele>
        <time>2024-09-08T06:39:51Z</time>
      </trkpt>
      <trkpt lat="46.68988" lon="0.4566">
        <ele>98.8</ele>
        <time>2024-09-08T06:39:53Z</time>
      </trkpt>
      <trkpt lat="46.6898" lon="0.45707">
        <ele>97.6</ele>
        <time>2024-09-08T06:39:58Z</time>
      </trkpt>
      <trkpt lat="46.68976" lon="0.45725">
        <ele>97</ele>
        <time>2024-09-08T06:40:00Z</time>
      </trkpt>
      <trkpt lat="46.68965" lon="0.45784">
        <ele>96.8</ele>
        <time>2024-09-08T06:40:07Z</time>
      </trkpt>
      <trkpt lat="46.68963" lon="0.45792">
        <ele>95.8</ele>
        <time>2024-09-08T06:40:08Z</time>
      </trkpt>
      <trkpt lat="46.68959" lon="0.45808">
        <ele>95</ele>
        <time>2024-09-08T06:40:10Z</time>
      </trkpt>
      <trkpt lat="46.68956" lon="0.45816">
        <ele>94.8</ele>
        <time>2024-09-08T06:40:11Z</time>
      </trkpt>
      <trkpt lat="46.68949" lon="0.45833">
        <ele>94.4</ele>
        <time>2024-09-08T06:40:13Z</time>
      </trkpt>
      <trkpt lat="46.68939" lon="0.45862">
        <ele>93</ele>
        <time>2024-09-08T06:40:16Z</time>
      </trkpt>
      <trkpt lat="46.68931" lon="0.45883">
        <ele>92.2</ele>
        <time>2024-09-08T06:40:18Z</time>
      </trkpt>
      <trkpt lat="46.68927" lon="0.45895">
        <ele>91.8</ele>
        <time>2024-09-08T06:40:19Z</time>
      </trkpt>
      <trkpt lat="46.6892" lon="0.45931">
        <ele>90.8</ele>
        <time>2024-09-08T06:40:22Z</time>
      </trkpt>
      <trkpt lat="46.68918" lon="0.45943">
        <ele>90.2</ele>
        <time>2024-09-08T06:40:23Z</time>
      </trkpt>
      <trkpt lat="46.68909" lon="0.45998">
        <ele>89.6</ele>
        <time>2024-09-08T06:40:28Z</time>
      </trkpt>
      <trkpt lat="46.68905" lon="0.46019">
        <ele>89.4</ele>
        <time>2024-09-08T06:40:30Z</time>
      </trkpt>
      <trkpt lat="46.68893" lon="0.46085">
        <ele>89.2</ele>
        <time>2024-09-08T06:40:37Z</time>
      </trkpt>
      <trkpt lat="46.68876" lon="0.46145">
        <ele>88.4</ele>
        <time>2024-09-08T06:40:44Z</time>
      </trkpt>
      <trkpt lat="46.6886" lon="0.46191">
        <ele>87.6</ele>
        <time>2024-09-08T06:40:51Z</time>
      </trkpt>
      <trkpt lat="46.68845" lon="0.46238">
        <ele>88.4</ele>
        <time>2024-09-08T06:40:59Z</time>
      </trkpt>
      <trkpt lat="46.68833" lon="0.46274">
        <ele>88.6</ele>
        <time>2024-09-08T06:41:07Z</time>
      </trkpt>
      <trkpt lat="46.68832" lon="0.46287">
        <ele>88.6</ele>
        <time>2024-09-08T06:41:12Z</time>
      </trkpt>
      <trkpt lat="46.68832" lon="0.46288">
        <ele>88.6</ele>
        <time>2024-09-08T06:41:13Z</time>
      </trkpt>
      <trkpt lat="46.68834" lon="0.46293">
        <ele>88.8</ele>
        <time>2024-09-08T06:41:20Z</time>
      </trkpt>
      <trkpt lat="46.68838" lon="0.46301">
        <ele>89.2</ele>
        <time>2024-09-08T06:41:27Z</time>
      </trkpt>
      <trkpt lat="46.68838" lon="0.463">
        <ele>89.6</ele>
        <time>2024-09-08T06:41:29Z</time>
      </trkpt>
      <trkpt lat="46.68835" lon="0.46295">
        <ele>89.6</ele>
        <time>2024-09-08T06:41:32Z</time>
      </trkpt>
      <trkpt lat="46.68833" lon="0.46296">
        <ele>89.2</ele>
        <time>2024-09-08T06:41:35Z</time>
      </trkpt>
      <trkpt lat="46.68833" lon="0.46298">
        <ele>89.2</ele>
        <time>2024-09-08T06:41:36Z</time>
      </trkpt>
      <trkpt lat="46.68833" lon="0.46305">
        <ele>89</ele>
        <time>2024-09-08T06:41:40Z</time>
      </trkpt>
      <trkpt lat="46.68836" lon="0.46307">
        <ele>89.4</ele>
        <time>2024-09-08T06:41:43Z</time>
      </trkpt>
      <trkpt lat="46.68839" lon="0.46311">
        <ele>90.6</ele>
        <time>2024-09-08T06:41:50Z</time>
      </trkpt>
      <trkpt lat="46.68845" lon="0.46321">
        <ele>91.4</ele>
        <time>2024-09-08T06:41:59Z</time>
      </trkpt>
      <trkpt lat="46.68851" lon="0.46328">
        <ele>91.8</ele>
        <time>2024-09-08T06:42:03Z</time>
      </trkpt>
      <trkpt lat="46.68855" lon="0.46331">
        <ele>92.2</ele>
        <time>2024-09-08T06:42:05Z</time>
      </trkpt>
      <trkpt lat="46.68856" lon="0.46332">
        <ele>92.6</ele>
        <time>2024-09-08T06:42:06Z</time>
      </trkpt>
      <trkpt lat="46.68858" lon="0.46333">
        <ele>92.8</ele>
        <time>2024-09-08T06:42:07Z</time>
      </trkpt>
      <trkpt lat="46.68862" lon="0.46339">
        <ele>93</ele>
        <time>2024-09-08T06:42:10Z</time>
      </trkpt>
      <trkpt lat="46.68873" lon="0.46344">
        <ele>93.6</ele>
        <time>2024-09-08T06:42:15Z</time>
      </trkpt>
      <trkpt lat="46.68874" lon="0.46343">
        <ele>93.6</ele>
        <time>2024-09-08T06:42:16Z</time>
      </trkpt>
      <trkpt lat="46.68878" lon="0.46342">
        <ele>93.8</ele>
        <time>2024-09-08T06:42:18Z</time>
      </trkpt>
      <trkpt lat="46.68882" lon="0.46343">
        <ele>94.2</ele>
        <time>2024-09-08T06:42:20Z</time>
      </trkpt>
      <trkpt lat="46.68886" lon="0.46345">
        <ele>94.4</ele>
        <time>2024-09-08T06:42:22Z</time>
      </trkpt>
      <trkpt lat="46.68889" lon="0.46348">
        <ele>94.6</ele>
        <time>2024-09-08T06:42:24Z</time>
      </trkpt>
      <trkpt lat="46.68894" lon="0.46349">
        <ele>94.6</ele>
        <time>2024-09-08T06:42:26Z</time>
      </trkpt>
      <trkpt lat="46.68899" lon="0.4635">
        <ele>94.8</ele>
        <time>2024-09-08T06:42:28Z</time>
      </trkpt>
      <trkpt lat="46.68901" lon="0.4635">
        <ele>95</ele>
        <time>2024-09-08T06:42:29Z</time>
      </trkpt>
      <trkpt lat="46.68904" lon="0.46352">
        <ele>95.2</ele>
        <time>2024-09-08T06:42:31Z</time>
      </trkpt>
      <trkpt lat="46.68907" lon="0.46354">
        <ele>95.4</ele>
        <time>2024-09-08T06:42:33Z</time>
      </trkpt>
      <trkpt lat="46.68912" lon="0.46354">
        <ele>95.6</ele>
        <time>2024-09-08T06:42:36Z</time>
      </trkpt>
      <trkpt lat="46.68916" lon="0.46356">
        <ele>95.6</ele>
        <time>2024-09-08T06:42:38Z</time>
      </trkpt>
      <trkpt lat="46.6892" lon="0.4636">
        <ele>95.8</ele>
        <time>2024-09-08T06:42:40Z</time>
      </trkpt>
      <trkpt lat="46.68923" lon="0.46363">
        <ele>95.8</ele>
        <time>2024-09-08T06:42:42Z</time>
      </trkpt>
      <trkpt lat="46.68928" lon="0.46364">
        <ele>96</ele>
        <time>2024-09-08T06:42:44Z</time>
      </trkpt>
      <trkpt lat="46.6894" lon="0.46371">
        <ele>96.8</ele>
        <time>2024-09-08T06:42:49Z</time>
      </trkpt>
      <trkpt lat="46.68945" lon="0.46376">
        <ele>97.2</ele>
        <time>2024-09-08T06:42:51Z</time>
      </trkpt>
      <trkpt lat="46.6895" lon="0.46378">
        <ele>97.8</ele>
        <time>2024-09-08T06:42:53Z</time>
      </trkpt>
      <trkpt lat="46.68954" lon="0.4638">
        <ele>98.2</ele>
        <time>2024-09-08T06:42:55Z</time>
      </trkpt>
      <trkpt lat="46.68965" lon="0.46388">
        <ele>98.4</ele>
        <time>2024-09-08T06:43:00Z</time>
      </trkpt>
      <trkpt lat="46.68969" lon="0.46391">
        <ele>99.4</ele>
        <time>2024-09-08T06:43:02Z</time>
      </trkpt>
      <trkpt lat="46.68974" lon="0.46393">
        <ele>99.8</ele>
        <time>2024-09-08T06:43:04Z</time>
      </trkpt>
      <trkpt lat="46.68977" lon="0.46395">
        <ele>99.8</ele>
        <time>2024-09-08T06:43:05Z</time>
      </trkpt>
      <trkpt lat="46.68987" lon="0.46407">
        <ele>99.8</ele>
        <time>2024-09-08T06:43:09Z</time>
      </trkpt>
      <trkpt lat="46.68996" lon="0.46412">
        <ele>100</ele>
        <time>2024-09-08T06:43:13Z</time>
      </trkpt>
      <trkpt lat="46.69" lon="0.46415">
        <ele>100.4</ele>
        <time>2024-09-08T06:43:15Z</time>
      </trkpt>
      <trkpt lat="46.69004" lon="0.46416">
        <ele>100.8</ele>
        <time>2024-09-08T06:43:17Z</time>
      </trkpt>
      <trkpt lat="46.69009" lon="0.46421">
        <ele>101.2</ele>
        <time>2024-09-08T06:43:20Z</time>
      </trkpt>
      <trkpt lat="46.69016" lon="0.46424">
        <ele>101.4</ele>
        <time>2024-09-08T06:43:23Z</time>
      </trkpt>
      <trkpt lat="46.69022" lon="0.46428">
        <ele>101.8</ele>
        <time>2024-09-08T06:43:25Z</time>
      </trkpt>
      <trkpt lat="46.69024" lon="0.4643">
        <ele>101.8</ele>
        <time>2024-09-08T06:43:26Z</time>
      </trkpt>
      <trkpt lat="46.69027" lon="0.46434">
        <ele>102.2</ele>
        <time>2024-09-08T06:43:28Z</time>
      </trkpt>
      <trkpt lat="46.69031" lon="0.46435">
        <ele>102.4</ele>
        <time>2024-09-08T06:43:30Z</time>
      </trkpt>
      <trkpt lat="46.69033" lon="0.46437">
        <ele>102.6</ele>
        <time>2024-09-08T06:43:31Z</time>
      </trkpt>
      <trkpt lat="46.69046" lon="0.46449">
        <ele>103.4</ele>
        <time>2024-09-08T06:43:37Z</time>
      </trkpt>
      <trkpt lat="46.69049" lon="0.46452">
        <ele>103.8</ele>
        <time>2024-09-08T06:43:39Z</time>
      </trkpt>
      <trkpt lat="46.69055" lon="0.46454">
        <ele>104.2</ele>
        <time>2024-09-08T06:43:42Z</time>
      </trkpt>
      <trkpt lat="46.69064" lon="0.46466">
        <ele>104.6</ele>
        <time>2024-09-08T06:43:47Z</time>
      </trkpt>
      <trkpt lat="46.69065" lon="0.46467">
        <ele>105</ele>
        <time>2024-09-08T06:43:48Z</time>
      </trkpt>
      <trkpt lat="46.69072" lon="0.46471">
        <ele>105.6</ele>
        <time>2024-09-08T06:43:52Z</time>
      </trkpt>
      <trkpt lat="46.69074" lon="0.46471">
        <ele>105.6</ele>
        <time>2024-09-08T06:43:53Z</time>
      </trkpt>
      <trkpt lat="46.69077" lon="0.4647">
        <ele>106</ele>
        <time>2024-09-08T06:43:55Z</time>
      </trkpt>
      <trkpt lat="46.69078" lon="0.46471">
        <ele>106</ele>
        <time>2024-09-08T06:43:56Z</time>
      </trkpt>
      <trkpt lat="46.69083" lon="0.46478">
        <ele>106.8</ele>
        <time>2024-09-08T06:44:00Z</time>
      </trkpt>
      <trkpt lat="46.69087" lon="0.46482">
        <ele>107.2</ele>
        <time>2024-09-08T06:44:02Z</time>
      </trkpt>
      <trkpt lat="46.6909" lon="0.46486">
        <ele>107.6</ele>
        <time>2024-09-08T06:44:04Z</time>
      </trkpt>
      <trkpt lat="46.69092" lon="0.46488">
        <ele>107.8</ele>
        <time>2024-09-08T06:44:06Z</time>
      </trkpt>
      <trkpt lat="46.69094" lon="0.4649">
        <ele>108</ele>
        <time>2024-09-08T06:44:08Z</time>
      </trkpt>
      <trkpt lat="46.691" lon="0.46492">
        <ele>108.2</ele>
        <time>2024-09-08T06:44:12Z</time>
      </trkpt>
      <trkpt lat="46.69101" lon="0.46494">
        <ele>108.4</ele>
        <time>2024-09-08T06:44:13Z</time>
      </trkpt>
      <trkpt lat="46.69103" lon="0.46499">
        <ele>108.6</ele>
        <time>2024-09-08T06:44:15Z</time>
      </trkpt>
      <trkpt lat="46.69109" lon="0.46507">
        <ele>109.4</ele>
        <time>2024-09-08T06:44:18Z</time>
      </trkpt>
      <trkpt lat="46.6911" lon="0.46508">
        <ele>109.8</ele>
        <time>2024-09-08T06:44:20Z</time>
      </trkpt>
      <trkpt lat="46.69115" lon="0.46515">
        <ele>110.4</ele>
        <time>2024-09-08T06:44:27Z</time>
      </trkpt>
      <trkpt lat="46.69116" lon="0.46516">
        <ele>110.4</ele>
        <time>2024-09-08T06:44:28Z</time>
      </trkpt>
      <trkpt lat="46.69127" lon="0.4653">
        <ele>110.6</ele>
        <time>2024-09-08T06:44:36Z</time>
      </trkpt>
      <trkpt lat="46.69131" lon="0.46535">
        <ele>111.4</ele>
        <time>2024-09-08T06:44:39Z</time>
      </trkpt>
      <trkpt lat="46.69136" lon="0.46539">
        <ele>111.8</ele>
        <time>2024-09-08T06:44:42Z</time>
      </trkpt>
      <trkpt lat="46.69144" lon="0.46548">
        <ele>112.2</ele>
        <time>2024-09-08T06:44:47Z</time>
      </trkpt>
      <trkpt lat="46.69145" lon="0.46549">
        <ele>112.4</ele>
        <time>2024-09-08T06:44:48Z</time>
      </trkpt>
      <trkpt lat="46.69154" lon="0.46556">
        <ele>113</ele>
        <time>2024-09-08T06:44:53Z</time>
      </trkpt>
      <trkpt lat="46.69156" lon="0.46559">
        <ele>113.4</ele>
        <time>2024-09-08T06:44:55Z</time>
      </trkpt>
      <trkpt lat="46.69157" lon="0.4656">
        <ele>113.6</ele>
        <time>2024-09-08T06:44:56Z</time>
      </trkpt>
      <trkpt lat="46.69162" lon="0.46564">
        <ele>113.8</ele>
        <time>2024-09-08T06:44:59Z</time>
      </trkpt>
      <trkpt lat="46.69164" lon="0.46564">
        <ele>113.8</ele>
        <time>2024-09-08T06:45:00Z</time>
      </trkpt>
      <trkpt lat="46.69175" lon="0.46565">
        <ele>113.6</ele>
        <time>2024-09-08T06:45:04Z</time>
      </trkpt>
      <trkpt lat="46.69189" lon="0.46574">
        <ele>114.2</ele>
        <time>2024-09-08T06:45:10Z</time>
      </trkpt>
      <trkpt lat="46.69192" lon="0.46576">
        <ele>114.8</ele>
        <time>2024-09-08T06:45:11Z</time>
      </trkpt>
      <trkpt lat="46.69201" lon="0.46582">
        <ele>116</ele>
        <time>2024-09-08T06:45:15Z</time>
      </trkpt>
      <trkpt lat="46.69212" lon="0.46589">
        <ele>117</ele>
        <time>2024-09-08T06:45:20Z</time>
      </trkpt>
      <trkpt lat="46.69215" lon="0.4659">
        <ele>117</ele>
        <time>2024-09-08T06:45:21Z</time>
      </trkpt>
      <trkpt lat="46.69223" lon="0.46595">
        <ele>118.2</ele>
        <time>2024-09-08T06:45:25Z</time>
      </trkpt>
      <trkpt lat="46.69229" lon="0.46599">
        <ele>119</ele>
        <time>2024-09-08T06:45:28Z</time>
      </trkpt>
      <trkpt lat="46.69231" lon="0.466">
        <ele>119.2</ele>
        <time>2024-09-08T06:45:29Z</time>
      </trkpt>
      <trkpt lat="46.69238" lon="0.46606">
        <ele>120.4</ele>
        <time>2024-09-08T06:45:33Z</time>
      </trkpt>
      <trkpt lat="46.69246" lon="0.46612">
        <ele>121.2</ele>
        <time>2024-09-08T06:45:37Z</time>
      </trkpt>
      <trkpt lat="46.69248" lon="0.46613">
        <ele>121.4</ele>
        <time>2024-09-08T06:45:38Z</time>
      </trkpt>
      <trkpt lat="46.69258" lon="0.46618">
        <ele>122.6</ele>
        <time>2024-09-08T06:45:43Z</time>
      </trkpt>
      <trkpt lat="46.6926" lon="0.46619">
        <ele>122.8</ele>
        <time>2024-09-08T06:45:44Z</time>
      </trkpt>
      <trkpt lat="46.69265" lon="0.46623">
        <ele>123.8</ele>
        <time>2024-09-08T06:45:47Z</time>
      </trkpt>
      <trkpt lat="46.69271" lon="0.46625">
        <ele>125</ele>
        <time>2024-09-08T06:45:50Z</time>
      </trkpt>
      <trkpt lat="46.69274" lon="0.46626">
        <ele>125.2</ele>
        <time>2024-09-08T06:45:52Z</time>
      </trkpt>
      <trkpt lat="46.69279" lon="0.46629">
        <ele>126</ele>
        <time>2024-09-08T06:45:55Z</time>
      </trkpt>
      <trkpt lat="46.69292" lon="0.46635">
        <ele>127</ele>
        <time>2024-09-08T06:46:01Z</time>
      </trkpt>
      <trkpt lat="46.69295" lon="0.46637">
        <ele>127</ele>
        <time>2024-09-08T06:46:02Z</time>
      </trkpt>
      <trkpt lat="46.69305" lon="0.46641">
        <ele>127</ele>
        <time>2024-09-08T06:46:08Z</time>
      </trkpt>
      <trkpt lat="46.69311" lon="0.46645">
        <ele>127</ele>
        <time>2024-09-08T06:46:23Z</time>
      </trkpt>
      <trkpt lat="46.69319" lon="0.46641">
        <ele>127</ele>
        <time>2024-09-08T06:46:29Z</time>
      </trkpt>
      <trkpt lat="46.69326" lon="0.46624">
        <ele>126.8</ele>
        <time>2024-09-08T06:46:38Z</time>
      </trkpt>
      <trkpt lat="46.69331" lon="0.4661">
        <ele>126.8</ele>
        <time>2024-09-08T06:46:44Z</time>
      </trkpt>
      <trkpt lat="46.69332" lon="0.46608">
        <ele>126.6</ele>
        <time>2024-09-08T06:46:45Z</time>
      </trkpt>
      <trkpt lat="46.69339" lon="0.46589">
        <ele>126.2</ele>
        <time>2024-09-08T06:46:52Z</time>
      </trkpt>
      <trkpt lat="46.69339" lon="0.46585">
        <ele>126</ele>
        <time>2024-09-08T06:46:53Z</time>
      </trkpt>
      <trkpt lat="46.69341" lon="0.46571">
        <ele>125.4</ele>
        <time>2024-09-08T06:46:57Z</time>
      </trkpt>
      <trkpt lat="46.69343" lon="0.46563">
        <ele>124.8</ele>
        <time>2024-09-08T06:47:00Z</time>
      </trkpt>
      <trkpt lat="46.69345" lon="0.46558">
        <ele>124.6</ele>
        <time>2024-09-08T06:47:02Z</time>
      </trkpt>
      <trkpt lat="46.69347" lon="0.46553">
        <ele>124.2</ele>
        <time>2024-09-08T06:47:04Z</time>
      </trkpt>
      <trkpt lat="46.69353" lon="0.46543">
        <ele>124.2</ele>
        <time>2024-09-08T06:47:08Z</time>
      </trkpt>
      <trkpt lat="46.69354" lon="0.46542">
        <ele>124.2</ele>
        <time>2024-09-08T06:47:09Z</time>
      </trkpt>
      <trkpt lat="46.69358" lon="0.46528">
        <ele>124.2</ele>
        <time>2024-09-08T06:47:13Z</time>
      </trkpt>
      <trkpt lat="46.69362" lon="0.46506">
        <ele>123.6</ele>
        <time>2024-09-08T06:47:18Z</time>
      </trkpt>
      <trkpt lat="46.69368" lon="0.46492">
        <ele>122.6</ele>
        <time>2024-09-08T06:47:22Z</time>
      </trkpt>
      <trkpt lat="46.69369" lon="0.46487">
        <ele>122.2</ele>
        <time>2024-09-08T06:47:23Z</time>
      </trkpt>
      <trkpt lat="46.69377" lon="0.46463">
        <ele>121.6</ele>
        <time>2024-09-08T06:47:28Z</time>
      </trkpt>
      <trkpt lat="46.69379" lon="0.46452">
        <ele>121.4</ele>
        <time>2024-09-08T06:47:30Z</time>
      </trkpt>
      <trkpt lat="46.69382" lon="0.46439">
        <ele>120.4</ele>
        <time>2024-09-08T06:47:33Z</time>
      </trkpt>
      <trkpt lat="46.69383" lon="0.46436">
        <ele>120.2</ele>
        <time>2024-09-08T06:47:34Z</time>
      </trkpt>
      <trkpt lat="46.69388" lon="0.46423">
        <ele>119.2</ele>
        <time>2024-09-08T06:47:38Z</time>
      </trkpt>
      <trkpt lat="46.69391" lon="0.46416">
        <ele>119</ele>
        <time>2024-09-08T06:47:40Z</time>
      </trkpt>
      <trkpt lat="46.69396" lon="0.46405">
        <ele>118.8</ele>
        <time>2024-09-08T06:47:44Z</time>
      </trkpt>
      <trkpt lat="46.69408" lon="0.464">
        <ele>118.8</ele>
        <time>2024-09-08T06:47:50Z</time>
      </trkpt>
      <trkpt lat="46.69423" lon="0.46389">
        <ele>118.6</ele>
        <time>2024-09-08T06:47:57Z</time>
      </trkpt>
      <trkpt lat="46.69431" lon="0.4639">
        <ele>118.2</ele>
        <time>2024-09-08T06:48:00Z</time>
      </trkpt>
      <trkpt lat="46.69433" lon="0.46391">
        <ele>118.2</ele>
        <time>2024-09-08T06:48:01Z</time>
      </trkpt>
      <trkpt lat="46.69437" lon="0.4639">
        <ele>118.4</ele>
        <time>2024-09-08T06:48:03Z</time>
      </trkpt>
      <trkpt lat="46.69447" lon="0.4639">
        <ele>118.6</ele>
        <time>2024-09-08T06:48:07Z</time>
      </trkpt>
      <trkpt lat="46.69459" lon="0.46385">
        <ele>118.4</ele>
        <time>2024-09-08T06:48:11Z</time>
      </trkpt>
      <trkpt lat="46.69462" lon="0.46382">
        <ele>118.4</ele>
        <time>2024-09-08T06:48:12Z</time>
      </trkpt>
      <trkpt lat="46.69466" lon="0.46377">
        <ele>118</ele>
        <time>2024-09-08T06:48:14Z</time>
      </trkpt>
      <trkpt lat="46.69468" lon="0.46375">
        <ele>117.8</ele>
        <time>2024-09-08T06:48:15Z</time>
      </trkpt>
      <trkpt lat="46.69474" lon="0.46373">
        <ele>117.2</ele>
        <time>2024-09-08T06:48:17Z</time>
      </trkpt>
      <trkpt lat="46.69481" lon="0.46366">
        <ele>116.6</ele>
        <time>2024-09-08T06:48:20Z</time>
      </trkpt>
      <trkpt lat="46.69493" lon="0.46355">
        <ele>116</ele>
        <time>2024-09-08T06:48:24Z</time>
      </trkpt>
      <trkpt lat="46.69507" lon="0.46351">
        <ele>116</ele>
        <time>2024-09-08T06:48:29Z</time>
      </trkpt>
      <trkpt lat="46.69513" lon="0.46357">
        <ele>116.4</ele>
        <time>2024-09-08T06:48:34Z</time>
      </trkpt>
      <trkpt lat="46.69517" lon="0.46357">
        <ele>117</ele>
        <time>2024-09-08T06:48:36Z</time>
      </trkpt>
      <trkpt lat="46.69523" lon="0.46356">
        <ele>117.2</ele>
        <time>2024-09-08T06:48:38Z</time>
      </trkpt>
      <trkpt lat="46.69533" lon="0.46346">
        <ele>115.8</ele>
        <time>2024-09-08T06:48:43Z</time>
      </trkpt>
      <trkpt lat="46.69536" lon="0.46345">
        <ele>115.4</ele>
        <time>2024-09-08T06:48:44Z</time>
      </trkpt>
      <trkpt lat="46.69542" lon="0.4634">
        <ele>115</ele>
        <time>2024-09-08T06:48:46Z</time>
      </trkpt>
      <trkpt lat="46.69546" lon="0.46335">
        <ele>114.8</ele>
        <time>2024-09-08T06:48:48Z</time>
      </trkpt>
      <trkpt lat="46.69546" lon="0.46331">
        <ele>114.2</ele>
        <time>2024-09-08T06:48:50Z</time>
      </trkpt>
      <trkpt lat="46.69544" lon="0.46327">
        <ele>113.8</ele>
        <time>2024-09-08T06:48:53Z</time>
      </trkpt>
      <trkpt lat="46.69536" lon="0.46323">
        <ele>113.6</ele>
        <time>2024-09-08T06:49:01Z</time>
      </trkpt>
      <trkpt lat="46.69531" lon="0.46322">
        <ele>113.8</ele>
        <time>2024-09-08T06:49:07Z</time>
      </trkpt>
      <trkpt lat="46.6953" lon="0.4632">
        <ele>113.8</ele>
        <time>2024-09-08T06:49:08Z</time>
      </trkpt>
      <trkpt lat="46.6953" lon="0.46317">
        <ele>113.6</ele>
        <time>2024-09-08T06:49:10Z</time>
      </trkpt>
      <trkpt lat="46.69531" lon="0.4631">
        <ele>113.2</ele>
        <time>2024-09-08T06:49:13Z</time>
      </trkpt>
      <trkpt lat="46.69531" lon="0.46307">
        <ele>113</ele>
        <time>2024-09-08T06:49:14Z</time>
      </trkpt>
      <trkpt lat="46.69532" lon="0.46301">
        <ele>112.2</ele>
        <time>2024-09-08T06:49:16Z</time>
      </trkpt>
      <trkpt lat="46.69531" lon="0.46296">
        <ele>111.2</ele>
        <time>2024-09-08T06:49:18Z</time>
      </trkpt>
      <trkpt lat="46.69531" lon="0.46294">
        <ele>110.6</ele>
        <time>2024-09-08T06:49:19Z</time>
      </trkpt>
      <trkpt lat="46.6953" lon="0.4629">
        <ele>110.4</ele>
        <time>2024-09-08T06:49:20Z</time>
      </trkpt>
      <trkpt lat="46.69531" lon="0.46285">
        <ele>110</ele>
        <time>2024-09-08T06:49:23Z</time>
      </trkpt>
      <trkpt lat="46.69535" lon="0.46286">
        <ele>109.4</ele>
        <time>2024-09-08T06:49:29Z</time>
      </trkpt>
      <trkpt lat="46.69538" lon="0.4629">
        <ele>109</ele>
        <time>2024-09-08T06:49:32Z</time>
      </trkpt>
      <trkpt lat="46.69545" lon="0.46296">
        <ele>108.6</ele>
        <time>2024-09-08T06:49:38Z</time>
      </trkpt>
      <trkpt lat="46.69558" lon="0.46295">
        <ele>108.4</ele>
        <time>2024-09-08T06:49:46Z</time>
      </trkpt>
      <trkpt lat="46.6956" lon="0.46295">
        <ele>108.6</ele>
        <time>2024-09-08T06:49:47Z</time>
      </trkpt>
      <trkpt lat="46.69569" lon="0.46292">
        <ele>109.6</ele>
        <time>2024-09-08T06:49:56Z</time>
      </trkpt>
      <trkpt lat="46.69574" lon="0.46293">
        <ele>109.6</ele>
        <time>2024-09-08T06:50:10Z</time>
      </trkpt>
      <trkpt lat="46.69582" lon="0.46298">
        <ele>109.6</ele>
        <time>2024-09-08T06:50:23Z</time>
      </trkpt>
      <trkpt lat="46.69587" lon="0.46311">
        <ele>110</ele>
        <time>2024-09-08T06:50:29Z</time>
      </trkpt>
      <trkpt lat="46.69587" lon="0.46314">
        <ele>110.4</ele>
        <time>2024-09-08T06:50:30Z</time>
      </trkpt>
      <trkpt lat="46.69587" lon="0.46317">
        <ele>111.2</ele>
        <time>2024-09-08T06:50:32Z</time>
      </trkpt>
      <trkpt lat="46.69587" lon="0.46322">
        <ele>111.8</ele>
        <time>2024-09-08T06:50:35Z</time>
      </trkpt>
      <trkpt lat="46.69587" lon="0.46332">
        <ele>112.6</ele>
        <time>2024-09-08T06:50:40Z</time>
      </trkpt>
      <trkpt lat="46.69587" lon="0.46336">
        <ele>113.6</ele>
        <time>2024-09-08T06:50:42Z</time>
      </trkpt>
      <trkpt lat="46.69587" lon="0.46341">
        <ele>114.4</ele>
        <time>2024-09-08T06:50:44Z</time>
      </trkpt>
      <trkpt lat="46.69588" lon="0.46345">
        <ele>114.8</ele>
        <time>2024-09-08T06:50:46Z</time>
      </trkpt>
      <trkpt lat="46.69589" lon="0.46346">
        <ele>114.8</ele>
        <time>2024-09-08T06:50:47Z</time>
      </trkpt>
      <trkpt lat="46.69591" lon="0.46349">
        <ele>115</ele>
        <time>2024-09-08T06:50:49Z</time>
      </trkpt>
      <trkpt lat="46.69596" lon="0.46352">
        <ele>115.2</ele>
        <time>2024-09-08T06:50:53Z</time>
      </trkpt>
      <trkpt lat="46.69599" lon="0.46354">
        <ele>115.4</ele>
        <time>2024-09-08T06:50:55Z</time>
      </trkpt>
      <trkpt lat="46.69604" lon="0.46356">
        <ele>115</ele>
        <time>2024-09-08T06:50:58Z</time>
      </trkpt>
      <trkpt lat="46.69608" lon="0.46357">
        <ele>114.6</ele>
        <time>2024-09-08T06:51:00Z</time>
      </trkpt>
      <trkpt lat="46.69611" lon="0.46355">
        <ele>114.4</ele>
        <time>2024-09-08T06:51:02Z</time>
      </trkpt>
      <trkpt lat="46.69613" lon="0.46354">
        <ele>114.4</ele>
        <time>2024-09-08T06:51:03Z</time>
      </trkpt>
      <trkpt lat="46.69617" lon="0.46351">
        <ele>114</ele>
        <time>2024-09-08T06:51:06Z</time>
      </trkpt>
      <trkpt lat="46.69619" lon="0.46353">
        <ele>113.6</ele>
        <time>2024-09-08T06:51:08Z</time>
      </trkpt>
      <trkpt lat="46.69628" lon="0.46364">
        <ele>113.4</ele>
        <time>2024-09-08T06:51:14Z</time>
      </trkpt>
      <trkpt lat="46.69631" lon="0.46366">
        <ele>113.6</ele>
        <time>2024-09-08T06:51:15Z</time>
      </trkpt>
      <trkpt lat="46.69634" lon="0.4637">
        <ele>113.8</ele>
        <time>2024-09-08T06:51:17Z</time>
      </trkpt>
      <trkpt lat="46.69636" lon="0.46372">
        <ele>114</ele>
        <time>2024-09-08T06:51:19Z</time>
      </trkpt>
      <trkpt lat="46.69637" lon="0.46372">
        <ele>114</ele>
        <time>2024-09-08T06:51:20Z</time>
      </trkpt>
      <trkpt lat="46.69641" lon="0.46374">
        <ele>114</ele>
        <time>2024-09-08T06:51:22Z</time>
      </trkpt>
      <trkpt lat="46.69643" lon="0.46378">
        <ele>114</ele>
        <time>2024-09-08T06:51:24Z</time>
      </trkpt>
      <trkpt lat="46.69644" lon="0.46379">
        <ele>114</ele>
        <time>2024-09-08T06:51:25Z</time>
      </trkpt>
      <trkpt lat="46.69648" lon="0.46379">
        <ele>113.6</ele>
        <time>2024-09-08T06:51:29Z</time>
      </trkpt>
      <trkpt lat="46.69657" lon="0.46385">
        <ele>113.6</ele>
        <time>2024-09-08T06:51:36Z</time>
      </trkpt>
      <trkpt lat="46.6967" lon="0.46387">
        <ele>112.4</ele>
        <time>2024-09-08T06:51:43Z</time>
      </trkpt>
      <trkpt lat="46.69675" lon="0.46391">
        <ele>112</ele>
        <time>2024-09-08T06:51:46Z</time>
      </trkpt>
      <trkpt lat="46.69686" lon="0.46394">
        <ele>111.4</ele>
        <time>2024-09-08T06:51:54Z</time>
      </trkpt>
      <trkpt lat="46.6969" lon="0.46394">
        <ele>111.2</ele>
        <time>2024-09-08T06:51:55Z</time>
      </trkpt>
      <trkpt lat="46.697" lon="0.46389">
        <ele>110.4</ele>
        <time>2024-09-08T06:52:04Z</time>
      </trkpt>
      <trkpt lat="46.69702" lon="0.46389">
        <ele>110</ele>
        <time>2024-09-08T06:52:05Z</time>
      </trkpt>
      <trkpt lat="46.69705" lon="0.4639">
        <ele>109.2</ele>
        <time>2024-09-08T06:52:08Z</time>
      </trkpt>
      <trkpt lat="46.69711" lon="0.46391">
        <ele>108.8</ele>
        <time>2024-09-08T06:52:15Z</time>
      </trkpt>
      <trkpt lat="46.69723" lon="0.46397">
        <ele>109</ele>
        <time>2024-09-08T06:52:26Z</time>
      </trkpt>
      <trkpt lat="46.69732" lon="0.464">
        <ele>109</ele>
        <time>2024-09-08T06:52:36Z</time>
      </trkpt>
      <trkpt lat="46.69736" lon="0.46401">
        <ele>108.8</ele>
        <time>2024-09-08T06:52:45Z</time>
      </trkpt>
      <trkpt lat="46.69743" lon="0.46403">
        <ele>108.6</ele>
        <time>2024-09-08T06:53:06Z</time>
      </trkpt>
      <trkpt lat="46.69748" lon="0.46405">
        <ele>108.4</ele>
        <time>2024-09-08T06:53:19Z</time>
      </trkpt>
      <trkpt lat="46.69751" lon="0.46406">
        <ele>108.2</ele>
        <time>2024-09-08T06:53:23Z</time>
      </trkpt>
      <trkpt lat="46.69754" lon="0.46407">
        <ele>108.2</ele>
        <time>2024-09-08T06:53:31Z</time>
      </trkpt>
      <trkpt lat="46.69757" lon="0.46409">
        <ele>107.8</ele>
        <time>2024-09-08T06:53:45Z</time>
      </trkpt>
      <trkpt lat="46.69763" lon="0.46414">
        <ele>107.8</ele>
        <time>2024-09-08T06:53:58Z</time>
      </trkpt>
      <trkpt lat="46.69768" lon="0.46419">
        <ele>107.4</ele>
        <time>2024-09-08T06:54:10Z</time>
      </trkpt>
      <trkpt lat="46.69769" lon="0.46419">
        <ele>107.2</ele>
        <time>2024-09-08T06:54:13Z</time>
      </trkpt>
      <trkpt lat="46.69769" lon="0.46424">
        <ele>107.8</ele>
        <time>2024-09-08T06:54:24Z</time>
      </trkpt>
      <trkpt lat="46.69768" lon="0.46425">
        <ele>108.4</ele>
        <time>2024-09-08T06:54:29Z</time>
      </trkpt>
      <trkpt lat="46.69768" lon="0.46427">
        <ele>109.4</ele>
        <time>2024-09-08T06:54:36Z</time>
      </trkpt>
      <trkpt lat="46.69776" lon="0.46432">
        <ele>108.8</ele>
        <time>2024-09-08T06:54:44Z</time>
      </trkpt>
      <trkpt lat="46.69791" lon="0.4644">
        <ele>109</ele>
        <time>2024-09-08T06:54:53Z</time>
      </trkpt>
      <trkpt lat="46.69803" lon="0.46447">
        <ele>108.2</ele>
        <time>2024-09-08T06:54:59Z</time>
      </trkpt>
      <trkpt lat="46.69806" lon="0.46449">
        <ele>107.8</ele>
        <time>2024-09-08T06:55:01Z</time>
      </trkpt>
      <trkpt lat="46.69814" lon="0.46452">
        <ele>107.2</ele>
        <time>2024-09-08T06:55:05Z</time>
      </trkpt>
      <trkpt lat="46.69818" lon="0.46452">
        <ele>107</ele>
        <time>2024-09-08T06:55:11Z</time>
      </trkpt>
      <trkpt lat="46.69823" lon="0.46458">
        <ele>106.8</ele>
        <time>2024-09-08T06:55:23Z</time>
      </trkpt>
      <trkpt lat="46.69831" lon="0.46467">
        <ele>105.8</ele>
        <time>2024-09-08T06:55:26Z</time>
      </trkpt>
      <trkpt lat="46.69832" lon="0.46471">
        <ele>105.8</ele>
        <time>2024-09-08T06:55:27Z</time>
      </trkpt>
      <trkpt lat="46.69838" lon="0.46485">
        <ele>105.4</ele>
        <time>2024-09-08T06:55:32Z</time>
      </trkpt>
      <trkpt lat="46.69842" lon="0.46502">
        <ele>105.2</ele>
        <time>2024-09-08T06:55:37Z</time>
      </trkpt>
      <trkpt lat="46.69846" lon="0.46513">
        <ele>104.8</ele>
        <time>2024-09-08T06:55:41Z</time>
      </trkpt>
      <trkpt lat="46.69849" lon="0.4652">
        <ele>104.6</ele>
        <time>2024-09-08T06:55:44Z</time>
      </trkpt>
      <trkpt lat="46.69861" lon="0.46536">
        <ele>104.6</ele>
        <time>2024-09-08T06:55:51Z</time>
      </trkpt>
      <trkpt lat="46.69867" lon="0.46553">
        <ele>104.4</ele>
        <time>2024-09-08T06:55:57Z</time>
      </trkpt>
      <trkpt lat="46.69868" lon="0.46555">
        <ele>104.4</ele>
        <time>2024-09-08T06:55:58Z</time>
      </trkpt>
      <trkpt lat="46.69869" lon="0.46558">
        <ele>104.2</ele>
        <time>2024-09-08T06:55:59Z</time>
      </trkpt>
      <trkpt lat="46.6987" lon="0.46562">
        <ele>104</ele>
        <time>2024-09-08T06:56:01Z</time>
      </trkpt>
      <trkpt lat="46.69872" lon="0.46565">
        <ele>104</ele>
        <time>2024-09-08T06:56:03Z</time>
      </trkpt>
      <trkpt lat="46.69883" lon="0.46581">
        <ele>104</ele>
        <time>2024-09-08T06:56:08Z</time>
      </trkpt>
      <trkpt lat="46.69884" lon="0.46583">
        <ele>103.2</ele>
        <time>2024-09-08T06:56:09Z</time>
      </trkpt>
      <trkpt lat="46.69887" lon="0.46591">
        <ele>102</ele>
        <time>2024-09-08T06:56:11Z</time>
      </trkpt>
      <trkpt lat="46.69891" lon="0.46597">
        <ele>101.6</ele>
        <time>2024-09-08T06:56:13Z</time>
      </trkpt>
      <trkpt lat="46.69898" lon="0.46607">
        <ele>100.8</ele>
        <time>2024-09-08T06:56:16Z</time>
      </trkpt>
      <trkpt lat="46.69899" lon="0.46611">
        <ele>100.8</ele>
        <time>2024-09-08T06:56:17Z</time>
      </trkpt>
      <trkpt lat="46.699" lon="0.46619">
        <ele>100.6</ele>
        <time>2024-09-08T06:56:19Z</time>
      </trkpt>
      <trkpt lat="46.69901" lon="0.46624">
        <ele>100.8</ele>
        <time>2024-09-08T06:56:21Z</time>
      </trkpt>
      <trkpt lat="46.69904" lon="0.46634">
        <ele>100.4</ele>
        <time>2024-09-08T06:56:24Z</time>
      </trkpt>
      <trkpt lat="46.69909" lon="0.46647">
        <ele>99.8</ele>
        <time>2024-09-08T06:56:28Z</time>
      </trkpt>
      <trkpt lat="46.69914" lon="0.46663">
        <ele>98.6</ele>
        <time>2024-09-08T06:56:32Z</time>
      </trkpt>
      <trkpt lat="46.69914" lon="0.46675">
        <ele>98.2</ele>
        <time>2024-09-08T06:56:36Z</time>
      </trkpt>
      <trkpt lat="46.69915" lon="0.46677">
        <ele>98.2</ele>
        <time>2024-09-08T06:56:37Z</time>
      </trkpt>
      <trkpt lat="46.69915" lon="0.46689">
        <ele>98.2</ele>
        <time>2024-09-08T06:56:42Z</time>
      </trkpt>
      <trkpt lat="46.69918" lon="0.46707">
        <ele>97.6</ele>
        <time>2024-09-08T06:56:47Z</time>
      </trkpt>
      <trkpt lat="46.69918" lon="0.46709">
        <ele>97.4</ele>
        <time>2024-09-08T06:56:48Z</time>
      </trkpt>
      <trkpt lat="46.69918" lon="0.46724">
        <ele>97.2</ele>
        <time>2024-09-08T06:56:51Z</time>
      </trkpt>
      <trkpt lat="46.69919" lon="0.46734">
        <ele>97</ele>
        <time>2024-09-08T06:56:53Z</time>
      </trkpt>
      <trkpt lat="46.6992" lon="0.46751">
        <ele>96.4</ele>
        <time>2024-09-08T06:56:57Z</time>
      </trkpt>
      <trkpt lat="46.69921" lon="0.46753">
        <ele>96.2</ele>
        <time>2024-09-08T06:56:58Z</time>
      </trkpt>
      <trkpt lat="46.69923" lon="0.46764">
        <ele>95.2</ele>
        <time>2024-09-08T06:57:02Z</time>
      </trkpt>
      <trkpt lat="46.69925" lon="0.4677">
        <ele>95</ele>
        <time>2024-09-08T06:57:04Z</time>
      </trkpt>
      <trkpt lat="46.69931" lon="0.46786">
        <ele>94.6</ele>
        <time>2024-09-08T06:57:09Z</time>
      </trkpt>
      <trkpt lat="46.69937" lon="0.46798">
        <ele>94.2</ele>
        <time>2024-09-08T06:57:14Z</time>
      </trkpt>
      <trkpt lat="46.69938" lon="0.46801">
        <ele>94</ele>
        <time>2024-09-08T06:57:15Z</time>
      </trkpt>
      <trkpt lat="46.69941" lon="0.46806">
        <ele>93.8</ele>
        <time>2024-09-08T06:57:17Z</time>
      </trkpt>
      <trkpt lat="46.69944" lon="0.46809">
        <ele>93.4</ele>
        <time>2024-09-08T06:57:19Z</time>
      </trkpt>
      <trkpt lat="46.69947" lon="0.46813">
        <ele>93.2</ele>
        <time>2024-09-08T06:57:21Z</time>
      </trkpt>
      <trkpt lat="46.6995" lon="0.46816">
        <ele>93.2</ele>
        <time>2024-09-08T06:57:22Z</time>
      </trkpt>
      <trkpt lat="46.69951" lon="0.46821">
        <ele>93</ele>
        <time>2024-09-08T06:57:24Z</time>
      </trkpt>
      <trkpt lat="46.69951" lon="0.46823">
        <ele>93</ele>
        <time>2024-09-08T06:57:25Z</time>
      </trkpt>
      <trkpt lat="46.69953" lon="0.46829">
        <ele>92.4</ele>
        <time>2024-09-08T06:57:28Z</time>
      </trkpt>
      <trkpt lat="46.69955" lon="0.46834">
        <ele>92.2</ele>
        <time>2024-09-08T06:57:31Z</time>
      </trkpt>
      <trkpt lat="46.69957" lon="0.4684">
        <ele>92</ele>
        <time>2024-09-08T06:57:34Z</time>
      </trkpt>
      <trkpt lat="46.6996" lon="0.4686">
        <ele>91.8</ele>
        <time>2024-09-08T06:57:42Z</time>
      </trkpt>
      <trkpt lat="46.69964" lon="0.46865">
        <ele>91.6</ele>
        <time>2024-09-08T06:57:45Z</time>
      </trkpt>
      <trkpt lat="46.69967" lon="0.46868">
        <ele>91.4</ele>
        <time>2024-09-08T06:57:47Z</time>
      </trkpt>
      <trkpt lat="46.69969" lon="0.46874">
        <ele>91</ele>
        <time>2024-09-08T06:57:51Z</time>
      </trkpt>
      <trkpt lat="46.69969" lon="0.46876">
        <ele>91</ele>
        <time>2024-09-08T06:57:52Z</time>
      </trkpt>
      <trkpt lat="46.6997" lon="0.46881">
        <ele>91.2</ele>
        <time>2024-09-08T06:57:54Z</time>
      </trkpt>
      <trkpt lat="46.69972" lon="0.46887">
        <ele>91.4</ele>
        <time>2024-09-08T06:57:58Z</time>
      </trkpt>
      <trkpt lat="46.69979" lon="0.46898">
        <ele>90.8</ele>
        <time>2024-09-08T06:58:03Z</time>
      </trkpt>
      <trkpt lat="46.6998" lon="0.46901">
        <ele>90.8</ele>
        <time>2024-09-08T06:58:04Z</time>
      </trkpt>
      <trkpt lat="46.6998" lon="0.46913">
        <ele>90.8</ele>
        <time>2024-09-08T06:58:09Z</time>
      </trkpt>
      <trkpt lat="46.69981" lon="0.46922">
        <ele>90.8</ele>
        <time>2024-09-08T06:58:12Z</time>
      </trkpt>
      <trkpt lat="46.69981" lon="0.4693">
        <ele>90.8</ele>
        <time>2024-09-08T06:58:14Z</time>
      </trkpt>
      <trkpt lat="46.69981" lon="0.46934">
        <ele>91</ele>
        <time>2024-09-08T06:58:15Z</time>
      </trkpt>
      <trkpt lat="46.6998" lon="0.46941">
        <ele>91.2</ele>
        <time>2024-09-08T06:58:18Z</time>
      </trkpt>
      <trkpt lat="46.69976" lon="0.46956">
        <ele>91.6</ele>
        <time>2024-09-08T06:58:23Z</time>
      </trkpt>
      <trkpt lat="46.6998" lon="0.46976">
        <ele>92</ele>
        <time>2024-09-08T06:58:29Z</time>
      </trkpt>
      <trkpt lat="46.69982" lon="0.46985">
        <ele>92.2</ele>
        <time>2024-09-08T06:58:32Z</time>
      </trkpt>
      <trkpt lat="46.69984" lon="0.47001">
        <ele>92.6</ele>
        <time>2024-09-08T06:58:37Z</time>
      </trkpt>
      <trkpt lat="46.69988" lon="0.47023">
        <ele>92.8</ele>
        <time>2024-09-08T06:58:43Z</time>
      </trkpt>
      <trkpt lat="46.69997" lon="0.47056">
        <ele>92.2</ele>
        <time>2024-09-08T06:58:52Z</time>
      </trkpt>
      <trkpt lat="46.70004" lon="0.47085">
        <ele>91.8</ele>
        <time>2024-09-08T06:58:59Z</time>
      </trkpt>
      <trkpt lat="46.70009" lon="0.47113">
        <ele>91.6</ele>
        <time>2024-09-08T06:59:06Z</time>
      </trkpt>
      <trkpt lat="46.7001" lon="0.47116">
        <ele>91.6</ele>
        <time>2024-09-08T06:59:07Z</time>
      </trkpt>
      <trkpt lat="46.70015" lon="0.4713">
        <ele>91.2</ele>
        <time>2024-09-08T06:59:11Z</time>
      </trkpt>
      <trkpt lat="46.70016" lon="0.47135">
        <ele>91</ele>
        <time>2024-09-08T06:59:12Z</time>
      </trkpt>
      <trkpt lat="46.70018" lon="0.47141">
        <ele>91</ele>
        <time>2024-09-08T06:59:14Z</time>
      </trkpt>
      <trkpt lat="46.70021" lon="0.47147">
        <ele>90.8</ele>
        <time>2024-09-08T06:59:16Z</time>
      </trkpt>
      <trkpt lat="46.7003" lon="0.47166">
        <ele>90.4</ele>
        <time>2024-09-08T06:59:22Z</time>
      </trkpt>
      <trkpt lat="46.70032" lon="0.47175">
        <ele>90.4</ele>
        <time>2024-09-08T06:59:25Z</time>
      </trkpt>
      <trkpt lat="46.70032" lon="0.47181">
        <ele>90.4</ele>
        <time>2024-09-08T06:59:27Z</time>
      </trkpt>
      <trkpt lat="46.70032" lon="0.47183">
        <ele>90.4</ele>
        <time>2024-09-08T06:59:28Z</time>
      </trkpt>
      <trkpt lat="46.70034" lon="0.47193">
        <ele>91</ele>
        <time>2024-09-08T06:59:32Z</time>
      </trkpt>
      <trkpt lat="46.70036" lon="0.47205">
        <ele>90.8</ele>
        <time>2024-09-08T06:59:36Z</time>
      </trkpt>
      <trkpt lat="46.70039" lon="0.47213">
        <ele>90.4</ele>
        <time>2024-09-08T06:59:39Z</time>
      </trkpt>
      <trkpt lat="46.70045" lon="0.47233">
        <ele>90.4</ele>
        <time>2024-09-08T06:59:46Z</time>
      </trkpt>
      <trkpt lat="46.7005" lon="0.47251">
        <ele>90</ele>
        <time>2024-09-08T06:59:50Z</time>
      </trkpt>
      <trkpt lat="46.70052" lon="0.47255">
        <ele>89.8</ele>
        <time>2024-09-08T06:59:51Z</time>
      </trkpt>
      <trkpt lat="46.7006" lon="0.47282">
        <ele>89.2</ele>
        <time>2024-09-08T06:59:56Z</time>
      </trkpt>
      <trkpt lat="46.70063" lon="0.47288">
        <ele>88.8</ele>
        <time>2024-09-08T06:59:58Z</time>
      </trkpt>
      <trkpt lat="46.70067" lon="0.47299">
        <ele>88.4</ele>
        <time>2024-09-08T07:00:01Z</time>
      </trkpt>
      <trkpt lat="46.70071" lon="0.47321">
        <ele>88.4</ele>
        <time>2024-09-08T07:00:05Z</time>
      </trkpt>
      <trkpt lat="46.70076" lon="0.47349">
        <ele>87.6</ele>
        <time>2024-09-08T07:00:10Z</time>
      </trkpt>
      <trkpt lat="46.70077" lon="0.47352">
        <ele>87.8</ele>
        <time>2024-09-08T07:00:11Z</time>
      </trkpt>
      <trkpt lat="46.70079" lon="0.4736">
        <ele>87.6</ele>
        <time>2024-09-08T07:00:13Z</time>
      </trkpt>
      <trkpt lat="46.70081" lon="0.47372">
        <ele>88</ele>
        <time>2024-09-08T07:00:16Z</time>
      </trkpt>
      <trkpt lat="46.70087" lon="0.47396">
        <ele>87.4</ele>
        <time>2024-09-08T07:00:22Z</time>
      </trkpt>
      <trkpt lat="46.70087" lon="0.47415">
        <ele>87</ele>
        <time>2024-09-08T07:00:28Z</time>
      </trkpt>
      <trkpt lat="46.70091" lon="0.47437">
        <ele>86.8</ele>
        <time>2024-09-08T07:00:35Z</time>
      </trkpt>
      <trkpt lat="46.70097" lon="0.47468">
        <ele>87</ele>
        <time>2024-09-08T07:00:42Z</time>
      </trkpt>
      <trkpt lat="46.70104" lon="0.47502">
        <ele>87.2</ele>
        <time>2024-09-08T07:00:49Z</time>
      </trkpt>
      <trkpt lat="46.70113" lon="0.47528">
        <ele>87.4</ele>
        <time>2024-09-08T07:00:55Z</time>
      </trkpt>
      <trkpt lat="46.70125" lon="0.47562">
        <ele>87.2</ele>
        <time>2024-09-08T07:01:01Z</time>
      </trkpt>
      <trkpt lat="46.70141" lon="0.47591">
        <ele>86.4</ele>
        <time>2024-09-08T07:01:05Z</time>
      </trkpt>
      <trkpt lat="46.70149" lon="0.4762">
        <ele>86</ele>
        <time>2024-09-08T07:01:10Z</time>
      </trkpt>
      <trkpt lat="46.70165" lon="0.47646">
        <ele>86</ele>
        <time>2024-09-08T07:01:16Z</time>
      </trkpt>
      <trkpt lat="46.70171" lon="0.47667">
        <ele>85.8</ele>
        <time>2024-09-08T07:01:21Z</time>
      </trkpt>
      <trkpt lat="46.7017" lon="0.47683">
        <ele>85.8</ele>
        <time>2024-09-08T07:01:27Z</time>
      </trkpt>
      <trkpt lat="46.70177" lon="0.47699">
        <ele>85.6</ele>
        <time>2024-09-08T07:01:33Z</time>
      </trkpt>
      <trkpt lat="46.70181" lon="0.4771">
        <ele>85.6</ele>
        <time>2024-09-08T07:01:36Z</time>
      </trkpt>
      <trkpt lat="46.70184" lon="0.47723">
        <ele>85.8</ele>
        <time>2024-09-08T07:01:39Z</time>
      </trkpt>
      <trkpt lat="46.70189" lon="0.47743">
        <ele>86</ele>
        <time>2024-09-08T07:01:44Z</time>
      </trkpt>
      <trkpt lat="46.70189" lon="0.47746">
        <ele>86</ele>
        <time>2024-09-08T07:01:45Z</time>
      </trkpt>
      <trkpt lat="46.70191" lon="0.47755">
        <ele>85.8</ele>
        <time>2024-09-08T07:01:48Z</time>
      </trkpt>
      <trkpt lat="46.70194" lon="0.47765">
        <ele>85.6</ele>
        <time>2024-09-08T07:01:51Z</time>
      </trkpt>
      <trkpt lat="46.70198" lon="0.47772">
        <ele>85.6</ele>
        <time>2024-09-08T07:01:54Z</time>
      </trkpt>
      <trkpt lat="46.70201" lon="0.47778">
        <ele>85.4</ele>
        <time>2024-09-08T07:01:56Z</time>
      </trkpt>
      <trkpt lat="46.70208" lon="0.47791">
        <ele>85</ele>
        <time>2024-09-08T07:02:00Z</time>
      </trkpt>
      <trkpt lat="46.70217" lon="0.4781">
        <ele>85</ele>
        <time>2024-09-08T07:02:07Z</time>
      </trkpt>
      <trkpt lat="46.70225" lon="0.47832">
        <ele>84.8</ele>
        <time>2024-09-08T07:02:14Z</time>
      </trkpt>
      <trkpt lat="46.7023" lon="0.47859">
        <ele>85.4</ele>
        <time>2024-09-08T07:02:21Z</time>
      </trkpt>
      <trkpt lat="46.70229" lon="0.47872">
        <ele>85.4</ele>
        <time>2024-09-08T07:02:25Z</time>
      </trkpt>
      <trkpt lat="46.70232" lon="0.47879">
        <ele>85.4</ele>
        <time>2024-09-08T07:02:27Z</time>
      </trkpt>
      <trkpt lat="46.70237" lon="0.47897">
        <ele>85</ele>
        <time>2024-09-08T07:02:32Z</time>
      </trkpt>
      <trkpt lat="46.7024" lon="0.47908">
        <ele>85</ele>
        <time>2024-09-08T07:02:34Z</time>
      </trkpt>
      <trkpt lat="46.70243" lon="0.47938">
        <ele>85.6</ele>
        <time>2024-09-08T07:02:41Z</time>
      </trkpt>
      <trkpt lat="46.70243" lon="0.47965">
        <ele>86.4</ele>
        <time>2024-09-08T07:02:47Z</time>
      </trkpt>
      <trkpt lat="46.70242" lon="0.47968">
        <ele>86.4</ele>
        <time>2024-09-08T07:02:48Z</time>
      </trkpt>
      <trkpt lat="46.70244" lon="0.47982">
        <ele>86.6</ele>
        <time>2024-09-08T07:02:52Z</time>
      </trkpt>
      <trkpt lat="46.70247" lon="0.48005">
        <ele>86.6</ele>
        <time>2024-09-08T07:02:57Z</time>
      </trkpt>
      <trkpt lat="46.70245" lon="0.48014">
        <ele>86.6</ele>
        <time>2024-09-08T07:02:59Z</time>
      </trkpt>
      <trkpt lat="46.70241" lon="0.4803">
        <ele>87.4</ele>
        <time>2024-09-08T07:03:02Z</time>
      </trkpt>
      <trkpt lat="46.70239" lon="0.48038">
        <ele>88</ele>
        <time>2024-09-08T07:03:04Z</time>
      </trkpt>
      <trkpt lat="46.70239" lon="0.48047">
        <ele>88.4</ele>
        <time>2024-09-08T07:03:07Z</time>
      </trkpt>
      <trkpt lat="46.70236" lon="0.48062">
        <ele>88.6</ele>
        <time>2024-09-08T07:03:13Z</time>
      </trkpt>
      <trkpt lat="46.70234" lon="0.48072">
        <ele>88.8</ele>
        <time>2024-09-08T07:03:18Z</time>
      </trkpt>
      <trkpt lat="46.70233" lon="0.48075">
        <ele>89</ele>
        <time>2024-09-08T07:03:20Z</time>
      </trkpt>
      <trkpt lat="46.70232" lon="0.4809">
        <ele>89.4</ele>
        <time>2024-09-08T07:03:26Z</time>
      </trkpt>
      <trkpt lat="46.70232" lon="0.48092">
        <ele>89.6</ele>
        <time>2024-09-08T07:03:27Z</time>
      </trkpt>
      <trkpt lat="46.70229" lon="0.48106">
        <ele>90.6</ele>
        <time>2024-09-08T07:03:34Z</time>
      </trkpt>
      <trkpt lat="46.70228" lon="0.48107">
        <ele>90.8</ele>
        <time>2024-09-08T07:03:35Z</time>
      </trkpt>
      <trkpt lat="46.70223" lon="0.48119">
        <ele>91.8</ele>
        <time>2024-09-08T07:03:41Z</time>
      </trkpt>
      <trkpt lat="46.7022" lon="0.48125">
        <ele>92.4</ele>
        <time>2024-09-08T07:03:44Z</time>
      </trkpt>
      <trkpt lat="46.70213" lon="0.48138">
        <ele>92.4</ele>
        <time>2024-09-08T07:03:51Z</time>
      </trkpt>
      <trkpt lat="46.70209" lon="0.48146">
        <ele>92</ele>
        <time>2024-09-08T07:03:55Z</time>
      </trkpt>
      <trkpt lat="46.70194" lon="0.48171">
        <ele>92.8</ele>
        <time>2024-09-08T07:04:09Z</time>
      </trkpt>
      <trkpt lat="46.70192" lon="0.48172">
        <ele>93</ele>
        <time>2024-09-08T07:04:10Z</time>
      </trkpt>
      <trkpt lat="46.70187" lon="0.48184">
        <ele>94</ele>
        <time>2024-09-08T07:04:16Z</time>
      </trkpt>
      <trkpt lat="46.70182" lon="0.48192">
        <ele>94.4</ele>
        <time>2024-09-08T07:04:22Z</time>
      </trkpt>
      <trkpt lat="46.70177" lon="0.48202">
        <ele>95</ele>
        <time>2024-09-08T07:04:34Z</time>
      </trkpt>
      <trkpt lat="46.70177" lon="0.48203">
        <ele>95</ele>
        <time>2024-09-08T07:04:35Z</time>
      </trkpt>
      <trkpt lat="46.70174" lon="0.48207">
        <ele>95.6</ele>
        <time>2024-09-08T07:04:47Z</time>
      </trkpt>
      <trkpt lat="46.70169" lon="0.48211">
        <ele>96.2</ele>
        <time>2024-09-08T07:04:52Z</time>
      </trkpt>
      <trkpt lat="46.70163" lon="0.48221">
        <ele>97.4</ele>
        <time>2024-09-08T07:05:00Z</time>
      </trkpt>
      <trkpt lat="46.70157" lon="0.48234">
        <ele>98.6</ele>
        <time>2024-09-08T07:05:09Z</time>
      </trkpt>
      <trkpt lat="46.70155" lon="0.48238">
        <ele>99</ele>
        <time>2024-09-08T07:05:11Z</time>
      </trkpt>
      <trkpt lat="46.70151" lon="0.48247">
        <ele>99.6</ele>
        <time>2024-09-08T07:05:15Z</time>
      </trkpt>
      <trkpt lat="46.70144" lon="0.48264">
        <ele>100.8</ele>
        <time>2024-09-08T07:05:21Z</time>
      </trkpt>
      <trkpt lat="46.70138" lon="0.48269">
        <ele>102</ele>
        <time>2024-09-08T07:05:25Z</time>
      </trkpt>
      <trkpt lat="46.70134" lon="0.48274">
        <ele>103.2</ele>
        <time>2024-09-08T07:05:28Z</time>
      </trkpt>
      <trkpt lat="46.70133" lon="0.48276">
        <ele>103.6</ele>
        <time>2024-09-08T07:05:29Z</time>
      </trkpt>
      <trkpt lat="46.70131" lon="0.48281">
        <ele>104.4</ele>
        <time>2024-09-08T07:05:31Z</time>
      </trkpt>
      <trkpt lat="46.70125" lon="0.48291">
        <ele>105.6</ele>
        <time>2024-09-08T07:05:35Z</time>
      </trkpt>
      <trkpt lat="46.70121" lon="0.48294">
        <ele>105.8</ele>
        <time>2024-09-08T07:05:37Z</time>
      </trkpt>
      <trkpt lat="46.70114" lon="0.48304">
        <ele>106.6</ele>
        <time>2024-09-08T07:05:42Z</time>
      </trkpt>
      <trkpt lat="46.70113" lon="0.48306">
        <ele>106.8</ele>
        <time>2024-09-08T07:05:43Z</time>
      </trkpt>
      <trkpt lat="46.70112" lon="0.48314">
        <ele>107.6</ele>
        <time>2024-09-08T07:05:47Z</time>
      </trkpt>
      <trkpt lat="46.70108" lon="0.48323">
        <ele>108.2</ele>
        <time>2024-09-08T07:05:50Z</time>
      </trkpt>
      <trkpt lat="46.70104" lon="0.48328">
        <ele>108.6</ele>
        <time>2024-09-08T07:05:53Z</time>
      </trkpt>
      <trkpt lat="46.70102" lon="0.48334">
        <ele>109.6</ele>
        <time>2024-09-08T07:05:56Z</time>
      </trkpt>
      <trkpt lat="46.70101" lon="0.48336">
        <ele>109.8</ele>
        <time>2024-09-08T07:05:57Z</time>
      </trkpt>
      <trkpt lat="46.70094" lon="0.48345">
        <ele>110.6</ele>
        <time>2024-09-08T07:06:02Z</time>
      </trkpt>
      <trkpt lat="46.70093" lon="0.48348">
        <ele>110.8</ele>
        <time>2024-09-08T07:06:03Z</time>
      </trkpt>
      <trkpt lat="46.7009" lon="0.48359">
        <ele>112</ele>
        <time>2024-09-08T07:06:10Z</time>
      </trkpt>
      <trkpt lat="46.7009" lon="0.48361">
        <ele>112.2</ele>
        <time>2024-09-08T07:06:11Z</time>
      </trkpt>
      <trkpt lat="46.70088" lon="0.48366">
        <ele>113.2</ele>
        <time>2024-09-08T07:06:14Z</time>
      </trkpt>
      <trkpt lat="46.70081" lon="0.48381">
        <ele>114.4</ele>
        <time>2024-09-08T07:06:22Z</time>
      </trkpt>
      <trkpt lat="46.70079" lon="0.48387">
        <ele>114.8</ele>
        <time>2024-09-08T07:06:24Z</time>
      </trkpt>
      <trkpt lat="46.70076" lon="0.48394">
        <ele>115.4</ele>
        <time>2024-09-08T07:06:26Z</time>
      </trkpt>
      <trkpt lat="46.70071" lon="0.48408">
        <ele>116.6</ele>
        <time>2024-09-08T07:06:31Z</time>
      </trkpt>
      <trkpt lat="46.70071" lon="0.48411">
        <ele>116.8</ele>
        <time>2024-09-08T07:06:32Z</time>
      </trkpt>
      <trkpt lat="46.70068" lon="0.48425">
        <ele>117.6</ele>
        <time>2024-09-08T07:06:37Z</time>
      </trkpt>
      <trkpt lat="46.70067" lon="0.48429">
        <ele>117.8</ele>
        <time>2024-09-08T07:06:38Z</time>
      </trkpt>
      <trkpt lat="46.70066" lon="0.48431">
        <ele>117.8</ele>
        <time>2024-09-08T07:06:39Z</time>
      </trkpt>
      <trkpt lat="46.70061" lon="0.48442">
        <ele>118.6</ele>
        <time>2024-09-08T07:06:43Z</time>
      </trkpt>
      <trkpt lat="46.70058" lon="0.48453">
        <ele>119.6</ele>
        <time>2024-09-08T07:06:47Z</time>
      </trkpt>
      <trkpt lat="46.70057" lon="0.48455">
        <ele>119.8</ele>
        <time>2024-09-08T07:06:48Z</time>
      </trkpt>
      <trkpt lat="46.70054" lon="0.48465">
        <ele>120.6</ele>
        <time>2024-09-08T07:06:52Z</time>
      </trkpt>
      <trkpt lat="46.70054" lon="0.4847">
        <ele>120.6</ele>
        <time>2024-09-08T07:06:53Z</time>
      </trkpt>
      <trkpt lat="46.70053" lon="0.4848">
        <ele>120.8</ele>
        <time>2024-09-08T07:06:56Z</time>
      </trkpt>
      <trkpt lat="46.70049" lon="0.48486">
        <ele>121</ele>
        <time>2024-09-08T07:06:58Z</time>
      </trkpt>
      <trkpt lat="46.70048" lon="0.48487">
        <ele>121</ele>
        <time>2024-09-08T07:06:59Z</time>
      </trkpt>
      <trkpt lat="46.70042" lon="0.48503">
        <ele>121.8</ele>
        <time>2024-09-08T07:07:05Z</time>
      </trkpt>
      <trkpt lat="46.7004" lon="0.48506">
        <ele>122</ele>
        <time>2024-09-08T07:07:06Z</time>
      </trkpt>
      <trkpt lat="46.70034" lon="0.48523">
        <ele>122.6</ele>
        <time>2024-09-08T07:07:11Z</time>
      </trkpt>
      <trkpt lat="46.70032" lon="0.4853">
        <ele>122.8</ele>
        <time>2024-09-08T07:07:13Z</time>
      </trkpt>
      <trkpt lat="46.70029" lon="0.48535">
        <ele>123</ele>
        <time>2024-09-08T07:07:15Z</time>
      </trkpt>
      <trkpt lat="46.70027" lon="0.48537">
        <ele>123</ele>
        <time>2024-09-08T07:07:16Z</time>
      </trkpt>
      <trkpt lat="46.7002" lon="0.48557">
        <ele>123.2</ele>
        <time>2024-09-08T07:07:22Z</time>
      </trkpt>
      <trkpt lat="46.70019" lon="0.48559">
        <ele>123.4</ele>
        <time>2024-09-08T07:07:23Z</time>
      </trkpt>
      <trkpt lat="46.7001" lon="0.48569">
        <ele>123.8</ele>
        <time>2024-09-08T07:07:27Z</time>
      </trkpt>
      <trkpt lat="46.70006" lon="0.48575">
        <ele>124</ele>
        <time>2024-09-08T07:07:29Z</time>
      </trkpt>
      <trkpt lat="46.69999" lon="0.48587">
        <ele>124.8</ele>
        <time>2024-09-08T07:07:33Z</time>
      </trkpt>
      <trkpt lat="46.69997" lon="0.48589">
        <ele>125</ele>
        <time>2024-09-08T07:07:34Z</time>
      </trkpt>
      <trkpt lat="46.69991" lon="0.48601">
        <ele>125.8</ele>
        <time>2024-09-08T07:07:39Z</time>
      </trkpt>
      <trkpt lat="46.6999" lon="0.48604">
        <ele>126</ele>
        <time>2024-09-08T07:07:41Z</time>
      </trkpt>
      <trkpt lat="46.69982" lon="0.4862">
        <ele>126.4</ele>
        <time>2024-09-08T07:07:47Z</time>
      </trkpt>
      <trkpt lat="46.69974" lon="0.48634">
        <ele>126.8</ele>
        <time>2024-09-08T07:07:52Z</time>
      </trkpt>
      <trkpt lat="46.69972" lon="0.48635">
        <ele>126.8</ele>
        <time>2024-09-08T07:07:53Z</time>
      </trkpt>
      <trkpt lat="46.6997" lon="0.48635">
        <ele>127</ele>
        <time>2024-09-08T07:07:54Z</time>
      </trkpt>
      <trkpt lat="46.69966" lon="0.48635">
        <ele>127.2</ele>
        <time>2024-09-08T07:07:56Z</time>
      </trkpt>
      <trkpt lat="46.69961" lon="0.48639">
        <ele>128</ele>
        <time>2024-09-08T07:07:58Z</time>
      </trkpt>
      <trkpt lat="46.69956" lon="0.4865">
        <ele>128.2</ele>
        <time>2024-09-08T07:08:02Z</time>
      </trkpt>
      <trkpt lat="46.69955" lon="0.48655">
        <ele>128.2</ele>
        <time>2024-09-08T07:08:05Z</time>
      </trkpt>
      <trkpt lat="46.69955" lon="0.48662">
        <ele>128.2</ele>
        <time>2024-09-08T07:08:08Z</time>
      </trkpt>
      <trkpt lat="46.69954" lon="0.48664">
        <ele>128.2</ele>
        <time>2024-09-08T07:08:09Z</time>
      </trkpt>
      <trkpt lat="46.6995" lon="0.48666">
        <ele>128.2</ele>
        <time>2024-09-08T07:08:12Z</time>
      </trkpt>
      <trkpt lat="46.69948" lon="0.48667">
        <ele>128.4</ele>
        <time>2024-09-08T07:08:13Z</time>
      </trkpt>
      <trkpt lat="46.69942" lon="0.48667">
        <ele>129.8</ele>
        <time>2024-09-08T07:08:17Z</time>
      </trkpt>
      <trkpt lat="46.69941" lon="0.48667">
        <ele>130</ele>
        <time>2024-09-08T07:08:18Z</time>
      </trkpt>
      <trkpt lat="46.69938" lon="0.48671">
        <ele>130.4</ele>
        <time>2024-09-08T07:08:20Z</time>
      </trkpt>
      <trkpt lat="46.69931" lon="0.48682">
        <ele>130.8</ele>
        <time>2024-09-08T07:08:25Z</time>
      </trkpt>
      <trkpt lat="46.6993" lon="0.48684">
        <ele>130.8</ele>
        <time>2024-09-08T07:08:26Z</time>
      </trkpt>
      <trkpt lat="46.69917" lon="0.48708">
        <ele>131.8</ele>
        <time>2024-09-08T07:08:34Z</time>
      </trkpt>
      <trkpt lat="46.69915" lon="0.48714">
        <ele>132.2</ele>
        <time>2024-09-08T07:08:36Z</time>
      </trkpt>
      <trkpt lat="46.69911" lon="0.48723">
        <ele>132.8</ele>
        <time>2024-09-08T07:08:40Z</time>
      </trkpt>
      <trkpt lat="46.69909" lon="0.48726">
        <ele>133</ele>
        <time>2024-09-08T07:08:41Z</time>
      </trkpt>
      <trkpt lat="46.6991" lon="0.48733">
        <ele>133.2</ele>
        <time>2024-09-08T07:08:43Z</time>
      </trkpt>
      <trkpt lat="46.69917" lon="0.48747">
        <ele>132.2</ele>
        <time>2024-09-08T07:08:48Z</time>
      </trkpt>
      <trkpt lat="46.6992" lon="0.48751">
        <ele>131.8</ele>
        <time>2024-09-08T07:08:50Z</time>
      </trkpt>
      <trkpt lat="46.6992" lon="0.48755">
        <ele>130.8</ele>
        <time>2024-09-08T07:08:53Z</time>
      </trkpt>
      <trkpt lat="46.6992" lon="0.48757">
        <ele>130.8</ele>
        <time>2024-09-08T07:08:54Z</time>
      </trkpt>
      <trkpt lat="46.69917" lon="0.48769">
        <ele>130.6</ele>
        <time>2024-09-08T07:09:00Z</time>
      </trkpt>
      <trkpt lat="46.69911" lon="0.48786">
        <ele>131.8</ele>
        <time>2024-09-08T07:09:08Z</time>
      </trkpt>
      <trkpt lat="46.6991" lon="0.48788">
        <ele>131.8</ele>
        <time>2024-09-08T07:09:09Z</time>
      </trkpt>
      <trkpt lat="46.69904" lon="0.48805">
        <ele>132.6</ele>
        <time>2024-09-08T07:09:16Z</time>
      </trkpt>
      <trkpt lat="46.699" lon="0.48816">
        <ele>132.8</ele>
        <time>2024-09-08T07:09:20Z</time>
      </trkpt>
      <trkpt lat="46.69895" lon="0.48828">
        <ele>132.6</ele>
        <time>2024-09-08T07:09:25Z</time>
      </trkpt>
      <trkpt lat="46.69889" lon="0.48839">
        <ele>132.6</ele>
        <time>2024-09-08T07:09:31Z</time>
      </trkpt>
      <trkpt lat="46.69889" lon="0.48841">
        <ele>132.6</ele>
        <time>2024-09-08T07:09:32Z</time>
      </trkpt>
      <trkpt lat="46.69881" lon="0.48856">
        <ele>132.6</ele>
        <time>2024-09-08T07:09:38Z</time>
      </trkpt>
      <trkpt lat="46.69871" lon="0.48879">
        <ele>133</ele>
        <time>2024-09-08T07:09:46Z</time>
      </trkpt>
      <trkpt lat="46.69862" lon="0.48899">
        <ele>133.2</ele>
        <time>2024-09-08T07:09:54Z</time>
      </trkpt>
      <trkpt lat="46.69854" lon="0.48918">
        <ele>134</ele>
        <time>2024-09-08T07:10:02Z</time>
      </trkpt>
      <trkpt lat="46.69847" lon="0.48938">
        <ele>134.8</ele>
        <time>2024-09-08T07:10:10Z</time>
      </trkpt>
      <trkpt lat="46.69845" lon="0.48943">
        <ele>135</ele>
        <time>2024-09-08T07:10:12Z</time>
      </trkpt>
      <trkpt lat="46.69844" lon="0.48945">
        <ele>135.2</ele>
        <time>2024-09-08T07:10:13Z</time>
      </trkpt>
      <trkpt lat="46.69842" lon="0.48954">
        <ele>135.4</ele>
        <time>2024-09-08T07:10:17Z</time>
      </trkpt>
      <trkpt lat="46.69838" lon="0.48971">
        <ele>136.2</ele>
        <time>2024-09-08T07:10:26Z</time>
      </trkpt>
      <trkpt lat="46.69836" lon="0.48973">
        <ele>136.4</ele>
        <time>2024-09-08T07:10:28Z</time>
      </trkpt>
      <trkpt lat="46.69835" lon="0.48975">
        <ele>136.6</ele>
        <time>2024-09-08T07:10:30Z</time>
      </trkpt>
      <trkpt lat="46.69834" lon="0.48979">
        <ele>137.2</ele>
        <time>2024-09-08T07:10:32Z</time>
      </trkpt>
      <trkpt lat="46.69833" lon="0.48981">
        <ele>137.4</ele>
        <time>2024-09-08T07:10:33Z</time>
      </trkpt>
      <trkpt lat="46.69831" lon="0.48984">
        <ele>138.4</ele>
        <time>2024-09-08T07:10:36Z</time>
      </trkpt>
      <trkpt lat="46.6983" lon="0.48986">
        <ele>138.6</ele>
        <time>2024-09-08T07:10:37Z</time>
      </trkpt>
      <trkpt lat="46.69828" lon="0.48991">
        <ele>139</ele>
        <time>2024-09-08T07:10:40Z</time>
      </trkpt>
      <trkpt lat="46.69825" lon="0.48998">
        <ele>139</ele>
        <time>2024-09-08T07:10:43Z</time>
      </trkpt>
      <trkpt lat="46.69824" lon="0.49005">
        <ele>139</ele>
        <time>2024-09-08T07:10:47Z</time>
      </trkpt>
      <trkpt lat="46.69821" lon="0.49009">
        <ele>138.8</ele>
        <time>2024-09-08T07:10:49Z</time>
      </trkpt>
      <trkpt lat="46.6982" lon="0.49013">
        <ele>139.2</ele>
        <time>2024-09-08T07:10:51Z</time>
      </trkpt>
      <trkpt lat="46.69819" lon="0.49019">
        <ele>139.2</ele>
        <time>2024-09-08T07:10:53Z</time>
      </trkpt>
      <trkpt lat="46.69817" lon="0.49029">
        <ele>139.6</ele>
        <time>2024-09-08T07:10:58Z</time>
      </trkpt>
      <trkpt lat="46.69817" lon="0.49039">
        <ele>139.6</ele>
        <time>2024-09-08T07:11:02Z</time>
      </trkpt>
      <trkpt lat="46.69817" lon="0.49041">
        <ele>139.6</ele>
        <time>2024-09-08T07:11:03Z</time>
      </trkpt>
      <trkpt lat="46.69816" lon="0.49046">
        <ele>139.8</ele>
        <time>2024-09-08T07:11:05Z</time>
      </trkpt>
      <trkpt lat="46.69814" lon="0.49057">
        <ele>139.8</ele>
        <time>2024-09-08T07:11:11Z</time>
      </trkpt>
      <trkpt lat="46.69807" lon="0.49071">
        <ele>140</ele>
        <time>2024-09-08T07:11:17Z</time>
      </trkpt>
      <trkpt lat="46.69806" lon="0.49074">
        <ele>140.2</ele>
        <time>2024-09-08T07:11:19Z</time>
      </trkpt>
      <trkpt lat="46.69802" lon="0.49086">
        <ele>140.2</ele>
        <time>2024-09-08T07:11:23Z</time>
      </trkpt>
      <trkpt lat="46.69795" lon="0.49099">
        <ele>140.6</ele>
        <time>2024-09-08T07:11:28Z</time>
      </trkpt>
      <trkpt lat="46.69794" lon="0.49103">
        <ele>140.4</ele>
        <time>2024-09-08T07:11:30Z</time>
      </trkpt>
      <trkpt lat="46.69793" lon="0.49105">
        <ele>140.2</ele>
        <time>2024-09-08T07:11:31Z</time>
      </trkpt>
      <trkpt lat="46.69791" lon="0.49114">
        <ele>140.2</ele>
        <time>2024-09-08T07:11:35Z</time>
      </trkpt>
      <trkpt lat="46.69791" lon="0.49119">
        <ele>140.4</ele>
        <time>2024-09-08T07:11:37Z</time>
      </trkpt>
      <trkpt lat="46.69789" lon="0.49125">
        <ele>140.8</ele>
        <time>2024-09-08T07:11:39Z</time>
      </trkpt>
      <trkpt lat="46.69789" lon="0.49125">
        <ele>140.8</ele>
        <time>2024-09-08T07:11:40Z</time>
      </trkpt>
      <trkpt lat="46.69785" lon="0.49141">
        <ele>140.8</ele>
        <time>2024-09-08T07:11:44Z</time>
      </trkpt>
      <trkpt lat="46.69783" lon="0.49147">
        <ele>140.6</ele>
        <time>2024-09-08T07:11:46Z</time>
      </trkpt>
      <trkpt lat="46.69781" lon="0.49165">
        <ele>140.2</ele>
        <time>2024-09-08T07:11:55Z</time>
      </trkpt>
      <trkpt lat="46.69781" lon="0.49169">
        <ele>140.2</ele>
        <time>2024-09-08T07:12:06Z</time>
      </trkpt>
      <trkpt lat="46.69773" lon="0.49178">
        <ele>140.4</ele>
        <time>2024-09-08T07:12:18Z</time>
      </trkpt>
      <trkpt lat="46.69764" lon="0.49195">
        <ele>140.6</ele>
        <time>2024-09-08T07:12:27Z</time>
      </trkpt>
      <trkpt lat="46.69762" lon="0.49198">
        <ele>140.6</ele>
        <time>2024-09-08T07:12:29Z</time>
      </trkpt>
      <trkpt lat="46.69757" lon="0.49206">
        <ele>140.2</ele>
        <time>2024-09-08T07:12:34Z</time>
      </trkpt>
      <trkpt lat="46.69757" lon="0.49209">
        <ele>140.2</ele>
        <time>2024-09-08T07:12:35Z</time>
      </trkpt>
      <trkpt lat="46.69755" lon="0.4922">
        <ele>140.2</ele>
        <time>2024-09-08T07:12:41Z</time>
      </trkpt>
      <trkpt lat="46.69747" lon="0.49241">
        <ele>140.8</ele>
        <time>2024-09-08T07:12:52Z</time>
      </trkpt>
      <trkpt lat="46.69741" lon="0.49248">
        <ele>140.8</ele>
        <time>2024-09-08T07:12:57Z</time>
      </trkpt>
      <trkpt lat="46.69738" lon="0.49255">
        <ele>140.4</ele>
        <time>2024-09-08T07:13:01Z</time>
      </trkpt>
      <trkpt lat="46.69737" lon="0.49257">
        <ele>140.4</ele>
        <time>2024-09-08T07:13:02Z</time>
      </trkpt>
      <trkpt lat="46.6973" lon="0.49276">
        <ele>140.2</ele>
        <time>2024-09-08T07:13:13Z</time>
      </trkpt>
      <trkpt lat="46.69727" lon="0.49301">
        <ele>140.4</ele>
        <time>2024-09-08T07:13:21Z</time>
      </trkpt>
      <trkpt lat="46.69726" lon="0.49316">
        <ele>140.2</ele>
        <time>2024-09-08T07:13:27Z</time>
      </trkpt>
      <trkpt lat="46.69727" lon="0.49326">
        <ele>140.2</ele>
        <time>2024-09-08T07:13:31Z</time>
      </trkpt>
      <trkpt lat="46.69725" lon="0.49328">
        <ele>140.4</ele>
        <time>2024-09-08T07:13:33Z</time>
      </trkpt>
      <trkpt lat="46.69723" lon="0.49329">
        <ele>140.6</ele>
        <time>2024-09-08T07:13:35Z</time>
      </trkpt>
      <trkpt lat="46.69723" lon="0.49326">
        <ele>140.4</ele>
        <time>2024-09-08T07:13:38Z</time>
      </trkpt>
      <trkpt lat="46.69723" lon="0.49323">
        <ele>140.4</ele>
        <time>2024-09-08T07:13:41Z</time>
      </trkpt>
      <trkpt lat="46.69718" lon="0.49318">
        <ele>140.6</ele>
        <time>2024-09-08T07:13:47Z</time>
      </trkpt>
      <trkpt lat="46.69703" lon="0.49315">
        <ele>140.4</ele>
        <time>2024-09-08T07:13:56Z</time>
      </trkpt>
      <trkpt lat="46.69687" lon="0.49312">
        <ele>140.8</ele>
        <time>2024-09-08T07:14:03Z</time>
      </trkpt>
      <trkpt lat="46.69672" lon="0.49311">
        <ele>141</ele>
        <time>2024-09-08T07:14:08Z</time>
      </trkpt>
      <trkpt lat="46.69653" lon="0.49308">
        <ele>140.8</ele>
        <time>2024-09-08T07:14:14Z</time>
      </trkpt>
      <trkpt lat="46.69633" lon="0.49302">
        <ele>141</ele>
        <time>2024-09-08T07:14:21Z</time>
      </trkpt>
      <trkpt lat="46.696" lon="0.49293">
        <ele>141.6</ele>
        <time>2024-09-08T07:14:30Z</time>
      </trkpt>
      <trkpt lat="46.69573" lon="0.49278">
        <ele>141.6</ele>
        <time>2024-09-08T07:14:37Z</time>
      </trkpt>
      <trkpt lat="46.69563" lon="0.49273">
        <ele>141.8</ele>
        <time>2024-09-08T07:14:40Z</time>
      </trkpt>
      <trkpt lat="46.69545" lon="0.49264">
        <ele>142</ele>
        <time>2024-09-08T07:14:45Z</time>
      </trkpt>
      <trkpt lat="46.69523" lon="0.49256">
        <ele>141.8</ele>
        <time>2024-09-08T07:14:51Z</time>
      </trkpt>
      <trkpt lat="46.69511" lon="0.49247">
        <ele>141.4</ele>
        <time>2024-09-08T07:14:55Z</time>
      </trkpt>
      <trkpt lat="46.69485" lon="0.49242">
        <ele>141.6</ele>
        <time>2024-09-08T07:15:02Z</time>
      </trkpt>
      <trkpt lat="46.69468" lon="0.49235">
        <ele>142</ele>
        <time>2024-09-08T07:15:07Z</time>
      </trkpt>
      <trkpt lat="46.69444" lon="0.49225">
        <ele>142.6</ele>
        <time>2024-09-08T07:15:14Z</time>
      </trkpt>
      <trkpt lat="46.6942" lon="0.4922">
        <ele>142.8</ele>
        <time>2024-09-08T07:15:21Z</time>
      </trkpt>
      <trkpt lat="46.69417" lon="0.49219">
        <ele>142.8</ele>
        <time>2024-09-08T07:15:22Z</time>
      </trkpt>
      <trkpt lat="46.69388" lon="0.49209">
        <ele>142.8</ele>
        <time>2024-09-08T07:15:31Z</time>
      </trkpt>
      <trkpt lat="46.69359" lon="0.49198">
        <ele>142.2</ele>
        <time>2024-09-08T07:15:40Z</time>
      </trkpt>
      <trkpt lat="46.69334" lon="0.49191">
        <ele>142</ele>
        <time>2024-09-08T07:15:48Z</time>
      </trkpt>
      <trkpt lat="46.6932" lon="0.49181">
        <ele>141.8</ele>
        <time>2024-09-08T07:15:53Z</time>
      </trkpt>
      <trkpt lat="46.69317" lon="0.49179">
        <ele>141.6</ele>
        <time>2024-09-08T07:15:54Z</time>
      </trkpt>
      <trkpt lat="46.69302" lon="0.49173">
        <ele>141.8</ele>
        <time>2024-09-08T07:15:59Z</time>
      </trkpt>
      <trkpt lat="46.69284" lon="0.4917">
        <ele>141.8</ele>
        <time>2024-09-08T07:16:05Z</time>
      </trkpt>
      <trkpt lat="46.69271" lon="0.49166">
        <ele>141.8</ele>
        <time>2024-09-08T07:16:09Z</time>
      </trkpt>
      <trkpt lat="46.69267" lon="0.49168">
        <ele>142</ele>
        <time>2024-09-08T07:16:10Z</time>
      </trkpt>
      <trkpt lat="46.69264" lon="0.49175">
        <ele>142.4</ele>
        <time>2024-09-08T07:16:12Z</time>
      </trkpt>
      <trkpt lat="46.69253" lon="0.49198">
        <ele>142.2</ele>
        <time>2024-09-08T07:16:18Z</time>
      </trkpt>
      <trkpt lat="46.6924" lon="0.49226">
        <ele>142.4</ele>
        <time>2024-09-08T07:16:25Z</time>
      </trkpt>
      <trkpt lat="46.69225" lon="0.49252">
        <ele>142.4</ele>
        <time>2024-09-08T07:16:32Z</time>
      </trkpt>
      <trkpt lat="46.69208" lon="0.49293">
        <ele>142.2</ele>
        <time>2024-09-08T07:16:40Z</time>
      </trkpt>
      <trkpt lat="46.69188" lon="0.49338">
        <ele>142.4</ele>
        <time>2024-09-08T07:16:48Z</time>
      </trkpt>
      <trkpt lat="46.69176" lon="0.49369">
        <ele>142.4</ele>
        <time>2024-09-08T07:16:53Z</time>
      </trkpt>
      <trkpt lat="46.69166" lon="0.49391">
        <ele>142.6</ele>
        <time>2024-09-08T07:16:57Z</time>
      </trkpt>
      <trkpt lat="46.6916" lon="0.49406">
        <ele>142.6</ele>
        <time>2024-09-08T07:17:00Z</time>
      </trkpt>
      <trkpt lat="46.69146" lon="0.49435">
        <ele>142.4</ele>
        <time>2024-09-08T07:17:05Z</time>
      </trkpt>
      <trkpt lat="46.69143" lon="0.4944">
        <ele>142.4</ele>
        <time>2024-09-08T07:17:06Z</time>
      </trkpt>
      <trkpt lat="46.69127" lon="0.4947">
        <ele>142.2</ele>
        <time>2024-09-08T07:17:11Z</time>
      </trkpt>
      <trkpt lat="46.69107" lon="0.4952">
        <ele>142.2</ele>
        <time>2024-09-08T07:17:18Z</time>
      </trkpt>
      <trkpt lat="46.69091" lon="0.49558">
        <ele>141.6</ele>
        <time>2024-09-08T07:17:24Z</time>
      </trkpt>
      <trkpt lat="46.69085" lon="0.49571">
        <ele>141.6</ele>
        <time>2024-09-08T07:17:26Z</time>
      </trkpt>
      <trkpt lat="46.69066" lon="0.49615">
        <ele>141.8</ele>
        <time>2024-09-08T07:17:32Z</time>
      </trkpt>
      <trkpt lat="46.69058" lon="0.49633">
        <ele>141.6</ele>
        <time>2024-09-08T07:17:35Z</time>
      </trkpt>
      <trkpt lat="46.69052" lon="0.49645">
        <ele>141.6</ele>
        <time>2024-09-08T07:17:37Z</time>
      </trkpt>
      <trkpt lat="46.69036" lon="0.4968">
        <ele>141.4</ele>
        <time>2024-09-08T07:17:43Z</time>
      </trkpt>
      <trkpt lat="46.6903" lon="0.49692">
        <ele>141.4</ele>
        <time>2024-09-08T07:17:45Z</time>
      </trkpt>
      <trkpt lat="46.69015" lon="0.49728">
        <ele>141.4</ele>
        <time>2024-09-08T07:17:51Z</time>
      </trkpt>
      <trkpt lat="46.68998" lon="0.49768">
        <ele>142.2</ele>
        <time>2024-09-08T07:17:57Z</time>
      </trkpt>
      <trkpt lat="46.6898" lon="0.49809">
        <ele>141.2</ele>
        <time>2024-09-08T07:18:03Z</time>
      </trkpt>
      <trkpt lat="46.68957" lon="0.49857">
        <ele>141</ele>
        <time>2024-09-08T07:18:09Z</time>
      </trkpt>
      <trkpt lat="46.68942" lon="0.49891">
        <ele>140.6</ele>
        <time>2024-09-08T07:18:13Z</time>
      </trkpt>
      <trkpt lat="46.68929" lon="0.49925">
        <ele>140</ele>
        <time>2024-09-08T07:18:17Z</time>
      </trkpt>
      <trkpt lat="46.68914" lon="0.49959">
        <ele>139.4</ele>
        <time>2024-09-08T07:18:21Z</time>
      </trkpt>
      <trkpt lat="46.689" lon="0.49992">
        <ele>139.2</ele>
        <time>2024-09-08T07:18:25Z</time>
      </trkpt>
      <trkpt lat="46.68885" lon="0.50027">
        <ele>138.4</ele>
        <time>2024-09-08T07:18:30Z</time>
      </trkpt>
      <trkpt lat="46.68882" lon="0.50034">
        <ele>138.2</ele>
        <time>2024-09-08T07:18:31Z</time>
      </trkpt>
      <trkpt lat="46.68871" lon="0.5006">
        <ele>138.2</ele>
        <time>2024-09-08T07:18:35Z</time>
      </trkpt>
      <trkpt lat="46.68865" lon="0.50073">
        <ele>138</ele>
        <time>2024-09-08T07:18:37Z</time>
      </trkpt>
      <trkpt lat="46.68841" lon="0.5013">
        <ele>137.8</ele>
        <time>2024-09-08T07:18:45Z</time>
      </trkpt>
      <trkpt lat="46.68838" lon="0.50137">
        <ele>137.8</ele>
        <time>2024-09-08T07:18:46Z</time>
      </trkpt>
      <trkpt lat="46.68825" lon="0.50165">
        <ele>137.8</ele>
        <time>2024-09-08T07:18:50Z</time>
      </trkpt>
      <trkpt lat="46.68808" lon="0.50204">
        <ele>137.4</ele>
        <time>2024-09-08T07:18:55Z</time>
      </trkpt>
      <trkpt lat="46.68801" lon="0.50218">
        <ele>137.2</ele>
        <time>2024-09-08T07:18:57Z</time>
      </trkpt>
      <trkpt lat="46.68778" lon="0.50269">
        <ele>136.6</ele>
        <time>2024-09-08T07:19:04Z</time>
      </trkpt>
      <trkpt lat="46.68758" lon="0.50312">
        <ele>136.6</ele>
        <time>2024-09-08T07:19:10Z</time>
      </trkpt>
      <trkpt lat="46.68745" lon="0.50341">
        <ele>136.4</ele>
        <time>2024-09-08T07:19:14Z</time>
      </trkpt>
      <trkpt lat="46.68739" lon="0.50355">
        <ele>136.4</ele>
        <time>2024-09-08T07:19:16Z</time>
      </trkpt>
      <trkpt lat="46.68715" lon="0.50412">
        <ele>136.4</ele>
        <time>2024-09-08T07:19:24Z</time>
      </trkpt>
      <trkpt lat="46.68695" lon="0.5046">
        <ele>136.2</ele>
        <time>2024-09-08T07:19:31Z</time>
      </trkpt>
      <trkpt lat="46.68673" lon="0.50509">
        <ele>135.8</ele>
        <time>2024-09-08T07:19:38Z</time>
      </trkpt>
      <trkpt lat="46.68643" lon="0.50576">
        <ele>135.8</ele>
        <time>2024-09-08T07:19:47Z</time>
      </trkpt>
      <trkpt lat="46.68615" lon="0.50644">
        <ele>135.8</ele>
        <time>2024-09-08T07:19:56Z</time>
      </trkpt>
      <trkpt lat="46.68587" lon="0.50706">
        <ele>135.4</ele>
        <time>2024-09-08T07:20:05Z</time>
      </trkpt>
      <trkpt lat="46.68584" lon="0.50712">
        <ele>135.2</ele>
        <time>2024-09-08T07:20:06Z</time>
      </trkpt>
      <trkpt lat="46.68567" lon="0.50751">
        <ele>135</ele>
        <time>2024-09-08T07:20:12Z</time>
      </trkpt>
      <trkpt lat="46.6855" lon="0.50791">
        <ele>134.8</ele>
        <time>2024-09-08T07:20:18Z</time>
      </trkpt>
      <trkpt lat="46.68533" lon="0.50825">
        <ele>134.6</ele>
        <time>2024-09-08T07:20:24Z</time>
      </trkpt>
      <trkpt lat="46.68521" lon="0.50851">
        <ele>134.2</ele>
        <time>2024-09-08T07:20:29Z</time>
      </trkpt>
      <trkpt lat="46.68519" lon="0.50857">
        <ele>134.2</ele>
        <time>2024-09-08T07:20:30Z</time>
      </trkpt>
      <trkpt lat="46.68507" lon="0.50888">
        <ele>133.6</ele>
        <time>2024-09-08T07:20:36Z</time>
      </trkpt>
      <trkpt lat="46.6851" lon="0.50904">
        <ele>133.8</ele>
        <time>2024-09-08T07:20:39Z</time>
      </trkpt>
      <trkpt lat="46.68527" lon="0.5093">
        <ele>133.4</ele>
        <time>2024-09-08T07:20:45Z</time>
      </trkpt>
      <trkpt lat="46.68543" lon="0.50952">
        <ele>132.8</ele>
        <time>2024-09-08T07:20:50Z</time>
      </trkpt>
      <trkpt lat="46.68549" lon="0.50962">
        <ele>132.6</ele>
        <time>2024-09-08T07:20:52Z</time>
      </trkpt>
      <trkpt lat="46.68555" lon="0.50973">
        <ele>132.6</ele>
        <time>2024-09-08T07:20:54Z</time>
      </trkpt>
      <trkpt lat="46.68556" lon="0.50987">
        <ele>132.6</ele>
        <time>2024-09-08T07:20:56Z</time>
      </trkpt>
      <trkpt lat="46.68556" lon="0.50994">
        <ele>132.8</ele>
        <time>2024-09-08T07:20:57Z</time>
      </trkpt>
      <trkpt lat="46.68549" lon="0.51048">
        <ele>132.4</ele>
        <time>2024-09-08T07:21:04Z</time>
      </trkpt>
      <trkpt lat="46.68542" lon="0.51084">
        <ele>131.8</ele>
        <time>2024-09-08T07:21:09Z</time>
      </trkpt>
      <trkpt lat="46.68539" lon="0.51099">
        <ele>131.6</ele>
        <time>2024-09-08T07:21:11Z</time>
      </trkpt>
      <trkpt lat="46.68537" lon="0.51105">
        <ele>131.4</ele>
        <time>2024-09-08T07:21:12Z</time>
      </trkpt>
      <trkpt lat="46.68531" lon="0.51119">
        <ele>131</ele>
        <time>2024-09-08T07:21:14Z</time>
      </trkpt>
      <trkpt lat="46.68523" lon="0.51133">
        <ele>130.6</ele>
        <time>2024-09-08T07:21:16Z</time>
      </trkpt>
      <trkpt lat="46.68519" lon="0.51139">
        <ele>130.6</ele>
        <time>2024-09-08T07:21:17Z</time>
      </trkpt>
      <trkpt lat="46.68496" lon="0.51168">
        <ele>129.4</ele>
        <time>2024-09-08T07:21:22Z</time>
      </trkpt>
      <trkpt lat="46.68491" lon="0.51171">
        <ele>129.2</ele>
        <time>2024-09-08T07:21:23Z</time>
      </trkpt>
      <trkpt lat="46.68481" lon="0.51174">
        <ele>128</ele>
        <time>2024-09-08T07:21:25Z</time>
      </trkpt>
      <trkpt lat="46.68476" lon="0.51173">
        <ele>127.2</ele>
        <time>2024-09-08T07:21:26Z</time>
      </trkpt>
      <trkpt lat="46.68471" lon="0.51172">
        <ele>126.4</ele>
        <time>2024-09-08T07:21:27Z</time>
      </trkpt>
      <trkpt lat="46.68459" lon="0.51172">
        <ele>125.6</ele>
        <time>2024-09-08T07:21:30Z</time>
      </trkpt>
      <trkpt lat="46.68457" lon="0.51173">
        <ele>125.6</ele>
        <time>2024-09-08T07:21:31Z</time>
      </trkpt>
      <trkpt lat="46.68455" lon="0.51177">
        <ele>125.4</ele>
        <time>2024-09-08T07:21:32Z</time>
      </trkpt>
      <trkpt lat="46.68454" lon="0.5118">
        <ele>125.4</ele>
        <time>2024-09-08T07:21:33Z</time>
      </trkpt>
      <trkpt lat="46.68452" lon="0.51188">
        <ele>125.4</ele>
        <time>2024-09-08T07:21:35Z</time>
      </trkpt>
      <trkpt lat="46.68444" lon="0.51218">
        <ele>125.4</ele>
        <time>2024-09-08T07:21:42Z</time>
      </trkpt>
      <trkpt lat="46.68438" lon="0.51251">
        <ele>124.2</ele>
        <time>2024-09-08T07:21:48Z</time>
      </trkpt>
      <trkpt lat="46.68437" lon="0.51257">
        <ele>124</ele>
        <time>2024-09-08T07:21:49Z</time>
      </trkpt>
      <trkpt lat="46.68434" lon="0.51304">
        <ele>122.8</ele>
        <time>2024-09-08T07:21:56Z</time>
      </trkpt>
      <trkpt lat="46.68419" lon="0.51375">
        <ele>122.2</ele>
        <time>2024-09-08T07:22:04Z</time>
      </trkpt>
      <trkpt lat="46.68414" lon="0.51412">
        <ele>122</ele>
        <time>2024-09-08T07:22:09Z</time>
      </trkpt>
      <trkpt lat="46.68414" lon="0.51425">
        <ele>121.8</ele>
        <time>2024-09-08T07:22:11Z</time>
      </trkpt>
      <trkpt lat="46.68412" lon="0.51448">
        <ele>121.6</ele>
        <time>2024-09-08T07:22:14Z</time>
      </trkpt>
      <trkpt lat="46.68411" lon="0.51462">
        <ele>120.4</ele>
        <time>2024-09-08T07:22:16Z</time>
      </trkpt>
      <trkpt lat="46.6841" lon="0.51474">
        <ele>119.8</ele>
        <time>2024-09-08T07:22:18Z</time>
      </trkpt>
      <trkpt lat="46.68403" lon="0.51514">
        <ele>119.6</ele>
        <time>2024-09-08T07:22:24Z</time>
      </trkpt>
      <trkpt lat="46.68401" lon="0.51522">
        <ele>119.2</ele>
        <time>2024-09-08T07:22:25Z</time>
      </trkpt>
      <trkpt lat="46.68387" lon="0.51565">
        <ele>118.2</ele>
        <time>2024-09-08T07:22:31Z</time>
      </trkpt>
      <trkpt lat="46.68384" lon="0.51572">
        <ele>117.8</ele>
        <time>2024-09-08T07:22:32Z</time>
      </trkpt>
      <trkpt lat="46.68381" lon="0.5158">
        <ele>116.8</ele>
        <time>2024-09-08T07:22:33Z</time>
      </trkpt>
      <trkpt lat="46.68376" lon="0.51588">
        <ele>116</ele>
        <time>2024-09-08T07:22:34Z</time>
      </trkpt>
      <trkpt lat="46.68371" lon="0.51596">
        <ele>115.6</ele>
        <time>2024-09-08T07:22:35Z</time>
      </trkpt>
      <trkpt lat="46.6836" lon="0.51615">
        <ele>114.4</ele>
        <time>2024-09-08T07:22:37Z</time>
      </trkpt>
      <trkpt lat="46.68343" lon="0.51647">
        <ele>113</ele>
        <time>2024-09-08T07:22:40Z</time>
      </trkpt>
      <trkpt lat="46.68339" lon="0.51659">
        <ele>112.6</ele>
        <time>2024-09-08T07:22:41Z</time>
      </trkpt>
      <trkpt lat="46.68333" lon="0.51671">
        <ele>112</ele>
        <time>2024-09-08T07:22:42Z</time>
      </trkpt>
      <trkpt lat="46.68325" lon="0.51691">
        <ele>110.6</ele>
        <time>2024-09-08T07:22:44Z</time>
      </trkpt>
      <trkpt lat="46.68314" lon="0.51716">
        <ele>109.6</ele>
        <time>2024-09-08T07:22:46Z</time>
      </trkpt>
      <trkpt lat="46.68309" lon="0.51728">
        <ele>109</ele>
        <time>2024-09-08T07:22:47Z</time>
      </trkpt>
      <trkpt lat="46.68301" lon="0.51754">
        <ele>108</ele>
        <time>2024-09-08T07:22:50Z</time>
      </trkpt>
      <trkpt lat="46.68299" lon="0.51762">
        <ele>107.8</ele>
        <time>2024-09-08T07:22:51Z</time>
      </trkpt>
      <trkpt lat="46.68286" lon="0.51808">
        <ele>106.6</ele>
        <time>2024-09-08T07:22:56Z</time>
      </trkpt>
      <trkpt lat="46.68283" lon="0.51817">
        <ele>106.2</ele>
        <time>2024-09-08T07:22:57Z</time>
      </trkpt>
      <trkpt lat="46.68273" lon="0.51848">
        <ele>105.6</ele>
        <time>2024-09-08T07:23:00Z</time>
      </trkpt>
      <trkpt lat="46.68268" lon="0.5187">
        <ele>104</ele>
        <time>2024-09-08T07:23:02Z</time>
      </trkpt>
      <trkpt lat="46.68266" lon="0.5188">
        <ele>103.2</ele>
        <time>2024-09-08T07:23:03Z</time>
      </trkpt>
      <trkpt lat="46.68264" lon="0.51891">
        <ele>102.8</ele>
        <time>2024-09-08T07:23:04Z</time>
      </trkpt>
      <trkpt lat="46.68257" lon="0.51921">
        <ele>101.6</ele>
        <time>2024-09-08T07:23:07Z</time>
      </trkpt>
      <trkpt lat="46.68248" lon="0.51951">
        <ele>101.2</ele>
        <time>2024-09-08T07:23:10Z</time>
      </trkpt>
      <trkpt lat="46.68244" lon="0.51961">
        <ele>100.4</ele>
        <time>2024-09-08T07:23:11Z</time>
      </trkpt>
      <trkpt lat="46.68236" lon="0.51982">
        <ele>99.6</ele>
        <time>2024-09-08T07:23:13Z</time>
      </trkpt>
      <trkpt lat="46.68232" lon="0.51992">
        <ele>99</ele>
        <time>2024-09-08T07:23:14Z</time>
      </trkpt>
      <trkpt lat="46.68224" lon="0.52014">
        <ele>98</ele>
        <time>2024-09-08T07:23:16Z</time>
      </trkpt>
      <trkpt lat="46.6822" lon="0.52024">
        <ele>97.4</ele>
        <time>2024-09-08T07:23:17Z</time>
      </trkpt>
      <trkpt lat="46.68205" lon="0.52056">
        <ele>96.2</ele>
        <time>2024-09-08T07:23:20Z</time>
      </trkpt>
      <trkpt lat="46.68189" lon="0.52083">
        <ele>95.6</ele>
        <time>2024-09-08T07:23:23Z</time>
      </trkpt>
      <trkpt lat="46.68169" lon="0.52106">
        <ele>94.8</ele>
        <time>2024-09-08T07:23:26Z</time>
      </trkpt>
      <trkpt lat="46.68156" lon="0.52121">
        <ele>94</ele>
        <time>2024-09-08T07:23:28Z</time>
      </trkpt>
      <trkpt lat="46.68149" lon="0.52129">
        <ele>93.8</ele>
        <time>2024-09-08T07:23:29Z</time>
      </trkpt>
      <trkpt lat="46.68116" lon="0.52166">
        <ele>92.2</ele>
        <time>2024-09-08T07:23:34Z</time>
      </trkpt>
      <trkpt lat="46.68109" lon="0.52174">
        <ele>92</ele>
        <time>2024-09-08T07:23:35Z</time>
      </trkpt>
      <trkpt lat="46.68096" lon="0.52188">
        <ele>91.2</ele>
        <time>2024-09-08T07:23:37Z</time>
      </trkpt>
      <trkpt lat="46.68065" lon="0.52222">
        <ele>90.4</ele>
        <time>2024-09-08T07:23:42Z</time>
      </trkpt>
      <trkpt lat="46.68059" lon="0.52229">
        <ele>90</ele>
        <time>2024-09-08T07:23:43Z</time>
      </trkpt>
      <trkpt lat="46.68035" lon="0.5226">
        <ele>88.6</ele>
        <time>2024-09-08T07:23:47Z</time>
      </trkpt>
      <trkpt lat="46.68028" lon="0.52268">
        <ele>88</ele>
        <time>2024-09-08T07:23:48Z</time>
      </trkpt>
      <trkpt lat="46.68022" lon="0.52277">
        <ele>87.4</ele>
        <time>2024-09-08T07:23:49Z</time>
      </trkpt>
      <trkpt lat="46.68016" lon="0.52287">
        <ele>87.2</ele>
        <time>2024-09-08T07:23:50Z</time>
      </trkpt>
      <trkpt lat="46.68009" lon="0.52297">
        <ele>86.2</ele>
        <time>2024-09-08T07:23:51Z</time>
      </trkpt>
      <trkpt lat="46.68003" lon="0.52308">
        <ele>85.2</ele>
        <time>2024-09-08T07:23:52Z</time>
      </trkpt>
      <trkpt lat="46.67998" lon="0.52319">
        <ele>84</ele>
        <time>2024-09-08T07:23:53Z</time>
      </trkpt>
      <trkpt lat="46.67988" lon="0.52339">
        <ele>82.8</ele>
        <time>2024-09-08T07:23:55Z</time>
      </trkpt>
      <trkpt lat="46.67984" lon="0.52348">
        <ele>81.8</ele>
        <time>2024-09-08T07:23:56Z</time>
      </trkpt>
      <trkpt lat="46.6798" lon="0.52356">
        <ele>80.6</ele>
        <time>2024-09-08T07:23:57Z</time>
      </trkpt>
      <trkpt lat="46.67976" lon="0.52365">
        <ele>79</ele>
        <time>2024-09-08T07:23:58Z</time>
      </trkpt>
      <trkpt lat="46.67974" lon="0.52384">
        <ele>77.2</ele>
        <time>2024-09-08T07:24:00Z</time>
      </trkpt>
      <trkpt lat="46.6798" lon="0.52399">
        <ele>76.2</ele>
        <time>2024-09-08T07:24:02Z</time>
      </trkpt>
      <trkpt lat="46.67984" lon="0.52405">
        <ele>76</ele>
        <time>2024-09-08T07:24:03Z</time>
      </trkpt>
      <trkpt lat="46.68017" lon="0.52446">
        <ele>76.2</ele>
        <time>2024-09-08T07:24:10Z</time>
      </trkpt>
      <trkpt lat="46.68054" lon="0.52502">
        <ele>75.4</ele>
        <time>2024-09-08T07:24:18Z</time>
      </trkpt>
      <trkpt lat="46.68059" lon="0.52509">
        <ele>75.2</ele>
        <time>2024-09-08T07:24:19Z</time>
      </trkpt>
      <trkpt lat="46.68092" lon="0.52566">
        <ele>74.4</ele>
        <time>2024-09-08T07:24:27Z</time>
      </trkpt>
      <trkpt lat="46.68105" lon="0.52586">
        <ele>74.2</ele>
        <time>2024-09-08T07:24:30Z</time>
      </trkpt>
      <trkpt lat="46.68119" lon="0.52609">
        <ele>73.8</ele>
        <time>2024-09-08T07:24:34Z</time>
      </trkpt>
      <trkpt lat="46.68147" lon="0.52649">
        <ele>73.6</ele>
        <time>2024-09-08T07:24:41Z</time>
      </trkpt>
      <trkpt lat="46.68162" lon="0.52666">
        <ele>73</ele>
        <time>2024-09-08T07:24:44Z</time>
      </trkpt>
      <trkpt lat="46.6819" lon="0.52699">
        <ele>72.4</ele>
        <time>2024-09-08T07:24:50Z</time>
      </trkpt>
      <trkpt lat="46.68222" lon="0.52745">
        <ele>72.2</ele>
        <time>2024-09-08T07:24:58Z</time>
      </trkpt>
      <trkpt lat="46.6823" lon="0.52757">
        <ele>72.2</ele>
        <time>2024-09-08T07:25:00Z</time>
      </trkpt>
      <trkpt lat="46.68251" lon="0.52789">
        <ele>72.6</ele>
        <time>2024-09-08T07:25:06Z</time>
      </trkpt>
      <trkpt lat="46.68268" lon="0.52828">
        <ele>73.4</ele>
        <time>2024-09-08T07:25:13Z</time>
      </trkpt>
      <trkpt lat="46.68274" lon="0.52849">
        <ele>74</ele>
        <time>2024-09-08T07:25:17Z</time>
      </trkpt>
      <trkpt lat="46.68277" lon="0.52866">
        <ele>74.4</ele>
        <time>2024-09-08T07:25:20Z</time>
      </trkpt>
      <trkpt lat="46.68279" lon="0.529">
        <ele>74.8</ele>
        <time>2024-09-08T07:25:26Z</time>
      </trkpt>
      <trkpt lat="46.68284" lon="0.52953">
        <ele>74.6</ele>
        <time>2024-09-08T07:25:34Z</time>
      </trkpt>
      <trkpt lat="46.68291" lon="0.5299">
        <ele>74.4</ele>
        <time>2024-09-08T07:25:40Z</time>
      </trkpt>
      <trkpt lat="46.68299" lon="0.53021">
        <ele>74.4</ele>
        <time>2024-09-08T07:25:46Z</time>
      </trkpt>
      <trkpt lat="46.68317" lon="0.53063">
        <ele>73.8</ele>
        <time>2024-09-08T07:25:54Z</time>
      </trkpt>
      <trkpt lat="46.68328" lon="0.53085">
        <ele>73</ele>
        <time>2024-09-08T07:25:58Z</time>
      </trkpt>
      <trkpt lat="46.68334" lon="0.53096">
        <ele>72.8</ele>
        <time>2024-09-08T07:26:00Z</time>
      </trkpt>
      <trkpt lat="46.68337" lon="0.53101">
        <ele>72.6</ele>
        <time>2024-09-08T07:26:01Z</time>
      </trkpt>
      <trkpt lat="46.68342" lon="0.53109">
        <ele>72</ele>
        <time>2024-09-08T07:26:03Z</time>
      </trkpt>
      <trkpt lat="46.68344" lon="0.53113">
        <ele>71.8</ele>
        <time>2024-09-08T07:26:04Z</time>
      </trkpt>
      <trkpt lat="46.68345" lon="0.53114">
        <ele>71.6</ele>
        <time>2024-09-08T07:26:05Z</time>
      </trkpt>
      <trkpt lat="46.68347" lon="0.53113">
        <ele>71.6</ele>
        <time>2024-09-08T07:26:07Z</time>
      </trkpt>
      <trkpt lat="46.68348" lon="0.53117">
        <ele>71.6</ele>
        <time>2024-09-08T07:26:09Z</time>
      </trkpt>
      <trkpt lat="46.68348" lon="0.53117">
        <ele>71.6</ele>
        <time>2024-09-08T07:26:10Z</time>
      </trkpt>
      <trkpt lat="46.68347" lon="0.53108">
        <ele>73</ele>
        <time>2024-09-08T07:26:15Z</time>
      </trkpt>
      <trkpt lat="46.68345" lon="0.53098">
        <ele>74</ele>
        <time>2024-09-08T07:26:19Z</time>
      </trkpt>
      <trkpt lat="46.68345" lon="0.53096">
        <ele>74.2</ele>
        <time>2024-09-08T07:26:20Z</time>
      </trkpt>
      <trkpt lat="46.68345" lon="0.53094">
        <ele>74.2</ele>
        <time>2024-09-08T07:26:21Z</time>
      </trkpt>
      <trkpt lat="46.68345" lon="0.53091">
        <ele>75.2</ele>
        <time>2024-09-08T07:26:24Z</time>
      </trkpt>
      <trkpt lat="46.68346" lon="0.53091">
        <ele>75.4</ele>
        <time>2024-09-08T07:26:25Z</time>
      </trkpt>
      <trkpt lat="46.68347" lon="0.53092">
        <ele>75.6</ele>
        <time>2024-09-08T07:26:26Z</time>
      </trkpt>
      <trkpt lat="46.68349" lon="0.53094">
        <ele>76.2</ele>
        <time>2024-09-08T07:26:30Z</time>
      </trkpt>
      <trkpt lat="46.68352" lon="0.53095">
        <ele>76.6</ele>
        <time>2024-09-08T07:26:33Z</time>
      </trkpt>
      <trkpt lat="46.68353" lon="0.53097">
        <ele>76.8</ele>
        <time>2024-09-08T07:26:35Z</time>
      </trkpt>
      <trkpt lat="46.68361" lon="0.53106">
        <ele>77.4</ele>
        <time>2024-09-08T07:26:42Z</time>
      </trkpt>
      <trkpt lat="46.68362" lon="0.53107">
        <ele>77.6</ele>
        <time>2024-09-08T07:26:43Z</time>
      </trkpt>
      <trkpt lat="46.68366" lon="0.53111">
        <ele>77.6</ele>
        <time>2024-09-08T07:26:46Z</time>
      </trkpt>
      <trkpt lat="46.68367" lon="0.53116">
        <ele>77.4</ele>
        <time>2024-09-08T07:26:48Z</time>
      </trkpt>
      <trkpt lat="46.68367" lon="0.53118">
        <ele>76.8</ele>
        <time>2024-09-08T07:26:49Z</time>
      </trkpt>
      <trkpt lat="46.68371" lon="0.5312">
        <ele>76.2</ele>
        <time>2024-09-08T07:26:51Z</time>
      </trkpt>
      <trkpt lat="46.68372" lon="0.53121">
        <ele>76</ele>
        <time>2024-09-08T07:26:52Z</time>
      </trkpt>
      <trkpt lat="46.68372" lon="0.53122">
        <ele>75.8</ele>
        <time>2024-09-08T07:26:53Z</time>
      </trkpt>
      <trkpt lat="46.68376" lon="0.53129">
        <ele>76.4</ele>
        <time>2024-09-08T07:26:57Z</time>
      </trkpt>
      <trkpt lat="46.68379" lon="0.53134">
        <ele>76.8</ele>
        <time>2024-09-08T07:26:59Z</time>
      </trkpt>
      <trkpt lat="46.68383" lon="0.53139">
        <ele>77.4</ele>
        <time>2024-09-08T07:27:01Z</time>
      </trkpt>
      <trkpt lat="46.6839" lon="0.53148">
        <ele>78.2</ele>
        <time>2024-09-08T07:27:05Z</time>
      </trkpt>
      <trkpt lat="46.68392" lon="0.5315">
        <ele>78.6</ele>
        <time>2024-09-08T07:27:06Z</time>
      </trkpt>
      <trkpt lat="46.68397" lon="0.53156">
        <ele>79.8</ele>
        <time>2024-09-08T07:27:10Z</time>
      </trkpt>
      <trkpt lat="46.68398" lon="0.53158">
        <ele>80</ele>
        <time>2024-09-08T07:27:11Z</time>
      </trkpt>
      <trkpt lat="46.684" lon="0.53164">
        <ele>80.8</ele>
        <time>2024-09-08T07:27:13Z</time>
      </trkpt>
      <trkpt lat="46.68413" lon="0.53177">
        <ele>81</ele>
        <time>2024-09-08T07:27:19Z</time>
      </trkpt>
      <trkpt lat="46.6843" lon="0.53197">
        <ele>80.6</ele>
        <time>2024-09-08T07:27:27Z</time>
      </trkpt>
      <trkpt lat="46.68442" lon="0.53212">
        <ele>81</ele>
        <time>2024-09-08T07:27:33Z</time>
      </trkpt>
      <trkpt lat="46.68443" lon="0.53217">
        <ele>80.6</ele>
        <time>2024-09-08T07:27:35Z</time>
      </trkpt>
      <trkpt lat="46.68442" lon="0.53221">
        <ele>79.6</ele>
        <time>2024-09-08T07:27:37Z</time>
      </trkpt>
      <trkpt lat="46.68442" lon="0.53223">
        <ele>79</ele>
        <time>2024-09-08T07:27:38Z</time>
      </trkpt>
      <trkpt lat="46.68443" lon="0.53224">
        <ele>78.4</ele>
        <time>2024-09-08T07:27:39Z</time>
      </trkpt>
      <trkpt lat="46.68444" lon="0.5323">
        <ele>77.2</ele>
        <time>2024-09-08T07:27:41Z</time>
      </trkpt>
      <trkpt lat="46.68446" lon="0.53233">
        <ele>77</ele>
        <time>2024-09-08T07:27:42Z</time>
      </trkpt>
      <trkpt lat="46.68447" lon="0.53236">
        <ele>76.8</ele>
        <time>2024-09-08T07:27:43Z</time>
      </trkpt>
      <trkpt lat="46.68456" lon="0.5325">
        <ele>78.4</ele>
        <time>2024-09-08T07:27:48Z</time>
      </trkpt>
      <trkpt lat="46.6846" lon="0.53256">
        <ele>78.8</ele>
        <time>2024-09-08T07:27:50Z</time>
      </trkpt>
      <trkpt lat="46.68464" lon="0.5326">
        <ele>79.4</ele>
        <time>2024-09-08T07:27:52Z</time>
      </trkpt>
      <trkpt lat="46.68471" lon="0.53265">
        <ele>80.4</ele>
        <time>2024-09-08T07:27:56Z</time>
      </trkpt>
      <trkpt lat="46.6848" lon="0.53273">
        <ele>80.8</ele>
        <time>2024-09-08T07:28:01Z</time>
      </trkpt>
      <trkpt lat="46.68495" lon="0.53283">
        <ele>80.8</ele>
        <time>2024-09-08T07:28:08Z</time>
      </trkpt>
      <trkpt lat="46.68499" lon="0.5328">
        <ele>81.6</ele>
        <time>2024-09-08T07:28:12Z</time>
      </trkpt>
      <trkpt lat="46.685" lon="0.53279">
        <ele>81.8</ele>
        <time>2024-09-08T07:28:13Z</time>
      </trkpt>
      <trkpt lat="46.685" lon="0.53278">
        <ele>82</ele>
        <time>2024-09-08T07:28:14Z</time>
      </trkpt>
      <trkpt lat="46.68499" lon="0.53276">
        <ele>82.8</ele>
        <time>2024-09-08T07:28:16Z</time>
      </trkpt>
      <trkpt lat="46.68498" lon="0.53273">
        <ele>84</ele>
        <time>2024-09-08T07:28:19Z</time>
      </trkpt>
      <trkpt lat="46.68497" lon="0.53272">
        <ele>84.4</ele>
        <time>2024-09-08T07:28:20Z</time>
      </trkpt>
      <trkpt lat="46.68494" lon="0.53261">
        <ele>85.4</ele>
        <time>2024-09-08T07:28:25Z</time>
      </trkpt>
      <trkpt lat="46.68491" lon="0.53248">
        <ele>86.4</ele>
        <time>2024-09-08T07:28:30Z</time>
      </trkpt>
      <trkpt lat="46.68489" lon="0.53242">
        <ele>87</ele>
        <time>2024-09-08T07:28:32Z</time>
      </trkpt>
      <trkpt lat="46.68487" lon="0.53232">
        <ele>88</ele>
        <time>2024-09-08T07:28:36Z</time>
      </trkpt>
      <trkpt lat="46.68481" lon="0.53212">
        <ele>89.2</ele>
        <time>2024-09-08T07:28:44Z</time>
      </trkpt>
      <trkpt lat="46.68479" lon="0.5321">
        <ele>89.2</ele>
        <time>2024-09-08T07:28:45Z</time>
      </trkpt>
      <trkpt lat="46.68476" lon="0.53199">
        <ele>89.6</ele>
        <time>2024-09-08T07:28:49Z</time>
      </trkpt>
      <trkpt lat="46.68476" lon="0.53191">
        <ele>89.6</ele>
        <time>2024-09-08T07:28:56Z</time>
      </trkpt>
      <trkpt lat="46.68472" lon="0.53185">
        <ele>89.6</ele>
        <time>2024-09-08T07:29:10Z</time>
      </trkpt>
      <trkpt lat="46.6847" lon="0.53184">
        <ele>89.6</ele>
        <time>2024-09-08T07:29:27Z</time>
      </trkpt>
      <trkpt lat="46.68469" lon="0.53183">
        <ele>89.8</ele>
        <time>2024-09-08T07:29:39Z</time>
      </trkpt>
      <trkpt lat="46.68469" lon="0.53183">
        <ele>89.6</ele>
        <time>2024-09-08T07:30:02Z</time>
      </trkpt>
      <trkpt lat="46.68465" lon="0.53177">
        <ele>89.6</ele>
        <time>2024-09-08T07:30:18Z</time>
      </trkpt>
      <trkpt lat="46.68464" lon="0.53176">
        <ele>89.6</ele>
        <time>2024-09-08T07:30:39Z</time>
      </trkpt>
      <trkpt lat="46.68462" lon="0.53176">
        <ele>89.6</ele>
        <time>2024-09-08T07:30:54Z</time>
      </trkpt>
      <trkpt lat="46.68464" lon="0.53175">
        <ele>89.6</ele>
        <time>2024-09-08T07:31:10Z</time>
      </trkpt>
      <trkpt lat="46.68469" lon="0.53172">
        <ele>89.6</ele>
        <time>2024-09-08T07:31:25Z</time>
      </trkpt>
      <trkpt lat="46.6847" lon="0.53172">
        <ele>89.6</ele>
        <time>2024-09-08T07:31:27Z</time>
      </trkpt>
      <trkpt lat="46.68469" lon="0.53168">
        <ele>89.6</ele>
        <time>2024-09-08T07:31:42Z</time>
      </trkpt>
      <trkpt lat="46.6847" lon="0.53166">
        <ele>89.6</ele>
        <time>2024-09-08T07:31:53Z</time>
      </trkpt>
      <trkpt lat="46.6847" lon="0.53166">
        <ele>89.6</ele>
        <time>2024-09-08T07:31:56Z</time>
      </trkpt>
      <trkpt lat="46.68471" lon="0.53166">
        <ele>89.6</ele>
        <time>2024-09-08T07:32:16Z</time>
      </trkpt>
      <trkpt lat="46.68472" lon="0.53165">
        <ele>89.6</ele>
        <time>2024-09-08T07:32:36Z</time>
      </trkpt>
      <trkpt lat="46.68472" lon="0.53166">
        <ele>89.6</ele>
        <time>2024-09-08T07:33:00Z</time>
      </trkpt>
      <trkpt lat="46.68471" lon="0.53166">
        <ele>89.6</ele>
        <time>2024-09-08T07:33:21Z</time>
      </trkpt>
      <trkpt lat="46.68471" lon="0.53168">
        <ele>89.6</ele>
        <time>2024-09-08T07:33:38Z</time>
      </trkpt>
      <trkpt lat="46.68471" lon="0.53171">
        <ele>89.6</ele>
        <time>2024-09-08T07:33:46Z</time>
      </trkpt>
      <trkpt lat="46.6847" lon="0.53176">
        <ele>89.6</ele>
        <time>2024-09-08T07:33:54Z</time>
      </trkpt>
      <trkpt lat="46.68469" lon="0.53179">
        <ele>89.6</ele>
        <time>2024-09-08T07:34:13Z</time>
      </trkpt>
      <trkpt lat="46.68466" lon="0.53178">
        <ele>89.6</ele>
        <time>2024-09-08T07:34:26Z</time>
      </trkpt>
      <trkpt lat="46.68465" lon="0.53177">
        <ele>89.6</ele>
        <time>2024-09-08T07:34:40Z</time>
      </trkpt>
      <trkpt lat="46.68465" lon="0.53175">
        <ele>89.6</ele>
        <time>2024-09-08T07:34:54Z</time>
      </trkpt>
      <trkpt lat="46.68466" lon="0.53174">
        <ele>89.6</ele>
        <time>2024-09-08T07:35:12Z</time>
      </trkpt>
      <trkpt lat="46.68467" lon="0.53175">
        <ele>89.6</ele>
        <time>2024-09-08T07:35:33Z</time>
      </trkpt>
      <trkpt lat="46.68467" lon="0.53175">
        <ele>89.6</ele>
        <time>2024-09-08T07:35:54Z</time>
      </trkpt>
      <trkpt lat="46.68468" lon="0.53177">
        <ele>89.6</ele>
        <time>2024-09-08T07:36:13Z</time>
      </trkpt>
      <trkpt lat="46.68466" lon="0.5318">
        <ele>89.6</ele>
        <time>2024-09-08T07:36:31Z</time>
      </trkpt>
      <trkpt lat="46.68465" lon="0.5318">
        <ele>89.6</ele>
        <time>2024-09-08T07:36:45Z</time>
      </trkpt>
      <trkpt lat="46.68462" lon="0.53183">
        <ele>89.6</ele>
        <time>2024-09-08T07:37:05Z</time>
      </trkpt>
      <trkpt lat="46.68463" lon="0.53182">
        <ele>89.6</ele>
        <time>2024-09-08T07:37:21Z</time>
      </trkpt>
      <trkpt lat="46.68464" lon="0.53179">
        <ele>89.6</ele>
        <time>2024-09-08T07:37:35Z</time>
      </trkpt>
      <trkpt lat="46.68464" lon="0.53177">
        <ele>89.6</ele>
        <time>2024-09-08T07:37:49Z</time>
      </trkpt>
      <trkpt lat="46.68463" lon="0.53176">
        <ele>89.6</ele>
        <time>2024-09-08T07:37:58Z</time>
      </trkpt>
      <trkpt lat="46.68457" lon="0.53173">
        <ele>89.6</ele>
        <time>2024-09-08T07:38:13Z</time>
      </trkpt>
      <trkpt lat="46.68456" lon="0.53163">
        <ele>89.6</ele>
        <time>2024-09-08T07:38:29Z</time>
      </trkpt>
      <trkpt lat="46.68463" lon="0.53167">
        <ele>89.6</ele>
        <time>2024-09-08T07:38:44Z</time>
      </trkpt>
      <trkpt lat="46.68465" lon="0.53167">
        <ele>89.6</ele>
        <time>2024-09-08T07:39:00Z</time>
      </trkpt>
      <trkpt lat="46.68466" lon="0.53165">
        <ele>89.6</ele>
        <time>2024-09-08T07:39:21Z</time>
      </trkpt>
      <trkpt lat="46.68467" lon="0.53166">
        <ele>89.6</ele>
        <time>2024-09-08T07:39:32Z</time>
      </trkpt>
      <trkpt lat="46.68466" lon="0.53168">
        <ele>89.6</ele>
        <time>2024-09-08T07:39:46Z</time>
      </trkpt>
      <trkpt lat="46.68467" lon="0.53171">
        <ele>89.6</ele>
        <time>2024-09-08T07:40:06Z</time>
      </trkpt>
      <trkpt lat="46.68469" lon="0.53174">
        <ele>89.6</ele>
        <time>2024-09-08T07:40:17Z</time>
      </trkpt>
      <trkpt lat="46.68467" lon="0.53158">
        <ele>89.6</ele>
        <time>2024-09-08T07:40:27Z</time>
      </trkpt>
      <trkpt lat="46.68465" lon="0.53147">
        <ele>92.6</ele>
        <time>2024-09-08T07:40:32Z</time>
      </trkpt>
      <trkpt lat="46.68464" lon="0.53139">
        <ele>92.6</ele>
        <time>2024-09-08T07:40:36Z</time>
      </trkpt>
      <trkpt lat="46.68458" lon="0.53123">
        <ele>93</ele>
        <time>2024-09-08T07:40:43Z</time>
      </trkpt>
      <trkpt lat="46.68452" lon="0.53115">
        <ele>93.2</ele>
        <time>2024-09-08T07:40:48Z</time>
      </trkpt>
      <trkpt lat="46.68451" lon="0.53113">
        <ele>93.2</ele>
        <time>2024-09-08T07:40:49Z</time>
      </trkpt>
      <trkpt lat="46.6845" lon="0.53111">
        <ele>93.2</ele>
        <time>2024-09-08T07:40:51Z</time>
      </trkpt>
      <trkpt lat="46.6845" lon="0.53106">
        <ele>93.8</ele>
        <time>2024-09-08T07:40:54Z</time>
      </trkpt>
      <trkpt lat="46.68448" lon="0.53101">
        <ele>94.2</ele>
        <time>2024-09-08T07:40:56Z</time>
      </trkpt>
      <trkpt lat="46.68448" lon="0.53094">
        <ele>94.6</ele>
        <time>2024-09-08T07:40:59Z</time>
      </trkpt>
      <trkpt lat="46.68447" lon="0.53091">
        <ele>95.2</ele>
        <time>2024-09-08T07:41:01Z</time>
      </trkpt>
      <trkpt lat="46.68447" lon="0.53088">
        <ele>95.6</ele>
        <time>2024-09-08T07:41:02Z</time>
      </trkpt>
      <trkpt lat="46.68443" lon="0.53081">
        <ele>96</ele>
        <time>2024-09-08T07:41:05Z</time>
      </trkpt>
      <trkpt lat="46.68434" lon="0.53073">
        <ele>95.2</ele>
        <time>2024-09-08T07:41:11Z</time>
      </trkpt>
      <trkpt lat="46.6843" lon="0.53057">
        <ele>95.2</ele>
        <time>2024-09-08T07:41:17Z</time>
      </trkpt>
      <trkpt lat="46.6843" lon="0.5305">
        <ele>96.2</ele>
        <time>2024-09-08T07:41:21Z</time>
      </trkpt>
      <trkpt lat="46.68432" lon="0.53046">
        <ele>97.4</ele>
        <time>2024-09-08T07:41:24Z</time>
      </trkpt>
      <trkpt lat="46.68436" lon="0.53039">
        <ele>98.2</ele>
        <time>2024-09-08T07:41:28Z</time>
      </trkpt>
      <trkpt lat="46.68437" lon="0.53033">
        <ele>98.6</ele>
        <time>2024-09-08T07:41:30Z</time>
      </trkpt>
      <trkpt lat="46.68435" lon="0.53013">
        <ele>99.2</ele>
        <time>2024-09-08T07:41:36Z</time>
      </trkpt>
      <trkpt lat="46.68435" lon="0.52997">
        <ele>99.4</ele>
        <time>2024-09-08T07:41:42Z</time>
      </trkpt>
      <trkpt lat="46.68436" lon="0.52986">
        <ele>99.6</ele>
        <time>2024-09-08T07:41:47Z</time>
      </trkpt>
      <trkpt lat="46.68438" lon="0.52982">
        <ele>100.2</ele>
        <time>2024-09-08T07:41:50Z</time>
      </trkpt>
      <trkpt lat="46.68439" lon="0.52976">
        <ele>100.8</ele>
        <time>2024-09-08T07:41:54Z</time>
      </trkpt>
      <trkpt lat="46.68441" lon="0.5297">
        <ele>101</ele>
        <time>2024-09-08T07:41:57Z</time>
      </trkpt>
      <trkpt lat="46.68444" lon="0.52965">
        <ele>101.8</ele>
        <time>2024-09-08T07:42:00Z</time>
      </trkpt>
      <trkpt lat="46.68448" lon="0.52963">
        <ele>102</ele>
        <time>2024-09-08T07:42:03Z</time>
      </trkpt>
      <trkpt lat="46.6845" lon="0.52963">
        <ele>102</ele>
        <time>2024-09-08T07:42:04Z</time>
      </trkpt>
      <trkpt lat="46.68457" lon="0.52963">
        <ele>103</ele>
        <time>2024-09-08T07:42:09Z</time>
      </trkpt>
      <trkpt lat="46.68459" lon="0.52963">
        <ele>103.4</ele>
        <time>2024-09-08T07:42:11Z</time>
      </trkpt>
      <trkpt lat="46.68464" lon="0.52962">
        <ele>104</ele>
        <time>2024-09-08T07:42:14Z</time>
      </trkpt>
      <trkpt lat="46.68469" lon="0.52961">
        <ele>105</ele>
        <time>2024-09-08T07:42:17Z</time>
      </trkpt>
      <trkpt lat="46.68471" lon="0.52959">
        <ele>105.2</ele>
        <time>2024-09-08T07:42:18Z</time>
      </trkpt>
      <trkpt lat="46.68473" lon="0.52959">
        <ele>105.4</ele>
        <time>2024-09-08T07:42:19Z</time>
      </trkpt>
      <trkpt lat="46.68479" lon="0.52957">
        <ele>106.2</ele>
        <time>2024-09-08T07:42:23Z</time>
      </trkpt>
      <trkpt lat="46.68481" lon="0.52954">
        <ele>106.4</ele>
        <time>2024-09-08T07:42:25Z</time>
      </trkpt>
      <trkpt lat="46.68492" lon="0.52954">
        <ele>107</ele>
        <time>2024-09-08T07:42:30Z</time>
      </trkpt>
      <trkpt lat="46.68494" lon="0.52954">
        <ele>107.2</ele>
        <time>2024-09-08T07:42:31Z</time>
      </trkpt>
      <trkpt lat="46.68508" lon="0.52957">
        <ele>108.4</ele>
        <time>2024-09-08T07:42:38Z</time>
      </trkpt>
      <trkpt lat="46.68518" lon="0.52956">
        <ele>109.4</ele>
        <time>2024-09-08T07:42:44Z</time>
      </trkpt>
      <trkpt lat="46.68526" lon="0.52957">
        <ele>110.4</ele>
        <time>2024-09-08T07:42:47Z</time>
      </trkpt>
      <trkpt lat="46.68528" lon="0.52958">
        <ele>110.6</ele>
        <time>2024-09-08T07:42:48Z</time>
      </trkpt>
      <trkpt lat="46.68532" lon="0.52959">
        <ele>110.8</ele>
        <time>2024-09-08T07:42:50Z</time>
      </trkpt>
      <trkpt lat="46.68537" lon="0.52963">
        <ele>111</ele>
        <time>2024-09-08T07:42:53Z</time>
      </trkpt>
      <trkpt lat="46.68546" lon="0.52978">
        <ele>111</ele>
        <time>2024-09-08T07:43:00Z</time>
      </trkpt>
      <trkpt lat="46.6855" lon="0.52987">
        <ele>110.8</ele>
        <time>2024-09-08T07:43:04Z</time>
      </trkpt>
      <trkpt lat="46.68556" lon="0.5299">
        <ele>110.6</ele>
        <time>2024-09-08T07:43:07Z</time>
      </trkpt>
      <trkpt lat="46.68558" lon="0.52993">
        <ele>110.4</ele>
        <time>2024-09-08T07:43:09Z</time>
      </trkpt>
      <trkpt lat="46.6856" lon="0.52998">
        <ele>110.4</ele>
        <time>2024-09-08T07:43:12Z</time>
      </trkpt>
      <trkpt lat="46.68568" lon="0.53012">
        <ele>110.6</ele>
        <time>2024-09-08T07:43:18Z</time>
      </trkpt>
      <trkpt lat="46.68578" lon="0.5303">
        <ele>110.4</ele>
        <time>2024-09-08T07:43:24Z</time>
      </trkpt>
      <trkpt lat="46.6858" lon="0.53034">
        <ele>110.6</ele>
        <time>2024-09-08T07:43:25Z</time>
      </trkpt>
      <trkpt lat="46.68583" lon="0.53048">
        <ele>110.2</ele>
        <time>2024-09-08T07:43:29Z</time>
      </trkpt>
      <trkpt lat="46.68592" lon="0.53063">
        <ele>109.6</ele>
        <time>2024-09-08T07:43:34Z</time>
      </trkpt>
      <trkpt lat="46.68594" lon="0.53065">
        <ele>109.6</ele>
        <time>2024-09-08T07:43:35Z</time>
      </trkpt>
      <trkpt lat="46.68604" lon="0.53077">
        <ele>110</ele>
        <time>2024-09-08T07:43:41Z</time>
      </trkpt>
      <trkpt lat="46.6861" lon="0.53076">
        <ele>110.6</ele>
        <time>2024-09-08T07:43:46Z</time>
      </trkpt>
      <trkpt lat="46.68613" lon="0.53075">
        <ele>110.8</ele>
        <time>2024-09-08T07:43:48Z</time>
      </trkpt>
      <trkpt lat="46.6862" lon="0.53078">
        <ele>111</ele>
        <time>2024-09-08T07:43:55Z</time>
      </trkpt>
      <trkpt lat="46.68621" lon="0.53079">
        <ele>110.8</ele>
        <time>2024-09-08T07:43:56Z</time>
      </trkpt>
      <trkpt lat="46.68625" lon="0.53095">
        <ele>110</ele>
        <time>2024-09-08T07:44:04Z</time>
      </trkpt>
      <trkpt lat="46.68629" lon="0.53101">
        <ele>109.8</ele>
        <time>2024-09-08T07:44:07Z</time>
      </trkpt>
      <trkpt lat="46.68631" lon="0.53102">
        <ele>109.6</ele>
        <time>2024-09-08T07:44:09Z</time>
      </trkpt>
      <trkpt lat="46.68632" lon="0.53104">
        <ele>109.4</ele>
        <time>2024-09-08T07:44:10Z</time>
      </trkpt>
      <trkpt lat="46.68634" lon="0.5311">
        <ele>109.2</ele>
        <time>2024-09-08T07:44:12Z</time>
      </trkpt>
      <trkpt lat="46.68638" lon="0.53112">
        <ele>109</ele>
        <time>2024-09-08T07:44:14Z</time>
      </trkpt>
      <trkpt lat="46.68642" lon="0.53112">
        <ele>109</ele>
        <time>2024-09-08T07:44:16Z</time>
      </trkpt>
      <trkpt lat="46.68645" lon="0.53109">
        <ele>109</ele>
        <time>2024-09-08T07:44:18Z</time>
      </trkpt>
      <trkpt lat="46.68648" lon="0.53109">
        <ele>109.2</ele>
        <time>2024-09-08T07:44:19Z</time>
      </trkpt>
      <trkpt lat="46.68661" lon="0.53109">
        <ele>110</ele>
        <time>2024-09-08T07:44:25Z</time>
      </trkpt>
      <trkpt lat="46.68662" lon="0.53109">
        <ele>110</ele>
        <time>2024-09-08T07:44:26Z</time>
      </trkpt>
      <trkpt lat="46.68669" lon="0.53117">
        <ele>109.8</ele>
        <time>2024-09-08T07:44:30Z</time>
      </trkpt>
      <trkpt lat="46.68678" lon="0.53128">
        <ele>109.4</ele>
        <time>2024-09-08T07:44:36Z</time>
      </trkpt>
      <trkpt lat="46.6869" lon="0.53127">
        <ele>108.6</ele>
        <time>2024-09-08T07:44:42Z</time>
      </trkpt>
      <trkpt lat="46.68692" lon="0.53129">
        <ele>109</ele>
        <time>2024-09-08T07:44:48Z</time>
      </trkpt>
      <trkpt lat="46.68703" lon="0.53137">
        <ele>108.6</ele>
        <time>2024-09-08T07:44:52Z</time>
      </trkpt>
      <trkpt lat="46.68706" lon="0.53139">
        <ele>108.6</ele>
        <time>2024-09-08T07:44:53Z</time>
      </trkpt>
      <trkpt lat="46.68716" lon="0.53152">
        <ele>108.4</ele>
        <time>2024-09-08T07:44:59Z</time>
      </trkpt>
      <trkpt lat="46.68717" lon="0.53152">
        <ele>108.6</ele>
        <time>2024-09-08T07:45:00Z</time>
      </trkpt>
      <trkpt lat="46.6872" lon="0.53148">
        <ele>109</ele>
        <time>2024-09-08T07:45:05Z</time>
      </trkpt>
      <trkpt lat="46.68718" lon="0.53141">
        <ele>109</ele>
        <time>2024-09-08T07:45:10Z</time>
      </trkpt>
      <trkpt lat="46.68718" lon="0.53139">
        <ele>109</ele>
        <time>2024-09-08T07:45:11Z</time>
      </trkpt>
      <trkpt lat="46.68718" lon="0.53137">
        <ele>109.4</ele>
        <time>2024-09-08T07:45:14Z</time>
      </trkpt>
      <trkpt lat="46.68718" lon="0.53136">
        <ele>109.4</ele>
        <time>2024-09-08T07:45:15Z</time>
      </trkpt>
      <trkpt lat="46.68721" lon="0.53137">
        <ele>109.4</ele>
        <time>2024-09-08T07:45:21Z</time>
      </trkpt>
      <trkpt lat="46.68726" lon="0.53136">
        <ele>108.6</ele>
        <time>2024-09-08T07:45:27Z</time>
      </trkpt>
      <trkpt lat="46.68727" lon="0.53134">
        <ele>108.8</ele>
        <time>2024-09-08T07:45:29Z</time>
      </trkpt>
      <trkpt lat="46.68728" lon="0.53132">
        <ele>109.4</ele>
        <time>2024-09-08T07:45:33Z</time>
      </trkpt>
      <trkpt lat="46.68732" lon="0.53134">
        <ele>109.2</ele>
        <time>2024-09-08T07:45:38Z</time>
      </trkpt>
      <trkpt lat="46.68735" lon="0.5314">
        <ele>108.6</ele>
        <time>2024-09-08T07:45:44Z</time>
      </trkpt>
      <trkpt lat="46.68738" lon="0.53142">
        <ele>108.2</ele>
        <time>2024-09-08T07:45:49Z</time>
      </trkpt>
      <trkpt lat="46.68742" lon="0.53145">
        <ele>108.2</ele>
        <time>2024-09-08T07:45:52Z</time>
      </trkpt>
      <trkpt lat="46.68744" lon="0.53145">
        <ele>108.8</ele>
        <time>2024-09-08T07:45:54Z</time>
      </trkpt>
      <trkpt lat="46.68745" lon="0.53145">
        <ele>109</ele>
        <time>2024-09-08T07:45:55Z</time>
      </trkpt>
      <trkpt lat="46.68745" lon="0.53139">
        <ele>108.8</ele>
        <time>2024-09-08T07:46:01Z</time>
      </trkpt>
      <trkpt lat="46.68741" lon="0.53133">
        <ele>108.6</ele>
        <time>2024-09-08T07:46:07Z</time>
      </trkpt>
      <trkpt lat="46.68741" lon="0.53133">
        <ele>108.6</ele>
        <time>2024-09-08T07:46:08Z</time>
      </trkpt>
      <trkpt lat="46.68743" lon="0.53134">
        <ele>109</ele>
        <time>2024-09-08T07:46:12Z</time>
      </trkpt>
      <trkpt lat="46.68749" lon="0.53135">
        <ele>108.8</ele>
        <time>2024-09-08T07:46:19Z</time>
      </trkpt>
      <trkpt lat="46.68749" lon="0.53128">
        <ele>109</ele>
        <time>2024-09-08T07:46:25Z</time>
      </trkpt>
      <trkpt lat="46.68748" lon="0.53127">
        <ele>109</ele>
        <time>2024-09-08T07:46:27Z</time>
      </trkpt>
      <trkpt lat="46.68745" lon="0.53122">
        <ele>108.8</ele>
        <time>2024-09-08T07:46:32Z</time>
      </trkpt>
      <trkpt lat="46.68747" lon="0.53124">
        <ele>109</ele>
        <time>2024-09-08T07:46:38Z</time>
      </trkpt>
      <trkpt lat="46.68754" lon="0.53131">
        <ele>109</ele>
        <time>2024-09-08T07:46:44Z</time>
      </trkpt>
      <trkpt lat="46.68755" lon="0.53132">
        <ele>109</ele>
        <time>2024-09-08T07:46:45Z</time>
      </trkpt>
      <trkpt lat="46.68758" lon="0.53139">
        <ele>108.8</ele>
        <time>2024-09-08T07:46:50Z</time>
      </trkpt>
      <trkpt lat="46.68759" lon="0.53139">
        <ele>108.6</ele>
        <time>2024-09-08T07:46:51Z</time>
      </trkpt>
      <trkpt lat="46.6876" lon="0.53128">
        <ele>109.2</ele>
        <time>2024-09-08T07:46:56Z</time>
      </trkpt>
      <trkpt lat="46.68765" lon="0.5312">
        <ele>109.4</ele>
        <time>2024-09-08T07:47:01Z</time>
      </trkpt>
      <trkpt lat="46.68766" lon="0.53118">
        <ele>109.4</ele>
        <time>2024-09-08T07:47:03Z</time>
      </trkpt>
      <trkpt lat="46.68767" lon="0.53115">
        <ele>109.6</ele>
        <time>2024-09-08T07:47:06Z</time>
      </trkpt>
      <trkpt lat="46.68767" lon="0.53113">
        <ele>109.8</ele>
        <time>2024-09-08T07:47:08Z</time>
      </trkpt>
      <trkpt lat="46.6877" lon="0.53102">
        <ele>109.6</ele>
        <time>2024-09-08T07:47:15Z</time>
      </trkpt>
      <trkpt lat="46.68769" lon="0.53101">
        <ele>109.6</ele>
        <time>2024-09-08T07:47:16Z</time>
      </trkpt>
      <trkpt lat="46.68761" lon="0.53098">
        <ele>109.8</ele>
        <time>2024-09-08T07:47:23Z</time>
      </trkpt>
      <trkpt lat="46.68751" lon="0.53098">
        <ele>109.8</ele>
        <time>2024-09-08T07:47:33Z</time>
      </trkpt>
      <trkpt lat="46.68751" lon="0.53098">
        <ele>109.8</ele>
        <time>2024-09-08T07:47:34Z</time>
      </trkpt>
      <trkpt lat="46.68751" lon="0.53099">
        <ele>109.6</ele>
        <time>2024-09-08T07:47:40Z</time>
      </trkpt>
      <trkpt lat="46.6875" lon="0.53098">
        <ele>109.4</ele>
        <time>2024-09-08T07:47:55Z</time>
      </trkpt>
      <trkpt lat="46.68751" lon="0.53096">
        <ele>109.6</ele>
        <time>2024-09-08T07:48:04Z</time>
      </trkpt>
      <trkpt lat="46.6875" lon="0.53089">
        <ele>109.8</ele>
        <time>2024-09-08T07:48:18Z</time>
      </trkpt>
      <trkpt lat="46.68749" lon="0.53084">
        <ele>110.8</ele>
        <time>2024-09-08T07:48:22Z</time>
      </trkpt>
      <trkpt lat="46.68748" lon="0.53074">
        <ele>111.4</ele>
        <time>2024-09-08T07:48:28Z</time>
      </trkpt>
      <trkpt lat="46.6875" lon="0.53073">
        <ele>111.4</ele>
        <time>2024-09-08T07:48:29Z</time>
      </trkpt>
      <trkpt lat="46.68757" lon="0.53069">
        <ele>111.4</ele>
        <time>2024-09-08T07:48:35Z</time>
      </trkpt>
      <trkpt lat="46.68768" lon="0.53066">
        <ele>110.2</ele>
        <time>2024-09-08T07:48:40Z</time>
      </trkpt>
      <trkpt lat="46.68772" lon="0.53064">
        <ele>110.4</ele>
        <time>2024-09-08T07:48:44Z</time>
      </trkpt>
      <trkpt lat="46.68773" lon="0.53059">
        <ele>110.6</ele>
        <time>2024-09-08T07:48:46Z</time>
      </trkpt>
      <trkpt lat="46.68776" lon="0.53046">
        <ele>111.2</ele>
        <time>2024-09-08T07:48:53Z</time>
      </trkpt>
      <trkpt lat="46.68779" lon="0.53034">
        <ele>111.8</ele>
        <time>2024-09-08T07:48:58Z</time>
      </trkpt>
      <trkpt lat="46.6878" lon="0.53029">
        <ele>112</ele>
        <time>2024-09-08T07:49:00Z</time>
      </trkpt>
      <trkpt lat="46.68781" lon="0.53018">
        <ele>112.8</ele>
        <time>2024-09-08T07:49:04Z</time>
      </trkpt>
      <trkpt lat="46.68781" lon="0.53014">
        <ele>113</ele>
        <time>2024-09-08T07:49:06Z</time>
      </trkpt>
      <trkpt lat="46.68786" lon="0.53002">
        <ele>113.4</ele>
        <time>2024-09-08T07:49:14Z</time>
      </trkpt>
      <trkpt lat="46.68786" lon="0.53001">
        <ele>113.6</ele>
        <time>2024-09-08T07:49:15Z</time>
      </trkpt>
      <trkpt lat="46.68789" lon="0.52989">
        <ele>113.8</ele>
        <time>2024-09-08T07:49:20Z</time>
      </trkpt>
      <trkpt lat="46.68789" lon="0.52985">
        <ele>114</ele>
        <time>2024-09-08T07:49:22Z</time>
      </trkpt>
      <trkpt lat="46.68789" lon="0.52975">
        <ele>114.6</ele>
        <time>2024-09-08T07:49:31Z</time>
      </trkpt>
      <trkpt lat="46.68793" lon="0.52974">
        <ele>114.4</ele>
        <time>2024-09-08T07:49:43Z</time>
      </trkpt>
      <trkpt lat="46.68797" lon="0.52969">
        <ele>114.2</ele>
        <time>2024-09-08T07:49:55Z</time>
      </trkpt>
      <trkpt lat="46.68797" lon="0.5296">
        <ele>115</ele>
        <time>2024-09-08T07:49:59Z</time>
      </trkpt>
      <trkpt lat="46.68797" lon="0.52954">
        <ele>115.4</ele>
        <time>2024-09-08T07:50:03Z</time>
      </trkpt>
      <trkpt lat="46.68803" lon="0.52946">
        <ele>115.4</ele>
        <time>2024-09-08T07:50:13Z</time>
      </trkpt>
      <trkpt lat="46.68803" lon="0.52939">
        <ele>115.6</ele>
        <time>2024-09-08T07:50:21Z</time>
      </trkpt>
      <trkpt lat="46.68803" lon="0.52934">
        <ele>116.2</ele>
        <time>2024-09-08T07:50:24Z</time>
      </trkpt>
      <trkpt lat="46.68805" lon="0.5293">
        <ele>116.4</ele>
        <time>2024-09-08T07:50:28Z</time>
      </trkpt>
      <trkpt lat="46.68807" lon="0.52928">
        <ele>116.6</ele>
        <time>2024-09-08T07:50:31Z</time>
      </trkpt>
      <trkpt lat="46.68818" lon="0.52923">
        <ele>116.8</ele>
        <time>2024-09-08T07:50:41Z</time>
      </trkpt>
      <trkpt lat="46.68821" lon="0.52926">
        <ele>116.6</ele>
        <time>2024-09-08T07:50:45Z</time>
      </trkpt>
      <trkpt lat="46.68822" lon="0.52932">
        <ele>116.6</ele>
        <time>2024-09-08T07:50:48Z</time>
      </trkpt>
      <trkpt lat="46.68822" lon="0.52951">
        <ele>116</ele>
        <time>2024-09-08T07:50:53Z</time>
      </trkpt>
      <trkpt lat="46.68816" lon="0.52972">
        <ele>115.2</ele>
        <time>2024-09-08T07:50:58Z</time>
      </trkpt>
      <trkpt lat="46.6881" lon="0.52989">
        <ele>114.8</ele>
        <time>2024-09-08T07:51:01Z</time>
      </trkpt>
      <trkpt lat="46.68802" lon="0.53012">
        <ele>114</ele>
        <time>2024-09-08T07:51:04Z</time>
      </trkpt>
      <trkpt lat="46.688" lon="0.5302">
        <ele>113.6</ele>
        <time>2024-09-08T07:51:05Z</time>
      </trkpt>
      <trkpt lat="46.68796" lon="0.53046">
        <ele>112.4</ele>
        <time>2024-09-08T07:51:08Z</time>
      </trkpt>
      <trkpt lat="46.68795" lon="0.53055">
        <ele>112.2</ele>
        <time>2024-09-08T07:51:09Z</time>
      </trkpt>
      <trkpt lat="46.68792" lon="0.53078">
        <ele>111.2</ele>
        <time>2024-09-08T07:51:12Z</time>
      </trkpt>
      <trkpt lat="46.68791" lon="0.53083">
        <ele>110.6</ele>
        <time>2024-09-08T07:51:13Z</time>
      </trkpt>
      <trkpt lat="46.6879" lon="0.53087">
        <ele>110.2</ele>
        <time>2024-09-08T07:51:14Z</time>
      </trkpt>
      <trkpt lat="46.68787" lon="0.53092">
        <ele>109.4</ele>
        <time>2024-09-08T07:51:17Z</time>
      </trkpt>
      <trkpt lat="46.68786" lon="0.53094">
        <ele>109</ele>
        <time>2024-09-08T07:51:20Z</time>
      </trkpt>
      <trkpt lat="46.68786" lon="0.53095">
        <ele>108.8</ele>
        <time>2024-09-08T07:51:29Z</time>
      </trkpt>
      <trkpt lat="46.68787" lon="0.53096">
        <ele>108.6</ele>
        <time>2024-09-08T07:51:43Z</time>
      </trkpt>
      <trkpt lat="46.68785" lon="0.53097">
        <ele>108.6</ele>
        <time>2024-09-08T07:52:01Z</time>
      </trkpt>
      <trkpt lat="46.68785" lon="0.53098">
        <ele>108.6</ele>
        <time>2024-09-08T07:52:19Z</time>
      </trkpt>
      <trkpt lat="46.68785" lon="0.53099">
        <ele>108.6</ele>
        <time>2024-09-08T07:52:36Z</time>
      </trkpt>
      <trkpt lat="46.68785" lon="0.531">
        <ele>108.6</ele>
        <time>2024-09-08T07:52:52Z</time>
      </trkpt>
      <trkpt lat="46.68785" lon="0.531">
        <ele>108.6</ele>
        <time>2024-09-08T07:53:09Z</time>
      </trkpt>
      <trkpt lat="46.68785" lon="0.53099">
        <ele>108.6</ele>
        <time>2024-09-08T07:53:28Z</time>
      </trkpt>
      <trkpt lat="46.68785" lon="0.53099">
        <ele>108.6</ele>
        <time>2024-09-08T07:53:45Z</time>
      </trkpt>
      <trkpt lat="46.68786" lon="0.53099">
        <ele>108.6</ele>
        <time>2024-09-08T07:54:09Z</time>
      </trkpt>
      <trkpt lat="46.68786" lon="0.53099">
        <ele>108.6</ele>
        <time>2024-09-08T07:55:05Z</time>
      </trkpt>
      <trkpt lat="46.68785" lon="0.53099">
        <ele>108.6</ele>
        <time>2024-09-08T07:55:39Z</time>
      </trkpt>
      <trkpt lat="46.68787" lon="0.53101">
        <ele>108.6</ele>
        <time>2024-09-08T07:57:29Z</time>
      </trkpt>
      <trkpt lat="46.68789" lon="0.53102">
        <ele>108.6</ele>
        <time>2024-09-08T07:57:30Z</time>
      </trkpt>
      <trkpt lat="46.68789" lon="0.53097">
        <ele>108.6</ele>
        <time>2024-09-08T07:57:33Z</time>
      </trkpt>
      <trkpt lat="46.68789" lon="0.53095">
        <ele>108.6</ele>
        <time>2024-09-08T07:57:34Z</time>
      </trkpt>
      <trkpt lat="46.6879" lon="0.53076">
        <ele>109.8</ele>
        <time>2024-09-08T07:57:40Z</time>
      </trkpt>
      <trkpt lat="46.68791" lon="0.53064">
        <ele>110.2</ele>
        <time>2024-09-08T07:57:43Z</time>
      </trkpt>
      <trkpt lat="46.68793" lon="0.53043">
        <ele>111.2</ele>
        <time>2024-09-08T07:57:47Z</time>
      </trkpt>
      <trkpt lat="46.68794" lon="0.53038">
        <ele>111.2</ele>
        <time>2024-09-08T07:57:48Z</time>
      </trkpt>
      <trkpt lat="46.68801" lon="0.53012">
        <ele>112.4</ele>
        <time>2024-09-08T07:57:53Z</time>
      </trkpt>
      <trkpt lat="46.68803" lon="0.53008">
        <ele>112.6</ele>
        <time>2024-09-08T07:57:54Z</time>
      </trkpt>
      <trkpt lat="46.68809" lon="0.52994">
        <ele>113.4</ele>
        <time>2024-09-08T07:57:57Z</time>
      </trkpt>
      <trkpt lat="46.68815" lon="0.52976">
        <ele>114.4</ele>
        <time>2024-09-08T07:58:01Z</time>
      </trkpt>
      <trkpt lat="46.68816" lon="0.52972">
        <ele>114.6</ele>
        <time>2024-09-08T07:58:02Z</time>
      </trkpt>
      <trkpt lat="46.68821" lon="0.52955">
        <ele>115.6</ele>
        <time>2024-09-08T07:58:06Z</time>
      </trkpt>
      <trkpt lat="46.68826" lon="0.5295">
        <ele>116</ele>
        <time>2024-09-08T07:58:08Z</time>
      </trkpt>
      <trkpt lat="46.6884" lon="0.52934">
        <ele>116.6</ele>
        <time>2024-09-08T07:58:14Z</time>
      </trkpt>
      <trkpt lat="46.68845" lon="0.5292">
        <ele>116.8</ele>
        <time>2024-09-08T07:58:17Z</time>
      </trkpt>
      <trkpt lat="46.68849" lon="0.52912">
        <ele>117.2</ele>
        <time>2024-09-08T07:58:19Z</time>
      </trkpt>
      <trkpt lat="46.68864" lon="0.52895">
        <ele>118</ele>
        <time>2024-09-08T07:58:25Z</time>
      </trkpt>
      <trkpt lat="46.68879" lon="0.52879">
        <ele>119</ele>
        <time>2024-09-08T07:58:30Z</time>
      </trkpt>
      <trkpt lat="46.68883" lon="0.52875">
        <ele>119</ele>
        <time>2024-09-08T07:58:31Z</time>
      </trkpt>
      <trkpt lat="46.68902" lon="0.52855">
        <ele>118.8</ele>
        <time>2024-09-08T07:58:36Z</time>
      </trkpt>
      <trkpt lat="46.68906" lon="0.52851">
        <ele>118.8</ele>
        <time>2024-09-08T07:58:37Z</time>
      </trkpt>
      <trkpt lat="46.68913" lon="0.52842">
        <ele>118.6</ele>
        <time>2024-09-08T07:58:39Z</time>
      </trkpt>
      <trkpt lat="46.68928" lon="0.52828">
        <ele>118.4</ele>
        <time>2024-09-08T07:58:43Z</time>
      </trkpt>
      <trkpt lat="46.68949" lon="0.52805">
        <ele>118.2</ele>
        <time>2024-09-08T07:58:48Z</time>
      </trkpt>
      <trkpt lat="46.68955" lon="0.52799">
        <ele>118.2</ele>
        <time>2024-09-08T07:58:49Z</time>
      </trkpt>
      <trkpt lat="46.68965" lon="0.5279">
        <ele>118.2</ele>
        <time>2024-09-08T07:58:51Z</time>
      </trkpt>
      <trkpt lat="46.68969" lon="0.52785">
        <ele>117.8</ele>
        <time>2024-09-08T07:58:52Z</time>
      </trkpt>
      <trkpt lat="46.68986" lon="0.52763">
        <ele>116.8</ele>
        <time>2024-09-08T07:58:58Z</time>
      </trkpt>
      <trkpt lat="46.68991" lon="0.52756">
        <ele>116.8</ele>
        <time>2024-09-08T07:59:00Z</time>
      </trkpt>
      <trkpt lat="46.69001" lon="0.52741">
        <ele>116.8</ele>
        <time>2024-09-08T07:59:04Z</time>
      </trkpt>
      <trkpt lat="46.69017" lon="0.52718">
        <ele>116.6</ele>
        <time>2024-09-08T07:59:10Z</time>
      </trkpt>
      <trkpt lat="46.69044" lon="0.52688">
        <ele>116.6</ele>
        <time>2024-09-08T07:59:17Z</time>
      </trkpt>
      <trkpt lat="46.69059" lon="0.52679">
        <ele>116.6</ele>
        <time>2024-09-08T07:59:22Z</time>
      </trkpt>
      <trkpt lat="46.69075" lon="0.52687">
        <ele>115.6</ele>
        <time>2024-09-08T07:59:26Z</time>
      </trkpt>
      <trkpt lat="46.69102" lon="0.52701">
        <ele>115</ele>
        <time>2024-09-08T07:59:32Z</time>
      </trkpt>
      <trkpt lat="46.69107" lon="0.52704">
        <ele>114.4</ele>
        <time>2024-09-08T07:59:33Z</time>
      </trkpt>
      <trkpt lat="46.69116" lon="0.5271">
        <ele>114.2</ele>
        <time>2024-09-08T07:59:35Z</time>
      </trkpt>
      <trkpt lat="46.69126" lon="0.52716">
        <ele>113.2</ele>
        <time>2024-09-08T07:59:37Z</time>
      </trkpt>
      <trkpt lat="46.69136" lon="0.52722">
        <ele>112.6</ele>
        <time>2024-09-08T07:59:39Z</time>
      </trkpt>
      <trkpt lat="46.69141" lon="0.52725">
        <ele>112.2</ele>
        <time>2024-09-08T07:59:40Z</time>
      </trkpt>
      <trkpt lat="46.69145" lon="0.5273">
        <ele>111.8</ele>
        <time>2024-09-08T07:59:41Z</time>
      </trkpt>
      <trkpt lat="46.69147" lon="0.52736">
        <ele>111.2</ele>
        <time>2024-09-08T07:59:42Z</time>
      </trkpt>
      <trkpt lat="46.6915" lon="0.52742">
        <ele>110.6</ele>
        <time>2024-09-08T07:59:43Z</time>
      </trkpt>
      <trkpt lat="46.69153" lon="0.52759">
        <ele>109.4</ele>
        <time>2024-09-08T07:59:46Z</time>
      </trkpt>
      <trkpt lat="46.69152" lon="0.52769">
        <ele>109</ele>
        <time>2024-09-08T07:59:48Z</time>
      </trkpt>
      <trkpt lat="46.69147" lon="0.5279">
        <ele>108</ele>
        <time>2024-09-08T07:59:52Z</time>
      </trkpt>
      <trkpt lat="46.69145" lon="0.52796">
        <ele>107.4</ele>
        <time>2024-09-08T07:59:53Z</time>
      </trkpt>
      <trkpt lat="46.69145" lon="0.52808">
        <ele>106.6</ele>
        <time>2024-09-08T07:59:55Z</time>
      </trkpt>
      <trkpt lat="46.69147" lon="0.52815">
        <ele>106.4</ele>
        <time>2024-09-08T07:59:56Z</time>
      </trkpt>
      <trkpt lat="46.6915" lon="0.52821">
        <ele>106.4</ele>
        <time>2024-09-08T07:59:57Z</time>
      </trkpt>
      <trkpt lat="46.69161" lon="0.52831">
        <ele>105.4</ele>
        <time>2024-09-08T07:59:59Z</time>
      </trkpt>
      <trkpt lat="46.69166" lon="0.52836">
        <ele>105.2</ele>
        <time>2024-09-08T08:00:00Z</time>
      </trkpt>
      <trkpt lat="46.69189" lon="0.52853">
        <ele>103.8</ele>
        <time>2024-09-08T08:00:04Z</time>
      </trkpt>
      <trkpt lat="46.69202" lon="0.52864">
        <ele>102.6</ele>
        <time>2024-09-08T08:00:06Z</time>
      </trkpt>
      <trkpt lat="46.69217" lon="0.52878">
        <ele>100.8</ele>
        <time>2024-09-08T08:00:08Z</time>
      </trkpt>
      <trkpt lat="46.69224" lon="0.52886">
        <ele>100</ele>
        <time>2024-09-08T08:00:09Z</time>
      </trkpt>
      <trkpt lat="46.69232" lon="0.52893">
        <ele>99.2</ele>
        <time>2024-09-08T08:00:10Z</time>
      </trkpt>
      <trkpt lat="46.6924" lon="0.52901">
        <ele>98</ele>
        <time>2024-09-08T08:00:11Z</time>
      </trkpt>
      <trkpt lat="46.69255" lon="0.52914">
        <ele>96.6</ele>
        <time>2024-09-08T08:00:13Z</time>
      </trkpt>
      <trkpt lat="46.69269" lon="0.52929">
        <ele>95.4</ele>
        <time>2024-09-08T08:00:15Z</time>
      </trkpt>
      <trkpt lat="46.69282" lon="0.52944">
        <ele>94.2</ele>
        <time>2024-09-08T08:00:17Z</time>
      </trkpt>
      <trkpt lat="46.69298" lon="0.52968">
        <ele>92.2</ele>
        <time>2024-09-08T08:00:20Z</time>
      </trkpt>
      <trkpt lat="46.69307" lon="0.52983">
        <ele>91</ele>
        <time>2024-09-08T08:00:22Z</time>
      </trkpt>
      <trkpt lat="46.69314" lon="0.52998">
        <ele>89.6</ele>
        <time>2024-09-08T08:00:24Z</time>
      </trkpt>
      <trkpt lat="46.69317" lon="0.53004">
        <ele>89</ele>
        <time>2024-09-08T08:00:25Z</time>
      </trkpt>
      <trkpt lat="46.6932" lon="0.53012">
        <ele>88.4</ele>
        <time>2024-09-08T08:00:26Z</time>
      </trkpt>
      <trkpt lat="46.69324" lon="0.53024">
        <ele>87.6</ele>
        <time>2024-09-08T08:00:28Z</time>
      </trkpt>
      <trkpt lat="46.69324" lon="0.53029">
        <ele>86.8</ele>
        <time>2024-09-08T08:00:29Z</time>
      </trkpt>
      <trkpt lat="46.69323" lon="0.53033">
        <ele>86.2</ele>
        <time>2024-09-08T08:00:30Z</time>
      </trkpt>
      <trkpt lat="46.69322" lon="0.53037">
        <ele>85.8</ele>
        <time>2024-09-08T08:00:31Z</time>
      </trkpt>
      <trkpt lat="46.69319" lon="0.53044">
        <ele>85.4</ele>
        <time>2024-09-08T08:00:33Z</time>
      </trkpt>
      <trkpt lat="46.69305" lon="0.53065">
        <ele>84.8</ele>
        <time>2024-09-08T08:00:38Z</time>
      </trkpt>
      <trkpt lat="46.69303" lon="0.53069">
        <ele>84.6</ele>
        <time>2024-09-08T08:00:39Z</time>
      </trkpt>
      <trkpt lat="46.69292" lon="0.53098">
        <ele>83.8</ele>
        <time>2024-09-08T08:00:45Z</time>
      </trkpt>
      <trkpt lat="46.6929" lon="0.53104">
        <ele>83.8</ele>
        <time>2024-09-08T08:00:46Z</time>
      </trkpt>
      <trkpt lat="46.69287" lon="0.53132">
        <ele>84.2</ele>
        <time>2024-09-08T08:00:51Z</time>
      </trkpt>
      <trkpt lat="46.6928" lon="0.53156">
        <ele>84.4</ele>
        <time>2024-09-08T08:00:56Z</time>
      </trkpt>
      <trkpt lat="46.69277" lon="0.53171">
        <ele>84.8</ele>
        <time>2024-09-08T08:00:59Z</time>
      </trkpt>
      <trkpt lat="46.69275" lon="0.53182">
        <ele>85.2</ele>
        <time>2024-09-08T08:01:01Z</time>
      </trkpt>
      <trkpt lat="46.69272" lon="0.53189">
        <ele>85.2</ele>
        <time>2024-09-08T08:01:05Z</time>
      </trkpt>
      <trkpt lat="46.69266" lon="0.53194">
        <ele>85.2</ele>
        <time>2024-09-08T08:01:12Z</time>
      </trkpt>
      <trkpt lat="46.69259" lon="0.53206">
        <ele>85.4</ele>
        <time>2024-09-08T08:01:17Z</time>
      </trkpt>
      <trkpt lat="46.69255" lon="0.53224">
        <ele>85.4</ele>
        <time>2024-09-08T08:01:22Z</time>
      </trkpt>
      <trkpt lat="46.69247" lon="0.53258">
        <ele>85.4</ele>
        <time>2024-09-08T08:01:28Z</time>
      </trkpt>
      <trkpt lat="46.69239" lon="0.53293">
        <ele>85.6</ele>
        <time>2024-09-08T08:01:34Z</time>
      </trkpt>
      <trkpt lat="46.69237" lon="0.5331">
        <ele>86</ele>
        <time>2024-09-08T08:01:37Z</time>
      </trkpt>
      <trkpt lat="46.69235" lon="0.53326">
        <ele>86.6</ele>
        <time>2024-09-08T08:01:40Z</time>
      </trkpt>
      <trkpt lat="46.69228" lon="0.53351">
        <ele>87</ele>
        <time>2024-09-08T08:01:45Z</time>
      </trkpt>
      <trkpt lat="46.69225" lon="0.53361">
        <ele>87.4</ele>
        <time>2024-09-08T08:01:47Z</time>
      </trkpt>
      <trkpt lat="46.69221" lon="0.53371">
        <ele>88.2</ele>
        <time>2024-09-08T08:01:49Z</time>
      </trkpt>
      <trkpt lat="46.69212" lon="0.53389">
        <ele>89.2</ele>
        <time>2024-09-08T08:01:53Z</time>
      </trkpt>
      <trkpt lat="46.6921" lon="0.53394">
        <ele>89.4</ele>
        <time>2024-09-08T08:01:54Z</time>
      </trkpt>
      <trkpt lat="46.69204" lon="0.53414">
        <ele>90.2</ele>
        <time>2024-09-08T08:01:59Z</time>
      </trkpt>
      <trkpt lat="46.69204" lon="0.53428">
        <ele>91.6</ele>
        <time>2024-09-08T08:02:03Z</time>
      </trkpt>
      <trkpt lat="46.69205" lon="0.5344">
        <ele>93.2</ele>
        <time>2024-09-08T08:02:08Z</time>
      </trkpt>
      <trkpt lat="46.69207" lon="0.53445">
        <ele>93.6</ele>
        <time>2024-09-08T08:02:10Z</time>
      </trkpt>
      <trkpt lat="46.69208" lon="0.5345">
        <ele>94.4</ele>
        <time>2024-09-08T08:02:12Z</time>
      </trkpt>
      <trkpt lat="46.69209" lon="0.53456">
        <ele>95.4</ele>
        <time>2024-09-08T08:02:15Z</time>
      </trkpt>
      <trkpt lat="46.69211" lon="0.53462">
        <ele>96.2</ele>
        <time>2024-09-08T08:02:17Z</time>
      </trkpt>
      <trkpt lat="46.6921" lon="0.53474">
        <ele>96.8</ele>
        <time>2024-09-08T08:02:20Z</time>
      </trkpt>
      <trkpt lat="46.69207" lon="0.53484">
        <ele>97</ele>
        <time>2024-09-08T08:02:22Z</time>
      </trkpt>
      <trkpt lat="46.69206" lon="0.5352">
        <ele>96.6</ele>
        <time>2024-09-08T08:02:29Z</time>
      </trkpt>
      <trkpt lat="46.69203" lon="0.53557">
        <ele>97.4</ele>
        <time>2024-09-08T08:02:36Z</time>
      </trkpt>
      <trkpt lat="46.69197" lon="0.53582">
        <ele>96.6</ele>
        <time>2024-09-08T08:02:42Z</time>
      </trkpt>
      <trkpt lat="46.69196" lon="0.53611">
        <ele>97.2</ele>
        <time>2024-09-08T08:02:48Z</time>
      </trkpt>
      <trkpt lat="46.692" lon="0.53626">
        <ele>98</ele>
        <time>2024-09-08T08:02:52Z</time>
      </trkpt>
      <trkpt lat="46.69203" lon="0.53632">
        <ele>98.4</ele>
        <time>2024-09-08T08:02:54Z</time>
      </trkpt>
      <trkpt lat="46.69206" lon="0.53634">
        <ele>99.2</ele>
        <time>2024-09-08T08:02:56Z</time>
      </trkpt>
      <trkpt lat="46.6921" lon="0.53634">
        <ele>100.4</ele>
        <time>2024-09-08T08:02:58Z</time>
      </trkpt>
      <trkpt lat="46.69212" lon="0.53633">
        <ele>100.6</ele>
        <time>2024-09-08T08:02:59Z</time>
      </trkpt>
      <trkpt lat="46.69218" lon="0.53629">
        <ele>101.4</ele>
        <time>2024-09-08T08:03:02Z</time>
      </trkpt>
      <trkpt lat="46.69225" lon="0.5362">
        <ele>102.2</ele>
        <time>2024-09-08T08:03:06Z</time>
      </trkpt>
      <trkpt lat="46.69227" lon="0.53619">
        <ele>102.6</ele>
        <time>2024-09-08T08:03:07Z</time>
      </trkpt>
      <trkpt lat="46.69236" lon="0.53616">
        <ele>103</ele>
        <time>2024-09-08T08:03:11Z</time>
      </trkpt>
      <trkpt lat="46.69242" lon="0.53617">
        <ele>103.6</ele>
        <time>2024-09-08T08:03:14Z</time>
      </trkpt>
      <trkpt lat="46.6925" lon="0.53622">
        <ele>104.2</ele>
        <time>2024-09-08T08:03:17Z</time>
      </trkpt>
      <trkpt lat="46.69253" lon="0.53626">
        <ele>104.8</ele>
        <time>2024-09-08T08:03:19Z</time>
      </trkpt>
      <trkpt lat="46.69263" lon="0.53634">
        <ele>105.2</ele>
        <time>2024-09-08T08:03:23Z</time>
      </trkpt>
      <trkpt lat="46.69273" lon="0.53646">
        <ele>106.2</ele>
        <time>2024-09-08T08:03:27Z</time>
      </trkpt>
      <trkpt lat="46.69276" lon="0.53654">
        <ele>106.8</ele>
        <time>2024-09-08T08:03:29Z</time>
      </trkpt>
      <trkpt lat="46.69278" lon="0.53666">
        <ele>107.4</ele>
        <time>2024-09-08T08:03:32Z</time>
      </trkpt>
      <trkpt lat="46.69279" lon="0.53675">
        <ele>107.6</ele>
        <time>2024-09-08T08:03:34Z</time>
      </trkpt>
      <trkpt lat="46.69279" lon="0.53693">
        <ele>107.2</ele>
        <time>2024-09-08T08:03:39Z</time>
      </trkpt>
      <trkpt lat="46.69278" lon="0.53695">
        <ele>107.2</ele>
        <time>2024-09-08T08:03:40Z</time>
      </trkpt>
      <trkpt lat="46.69268" lon="0.53702">
        <ele>106.4</ele>
        <time>2024-09-08T08:03:47Z</time>
      </trkpt>
      <trkpt lat="46.69265" lon="0.53704">
        <ele>106.2</ele>
        <time>2024-09-08T08:03:48Z</time>
      </trkpt>
      <trkpt lat="46.69263" lon="0.53704">
        <ele>105.8</ele>
        <time>2024-09-08T08:03:49Z</time>
      </trkpt>
      <trkpt lat="46.6926" lon="0.53701">
        <ele>105.6</ele>
        <time>2024-09-08T08:03:51Z</time>
      </trkpt>
      <trkpt lat="46.69256" lon="0.53702">
        <ele>105</ele>
        <time>2024-09-08T08:03:53Z</time>
      </trkpt>
      <trkpt lat="46.69253" lon="0.53705">
        <ele>104.6</ele>
        <time>2024-09-08T08:03:55Z</time>
      </trkpt>
      <trkpt lat="46.69251" lon="0.53705">
        <ele>104.4</ele>
        <time>2024-09-08T08:03:56Z</time>
      </trkpt>
      <trkpt lat="46.69249" lon="0.53703">
        <ele>104</ele>
        <time>2024-09-08T08:03:58Z</time>
      </trkpt>
      <trkpt lat="46.69248" lon="0.53702">
        <ele>103.6</ele>
        <time>2024-09-08T08:03:59Z</time>
      </trkpt>
      <trkpt lat="46.69244" lon="0.537">
        <ele>103</ele>
        <time>2024-09-08T08:04:02Z</time>
      </trkpt>
      <trkpt lat="46.69241" lon="0.53699">
        <ele>103</ele>
        <time>2024-09-08T08:04:03Z</time>
      </trkpt>
      <trkpt lat="46.6924" lon="0.53699">
        <ele>102.6</ele>
        <time>2024-09-08T08:04:04Z</time>
      </trkpt>
      <trkpt lat="46.69239" lon="0.53701">
        <ele>102.2</ele>
        <time>2024-09-08T08:04:06Z</time>
      </trkpt>
      <trkpt lat="46.69237" lon="0.53702">
        <ele>102</ele>
        <time>2024-09-08T08:04:08Z</time>
      </trkpt>
      <trkpt lat="46.69233" lon="0.53697">
        <ele>101.4</ele>
        <time>2024-09-08T08:04:12Z</time>
      </trkpt>
      <trkpt lat="46.69231" lon="0.53696">
        <ele>101</ele>
        <time>2024-09-08T08:04:14Z</time>
      </trkpt>
      <trkpt lat="46.69231" lon="0.53695">
        <ele>100.8</ele>
        <time>2024-09-08T08:04:15Z</time>
      </trkpt>
      <trkpt lat="46.69225" lon="0.53697">
        <ele>100.6</ele>
        <time>2024-09-08T08:04:21Z</time>
      </trkpt>
      <trkpt lat="46.69221" lon="0.53696">
        <ele>100.4</ele>
        <time>2024-09-08T08:04:24Z</time>
      </trkpt>
      <trkpt lat="46.69212" lon="0.53697">
        <ele>99.4</ele>
        <time>2024-09-08T08:04:28Z</time>
      </trkpt>
      <trkpt lat="46.69209" lon="0.53699">
        <ele>99</ele>
        <time>2024-09-08T08:04:29Z</time>
      </trkpt>
      <trkpt lat="46.69202" lon="0.53706">
        <ele>98</ele>
        <time>2024-09-08T08:04:31Z</time>
      </trkpt>
      <trkpt lat="46.69198" lon="0.53708">
        <ele>97.6</ele>
        <time>2024-09-08T08:04:32Z</time>
      </trkpt>
      <trkpt lat="46.69187" lon="0.53714">
        <ele>96</ele>
        <time>2024-09-08T08:04:36Z</time>
      </trkpt>
      <trkpt lat="46.69186" lon="0.53715">
        <ele>95.4</ele>
        <time>2024-09-08T08:04:37Z</time>
      </trkpt>
      <trkpt lat="46.69184" lon="0.53718">
        <ele>94.8</ele>
        <time>2024-09-08T08:04:39Z</time>
      </trkpt>
      <trkpt lat="46.69181" lon="0.53724">
        <ele>93.6</ele>
        <time>2024-09-08T08:04:42Z</time>
      </trkpt>
      <trkpt lat="46.69179" lon="0.53725">
        <ele>93.4</ele>
        <time>2024-09-08T08:04:43Z</time>
      </trkpt>
      <trkpt lat="46.69177" lon="0.53726">
        <ele>92.6</ele>
        <time>2024-09-08T08:04:45Z</time>
      </trkpt>
      <trkpt lat="46.69176" lon="0.53727">
        <ele>92</ele>
        <time>2024-09-08T08:04:46Z</time>
      </trkpt>
      <trkpt lat="46.69172" lon="0.53729">
        <ele>91.6</ele>
        <time>2024-09-08T08:04:48Z</time>
      </trkpt>
      <trkpt lat="46.69169" lon="0.53729">
        <ele>91</ele>
        <time>2024-09-08T08:04:50Z</time>
      </trkpt>
      <trkpt lat="46.69166" lon="0.53727">
        <ele>90.4</ele>
        <time>2024-09-08T08:04:52Z</time>
      </trkpt>
      <trkpt lat="46.69163" lon="0.53725">
        <ele>90</ele>
        <time>2024-09-08T08:04:54Z</time>
      </trkpt>
      <trkpt lat="46.69161" lon="0.53724">
        <ele>89.8</ele>
        <time>2024-09-08T08:04:56Z</time>
      </trkpt>
      <trkpt lat="46.69155" lon="0.53726">
        <ele>89.4</ele>
        <time>2024-09-08T08:05:08Z</time>
      </trkpt>
      <trkpt lat="46.69155" lon="0.53726">
        <ele>89.4</ele>
        <time>2024-09-08T08:05:10Z</time>
      </trkpt>
      <trkpt lat="46.69152" lon="0.53714">
        <ele>89.6</ele>
        <time>2024-09-08T08:05:21Z</time>
      </trkpt>
      <trkpt lat="46.69147" lon="0.53717">
        <ele>88.2</ele>
        <time>2024-09-08T08:05:27Z</time>
      </trkpt>
      <trkpt lat="46.69147" lon="0.53719">
        <ele>87.4</ele>
        <time>2024-09-08T08:05:28Z</time>
      </trkpt>
      <trkpt lat="46.69146" lon="0.53719">
        <ele>87</ele>
        <time>2024-09-08T08:05:29Z</time>
      </trkpt>
      <trkpt lat="46.69141" lon="0.53719">
        <ele>86</ele>
        <time>2024-09-08T08:05:32Z</time>
      </trkpt>
      <trkpt lat="46.69134" lon="0.53715">
        <ele>84</ele>
        <time>2024-09-08T08:05:35Z</time>
      </trkpt>
      <trkpt lat="46.6913" lon="0.53711">
        <ele>82.4</ele>
        <time>2024-09-08T08:05:37Z</time>
      </trkpt>
      <trkpt lat="46.69126" lon="0.5371">
        <ele>81</ele>
        <time>2024-09-08T08:05:39Z</time>
      </trkpt>
      <trkpt lat="46.69125" lon="0.53711">
        <ele>80.4</ele>
        <time>2024-09-08T08:05:40Z</time>
      </trkpt>
      <trkpt lat="46.69124" lon="0.53712">
        <ele>79.4</ele>
        <time>2024-09-08T08:05:41Z</time>
      </trkpt>
      <trkpt lat="46.69123" lon="0.53713">
        <ele>78.8</ele>
        <time>2024-09-08T08:05:42Z</time>
      </trkpt>
      <trkpt lat="46.69122" lon="0.53713">
        <ele>78.2</ele>
        <time>2024-09-08T08:05:43Z</time>
      </trkpt>
      <trkpt lat="46.69122" lon="0.53713">
        <ele>77.8</ele>
        <time>2024-09-08T08:05:44Z</time>
      </trkpt>
      <trkpt lat="46.69119" lon="0.53716">
        <ele>77.2</ele>
        <time>2024-09-08T08:05:48Z</time>
      </trkpt>
      <trkpt lat="46.69113" lon="0.53724">
        <ele>78</ele>
        <time>2024-09-08T08:05:55Z</time>
      </trkpt>
      <trkpt lat="46.69112" lon="0.53725">
        <ele>78</ele>
        <time>2024-09-08T08:05:56Z</time>
      </trkpt>
      <trkpt lat="46.69109" lon="0.53738">
        <ele>77.2</ele>
        <time>2024-09-08T08:06:05Z</time>
      </trkpt>
      <trkpt lat="46.69108" lon="0.53739">
        <ele>77</ele>
        <time>2024-09-08T08:06:06Z</time>
      </trkpt>
      <trkpt lat="46.69107" lon="0.53752">
        <ele>76.2</ele>
        <time>2024-09-08T08:06:14Z</time>
      </trkpt>
      <trkpt lat="46.69107" lon="0.53757">
        <ele>75.8</ele>
        <time>2024-09-08T08:06:17Z</time>
      </trkpt>
      <trkpt lat="46.69107" lon="0.53765">
        <ele>75.2</ele>
        <time>2024-09-08T08:06:21Z</time>
      </trkpt>
      <trkpt lat="46.69107" lon="0.53769">
        <ele>74.6</ele>
        <time>2024-09-08T08:06:23Z</time>
      </trkpt>
      <trkpt lat="46.69103" lon="0.5378">
        <ele>74.2</ele>
        <time>2024-09-08T08:06:29Z</time>
      </trkpt>
      <trkpt lat="46.69101" lon="0.53785">
        <ele>74.2</ele>
        <time>2024-09-08T08:06:32Z</time>
      </trkpt>
      <trkpt lat="46.69098" lon="0.5379">
        <ele>74.4</ele>
        <time>2024-09-08T08:06:37Z</time>
      </trkpt>
      <trkpt lat="46.69091" lon="0.53797">
        <ele>74.4</ele>
        <time>2024-09-08T08:06:46Z</time>
      </trkpt>
      <trkpt lat="46.6909" lon="0.53806">
        <ele>75</ele>
        <time>2024-09-08T08:06:53Z</time>
      </trkpt>
      <trkpt lat="46.69091" lon="0.53814">
        <ele>75.2</ele>
        <time>2024-09-08T08:07:00Z</time>
      </trkpt>
      <trkpt lat="46.69095" lon="0.53818">
        <ele>75.8</ele>
        <time>2024-09-08T08:07:08Z</time>
      </trkpt>
      <trkpt lat="46.69096" lon="0.53814">
        <ele>76.2</ele>
        <time>2024-09-08T08:07:15Z</time>
      </trkpt>
      <trkpt lat="46.69098" lon="0.53808">
        <ele>76.8</ele>
        <time>2024-09-08T08:07:19Z</time>
      </trkpt>
      <trkpt lat="46.69101" lon="0.53802">
        <ele>77.6</ele>
        <time>2024-09-08T08:07:23Z</time>
      </trkpt>
      <trkpt lat="46.69102" lon="0.538">
        <ele>77.8</ele>
        <time>2024-09-08T08:07:24Z</time>
      </trkpt>
      <trkpt lat="46.69108" lon="0.53792">
        <ele>79</ele>
        <time>2024-09-08T08:07:29Z</time>
      </trkpt>
      <trkpt lat="46.69108" lon="0.5379">
        <ele>79</ele>
        <time>2024-09-08T08:07:30Z</time>
      </trkpt>
      <trkpt lat="46.69111" lon="0.53786">
        <ele>80</ele>
        <time>2024-09-08T08:07:33Z</time>
      </trkpt>
      <trkpt lat="46.69112" lon="0.53785">
        <ele>80.2</ele>
        <time>2024-09-08T08:07:34Z</time>
      </trkpt>
      <trkpt lat="46.69115" lon="0.53782">
        <ele>81.2</ele>
        <time>2024-09-08T08:07:37Z</time>
      </trkpt>
      <trkpt lat="46.69116" lon="0.53781">
        <ele>81.6</ele>
        <time>2024-09-08T08:07:38Z</time>
      </trkpt>
      <trkpt lat="46.69118" lon="0.53777">
        <ele>82.4</ele>
        <time>2024-09-08T08:07:41Z</time>
      </trkpt>
      <trkpt lat="46.69121" lon="0.53775">
        <ele>83.6</ele>
        <time>2024-09-08T08:07:45Z</time>
      </trkpt>
      <trkpt lat="46.69122" lon="0.53775">
        <ele>83.8</ele>
        <time>2024-09-08T08:07:46Z</time>
      </trkpt>
      <trkpt lat="46.69128" lon="0.53779">
        <ele>84.6</ele>
        <time>2024-09-08T08:07:53Z</time>
      </trkpt>
      <trkpt lat="46.69129" lon="0.5378">
        <ele>84.6</ele>
        <time>2024-09-08T08:07:57Z</time>
      </trkpt>
      <trkpt lat="46.69131" lon="0.53782">
        <ele>85.6</ele>
        <time>2024-09-08T08:08:01Z</time>
      </trkpt>
      <trkpt lat="46.69135" lon="0.5379">
        <ele>86.2</ele>
        <time>2024-09-08T08:08:08Z</time>
      </trkpt>
      <trkpt lat="46.69136" lon="0.53793">
        <ele>86.8</ele>
        <time>2024-09-08T08:08:10Z</time>
      </trkpt>
      <trkpt lat="46.69142" lon="0.53807">
        <ele>87.4</ele>
        <time>2024-09-08T08:08:18Z</time>
      </trkpt>
      <trkpt lat="46.69142" lon="0.53828">
        <ele>86.8</ele>
        <time>2024-09-08T08:08:27Z</time>
      </trkpt>
      <trkpt lat="46.69141" lon="0.53849">
        <ele>86.2</ele>
        <time>2024-09-08T08:08:34Z</time>
      </trkpt>
      <trkpt lat="46.69144" lon="0.53871">
        <ele>87</ele>
        <time>2024-09-08T08:08:42Z</time>
      </trkpt>
      <trkpt lat="46.69149" lon="0.53883">
        <ele>87.2</ele>
        <time>2024-09-08T08:08:47Z</time>
      </trkpt>
      <trkpt lat="46.69149" lon="0.53883">
        <ele>87.6</ele>
        <time>2024-09-08T08:08:48Z</time>
      </trkpt>
      <trkpt lat="46.69149" lon="0.53884">
        <ele>88</ele>
        <time>2024-09-08T08:08:49Z</time>
      </trkpt>
      <trkpt lat="46.69151" lon="0.53884">
        <ele>89.4</ele>
        <time>2024-09-08T08:08:51Z</time>
      </trkpt>
      <trkpt lat="46.69154" lon="0.53881">
        <ele>90.2</ele>
        <time>2024-09-08T08:08:55Z</time>
      </trkpt>
      <trkpt lat="46.69156" lon="0.5388">
        <ele>90.4</ele>
        <time>2024-09-08T08:08:58Z</time>
      </trkpt>
      <trkpt lat="46.69157" lon="0.5388">
        <ele>90.4</ele>
        <time>2024-09-08T08:08:59Z</time>
      </trkpt>
      <trkpt lat="46.69158" lon="0.53882">
        <ele>90.6</ele>
        <time>2024-09-08T08:09:01Z</time>
      </trkpt>
      <trkpt lat="46.69161" lon="0.53886">
        <ele>91.8</ele>
        <time>2024-09-08T08:09:04Z</time>
      </trkpt>
      <trkpt lat="46.69166" lon="0.5389">
        <ele>92.8</ele>
        <time>2024-09-08T08:09:08Z</time>
      </trkpt>
      <trkpt lat="46.69172" lon="0.53897">
        <ele>94</ele>
        <time>2024-09-08T08:09:12Z</time>
      </trkpt>
      <trkpt lat="46.69174" lon="0.53901">
        <ele>94</ele>
        <time>2024-09-08T08:09:14Z</time>
      </trkpt>
      <trkpt lat="46.69178" lon="0.53911">
        <ele>94.4</ele>
        <time>2024-09-08T08:09:18Z</time>
      </trkpt>
      <trkpt lat="46.69181" lon="0.53917">
        <ele>94.6</ele>
        <time>2024-09-08T08:09:21Z</time>
      </trkpt>
      <trkpt lat="46.69186" lon="0.53925">
        <ele>95</ele>
        <time>2024-09-08T08:09:25Z</time>
      </trkpt>
      <trkpt lat="46.69189" lon="0.53928">
        <ele>95.2</ele>
        <time>2024-09-08T08:09:27Z</time>
      </trkpt>
      <trkpt lat="46.6919" lon="0.5393">
        <ele>95.8</ele>
        <time>2024-09-08T08:09:29Z</time>
      </trkpt>
      <trkpt lat="46.69192" lon="0.53932">
        <ele>96</ele>
        <time>2024-09-08T08:09:30Z</time>
      </trkpt>
      <trkpt lat="46.69195" lon="0.53937">
        <ele>96.2</ele>
        <time>2024-09-08T08:09:33Z</time>
      </trkpt>
      <trkpt lat="46.69202" lon="0.53955">
        <ele>96.4</ele>
        <time>2024-09-08T08:09:40Z</time>
      </trkpt>
      <trkpt lat="46.69207" lon="0.53965">
        <ele>97.2</ele>
        <time>2024-09-08T08:09:45Z</time>
      </trkpt>
      <trkpt lat="46.69209" lon="0.53967">
        <ele>97.4</ele>
        <time>2024-09-08T08:09:46Z</time>
      </trkpt>
      <trkpt lat="46.69214" lon="0.53973">
        <ele>98.2</ele>
        <time>2024-09-08T08:09:51Z</time>
      </trkpt>
      <trkpt lat="46.69215" lon="0.53974">
        <ele>98.4</ele>
        <time>2024-09-08T08:09:52Z</time>
      </trkpt>
      <trkpt lat="46.69221" lon="0.53991">
        <ele>98.8</ele>
        <time>2024-09-08T08:09:57Z</time>
      </trkpt>
      <trkpt lat="46.69223" lon="0.54021">
        <ele>98.4</ele>
        <time>2024-09-08T08:10:04Z</time>
      </trkpt>
      <trkpt lat="46.69223" lon="0.54047">
        <ele>97.4</ele>
        <time>2024-09-08T08:10:10Z</time>
      </trkpt>
      <trkpt lat="46.69222" lon="0.5405">
        <ele>97</ele>
        <time>2024-09-08T08:10:11Z</time>
      </trkpt>
      <trkpt lat="46.69219" lon="0.54065">
        <ele>95.8</ele>
        <time>2024-09-08T08:10:17Z</time>
      </trkpt>
      <trkpt lat="46.69213" lon="0.54082">
        <ele>95</ele>
        <time>2024-09-08T08:10:24Z</time>
      </trkpt>
      <trkpt lat="46.69212" lon="0.54087">
        <ele>94.8</ele>
        <time>2024-09-08T08:10:26Z</time>
      </trkpt>
      <trkpt lat="46.69206" lon="0.54095">
        <ele>93.4</ele>
        <time>2024-09-08T08:10:31Z</time>
      </trkpt>
      <trkpt lat="46.69204" lon="0.54104">
        <ele>92.4</ele>
        <time>2024-09-08T08:10:34Z</time>
      </trkpt>
      <trkpt lat="46.69201" lon="0.54112">
        <ele>91.4</ele>
        <time>2024-09-08T08:10:38Z</time>
      </trkpt>
      <trkpt lat="46.69199" lon="0.54114">
        <ele>91.2</ele>
        <time>2024-09-08T08:10:39Z</time>
      </trkpt>
      <trkpt lat="46.69187" lon="0.54127">
        <ele>90</ele>
        <time>2024-09-08T08:10:45Z</time>
      </trkpt>
      <trkpt lat="46.69177" lon="0.54144">
        <ele>88.8</ele>
        <time>2024-09-08T08:10:51Z</time>
      </trkpt>
      <trkpt lat="46.69173" lon="0.5415">
        <ele>88.4</ele>
        <time>2024-09-08T08:10:53Z</time>
      </trkpt>
      <trkpt lat="46.69168" lon="0.54155">
        <ele>87.6</ele>
        <time>2024-09-08T08:10:55Z</time>
      </trkpt>
      <trkpt lat="46.6916" lon="0.54164">
        <ele>86</ele>
        <time>2024-09-08T08:10:58Z</time>
      </trkpt>
      <trkpt lat="46.69155" lon="0.54169">
        <ele>84.8</ele>
        <time>2024-09-08T08:11:00Z</time>
      </trkpt>
      <trkpt lat="46.69148" lon="0.54178">
        <ele>83.6</ele>
        <time>2024-09-08T08:11:03Z</time>
      </trkpt>
      <trkpt lat="46.69141" lon="0.54184">
        <ele>82.8</ele>
        <time>2024-09-08T08:11:06Z</time>
      </trkpt>
      <trkpt lat="46.69139" lon="0.54186">
        <ele>82.6</ele>
        <time>2024-09-08T08:11:07Z</time>
      </trkpt>
      <trkpt lat="46.6913" lon="0.54198">
        <ele>81.4</ele>
        <time>2024-09-08T08:11:12Z</time>
      </trkpt>
      <trkpt lat="46.69124" lon="0.54205">
        <ele>80</ele>
        <time>2024-09-08T08:11:15Z</time>
      </trkpt>
      <trkpt lat="46.69118" lon="0.54211">
        <ele>78.8</ele>
        <time>2024-09-08T08:11:18Z</time>
      </trkpt>
      <trkpt lat="46.69111" lon="0.54219">
        <ele>77.8</ele>
        <time>2024-09-08T08:11:21Z</time>
      </trkpt>
      <trkpt lat="46.69109" lon="0.54223">
        <ele>77.4</ele>
        <time>2024-09-08T08:11:22Z</time>
      </trkpt>
      <trkpt lat="46.69109" lon="0.54231">
        <ele>76.8</ele>
        <time>2024-09-08T08:11:24Z</time>
      </trkpt>
      <trkpt lat="46.69108" lon="0.54241">
        <ele>75.2</ele>
        <time>2024-09-08T08:11:26Z</time>
      </trkpt>
      <trkpt lat="46.69108" lon="0.54247">
        <ele>74.6</ele>
        <time>2024-09-08T08:11:27Z</time>
      </trkpt>
      <trkpt lat="46.69107" lon="0.54254">
        <ele>73.8</ele>
        <time>2024-09-08T08:11:28Z</time>
      </trkpt>
      <trkpt lat="46.69103" lon="0.54276">
        <ele>72.6</ele>
        <time>2024-09-08T08:11:30Z</time>
      </trkpt>
      <trkpt lat="46.69096" lon="0.5429">
        <ele>71.8</ele>
        <time>2024-09-08T08:11:31Z</time>
      </trkpt>
      <trkpt lat="46.69091" lon="0.54305">
        <ele>71.2</ele>
        <time>2024-09-08T08:11:32Z</time>
      </trkpt>
      <trkpt lat="46.69086" lon="0.54318">
        <ele>70.4</ele>
        <time>2024-09-08T08:11:33Z</time>
      </trkpt>
      <trkpt lat="46.69081" lon="0.5433">
        <ele>69</ele>
        <time>2024-09-08T08:11:34Z</time>
      </trkpt>
      <trkpt lat="46.69074" lon="0.54351">
        <ele>67</ele>
        <time>2024-09-08T08:11:36Z</time>
      </trkpt>
      <trkpt lat="46.69072" lon="0.54359">
        <ele>66</ele>
        <time>2024-09-08T08:11:37Z</time>
      </trkpt>
      <trkpt lat="46.6907" lon="0.5437">
        <ele>65.2</ele>
        <time>2024-09-08T08:11:38Z</time>
      </trkpt>
      <trkpt lat="46.69068" lon="0.5438">
        <ele>64.6</ele>
        <time>2024-09-08T08:11:39Z</time>
      </trkpt>
      <trkpt lat="46.69067" lon="0.5439">
        <ele>64</ele>
        <time>2024-09-08T08:11:40Z</time>
      </trkpt>
      <trkpt lat="46.69067" lon="0.54397">
        <ele>63.6</ele>
        <time>2024-09-08T08:11:41Z</time>
      </trkpt>
      <trkpt lat="46.69068" lon="0.5442">
        <ele>62.6</ele>
        <time>2024-09-08T08:11:44Z</time>
      </trkpt>
      <trkpt lat="46.69067" lon="0.5445">
        <ele>62.2</ele>
        <time>2024-09-08T08:11:48Z</time>
      </trkpt>
      <trkpt lat="46.69062" lon="0.54499">
        <ele>62.4</ele>
        <time>2024-09-08T08:11:56Z</time>
      </trkpt>
      <trkpt lat="46.69059" lon="0.54507">
        <ele>62.2</ele>
        <time>2024-09-08T08:11:58Z</time>
      </trkpt>
      <trkpt lat="46.69057" lon="0.54508">
        <ele>62.2</ele>
        <time>2024-09-08T08:11:59Z</time>
      </trkpt>
      <trkpt lat="46.69046" lon="0.54506">
        <ele>62.6</ele>
        <time>2024-09-08T08:12:04Z</time>
      </trkpt>
      <trkpt lat="46.69032" lon="0.54501">
        <ele>63.4</ele>
        <time>2024-09-08T08:12:11Z</time>
      </trkpt>
      <trkpt lat="46.69028" lon="0.54499">
        <ele>63.8</ele>
        <time>2024-09-08T08:12:13Z</time>
      </trkpt>
      <trkpt lat="46.69017" lon="0.54492">
        <ele>64.6</ele>
        <time>2024-09-08T08:12:18Z</time>
      </trkpt>
      <trkpt lat="46.69015" lon="0.54491">
        <ele>64.8</ele>
        <time>2024-09-08T08:12:19Z</time>
      </trkpt>
      <trkpt lat="46.69005" lon="0.54486">
        <ele>65.6</ele>
        <time>2024-09-08T08:12:24Z</time>
      </trkpt>
      <trkpt lat="46.68999" lon="0.54482">
        <ele>66</ele>
        <time>2024-09-08T08:12:28Z</time>
      </trkpt>
      <trkpt lat="46.68997" lon="0.54482">
        <ele>66</ele>
        <time>2024-09-08T08:12:29Z</time>
      </trkpt>
      <trkpt lat="46.68988" lon="0.54479">
        <ele>66.2</ele>
        <time>2024-09-08T08:12:35Z</time>
      </trkpt>
      <trkpt lat="46.68977" lon="0.54488">
        <ele>66.8</ele>
        <time>2024-09-08T08:12:41Z</time>
      </trkpt>
      <trkpt lat="46.68975" lon="0.54488">
        <ele>67</ele>
        <time>2024-09-08T08:12:42Z</time>
      </trkpt>
      <trkpt lat="46.68967" lon="0.54489">
        <ele>68</ele>
        <time>2024-09-08T08:12:46Z</time>
      </trkpt>
      <trkpt lat="46.68965" lon="0.54489">
        <ele>68.2</ele>
        <time>2024-09-08T08:12:47Z</time>
      </trkpt>
      <trkpt lat="46.68963" lon="0.54491">
        <ele>68.4</ele>
        <time>2024-09-08T08:12:48Z</time>
      </trkpt>
      <trkpt lat="46.68959" lon="0.54494">
        <ele>69.4</ele>
        <time>2024-09-08T08:12:51Z</time>
      </trkpt>
      <trkpt lat="46.68959" lon="0.54495">
        <ele>69.6</ele>
        <time>2024-09-08T08:12:52Z</time>
      </trkpt>
      <trkpt lat="46.68956" lon="0.545">
        <ele>70.4</ele>
        <time>2024-09-08T08:12:55Z</time>
      </trkpt>
      <trkpt lat="46.6895" lon="0.54506">
        <ele>71.6</ele>
        <time>2024-09-08T08:12:59Z</time>
      </trkpt>
      <trkpt lat="46.68949" lon="0.54506">
        <ele>71.8</ele>
        <time>2024-09-08T08:13:00Z</time>
      </trkpt>
      <trkpt lat="46.68947" lon="0.54508">
        <ele>72.2</ele>
        <time>2024-09-08T08:13:02Z</time>
      </trkpt>
      <trkpt lat="46.68945" lon="0.54509">
        <ele>72.6</ele>
        <time>2024-09-08T08:13:03Z</time>
      </trkpt>
      <trkpt lat="46.68941" lon="0.54513">
        <ele>73.4</ele>
        <time>2024-09-08T08:13:05Z</time>
      </trkpt>
      <trkpt lat="46.6894" lon="0.54515">
        <ele>73.4</ele>
        <time>2024-09-08T08:13:06Z</time>
      </trkpt>
      <trkpt lat="46.68936" lon="0.54518">
        <ele>73.8</ele>
        <time>2024-09-08T08:13:08Z</time>
      </trkpt>
      <trkpt lat="46.68931" lon="0.54522">
        <ele>74.8</ele>
        <time>2024-09-08T08:13:11Z</time>
      </trkpt>
      <trkpt lat="46.68927" lon="0.54524">
        <ele>75.4</ele>
        <time>2024-09-08T08:13:13Z</time>
      </trkpt>
      <trkpt lat="46.68922" lon="0.54525">
        <ele>75.8</ele>
        <time>2024-09-08T08:13:15Z</time>
      </trkpt>
      <trkpt lat="46.68914" lon="0.5453">
        <ele>77</ele>
        <time>2024-09-08T08:13:20Z</time>
      </trkpt>
      <trkpt lat="46.68907" lon="0.54535">
        <ele>77.4</ele>
        <time>2024-09-08T08:13:23Z</time>
      </trkpt>
      <trkpt lat="46.68904" lon="0.54537">
        <ele>78</ele>
        <time>2024-09-08T08:13:25Z</time>
      </trkpt>
      <trkpt lat="46.689" lon="0.54539">
        <ele>78.4</ele>
        <time>2024-09-08T08:13:28Z</time>
      </trkpt>
      <trkpt lat="46.68884" lon="0.54544">
        <ele>79.2</ele>
        <time>2024-09-08T08:13:34Z</time>
      </trkpt>
      <trkpt lat="46.68877" lon="0.54545">
        <ele>79.6</ele>
        <time>2024-09-08T08:13:36Z</time>
      </trkpt>
      <trkpt lat="46.68871" lon="0.54548">
        <ele>80.2</ele>
        <time>2024-09-08T08:13:39Z</time>
      </trkpt>
      <trkpt lat="46.68867" lon="0.54548">
        <ele>80.4</ele>
        <time>2024-09-08T08:13:40Z</time>
      </trkpt>
      <trkpt lat="46.6886" lon="0.54552">
        <ele>80.8</ele>
        <time>2024-09-08T08:13:43Z</time>
      </trkpt>
      <trkpt lat="46.6885" lon="0.54557">
        <ele>81.4</ele>
        <time>2024-09-08T08:13:46Z</time>
      </trkpt>
      <trkpt lat="46.68843" lon="0.5456">
        <ele>82.6</ele>
        <time>2024-09-08T08:13:49Z</time>
      </trkpt>
      <trkpt lat="46.68841" lon="0.54561">
        <ele>82.8</ele>
        <time>2024-09-08T08:13:50Z</time>
      </trkpt>
      <trkpt lat="46.68835" lon="0.54562">
        <ele>83.8</ele>
        <time>2024-09-08T08:13:53Z</time>
      </trkpt>
      <trkpt lat="46.68827" lon="0.54565">
        <ele>84.6</ele>
        <time>2024-09-08T08:13:57Z</time>
      </trkpt>
      <trkpt lat="46.68826" lon="0.54566">
        <ele>85</ele>
        <time>2024-09-08T08:13:58Z</time>
      </trkpt>
      <trkpt lat="46.68817" lon="0.5457">
        <ele>86.2</ele>
        <time>2024-09-08T08:14:02Z</time>
      </trkpt>
      <trkpt lat="46.6881" lon="0.54571">
        <ele>86.8</ele>
        <time>2024-09-08T08:14:04Z</time>
      </trkpt>
      <trkpt lat="46.68803" lon="0.54574">
        <ele>87.4</ele>
        <time>2024-09-08T08:14:08Z</time>
      </trkpt>
      <trkpt lat="46.68798" lon="0.54576">
        <ele>87.8</ele>
        <time>2024-09-08T08:14:10Z</time>
      </trkpt>
      <trkpt lat="46.6879" lon="0.54579">
        <ele>88.6</ele>
        <time>2024-09-08T08:14:14Z</time>
      </trkpt>
      <trkpt lat="46.68781" lon="0.54582">
        <ele>89.2</ele>
        <time>2024-09-08T08:14:18Z</time>
      </trkpt>
      <trkpt lat="46.68779" lon="0.54582">
        <ele>89.6</ele>
        <time>2024-09-08T08:14:19Z</time>
      </trkpt>
      <trkpt lat="46.68766" lon="0.54586">
        <ele>90.6</ele>
        <time>2024-09-08T08:14:25Z</time>
      </trkpt>
      <trkpt lat="46.68765" lon="0.54586">
        <ele>90.8</ele>
        <time>2024-09-08T08:14:26Z</time>
      </trkpt>
      <trkpt lat="46.68753" lon="0.54585">
        <ele>91.8</ele>
        <time>2024-09-08T08:14:32Z</time>
      </trkpt>
      <trkpt lat="46.68744" lon="0.54584">
        <ele>92.2</ele>
        <time>2024-09-08T08:14:35Z</time>
      </trkpt>
      <trkpt lat="46.68736" lon="0.54584">
        <ele>93</ele>
        <time>2024-09-08T08:14:37Z</time>
      </trkpt>
      <trkpt lat="46.6873" lon="0.54584">
        <ele>93.4</ele>
        <time>2024-09-08T08:14:40Z</time>
      </trkpt>
      <trkpt lat="46.68723" lon="0.54584">
        <ele>94</ele>
        <time>2024-09-08T08:14:43Z</time>
      </trkpt>
      <trkpt lat="46.6871" lon="0.54581">
        <ele>95</ele>
        <time>2024-09-08T08:14:49Z</time>
      </trkpt>
      <trkpt lat="46.68708" lon="0.5458">
        <ele>95.2</ele>
        <time>2024-09-08T08:14:50Z</time>
      </trkpt>
      <trkpt lat="46.68693" lon="0.54578">
        <ele>95.8</ele>
        <time>2024-09-08T08:14:55Z</time>
      </trkpt>
      <trkpt lat="46.68685" lon="0.54579">
        <ele>96.2</ele>
        <time>2024-09-08T08:14:58Z</time>
      </trkpt>
      <trkpt lat="46.68677" lon="0.5458">
        <ele>96.8</ele>
        <time>2024-09-08T08:15:02Z</time>
      </trkpt>
      <trkpt lat="46.68666" lon="0.54577">
        <ele>97.4</ele>
        <time>2024-09-08T08:15:05Z</time>
      </trkpt>
      <trkpt lat="46.68655" lon="0.54572">
        <ele>97.8</ele>
        <time>2024-09-08T08:15:09Z</time>
      </trkpt>
      <trkpt lat="46.68638" lon="0.54564">
        <ele>98.6</ele>
        <time>2024-09-08T08:15:16Z</time>
      </trkpt>
      <trkpt lat="46.6863" lon="0.5456">
        <ele>99</ele>
        <time>2024-09-08T08:15:20Z</time>
      </trkpt>
      <trkpt lat="46.68612" lon="0.54555">
        <ele>99.8</ele>
        <time>2024-09-08T08:15:27Z</time>
      </trkpt>
      <trkpt lat="46.6861" lon="0.54555">
        <ele>100</ele>
        <time>2024-09-08T08:15:28Z</time>
      </trkpt>
      <trkpt lat="46.68605" lon="0.54555">
        <ele>100.8</ele>
        <time>2024-09-08T08:15:31Z</time>
      </trkpt>
      <trkpt lat="46.68598" lon="0.54553">
        <ele>101.8</ele>
        <time>2024-09-08T08:15:35Z</time>
      </trkpt>
      <trkpt lat="46.68597" lon="0.54553">
        <ele>102</ele>
        <time>2024-09-08T08:15:36Z</time>
      </trkpt>
      <trkpt lat="46.68581" lon="0.5455">
        <ele>102.8</ele>
        <time>2024-09-08T08:15:44Z</time>
      </trkpt>
      <trkpt lat="46.68577" lon="0.54548">
        <ele>103</ele>
        <time>2024-09-08T08:15:45Z</time>
      </trkpt>
      <trkpt lat="46.6856" lon="0.54545">
        <ele>104</ele>
        <time>2024-09-08T08:15:53Z</time>
      </trkpt>
      <trkpt lat="46.68554" lon="0.54546">
        <ele>104.6</ele>
        <time>2024-09-08T08:15:56Z</time>
      </trkpt>
      <trkpt lat="46.6855" lon="0.54546">
        <ele>105.2</ele>
        <time>2024-09-08T08:15:59Z</time>
      </trkpt>
      <trkpt lat="46.68541" lon="0.54548">
        <ele>106.2</ele>
        <time>2024-09-08T08:16:04Z</time>
      </trkpt>
      <trkpt lat="46.68534" lon="0.54549">
        <ele>107</ele>
        <time>2024-09-08T08:16:07Z</time>
      </trkpt>
      <trkpt lat="46.68523" lon="0.5455">
        <ele>107.4</ele>
        <time>2024-09-08T08:16:10Z</time>
      </trkpt>
      <trkpt lat="46.68514" lon="0.5455">
        <ele>108</ele>
        <time>2024-09-08T08:16:13Z</time>
      </trkpt>
      <trkpt lat="46.6851" lon="0.54552">
        <ele>108.6</ele>
        <time>2024-09-08T08:16:15Z</time>
      </trkpt>
      <trkpt lat="46.68497" lon="0.54557">
        <ele>109.6</ele>
        <time>2024-09-08T08:16:20Z</time>
      </trkpt>
      <trkpt lat="46.68495" lon="0.54558">
        <ele>109.6</ele>
        <time>2024-09-08T08:16:21Z</time>
      </trkpt>
      <trkpt lat="46.68487" lon="0.54563">
        <ele>111</ele>
        <time>2024-09-08T08:16:25Z</time>
      </trkpt>
      <trkpt lat="46.68485" lon="0.54566">
        <ele>111.6</ele>
        <time>2024-09-08T08:16:27Z</time>
      </trkpt>
      <trkpt lat="46.6848" lon="0.54571">
        <ele>112.2</ele>
        <time>2024-09-08T08:16:30Z</time>
      </trkpt>
      <trkpt lat="46.68468" lon="0.54575">
        <ele>113.2</ele>
        <time>2024-09-08T08:16:35Z</time>
      </trkpt>
      <trkpt lat="46.68462" lon="0.54581">
        <ele>114.4</ele>
        <time>2024-09-08T08:16:39Z</time>
      </trkpt>
      <trkpt lat="46.68457" lon="0.54586">
        <ele>114.8</ele>
        <time>2024-09-08T08:16:42Z</time>
      </trkpt>
      <trkpt lat="46.68448" lon="0.54596">
        <ele>115.8</ele>
        <time>2024-09-08T08:16:47Z</time>
      </trkpt>
      <trkpt lat="46.68443" lon="0.54601">
        <ele>116.8</ele>
        <time>2024-09-08T08:16:50Z</time>
      </trkpt>
      <trkpt lat="46.68436" lon="0.54607">
        <ele>118</ele>
        <time>2024-09-08T08:16:54Z</time>
      </trkpt>
      <trkpt lat="46.68432" lon="0.54612">
        <ele>118.4</ele>
        <time>2024-09-08T08:16:57Z</time>
      </trkpt>
      <trkpt lat="46.68422" lon="0.54618">
        <ele>119</ele>
        <time>2024-09-08T08:17:03Z</time>
      </trkpt>
      <trkpt lat="46.6842" lon="0.5462">
        <ele>119.2</ele>
        <time>2024-09-08T08:17:04Z</time>
      </trkpt>
      <trkpt lat="46.68416" lon="0.54622">
        <ele>119.6</ele>
        <time>2024-09-08T08:17:06Z</time>
      </trkpt>
      <trkpt lat="46.68407" lon="0.54623">
        <ele>120</ele>
        <time>2024-09-08T08:17:10Z</time>
      </trkpt>
      <trkpt lat="46.68398" lon="0.54626">
        <ele>121</ele>
        <time>2024-09-08T08:17:15Z</time>
      </trkpt>
      <trkpt lat="46.68396" lon="0.54626">
        <ele>121.2</ele>
        <time>2024-09-08T08:17:16Z</time>
      </trkpt>
      <trkpt lat="46.6838" lon="0.5463">
        <ele>122.2</ele>
        <time>2024-09-08T08:17:22Z</time>
      </trkpt>
      <trkpt lat="46.68374" lon="0.54631">
        <ele>122.2</ele>
        <time>2024-09-08T08:17:24Z</time>
      </trkpt>
      <trkpt lat="46.68357" lon="0.54632">
        <ele>123</ele>
        <time>2024-09-08T08:17:30Z</time>
      </trkpt>
      <trkpt lat="46.68345" lon="0.54631">
        <ele>123.2</ele>
        <time>2024-09-08T08:17:34Z</time>
      </trkpt>
      <trkpt lat="46.68329" lon="0.54626">
        <ele>123.6</ele>
        <time>2024-09-08T08:17:38Z</time>
      </trkpt>
      <trkpt lat="46.68306" lon="0.54612">
        <ele>123.6</ele>
        <time>2024-09-08T08:17:44Z</time>
      </trkpt>
      <trkpt lat="46.68275" lon="0.54595">
        <ele>124.2</ele>
        <time>2024-09-08T08:17:53Z</time>
      </trkpt>
      <trkpt lat="46.6825" lon="0.54584">
        <ele>123.8</ele>
        <time>2024-09-08T08:18:01Z</time>
      </trkpt>
      <trkpt lat="46.68239" lon="0.54578">
        <ele>123.6</ele>
        <time>2024-09-08T08:18:08Z</time>
      </trkpt>
      <trkpt lat="46.68226" lon="0.54571">
        <ele>123.2</ele>
        <time>2024-09-08T08:18:15Z</time>
      </trkpt>
      <trkpt lat="46.68214" lon="0.54565">
        <ele>123</ele>
        <time>2024-09-08T08:18:22Z</time>
      </trkpt>
      <trkpt lat="46.68203" lon="0.54552">
        <ele>122.8</ele>
        <time>2024-09-08T08:18:29Z</time>
      </trkpt>
      <trkpt lat="46.68192" lon="0.54545">
        <ele>122.6</ele>
        <time>2024-09-08T08:18:35Z</time>
      </trkpt>
      <trkpt lat="46.68178" lon="0.5454">
        <ele>122.4</ele>
        <time>2024-09-08T08:18:41Z</time>
      </trkpt>
      <trkpt lat="46.6816" lon="0.54539">
        <ele>122.4</ele>
        <time>2024-09-08T08:18:47Z</time>
      </trkpt>
      <trkpt lat="46.68149" lon="0.54538">
        <ele>122.6</ele>
        <time>2024-09-08T08:18:52Z</time>
      </trkpt>
      <trkpt lat="46.68144" lon="0.54537">
        <ele>122.6</ele>
        <time>2024-09-08T08:18:54Z</time>
      </trkpt>
      <trkpt lat="46.68124" lon="0.54532">
        <ele>122.2</ele>
        <time>2024-09-08T08:19:02Z</time>
      </trkpt>
      <trkpt lat="46.68111" lon="0.54525">
        <ele>122.4</ele>
        <time>2024-09-08T08:19:09Z</time>
      </trkpt>
      <trkpt lat="46.68099" lon="0.54516">
        <ele>122</ele>
        <time>2024-09-08T08:19:15Z</time>
      </trkpt>
      <trkpt lat="46.68087" lon="0.54506">
        <ele>122</ele>
        <time>2024-09-08T08:19:21Z</time>
      </trkpt>
      <trkpt lat="46.68078" lon="0.54499">
        <ele>121.2</ele>
        <time>2024-09-08T08:19:26Z</time>
      </trkpt>
      <trkpt lat="46.68074" lon="0.54496">
        <ele>121.2</ele>
        <time>2024-09-08T08:19:28Z</time>
      </trkpt>
      <trkpt lat="46.68059" lon="0.54487">
        <ele>121.4</ele>
        <time>2024-09-08T08:19:36Z</time>
      </trkpt>
      <trkpt lat="46.68041" lon="0.54475">
        <ele>121.4</ele>
        <time>2024-09-08T08:19:44Z</time>
      </trkpt>
      <trkpt lat="46.68026" lon="0.54465">
        <ele>121.6</ele>
        <time>2024-09-08T08:19:50Z</time>
      </trkpt>
      <trkpt lat="46.68016" lon="0.54456">
        <ele>121.6</ele>
        <time>2024-09-08T08:19:54Z</time>
      </trkpt>
      <trkpt lat="46.68008" lon="0.5445">
        <ele>121.6</ele>
        <time>2024-09-08T08:19:57Z</time>
      </trkpt>
      <trkpt lat="46.67989" lon="0.54433">
        <ele>121.8</ele>
        <time>2024-09-08T08:20:04Z</time>
      </trkpt>
      <trkpt lat="46.67972" lon="0.54422">
        <ele>121.8</ele>
        <time>2024-09-08T08:20:10Z</time>
      </trkpt>
      <trkpt lat="46.67964" lon="0.54417">
        <ele>121.6</ele>
        <time>2024-09-08T08:20:15Z</time>
      </trkpt>
      <trkpt lat="46.67964" lon="0.54418">
        <ele>121.6</ele>
        <time>2024-09-08T08:20:16Z</time>
      </trkpt>
      <trkpt lat="46.67962" lon="0.54426">
        <ele>121.2</ele>
        <time>2024-09-08T08:20:21Z</time>
      </trkpt>
      <trkpt lat="46.67963" lon="0.54428">
        <ele>121.2</ele>
        <time>2024-09-08T08:20:22Z</time>
      </trkpt>
      <trkpt lat="46.67964" lon="0.54437">
        <ele>121.8</ele>
        <time>2024-09-08T08:20:27Z</time>
      </trkpt>
      <trkpt lat="46.67965" lon="0.54444">
        <ele>121.8</ele>
        <time>2024-09-08T08:20:32Z</time>
      </trkpt>
      <trkpt lat="46.67965" lon="0.54446">
        <ele>121.6</ele>
        <time>2024-09-08T08:20:33Z</time>
      </trkpt>
      <trkpt lat="46.67965" lon="0.54447">
        <ele>121.6</ele>
        <time>2024-09-08T08:20:34Z</time>
      </trkpt>
      <trkpt lat="46.6797" lon="0.54458">
        <ele>121.4</ele>
        <time>2024-09-08T08:20:39Z</time>
      </trkpt>
      <trkpt lat="46.67972" lon="0.54472">
        <ele>121.6</ele>
        <time>2024-09-08T08:20:44Z</time>
      </trkpt>
      <trkpt lat="46.67974" lon="0.54481">
        <ele>121.4</ele>
        <time>2024-09-08T08:20:50Z</time>
      </trkpt>
      <trkpt lat="46.67977" lon="0.54487">
        <ele>121.6</ele>
        <time>2024-09-08T08:20:54Z</time>
      </trkpt>
      <trkpt lat="46.67977" lon="0.54487">
        <ele>121.8</ele>
        <time>2024-09-08T08:20:55Z</time>
      </trkpt>
      <trkpt lat="46.67979" lon="0.54489">
        <ele>121.8</ele>
        <time>2024-09-08T08:20:57Z</time>
      </trkpt>
      <trkpt lat="46.67981" lon="0.54495">
        <ele>121.8</ele>
        <time>2024-09-08T08:21:00Z</time>
      </trkpt>
      <trkpt lat="46.67983" lon="0.54502">
        <ele>122</ele>
        <time>2024-09-08T08:21:04Z</time>
      </trkpt>
      <trkpt lat="46.67983" lon="0.54506">
        <ele>122</ele>
        <time>2024-09-08T08:21:06Z</time>
      </trkpt>
      <trkpt lat="46.67984" lon="0.54508">
        <ele>122</ele>
        <time>2024-09-08T08:21:07Z</time>
      </trkpt>
      <trkpt lat="46.67987" lon="0.54518">
        <ele>122</ele>
        <time>2024-09-08T08:21:13Z</time>
      </trkpt>
      <trkpt lat="46.67989" lon="0.54536">
        <ele>121.8</ele>
        <time>2024-09-08T08:21:21Z</time>
      </trkpt>
      <trkpt lat="46.67991" lon="0.54562">
        <ele>121.6</ele>
        <time>2024-09-08T08:21:33Z</time>
      </trkpt>
      <trkpt lat="46.67987" lon="0.54585">
        <ele>121.2</ele>
        <time>2024-09-08T08:21:44Z</time>
      </trkpt>
      <trkpt lat="46.67988" lon="0.54589">
        <ele>121.2</ele>
        <time>2024-09-08T08:21:46Z</time>
      </trkpt>
      <trkpt lat="46.67989" lon="0.54598">
        <ele>121</ele>
        <time>2024-09-08T08:21:51Z</time>
      </trkpt>
      <trkpt lat="46.67993" lon="0.54617">
        <ele>121</ele>
        <time>2024-09-08T08:22:00Z</time>
      </trkpt>
      <trkpt lat="46.6799" lon="0.54624">
        <ele>121.2</ele>
        <time>2024-09-08T08:22:04Z</time>
      </trkpt>
      <trkpt lat="46.67987" lon="0.54633">
        <ele>121</ele>
        <time>2024-09-08T08:22:07Z</time>
      </trkpt>
      <trkpt lat="46.67986" lon="0.54641">
        <ele>120.2</ele>
        <time>2024-09-08T08:22:10Z</time>
      </trkpt>
      <trkpt lat="46.67985" lon="0.54652">
        <ele>119.4</ele>
        <time>2024-09-08T08:22:13Z</time>
      </trkpt>
      <trkpt lat="46.67986" lon="0.54655">
        <ele>119.4</ele>
        <time>2024-09-08T08:22:14Z</time>
      </trkpt>
      <trkpt lat="46.67986" lon="0.54664">
        <ele>119.2</ele>
        <time>2024-09-08T08:22:17Z</time>
      </trkpt>
      <trkpt lat="46.67986" lon="0.54667">
        <ele>119</ele>
        <time>2024-09-08T08:22:18Z</time>
      </trkpt>
      <trkpt lat="46.67986" lon="0.54676">
        <ele>118.6</ele>
        <time>2024-09-08T08:22:21Z</time>
      </trkpt>
      <trkpt lat="46.67987" lon="0.54681">
        <ele>118</ele>
        <time>2024-09-08T08:22:23Z</time>
      </trkpt>
      <trkpt lat="46.67987" lon="0.54683">
        <ele>117.6</ele>
        <time>2024-09-08T08:22:24Z</time>
      </trkpt>
      <trkpt lat="46.67989" lon="0.54687">
        <ele>116.8</ele>
        <time>2024-09-08T08:22:26Z</time>
      </trkpt>
      <trkpt lat="46.6799" lon="0.54689">
        <ele>116.6</ele>
        <time>2024-09-08T08:22:27Z</time>
      </trkpt>
      <trkpt lat="46.6799" lon="0.54696">
        <ele>116.2</ele>
        <time>2024-09-08T08:22:29Z</time>
      </trkpt>
      <trkpt lat="46.6799" lon="0.54701">
        <ele>115.6</ele>
        <time>2024-09-08T08:22:31Z</time>
      </trkpt>
      <trkpt lat="46.67991" lon="0.54709">
        <ele>115.4</ele>
        <time>2024-09-08T08:22:34Z</time>
      </trkpt>
      <trkpt lat="46.67992" lon="0.54713">
        <ele>115.4</ele>
        <time>2024-09-08T08:22:35Z</time>
      </trkpt>
      <trkpt lat="46.67998" lon="0.54729">
        <ele>115.2</ele>
        <time>2024-09-08T08:22:40Z</time>
      </trkpt>
      <trkpt lat="46.67997" lon="0.5474">
        <ele>114.6</ele>
        <time>2024-09-08T08:22:45Z</time>
      </trkpt>
      <trkpt lat="46.67997" lon="0.54742">
        <ele>114.4</ele>
        <time>2024-09-08T08:22:46Z</time>
      </trkpt>
      <trkpt lat="46.67997" lon="0.54763">
        <ele>113.4</ele>
        <time>2024-09-08T08:22:52Z</time>
      </trkpt>
      <trkpt lat="46.67994" lon="0.54774">
        <ele>112.4</ele>
        <time>2024-09-08T08:22:56Z</time>
      </trkpt>
      <trkpt lat="46.67991" lon="0.54777">
        <ele>112.4</ele>
        <time>2024-09-08T08:22:58Z</time>
      </trkpt>
      <trkpt lat="46.67989" lon="0.54779">
        <ele>112.2</ele>
        <time>2024-09-08T08:22:59Z</time>
      </trkpt>
      <trkpt lat="46.67982" lon="0.54782">
        <ele>111.4</ele>
        <time>2024-09-08T08:23:04Z</time>
      </trkpt>
      <trkpt lat="46.6798" lon="0.54786">
        <ele>111.2</ele>
        <time>2024-09-08T08:23:06Z</time>
      </trkpt>
      <trkpt lat="46.67979" lon="0.54788">
        <ele>111.2</ele>
        <time>2024-09-08T08:23:07Z</time>
      </trkpt>
      <trkpt lat="46.67976" lon="0.54796">
        <ele>111</ele>
        <time>2024-09-08T08:23:10Z</time>
      </trkpt>
      <trkpt lat="46.67967" lon="0.54803">
        <ele>110.6</ele>
        <time>2024-09-08T08:23:15Z</time>
      </trkpt>
      <trkpt lat="46.67965" lon="0.54804">
        <ele>110.2</ele>
        <time>2024-09-08T08:23:16Z</time>
      </trkpt>
      <trkpt lat="46.67955" lon="0.54805">
        <ele>109.8</ele>
        <time>2024-09-08T08:23:21Z</time>
      </trkpt>
      <trkpt lat="46.67951" lon="0.54804">
        <ele>110</ele>
        <time>2024-09-08T08:23:23Z</time>
      </trkpt>
      <trkpt lat="46.67944" lon="0.54801">
        <ele>110</ele>
        <time>2024-09-08T08:23:27Z</time>
      </trkpt>
      <trkpt lat="46.67939" lon="0.548">
        <ele>110.2</ele>
        <time>2024-09-08T08:23:30Z</time>
      </trkpt>
      <trkpt lat="46.67935" lon="0.54801">
        <ele>110.2</ele>
        <time>2024-09-08T08:23:32Z</time>
      </trkpt>
      <trkpt lat="46.67933" lon="0.54801">
        <ele>110.2</ele>
        <time>2024-09-08T08:23:33Z</time>
      </trkpt>
      <trkpt lat="46.67918" lon="0.54801">
        <ele>109.2</ele>
        <time>2024-09-08T08:23:41Z</time>
      </trkpt>
      <trkpt lat="46.67906" lon="0.54801">
        <ele>109</ele>
        <time>2024-09-08T08:23:47Z</time>
      </trkpt>
      <trkpt lat="46.67901" lon="0.54802">
        <ele>108.4</ele>
        <time>2024-09-08T08:23:50Z</time>
      </trkpt>
      <trkpt lat="46.6788" lon="0.54801">
        <ele>108.4</ele>
        <time>2024-09-08T08:23:59Z</time>
      </trkpt>
      <trkpt lat="46.67874" lon="0.54802">
        <ele>108</ele>
        <time>2024-09-08T08:24:02Z</time>
      </trkpt>
      <trkpt lat="46.67872" lon="0.54803">
        <ele>107.6</ele>
        <time>2024-09-08T08:24:05Z</time>
      </trkpt>
      <trkpt lat="46.67862" lon="0.54803">
        <ele>107.4</ele>
        <time>2024-09-08T08:24:15Z</time>
      </trkpt>
      <trkpt lat="46.67856" lon="0.54803">
        <ele>107</ele>
        <time>2024-09-08T08:24:19Z</time>
      </trkpt>
      <trkpt lat="46.67851" lon="0.54801">
        <ele>106.8</ele>
        <time>2024-09-08T08:24:25Z</time>
      </trkpt>
      <trkpt lat="46.67844" lon="0.54798">
        <ele>106.2</ele>
        <time>2024-09-08T08:24:38Z</time>
      </trkpt>
      <trkpt lat="46.67844" lon="0.54799">
        <ele>106.2</ele>
        <time>2024-09-08T08:24:54Z</time>
      </trkpt>
      <trkpt lat="46.67835" lon="0.54797">
        <ele>106.2</ele>
        <time>2024-09-08T08:25:04Z</time>
      </trkpt>
      <trkpt lat="46.67833" lon="0.54798">
        <ele>105.6</ele>
        <time>2024-09-08T08:25:06Z</time>
      </trkpt>
      <trkpt lat="46.67824" lon="0.548">
        <ele>104.6</ele>
        <time>2024-09-08T08:25:12Z</time>
      </trkpt>
      <trkpt lat="46.6782" lon="0.54802">
        <ele>104.4</ele>
        <time>2024-09-08T08:25:14Z</time>
      </trkpt>
      <trkpt lat="46.67813" lon="0.54804">
        <ele>103.4</ele>
        <time>2024-09-08T08:25:18Z</time>
      </trkpt>
      <trkpt lat="46.67805" lon="0.54811">
        <ele>102.4</ele>
        <time>2024-09-08T08:25:23Z</time>
      </trkpt>
      <trkpt lat="46.67803" lon="0.54813">
        <ele>102.2</ele>
        <time>2024-09-08T08:25:24Z</time>
      </trkpt>
      <trkpt lat="46.67802" lon="0.54817">
        <ele>101.8</ele>
        <time>2024-09-08T08:25:26Z</time>
      </trkpt>
      <trkpt lat="46.67801" lon="0.54823">
        <ele>101.2</ele>
        <time>2024-09-08T08:25:28Z</time>
      </trkpt>
      <trkpt lat="46.678" lon="0.54826">
        <ele>101</ele>
        <time>2024-09-08T08:25:29Z</time>
      </trkpt>
      <trkpt lat="46.678" lon="0.54829">
        <ele>101</ele>
        <time>2024-09-08T08:25:31Z</time>
      </trkpt>
      <trkpt lat="46.67798" lon="0.54834">
        <ele>100.8</ele>
        <time>2024-09-08T08:25:34Z</time>
      </trkpt>
      <trkpt lat="46.67793" lon="0.5484">
        <ele>100.2</ele>
        <time>2024-09-08T08:25:38Z</time>
      </trkpt>
      <trkpt lat="46.67792" lon="0.54841">
        <ele>100</ele>
        <time>2024-09-08T08:25:39Z</time>
      </trkpt>
      <trkpt lat="46.67791" lon="0.54843">
        <ele>100</ele>
        <time>2024-09-08T08:25:40Z</time>
      </trkpt>
      <trkpt lat="46.6779" lon="0.5485">
        <ele>99</ele>
        <time>2024-09-08T08:25:43Z</time>
      </trkpt>
      <trkpt lat="46.6779" lon="0.54851">
        <ele>98.8</ele>
        <time>2024-09-08T08:25:44Z</time>
      </trkpt>
      <trkpt lat="46.67788" lon="0.54863">
        <ele>98</ele>
        <time>2024-09-08T08:25:50Z</time>
      </trkpt>
      <trkpt lat="46.67788" lon="0.54868">
        <ele>98</ele>
        <time>2024-09-08T08:25:52Z</time>
      </trkpt>
      <trkpt lat="46.67788" lon="0.54878">
        <ele>97.4</ele>
        <time>2024-09-08T08:25:55Z</time>
      </trkpt>
      <trkpt lat="46.67789" lon="0.54884">
        <ele>96.8</ele>
        <time>2024-09-08T08:25:57Z</time>
      </trkpt>
      <trkpt lat="46.67787" lon="0.54891">
        <ele>96</ele>
        <time>2024-09-08T08:26:00Z</time>
      </trkpt>
      <trkpt lat="46.67787" lon="0.54893">
        <ele>95.6</ele>
        <time>2024-09-08T08:26:01Z</time>
      </trkpt>
      <trkpt lat="46.67792" lon="0.54905">
        <ele>94.4</ele>
        <time>2024-09-08T08:26:06Z</time>
      </trkpt>
      <trkpt lat="46.67799" lon="0.54922">
        <ele>93.4</ele>
        <time>2024-09-08T08:26:10Z</time>
      </trkpt>
      <trkpt lat="46.67803" lon="0.54929">
        <ele>93</ele>
        <time>2024-09-08T08:26:12Z</time>
      </trkpt>
      <trkpt lat="46.67806" lon="0.54939">
        <ele>93.6</ele>
        <time>2024-09-08T08:26:16Z</time>
      </trkpt>
      <trkpt lat="46.67807" lon="0.5494">
        <ele>93.6</ele>
        <time>2024-09-08T08:26:17Z</time>
      </trkpt>
      <trkpt lat="46.67811" lon="0.54947">
        <ele>93.4</ele>
        <time>2024-09-08T08:26:28Z</time>
      </trkpt>
      <trkpt lat="46.67818" lon="0.54961">
        <ele>94</ele>
        <time>2024-09-08T08:26:42Z</time>
      </trkpt>
      <trkpt lat="46.67819" lon="0.54963">
        <ele>94.4</ele>
        <time>2024-09-08T08:26:47Z</time>
      </trkpt>
      <trkpt lat="46.67823" lon="0.54971">
        <ele>94.2</ele>
        <time>2024-09-08T08:26:52Z</time>
      </trkpt>
      <trkpt lat="46.67823" lon="0.54979">
        <ele>93.2</ele>
        <time>2024-09-08T08:26:55Z</time>
      </trkpt>
      <trkpt lat="46.67822" lon="0.54985">
        <ele>92.6</ele>
        <time>2024-09-08T08:26:57Z</time>
      </trkpt>
      <trkpt lat="46.67822" lon="0.54985">
        <ele>92.2</ele>
        <time>2024-09-08T08:27:02Z</time>
      </trkpt>
      <trkpt lat="46.67815" lon="0.55013">
        <ele>92.2</ele>
        <time>2024-09-08T08:27:04Z</time>
      </trkpt>
      <trkpt lat="46.67807" lon="0.55032">
        <ele>91.8</ele>
        <time>2024-09-08T08:27:10Z</time>
      </trkpt>
      <trkpt lat="46.67806" lon="0.55059">
        <ele>91.2</ele>
        <time>2024-09-08T08:27:15Z</time>
      </trkpt>
      <trkpt lat="46.67809" lon="0.55108">
        <ele>92</ele>
        <time>2024-09-08T08:27:23Z</time>
      </trkpt>
      <trkpt lat="46.67816" lon="0.55161">
        <ele>92.2</ele>
        <time>2024-09-08T08:27:31Z</time>
      </trkpt>
      <trkpt lat="46.67818" lon="0.55191">
        <ele>92.4</ele>
        <time>2024-09-08T08:27:36Z</time>
      </trkpt>
      <trkpt lat="46.67818" lon="0.55201">
        <ele>92.2</ele>
        <time>2024-09-08T08:27:38Z</time>
      </trkpt>
      <trkpt lat="46.6782" lon="0.5523">
        <ele>91.4</ele>
        <time>2024-09-08T08:27:44Z</time>
      </trkpt>
      <trkpt lat="46.6782" lon="0.55234">
        <ele>91</ele>
        <time>2024-09-08T08:27:45Z</time>
      </trkpt>
      <trkpt lat="46.67825" lon="0.55254">
        <ele>89.6</ele>
        <time>2024-09-08T08:27:49Z</time>
      </trkpt>
      <trkpt lat="46.67834" lon="0.55293">
        <ele>88.6</ele>
        <time>2024-09-08T08:27:55Z</time>
      </trkpt>
      <trkpt lat="46.67837" lon="0.55306">
        <ele>88.4</ele>
        <time>2024-09-08T08:27:57Z</time>
      </trkpt>
      <trkpt lat="46.6784" lon="0.55317">
        <ele>87.2</ele>
        <time>2024-09-08T08:27:59Z</time>
      </trkpt>
      <trkpt lat="46.67842" lon="0.5532">
        <ele>86.8</ele>
        <time>2024-09-08T08:28:00Z</time>
      </trkpt>
      <trkpt lat="46.67844" lon="0.55329">
        <ele>86</ele>
        <time>2024-09-08T08:28:03Z</time>
      </trkpt>
      <trkpt lat="46.67845" lon="0.55335">
        <ele>85.6</ele>
        <time>2024-09-08T08:28:05Z</time>
      </trkpt>
      <trkpt lat="46.67848" lon="0.55356">
        <ele>85.4</ele>
        <time>2024-09-08T08:28:12Z</time>
      </trkpt>
      <trkpt lat="46.67852" lon="0.55371">
        <ele>85.8</ele>
        <time>2024-09-08T08:28:18Z</time>
      </trkpt>
      <trkpt lat="46.67857" lon="0.55395">
        <ele>85.4</ele>
        <time>2024-09-08T08:28:26Z</time>
      </trkpt>
      <trkpt lat="46.6786" lon="0.55415">
        <ele>85</ele>
        <time>2024-09-08T08:28:32Z</time>
      </trkpt>
      <trkpt lat="46.67861" lon="0.55423">
        <ele>85</ele>
        <time>2024-09-08T08:28:34Z</time>
      </trkpt>
      <trkpt lat="46.67861" lon="0.55445">
        <ele>84.8</ele>
        <time>2024-09-08T08:28:41Z</time>
      </trkpt>
      <trkpt lat="46.67861" lon="0.55463">
        <ele>84.6</ele>
        <time>2024-09-08T08:28:46Z</time>
      </trkpt>
      <trkpt lat="46.67862" lon="0.55482">
        <ele>84</ele>
        <time>2024-09-08T08:28:52Z</time>
      </trkpt>
      <trkpt lat="46.67862" lon="0.55489">
        <ele>83.6</ele>
        <time>2024-09-08T08:28:55Z</time>
      </trkpt>
      <trkpt lat="46.67862" lon="0.55502">
        <ele>82.8</ele>
        <time>2024-09-08T08:29:00Z</time>
      </trkpt>
      <trkpt lat="46.67862" lon="0.55507">
        <ele>82.8</ele>
        <time>2024-09-08T08:29:02Z</time>
      </trkpt>
      <trkpt lat="46.67863" lon="0.55526">
        <ele>82.4</ele>
        <time>2024-09-08T08:29:08Z</time>
      </trkpt>
      <trkpt lat="46.67864" lon="0.55547">
        <ele>81.8</ele>
        <time>2024-09-08T08:29:13Z</time>
      </trkpt>
      <trkpt lat="46.67864" lon="0.55552">
        <ele>81.4</ele>
        <time>2024-09-08T08:29:14Z</time>
      </trkpt>
      <trkpt lat="46.67864" lon="0.55567">
        <ele>80.8</ele>
        <time>2024-09-08T08:29:17Z</time>
      </trkpt>
      <trkpt lat="46.67865" lon="0.55579">
        <ele>80.2</ele>
        <time>2024-09-08T08:29:20Z</time>
      </trkpt>
      <trkpt lat="46.67864" lon="0.55589">
        <ele>79.6</ele>
        <time>2024-09-08T08:29:23Z</time>
      </trkpt>
      <trkpt lat="46.67862" lon="0.55597">
        <ele>79.4</ele>
        <time>2024-09-08T08:29:26Z</time>
      </trkpt>
      <trkpt lat="46.67856" lon="0.55618">
        <ele>78.6</ele>
        <time>2024-09-08T08:29:33Z</time>
      </trkpt>
      <trkpt lat="46.67852" lon="0.55632">
        <ele>77.4</ele>
        <time>2024-09-08T08:29:37Z</time>
      </trkpt>
      <trkpt lat="46.67847" lon="0.55642">
        <ele>76.6</ele>
        <time>2024-09-08T08:29:40Z</time>
      </trkpt>
      <trkpt lat="46.67846" lon="0.55645">
        <ele>76.4</ele>
        <time>2024-09-08T08:29:41Z</time>
      </trkpt>
      <trkpt lat="46.67833" lon="0.55668">
        <ele>75</ele>
        <time>2024-09-08T08:29:46Z</time>
      </trkpt>
      <trkpt lat="46.67823" lon="0.55684">
        <ele>73.6</ele>
        <time>2024-09-08T08:29:49Z</time>
      </trkpt>
      <trkpt lat="46.67815" lon="0.55694">
        <ele>72.4</ele>
        <time>2024-09-08T08:29:51Z</time>
      </trkpt>
      <trkpt lat="46.67801" lon="0.55718">
        <ele>71.6</ele>
        <time>2024-09-08T08:29:55Z</time>
      </trkpt>
      <trkpt lat="46.67798" lon="0.55727">
        <ele>71.6</ele>
        <time>2024-09-08T08:29:56Z</time>
      </trkpt>
      <trkpt lat="46.67795" lon="0.55735">
        <ele>71.2</ele>
        <time>2024-09-08T08:29:57Z</time>
      </trkpt>
      <trkpt lat="46.67794" lon="0.55749">
        <ele>70.2</ele>
        <time>2024-09-08T08:29:59Z</time>
      </trkpt>
      <trkpt lat="46.67793" lon="0.55756">
        <ele>69.8</ele>
        <time>2024-09-08T08:30:00Z</time>
      </trkpt>
      <trkpt lat="46.6779" lon="0.55769">
        <ele>69.4</ele>
        <time>2024-09-08T08:30:02Z</time>
      </trkpt>
      <trkpt lat="46.6779" lon="0.55771">
        <ele>69.4</ele>
        <time>2024-09-08T08:30:03Z</time>
      </trkpt>
      <trkpt lat="46.67794" lon="0.55771">
        <ele>69</ele>
        <time>2024-09-08T08:30:07Z</time>
      </trkpt>
      <trkpt lat="46.67803" lon="0.55754">
        <ele>70</ele>
        <time>2024-09-08T08:30:15Z</time>
      </trkpt>
      <trkpt lat="46.67804" lon="0.55751">
        <ele>70.2</ele>
        <time>2024-09-08T08:30:16Z</time>
      </trkpt>
      <trkpt lat="46.67809" lon="0.55745">
        <ele>70.4</ele>
        <time>2024-09-08T08:30:20Z</time>
      </trkpt>
      <trkpt lat="46.67824" lon="0.55735">
        <ele>71.2</ele>
        <time>2024-09-08T08:30:27Z</time>
      </trkpt>
      <trkpt lat="46.67839" lon="0.55724">
        <ele>72</ele>
        <time>2024-09-08T08:30:34Z</time>
      </trkpt>
      <trkpt lat="46.67847" lon="0.55716">
        <ele>72.4</ele>
        <time>2024-09-08T08:30:38Z</time>
      </trkpt>
      <trkpt lat="46.67851" lon="0.55715">
        <ele>72.6</ele>
        <time>2024-09-08T08:30:40Z</time>
      </trkpt>
      <trkpt lat="46.67858" lon="0.55709">
        <ele>73</ele>
        <time>2024-09-08T08:30:47Z</time>
      </trkpt>
      <trkpt lat="46.67851" lon="0.55715">
        <ele>72.6</ele>
        <time>2024-09-08T08:30:56Z</time>
      </trkpt>
      <trkpt lat="46.67845" lon="0.55728">
        <ele>72.2</ele>
        <time>2024-09-08T08:31:06Z</time>
      </trkpt>
      <trkpt lat="46.67833" lon="0.55744">
        <ele>71.4</ele>
        <time>2024-09-08T08:31:15Z</time>
      </trkpt>
      <trkpt lat="46.67831" lon="0.55746">
        <ele>71.4</ele>
        <time>2024-09-08T08:31:16Z</time>
      </trkpt>
      <trkpt lat="46.67822" lon="0.55759">
        <ele>70.6</ele>
        <time>2024-09-08T08:31:21Z</time>
      </trkpt>
      <trkpt lat="46.67818" lon="0.55765">
        <ele>70.2</ele>
        <time>2024-09-08T08:31:23Z</time>
      </trkpt>
      <trkpt lat="46.67806" lon="0.55784">
        <ele>69.6</ele>
        <time>2024-09-08T08:31:29Z</time>
      </trkpt>
      <trkpt lat="46.6779" lon="0.55792">
        <ele>69.4</ele>
        <time>2024-09-08T08:31:34Z</time>
      </trkpt>
      <trkpt lat="46.67779" lon="0.55787">
        <ele>69.4</ele>
        <time>2024-09-08T08:31:39Z</time>
      </trkpt>
      <trkpt lat="46.67774" lon="0.55772">
        <ele>70.2</ele>
        <time>2024-09-08T08:31:44Z</time>
      </trkpt>
      <trkpt lat="46.67768" lon="0.55754">
        <ele>71</ele>
        <time>2024-09-08T08:31:50Z</time>
      </trkpt>
      <trkpt lat="46.67766" lon="0.55748">
        <ele>71.4</ele>
        <time>2024-09-08T08:31:52Z</time>
      </trkpt>
      <trkpt lat="46.67761" lon="0.55734">
        <ele>72.4</ele>
        <time>2024-09-08T08:31:57Z</time>
      </trkpt>
      <trkpt lat="46.6776" lon="0.55731">
        <ele>72.6</ele>
        <time>2024-09-08T08:31:58Z</time>
      </trkpt>
      <trkpt lat="46.67756" lon="0.55718">
        <ele>73.6</ele>
        <time>2024-09-08T08:32:03Z</time>
      </trkpt>
      <trkpt lat="46.67754" lon="0.55714">
        <ele>73.8</ele>
        <time>2024-09-08T08:32:05Z</time>
      </trkpt>
      <trkpt lat="46.67748" lon="0.55699">
        <ele>74.8</ele>
        <time>2024-09-08T08:32:11Z</time>
      </trkpt>
      <trkpt lat="46.67744" lon="0.55691">
        <ele>75.2</ele>
        <time>2024-09-08T08:32:14Z</time>
      </trkpt>
      <trkpt lat="46.67736" lon="0.5568">
        <ele>75.8</ele>
        <time>2024-09-08T08:32:18Z</time>
      </trkpt>
      <trkpt lat="46.6773" lon="0.55673">
        <ele>76.2</ele>
        <time>2024-09-08T08:32:21Z</time>
      </trkpt>
      <trkpt lat="46.67725" lon="0.55665">
        <ele>77</ele>
        <time>2024-09-08T08:32:24Z</time>
      </trkpt>
      <trkpt lat="46.67714" lon="0.55655">
        <ele>77.6</ele>
        <time>2024-09-08T08:32:27Z</time>
      </trkpt>
      <trkpt lat="46.67701" lon="0.55644">
        <ele>78.2</ele>
        <time>2024-09-08T08:32:30Z</time>
      </trkpt>
      <trkpt lat="46.67691" lon="0.55633">
        <ele>78.6</ele>
        <time>2024-09-08T08:32:33Z</time>
      </trkpt>
      <trkpt lat="46.6767" lon="0.55612">
        <ele>79.4</ele>
        <time>2024-09-08T08:32:39Z</time>
      </trkpt>
      <trkpt lat="46.6766" lon="0.55602">
        <ele>80</ele>
        <time>2024-09-08T08:32:42Z</time>
      </trkpt>
      <trkpt lat="46.67644" lon="0.55584">
        <ele>80.4</ele>
        <time>2024-09-08T08:32:47Z</time>
      </trkpt>
      <trkpt lat="46.67635" lon="0.55574">
        <ele>80.6</ele>
        <time>2024-09-08T08:32:50Z</time>
      </trkpt>
      <trkpt lat="46.67609" lon="0.55542">
        <ele>81.2</ele>
        <time>2024-09-08T08:32:58Z</time>
      </trkpt>
      <trkpt lat="46.67595" lon="0.55525">
        <ele>81.4</ele>
        <time>2024-09-08T08:33:03Z</time>
      </trkpt>
      <trkpt lat="46.6759" lon="0.55519">
        <ele>81.6</ele>
        <time>2024-09-08T08:33:05Z</time>
      </trkpt>
      <trkpt lat="46.67574" lon="0.55501">
        <ele>82.6</ele>
        <time>2024-09-08T08:33:11Z</time>
      </trkpt>
      <trkpt lat="46.67572" lon="0.55498">
        <ele>82.6</ele>
        <time>2024-09-08T08:33:12Z</time>
      </trkpt>
      <trkpt lat="46.67555" lon="0.55474">
        <ele>83.6</ele>
        <time>2024-09-08T08:33:19Z</time>
      </trkpt>
      <trkpt lat="46.67545" lon="0.55446">
        <ele>83.4</ele>
        <time>2024-09-08T08:33:24Z</time>
      </trkpt>
      <trkpt lat="46.67538" lon="0.55408">
        <ele>84</ele>
        <time>2024-09-08T08:33:31Z</time>
      </trkpt>
      <trkpt lat="46.67535" lon="0.55393">
        <ele>84.8</ele>
        <time>2024-09-08T08:33:34Z</time>
      </trkpt>
      <trkpt lat="46.67532" lon="0.55375">
        <ele>85.8</ele>
        <time>2024-09-08T08:33:38Z</time>
      </trkpt>
      <trkpt lat="46.67531" lon="0.55371">
        <ele>86</ele>
        <time>2024-09-08T08:33:39Z</time>
      </trkpt>
      <trkpt lat="46.67528" lon="0.55357">
        <ele>87</ele>
        <time>2024-09-08T08:33:42Z</time>
      </trkpt>
      <trkpt lat="46.67523" lon="0.55335">
        <ele>88.2</ele>
        <time>2024-09-08T08:33:47Z</time>
      </trkpt>
      <trkpt lat="46.67519" lon="0.55317">
        <ele>89.4</ele>
        <time>2024-09-08T08:33:51Z</time>
      </trkpt>
      <trkpt lat="46.67515" lon="0.55304">
        <ele>90</ele>
        <time>2024-09-08T08:33:54Z</time>
      </trkpt>
      <trkpt lat="46.67512" lon="0.5529">
        <ele>90.4</ele>
        <time>2024-09-08T08:33:57Z</time>
      </trkpt>
      <trkpt lat="46.67508" lon="0.55271">
        <ele>91.8</ele>
        <time>2024-09-08T08:34:01Z</time>
      </trkpt>
      <trkpt lat="46.67502" lon="0.55248">
        <ele>93</ele>
        <time>2024-09-08T08:34:06Z</time>
      </trkpt>
      <trkpt lat="46.67499" lon="0.55235">
        <ele>93.8</ele>
        <time>2024-09-08T08:34:09Z</time>
      </trkpt>
      <trkpt lat="46.67498" lon="0.5523">
        <ele>94.2</ele>
        <time>2024-09-08T08:34:10Z</time>
      </trkpt>
      <trkpt lat="46.67493" lon="0.55216">
        <ele>95.2</ele>
        <time>2024-09-08T08:34:13Z</time>
      </trkpt>
      <trkpt lat="46.6749" lon="0.55204">
        <ele>96.2</ele>
        <time>2024-09-08T08:34:16Z</time>
      </trkpt>
      <trkpt lat="46.67487" lon="0.55192">
        <ele>97.4</ele>
        <time>2024-09-08T08:34:19Z</time>
      </trkpt>
      <trkpt lat="46.67483" lon="0.55177">
        <ele>98.8</ele>
        <time>2024-09-08T08:34:23Z</time>
      </trkpt>
      <trkpt lat="46.67479" lon="0.55159">
        <ele>100.2</ele>
        <time>2024-09-08T08:34:28Z</time>
      </trkpt>
      <trkpt lat="46.67475" lon="0.55148">
        <ele>101.2</ele>
        <time>2024-09-08T08:34:31Z</time>
      </trkpt>
      <trkpt lat="46.67473" lon="0.55144">
        <ele>101.4</ele>
        <time>2024-09-08T08:34:32Z</time>
      </trkpt>
      <trkpt lat="46.67469" lon="0.55131">
        <ele>102.6</ele>
        <time>2024-09-08T08:34:36Z</time>
      </trkpt>
      <trkpt lat="46.67467" lon="0.55127">
        <ele>103.2</ele>
        <time>2024-09-08T08:34:38Z</time>
      </trkpt>
      <trkpt lat="46.67465" lon="0.55121">
        <ele>103.6</ele>
        <time>2024-09-08T08:34:42Z</time>
      </trkpt>
      <trkpt lat="46.67463" lon="0.55119">
        <ele>103.8</ele>
        <time>2024-09-08T08:34:43Z</time>
      </trkpt>
      <trkpt lat="46.67462" lon="0.55119">
        <ele>103.8</ele>
        <time>2024-09-08T08:34:44Z</time>
      </trkpt>
      <trkpt lat="46.67453" lon="0.55118">
        <ele>103.8</ele>
        <time>2024-09-08T08:34:50Z</time>
      </trkpt>
      <trkpt lat="46.67448" lon="0.55119">
        <ele>104.4</ele>
        <time>2024-09-08T08:34:54Z</time>
      </trkpt>
      <trkpt lat="46.67447" lon="0.55117">
        <ele>104.4</ele>
        <time>2024-09-08T08:34:55Z</time>
      </trkpt>
      <trkpt lat="46.67439" lon="0.55108">
        <ele>104.6</ele>
        <time>2024-09-08T08:34:59Z</time>
      </trkpt>
      <trkpt lat="46.67436" lon="0.55105">
        <ele>104.8</ele>
        <time>2024-09-08T08:35:00Z</time>
      </trkpt>
      <trkpt lat="46.67427" lon="0.55091">
        <ele>104.8</ele>
        <time>2024-09-08T08:35:06Z</time>
      </trkpt>
      <trkpt lat="46.6742" lon="0.55074">
        <ele>105.4</ele>
        <time>2024-09-08T08:35:13Z</time>
      </trkpt>
      <trkpt lat="46.67419" lon="0.55072">
        <ele>105.4</ele>
        <time>2024-09-08T08:35:14Z</time>
      </trkpt>
      <trkpt lat="46.67412" lon="0.55065">
        <ele>105.4</ele>
        <time>2024-09-08T08:35:18Z</time>
      </trkpt>
      <trkpt lat="46.6741" lon="0.55065">
        <ele>105.6</ele>
        <time>2024-09-08T08:35:20Z</time>
      </trkpt>
      <trkpt lat="46.67408" lon="0.55069">
        <ele>105.2</ele>
        <time>2024-09-08T08:35:22Z</time>
      </trkpt>
      <trkpt lat="46.67404" lon="0.55072">
        <ele>104.6</ele>
        <time>2024-09-08T08:35:25Z</time>
      </trkpt>
      <trkpt lat="46.67404" lon="0.55074">
        <ele>104.4</ele>
        <time>2024-09-08T08:35:27Z</time>
      </trkpt>
      <trkpt lat="46.67405" lon="0.55082">
        <ele>104.6</ele>
        <time>2024-09-08T08:35:32Z</time>
      </trkpt>
      <trkpt lat="46.67406" lon="0.55085">
        <ele>104.6</ele>
        <time>2024-09-08T08:35:35Z</time>
      </trkpt>
      <trkpt lat="46.67407" lon="0.55091">
        <ele>104.4</ele>
        <time>2024-09-08T08:35:38Z</time>
      </trkpt>
      <trkpt lat="46.67412" lon="0.55104">
        <ele>103.6</ele>
        <time>2024-09-08T08:35:43Z</time>
      </trkpt>
      <trkpt lat="46.67411" lon="0.55108">
        <ele>102.6</ele>
        <time>2024-09-08T08:35:45Z</time>
      </trkpt>
      <trkpt lat="46.67409" lon="0.55114">
        <ele>101</ele>
        <time>2024-09-08T08:35:47Z</time>
      </trkpt>
      <trkpt lat="46.67408" lon="0.55116">
        <ele>100.4</ele>
        <time>2024-09-08T08:35:48Z</time>
      </trkpt>
      <trkpt lat="46.67408" lon="0.5512">
        <ele>99.6</ele>
        <time>2024-09-08T08:35:49Z</time>
      </trkpt>
      <trkpt lat="46.67407" lon="0.55123">
        <ele>98.2</ele>
        <time>2024-09-08T08:35:50Z</time>
      </trkpt>
      <trkpt lat="46.67408" lon="0.5513">
        <ele>96.6</ele>
        <time>2024-09-08T08:35:52Z</time>
      </trkpt>
      <trkpt lat="46.67409" lon="0.55137">
        <ele>96</ele>
        <time>2024-09-08T08:35:54Z</time>
      </trkpt>
      <trkpt lat="46.6741" lon="0.5514">
        <ele>95.4</ele>
        <time>2024-09-08T08:35:55Z</time>
      </trkpt>
      <trkpt lat="46.6741" lon="0.55142">
        <ele>95</ele>
        <time>2024-09-08T08:35:56Z</time>
      </trkpt>
      <trkpt lat="46.67411" lon="0.55142">
        <ele>94.8</ele>
        <time>2024-09-08T08:35:59Z</time>
      </trkpt>
      <trkpt lat="46.67415" lon="0.55147">
        <ele>95.8</ele>
        <time>2024-09-08T08:36:04Z</time>
      </trkpt>
      <trkpt lat="46.67416" lon="0.5515">
        <ele>95.8</ele>
        <time>2024-09-08T08:36:05Z</time>
      </trkpt>
      <trkpt lat="46.67424" lon="0.55175">
        <ele>95.6</ele>
        <time>2024-09-08T08:36:11Z</time>
      </trkpt>
      <trkpt lat="46.67425" lon="0.55184">
        <ele>93.8</ele>
        <time>2024-09-08T08:36:13Z</time>
      </trkpt>
      <trkpt lat="46.67429" lon="0.55195">
        <ele>92.8</ele>
        <time>2024-09-08T08:36:15Z</time>
      </trkpt>
      <trkpt lat="46.67432" lon="0.55199">
        <ele>91.8</ele>
        <time>2024-09-08T08:36:16Z</time>
      </trkpt>
      <trkpt lat="46.67434" lon="0.55203">
        <ele>91.4</ele>
        <time>2024-09-08T08:36:17Z</time>
      </trkpt>
      <trkpt lat="46.6744" lon="0.55218">
        <ele>90.4</ele>
        <time>2024-09-08T08:36:21Z</time>
      </trkpt>
      <trkpt lat="46.67441" lon="0.55227">
        <ele>89</ele>
        <time>2024-09-08T08:36:23Z</time>
      </trkpt>
      <trkpt lat="46.67442" lon="0.55238">
        <ele>87.6</ele>
        <time>2024-09-08T08:36:26Z</time>
      </trkpt>
      <trkpt lat="46.6744" lon="0.55243">
        <ele>87</ele>
        <time>2024-09-08T08:36:28Z</time>
      </trkpt>
      <trkpt lat="46.6744" lon="0.55243">
        <ele>86.6</ele>
        <time>2024-09-08T08:36:30Z</time>
      </trkpt>
      <trkpt lat="46.67439" lon="0.55244">
        <ele>86.4</ele>
        <time>2024-09-08T08:36:32Z</time>
      </trkpt>
      <trkpt lat="46.6744" lon="0.55246">
        <ele>86.6</ele>
        <time>2024-09-08T08:36:34Z</time>
      </trkpt>
      <trkpt lat="46.6744" lon="0.55245">
        <ele>86.6</ele>
        <time>2024-09-08T08:36:35Z</time>
      </trkpt>
      <trkpt lat="46.6744" lon="0.55244">
        <ele>87.4</ele>
        <time>2024-09-08T08:36:40Z</time>
      </trkpt>
      <trkpt lat="46.67439" lon="0.55246">
        <ele>87.6</ele>
        <time>2024-09-08T08:36:42Z</time>
      </trkpt>
      <trkpt lat="46.67438" lon="0.55247">
        <ele>87.8</ele>
        <time>2024-09-08T08:36:43Z</time>
      </trkpt>
      <trkpt lat="46.67431" lon="0.55251">
        <ele>87.8</ele>
        <time>2024-09-08T08:36:47Z</time>
      </trkpt>
      <trkpt lat="46.67421" lon="0.55249">
        <ele>87.8</ele>
        <time>2024-09-08T08:36:54Z</time>
      </trkpt>
      <trkpt lat="46.67412" lon="0.55251">
        <ele>88.2</ele>
        <time>2024-09-08T08:36:59Z</time>
      </trkpt>
      <trkpt lat="46.67411" lon="0.55251">
        <ele>88.4</ele>
        <time>2024-09-08T08:37:00Z</time>
      </trkpt>
      <trkpt lat="46.67411" lon="0.55248">
        <ele>88.6</ele>
        <time>2024-09-08T08:37:03Z</time>
      </trkpt>
      <trkpt lat="46.6741" lon="0.55243">
        <ele>88.4</ele>
        <time>2024-09-08T08:37:06Z</time>
      </trkpt>
      <trkpt lat="46.6741" lon="0.55238">
        <ele>88</ele>
        <time>2024-09-08T08:37:10Z</time>
      </trkpt>
      <trkpt lat="46.6741" lon="0.55237">
        <ele>88</ele>
        <time>2024-09-08T08:37:11Z</time>
      </trkpt>
      <trkpt lat="46.67412" lon="0.55227">
        <ele>88.2</ele>
        <time>2024-09-08T08:37:15Z</time>
      </trkpt>
      <trkpt lat="46.67411" lon="0.55225">
        <ele>88.6</ele>
        <time>2024-09-08T08:37:16Z</time>
      </trkpt>
      <trkpt lat="46.67409" lon="0.5522">
        <ele>88.8</ele>
        <time>2024-09-08T08:37:18Z</time>
      </trkpt>
      <trkpt lat="46.67407" lon="0.55214">
        <ele>89.2</ele>
        <time>2024-09-08T08:37:21Z</time>
      </trkpt>
      <trkpt lat="46.67407" lon="0.55203">
        <ele>90</ele>
        <time>2024-09-08T08:37:25Z</time>
      </trkpt>
      <trkpt lat="46.67405" lon="0.55195">
        <ele>91.2</ele>
        <time>2024-09-08T08:37:28Z</time>
      </trkpt>
      <trkpt lat="46.67405" lon="0.55186">
        <ele>92.2</ele>
        <time>2024-09-08T08:37:33Z</time>
      </trkpt>
      <trkpt lat="46.67405" lon="0.55181">
        <ele>93</ele>
        <time>2024-09-08T08:37:35Z</time>
      </trkpt>
      <trkpt lat="46.67405" lon="0.55178">
        <ele>93.6</ele>
        <time>2024-09-08T08:37:36Z</time>
      </trkpt>
      <trkpt lat="46.67405" lon="0.55171">
        <ele>94.6</ele>
        <time>2024-09-08T08:37:39Z</time>
      </trkpt>
      <trkpt lat="46.67404" lon="0.55166">
        <ele>95.4</ele>
        <time>2024-09-08T08:37:41Z</time>
      </trkpt>
      <trkpt lat="46.67404" lon="0.55165">
        <ele>95.6</ele>
        <time>2024-09-08T08:37:42Z</time>
      </trkpt>
      <trkpt lat="46.67403" lon="0.55163">
        <ele>96</ele>
        <time>2024-09-08T08:37:43Z</time>
      </trkpt>
      <trkpt lat="46.67402" lon="0.55156">
        <ele>96.6</ele>
        <time>2024-09-08T08:37:46Z</time>
      </trkpt>
      <trkpt lat="46.67401" lon="0.55154">
        <ele>96.8</ele>
        <time>2024-09-08T08:37:47Z</time>
      </trkpt>
      <trkpt lat="46.67393" lon="0.55144">
        <ele>97.4</ele>
        <time>2024-09-08T08:37:54Z</time>
      </trkpt>
      <trkpt lat="46.67378" lon="0.55137">
        <ele>95.8</ele>
        <time>2024-09-08T08:37:59Z</time>
      </trkpt>
      <trkpt lat="46.67375" lon="0.55136">
        <ele>95.4</ele>
        <time>2024-09-08T08:38:00Z</time>
      </trkpt>
      <trkpt lat="46.67369" lon="0.55139">
        <ele>94.6</ele>
        <time>2024-09-08T08:38:03Z</time>
      </trkpt>
      <trkpt lat="46.67367" lon="0.55139">
        <ele>94.6</ele>
        <time>2024-09-08T08:38:04Z</time>
      </trkpt>
      <trkpt lat="46.67365" lon="0.5514">
        <ele>94.2</ele>
        <time>2024-09-08T08:38:05Z</time>
      </trkpt>
      <trkpt lat="46.67362" lon="0.55143">
        <ele>92.8</ele>
        <time>2024-09-08T08:38:08Z</time>
      </trkpt>
      <trkpt lat="46.67362" lon="0.55145">
        <ele>92.2</ele>
        <time>2024-09-08T08:38:10Z</time>
      </trkpt>
      <trkpt lat="46.6736" lon="0.55148">
        <ele>91.8</ele>
        <time>2024-09-08T08:38:12Z</time>
      </trkpt>
      <trkpt lat="46.67359" lon="0.5515">
        <ele>91.6</ele>
        <time>2024-09-08T08:38:13Z</time>
      </trkpt>
      <trkpt lat="46.67356" lon="0.55152">
        <ele>91.4</ele>
        <time>2024-09-08T08:38:15Z</time>
      </trkpt>
      <trkpt lat="46.67353" lon="0.55151">
        <ele>91.4</ele>
        <time>2024-09-08T08:38:17Z</time>
      </trkpt>
      <trkpt lat="46.67349" lon="0.55149">
        <ele>91.6</ele>
        <time>2024-09-08T08:38:21Z</time>
      </trkpt>
      <trkpt lat="46.67348" lon="0.5515">
        <ele>91.6</ele>
        <time>2024-09-08T08:38:22Z</time>
      </trkpt>
      <trkpt lat="46.67347" lon="0.5516">
        <ele>91.4</ele>
        <time>2024-09-08T08:38:27Z</time>
      </trkpt>
      <trkpt lat="46.67345" lon="0.55166">
        <ele>91.4</ele>
        <time>2024-09-08T08:38:31Z</time>
      </trkpt>
      <trkpt lat="46.67344" lon="0.55167">
        <ele>91.6</ele>
        <time>2024-09-08T08:38:33Z</time>
      </trkpt>
      <trkpt lat="46.67337" lon="0.55169">
        <ele>92.4</ele>
        <time>2024-09-08T08:38:38Z</time>
      </trkpt>
      <trkpt lat="46.67336" lon="0.5517">
        <ele>92.6</ele>
        <time>2024-09-08T08:38:39Z</time>
      </trkpt>
      <trkpt lat="46.67331" lon="0.55176">
        <ele>93.8</ele>
        <time>2024-09-08T08:38:43Z</time>
      </trkpt>
      <trkpt lat="46.67328" lon="0.55179">
        <ele>94.4</ele>
        <time>2024-09-08T08:38:46Z</time>
      </trkpt>
      <trkpt lat="46.67325" lon="0.55186">
        <ele>94.8</ele>
        <time>2024-09-08T08:38:50Z</time>
      </trkpt>
      <trkpt lat="46.67324" lon="0.55188">
        <ele>94.8</ele>
        <time>2024-09-08T08:38:51Z</time>
      </trkpt>
      <trkpt lat="46.67319" lon="0.55199">
        <ele>96</ele>
        <time>2024-09-08T08:38:58Z</time>
      </trkpt>
      <trkpt lat="46.67318" lon="0.552">
        <ele>96.2</ele>
        <time>2024-09-08T08:38:59Z</time>
      </trkpt>
      <trkpt lat="46.67312" lon="0.55206">
        <ele>97</ele>
        <time>2024-09-08T08:39:03Z</time>
      </trkpt>
      <trkpt lat="46.6731" lon="0.5521">
        <ele>97.6</ele>
        <time>2024-09-08T08:39:05Z</time>
      </trkpt>
      <trkpt lat="46.67309" lon="0.55213">
        <ele>97.6</ele>
        <time>2024-09-08T08:39:06Z</time>
      </trkpt>
      <trkpt lat="46.67305" lon="0.55225">
        <ele>98.2</ele>
        <time>2024-09-08T08:39:11Z</time>
      </trkpt>
      <trkpt lat="46.67305" lon="0.55228">
        <ele>98.2</ele>
        <time>2024-09-08T08:39:12Z</time>
      </trkpt>
      <trkpt lat="46.67301" lon="0.55244">
        <ele>98.8</ele>
        <time>2024-09-08T08:39:19Z</time>
      </trkpt>
      <trkpt lat="46.67297" lon="0.55257">
        <ele>99.2</ele>
        <time>2024-09-08T08:39:25Z</time>
      </trkpt>
      <trkpt lat="46.67297" lon="0.55263">
        <ele>99</ele>
        <time>2024-09-08T08:39:28Z</time>
      </trkpt>
      <trkpt lat="46.67295" lon="0.55269">
        <ele>98.8</ele>
        <time>2024-09-08T08:39:31Z</time>
      </trkpt>
      <trkpt lat="46.67294" lon="0.55277">
        <ele>99.2</ele>
        <time>2024-09-08T08:39:34Z</time>
      </trkpt>
      <trkpt lat="46.67292" lon="0.55281">
        <ele>99.6</ele>
        <time>2024-09-08T08:39:36Z</time>
      </trkpt>
      <trkpt lat="46.67291" lon="0.55282">
        <ele>99.8</ele>
        <time>2024-09-08T08:39:37Z</time>
      </trkpt>
      <trkpt lat="46.67288" lon="0.55285">
        <ele>100.4</ele>
        <time>2024-09-08T08:39:40Z</time>
      </trkpt>
      <trkpt lat="46.67283" lon="0.55289">
        <ele>101.6</ele>
        <time>2024-09-08T08:39:44Z</time>
      </trkpt>
      <trkpt lat="46.67281" lon="0.55293">
        <ele>102.8</ele>
        <time>2024-09-08T08:39:48Z</time>
      </trkpt>
      <trkpt lat="46.67279" lon="0.5529">
        <ele>103.2</ele>
        <time>2024-09-08T08:39:51Z</time>
      </trkpt>
      <trkpt lat="46.67276" lon="0.55285">
        <ele>103.8</ele>
        <time>2024-09-08T08:39:54Z</time>
      </trkpt>
      <trkpt lat="46.6727" lon="0.55279">
        <ele>103.8</ele>
        <time>2024-09-08T08:39:58Z</time>
      </trkpt>
      <trkpt lat="46.67269" lon="0.55278">
        <ele>103.8</ele>
        <time>2024-09-08T08:39:59Z</time>
      </trkpt>
      <trkpt lat="46.67262" lon="0.5528">
        <ele>104.4</ele>
        <time>2024-09-08T08:40:03Z</time>
      </trkpt>
      <trkpt lat="46.67257" lon="0.55282">
        <ele>104.8</ele>
        <time>2024-09-08T08:40:05Z</time>
      </trkpt>
      <trkpt lat="46.6725" lon="0.55287">
        <ele>105.4</ele>
        <time>2024-09-08T08:40:09Z</time>
      </trkpt>
      <trkpt lat="46.67244" lon="0.55293">
        <ele>106</ele>
        <time>2024-09-08T08:40:13Z</time>
      </trkpt>
      <trkpt lat="46.67241" lon="0.55293">
        <ele>106</ele>
        <time>2024-09-08T08:40:14Z</time>
      </trkpt>
      <trkpt lat="46.6723" lon="0.55294">
        <ele>106.8</ele>
        <time>2024-09-08T08:40:19Z</time>
      </trkpt>
      <trkpt lat="46.67226" lon="0.55293">
        <ele>107</ele>
        <time>2024-09-08T08:40:21Z</time>
      </trkpt>
      <trkpt lat="46.67224" lon="0.55294">
        <ele>107.2</ele>
        <time>2024-09-08T08:40:22Z</time>
      </trkpt>
      <trkpt lat="46.67221" lon="0.55297">
        <ele>107.4</ele>
        <time>2024-09-08T08:40:24Z</time>
      </trkpt>
      <trkpt lat="46.67211" lon="0.55308">
        <ele>107.8</ele>
        <time>2024-09-08T08:40:30Z</time>
      </trkpt>
      <trkpt lat="46.67203" lon="0.5532">
        <ele>108</ele>
        <time>2024-09-08T08:40:37Z</time>
      </trkpt>
      <trkpt lat="46.67202" lon="0.55321">
        <ele>108</ele>
        <time>2024-09-08T08:40:38Z</time>
      </trkpt>
      <trkpt lat="46.67195" lon="0.55329">
        <ele>108.4</ele>
        <time>2024-09-08T08:40:43Z</time>
      </trkpt>
      <trkpt lat="46.6719" lon="0.55336">
        <ele>108</ele>
        <time>2024-09-08T08:40:50Z</time>
      </trkpt>
      <trkpt lat="46.6719" lon="0.55338">
        <ele>108</ele>
        <time>2024-09-08T08:41:02Z</time>
      </trkpt>
      <trkpt lat="46.67191" lon="0.55344">
        <ele>108</ele>
        <time>2024-09-08T08:41:18Z</time>
      </trkpt>
      <trkpt lat="46.6719" lon="0.55347">
        <ele>108.2</ele>
        <time>2024-09-08T08:41:32Z</time>
      </trkpt>
      <trkpt lat="46.6719" lon="0.55348">
        <ele>108</ele>
        <time>2024-09-08T08:41:45Z</time>
      </trkpt>
      <trkpt lat="46.67188" lon="0.5535">
        <ele>108.2</ele>
        <time>2024-09-08T08:42:01Z</time>
      </trkpt>
      <trkpt lat="46.67188" lon="0.5535">
        <ele>108.2</ele>
        <time>2024-09-08T08:42:20Z</time>
      </trkpt>
      <trkpt lat="46.67188" lon="0.55353">
        <ele>108</ele>
        <time>2024-09-08T08:42:31Z</time>
      </trkpt>
      <trkpt lat="46.67178" lon="0.55365">
        <ele>108.6</ele>
        <time>2024-09-08T08:42:41Z</time>
      </trkpt>
      <trkpt lat="46.67164" lon="0.55384">
        <ele>108.4</ele>
        <time>2024-09-08T08:42:50Z</time>
      </trkpt>
      <trkpt lat="46.67159" lon="0.55404">
        <ele>108.2</ele>
        <time>2024-09-08T08:42:55Z</time>
      </trkpt>
      <trkpt lat="46.67146" lon="0.55419">
        <ele>107.6</ele>
        <time>2024-09-08T08:43:00Z</time>
      </trkpt>
      <trkpt lat="46.67128" lon="0.55443">
        <ele>107.6</ele>
        <time>2024-09-08T08:43:06Z</time>
      </trkpt>
      <trkpt lat="46.6711" lon="0.55465">
        <ele>107.8</ele>
        <time>2024-09-08T08:43:11Z</time>
      </trkpt>
      <trkpt lat="46.67088" lon="0.55494">
        <ele>107</ele>
        <time>2024-09-08T08:43:18Z</time>
      </trkpt>
      <trkpt lat="46.67085" lon="0.55497">
        <ele>107</ele>
        <time>2024-09-08T08:43:19Z</time>
      </trkpt>
      <trkpt lat="46.67057" lon="0.55529">
        <ele>106.8</ele>
        <time>2024-09-08T08:43:28Z</time>
      </trkpt>
      <trkpt lat="46.67044" lon="0.55543">
        <ele>106</ele>
        <time>2024-09-08T08:43:32Z</time>
      </trkpt>
      <trkpt lat="46.67029" lon="0.55561">
        <ele>104.4</ele>
        <time>2024-09-08T08:43:36Z</time>
      </trkpt>
      <trkpt lat="46.67018" lon="0.5558">
        <ele>104</ele>
        <time>2024-09-08T08:43:39Z</time>
      </trkpt>
      <trkpt lat="46.67007" lon="0.556">
        <ele>103.8</ele>
        <time>2024-09-08T08:43:42Z</time>
      </trkpt>
      <trkpt lat="46.67" lon="0.55612">
        <ele>103.4</ele>
        <time>2024-09-08T08:43:44Z</time>
      </trkpt>
      <trkpt lat="46.66985" lon="0.55632">
        <ele>102.6</ele>
        <time>2024-09-08T08:43:48Z</time>
      </trkpt>
      <trkpt lat="46.66977" lon="0.55645">
        <ele>102.2</ele>
        <time>2024-09-08T08:43:50Z</time>
      </trkpt>
      <trkpt lat="46.66968" lon="0.55659">
        <ele>101.4</ele>
        <time>2024-09-08T08:43:52Z</time>
      </trkpt>
      <trkpt lat="46.66962" lon="0.55667">
        <ele>101</ele>
        <time>2024-09-08T08:43:53Z</time>
      </trkpt>
      <trkpt lat="46.66958" lon="0.55671">
        <ele>100.8</ele>
        <time>2024-09-08T08:43:54Z</time>
      </trkpt>
      <trkpt lat="46.66952" lon="0.5568">
        <ele>99.8</ele>
        <time>2024-09-08T08:43:56Z</time>
      </trkpt>
      <trkpt lat="46.66945" lon="0.5569">
        <ele>98.8</ele>
        <time>2024-09-08T08:43:59Z</time>
      </trkpt>
      <trkpt lat="46.66943" lon="0.55695">
        <ele>98.2</ele>
        <time>2024-09-08T08:44:01Z</time>
      </trkpt>
      <trkpt lat="46.66934" lon="0.55704">
        <ele>97.8</ele>
        <time>2024-09-08T08:44:08Z</time>
      </trkpt>
      <trkpt lat="46.66933" lon="0.5571">
        <ele>97.6</ele>
        <time>2024-09-08T08:44:13Z</time>
      </trkpt>
      <trkpt lat="46.66934" lon="0.55714">
        <ele>97.6</ele>
        <time>2024-09-08T08:44:17Z</time>
      </trkpt>
      <trkpt lat="46.66935" lon="0.55725">
        <ele>97.6</ele>
        <time>2024-09-08T08:44:28Z</time>
      </trkpt>
      <trkpt lat="46.66929" lon="0.5573">
        <ele>96.6</ele>
        <time>2024-09-08T08:44:34Z</time>
      </trkpt>
      <trkpt lat="46.66928" lon="0.55733">
        <ele>96.4</ele>
        <time>2024-09-08T08:44:37Z</time>
      </trkpt>
      <trkpt lat="46.66921" lon="0.5574">
        <ele>95.6</ele>
        <time>2024-09-08T08:44:47Z</time>
      </trkpt>
      <trkpt lat="46.6692" lon="0.55741">
        <ele>95.4</ele>
        <time>2024-09-08T08:44:48Z</time>
      </trkpt>
      <trkpt lat="46.66917" lon="0.55745">
        <ele>94.4</ele>
        <time>2024-09-08T08:44:52Z</time>
      </trkpt>
      <trkpt lat="46.66914" lon="0.55752">
        <ele>93.4</ele>
        <time>2024-09-08T08:44:57Z</time>
      </trkpt>
      <trkpt lat="46.66912" lon="0.55753">
        <ele>93</ele>
        <time>2024-09-08T08:44:58Z</time>
      </trkpt>
      <trkpt lat="46.6691" lon="0.55753">
        <ele>92.2</ele>
        <time>2024-09-08T08:45:01Z</time>
      </trkpt>
      <trkpt lat="46.66906" lon="0.55758">
        <ele>91.2</ele>
        <time>2024-09-08T08:45:05Z</time>
      </trkpt>
      <trkpt lat="46.66906" lon="0.5576">
        <ele>91</ele>
        <time>2024-09-08T08:45:06Z</time>
      </trkpt>
      <trkpt lat="46.66902" lon="0.55766">
        <ele>90.2</ele>
        <time>2024-09-08T08:45:10Z</time>
      </trkpt>
      <trkpt lat="46.66899" lon="0.55767">
        <ele>89</ele>
        <time>2024-09-08T08:45:13Z</time>
      </trkpt>
      <trkpt lat="46.66898" lon="0.55768">
        <ele>88.8</ele>
        <time>2024-09-08T08:45:14Z</time>
      </trkpt>
      <trkpt lat="46.66897" lon="0.55769">
        <ele>88</ele>
        <time>2024-09-08T08:45:17Z</time>
      </trkpt>
      <trkpt lat="46.6689" lon="0.55775">
        <ele>86.8</ele>
        <time>2024-09-08T08:45:25Z</time>
      </trkpt>
      <trkpt lat="46.66883" lon="0.55777">
        <ele>85.6</ele>
        <time>2024-09-08T08:45:31Z</time>
      </trkpt>
      <trkpt lat="46.66879" lon="0.55783">
        <ele>84.8</ele>
        <time>2024-09-08T08:45:34Z</time>
      </trkpt>
      <trkpt lat="46.66878" lon="0.55785">
        <ele>84.6</ele>
        <time>2024-09-08T08:45:35Z</time>
      </trkpt>
      <trkpt lat="46.66877" lon="0.55791">
        <ele>83.6</ele>
        <time>2024-09-08T08:45:39Z</time>
      </trkpt>
      <trkpt lat="46.66876" lon="0.55793">
        <ele>83.4</ele>
        <time>2024-09-08T08:45:40Z</time>
      </trkpt>
      <trkpt lat="46.66877" lon="0.55797">
        <ele>83.4</ele>
        <time>2024-09-08T08:45:43Z</time>
      </trkpt>
      <trkpt lat="46.66882" lon="0.55799">
        <ele>84.6</ele>
        <time>2024-09-08T08:45:52Z</time>
      </trkpt>
      <trkpt lat="46.66886" lon="0.55803">
        <ele>85.8</ele>
        <time>2024-09-08T08:45:59Z</time>
      </trkpt>
      <trkpt lat="46.66889" lon="0.55802">
        <ele>86.8</ele>
        <time>2024-09-08T08:46:02Z</time>
      </trkpt>
      <trkpt lat="46.66892" lon="0.55799">
        <ele>88</ele>
        <time>2024-09-08T08:46:06Z</time>
      </trkpt>
      <trkpt lat="46.66896" lon="0.55798">
        <ele>89.2</ele>
        <time>2024-09-08T08:46:10Z</time>
      </trkpt>
      <trkpt lat="46.66898" lon="0.55796">
        <ele>90</ele>
        <time>2024-09-08T08:46:12Z</time>
      </trkpt>
      <trkpt lat="46.66899" lon="0.55796">
        <ele>90.4</ele>
        <time>2024-09-08T08:46:13Z</time>
      </trkpt>
      <trkpt lat="46.66903" lon="0.5579">
        <ele>91.6</ele>
        <time>2024-09-08T08:46:17Z</time>
      </trkpt>
      <trkpt lat="46.66906" lon="0.55783">
        <ele>92.6</ele>
        <time>2024-09-08T08:46:23Z</time>
      </trkpt>
      <trkpt lat="46.66906" lon="0.55782">
        <ele>93</ele>
        <time>2024-09-08T08:46:24Z</time>
      </trkpt>
      <trkpt lat="46.66908" lon="0.5578">
        <ele>93.6</ele>
        <time>2024-09-08T08:46:26Z</time>
      </trkpt>
      <trkpt lat="46.66912" lon="0.55787">
        <ele>93.8</ele>
        <time>2024-09-08T08:46:32Z</time>
      </trkpt>
      <trkpt lat="46.66908" lon="0.55795">
        <ele>92.6</ele>
        <time>2024-09-08T08:46:39Z</time>
      </trkpt>
      <trkpt lat="46.66907" lon="0.55798">
        <ele>91.2</ele>
        <time>2024-09-08T08:46:41Z</time>
      </trkpt>
      <trkpt lat="46.66906" lon="0.55802">
        <ele>90.4</ele>
        <time>2024-09-08T08:46:43Z</time>
      </trkpt>
      <trkpt lat="46.66905" lon="0.55804">
        <ele>90</ele>
        <time>2024-09-08T08:46:44Z</time>
      </trkpt>
      <trkpt lat="46.66905" lon="0.55807">
        <ele>88.4</ele>
        <time>2024-09-08T08:46:46Z</time>
      </trkpt>
      <trkpt lat="46.66906" lon="0.55808">
        <ele>87.8</ele>
        <time>2024-09-08T08:46:48Z</time>
      </trkpt>
      <trkpt lat="46.66907" lon="0.55811">
        <ele>87.8</ele>
        <time>2024-09-08T08:46:51Z</time>
      </trkpt>
      <trkpt lat="46.66914" lon="0.55826">
        <ele>88.6</ele>
        <time>2024-09-08T08:47:02Z</time>
      </trkpt>
      <trkpt lat="46.66914" lon="0.55835">
        <ele>87.4</ele>
        <time>2024-09-08T08:47:05Z</time>
      </trkpt>
      <trkpt lat="46.66915" lon="0.5584">
        <ele>85.8</ele>
        <time>2024-09-08T08:47:07Z</time>
      </trkpt>
      <trkpt lat="46.66916" lon="0.55845">
        <ele>84.8</ele>
        <time>2024-09-08T08:47:10Z</time>
      </trkpt>
      <trkpt lat="46.66917" lon="0.55849">
        <ele>84.6</ele>
        <time>2024-09-08T08:47:12Z</time>
      </trkpt>
      <trkpt lat="46.66917" lon="0.55852">
        <ele>84.6</ele>
        <time>2024-09-08T08:47:14Z</time>
      </trkpt>
      <trkpt lat="46.6692" lon="0.55863">
        <ele>83.6</ele>
        <time>2024-09-08T08:47:18Z</time>
      </trkpt>
      <trkpt lat="46.6692" lon="0.55866">
        <ele>83.4</ele>
        <time>2024-09-08T08:47:19Z</time>
      </trkpt>
      <trkpt lat="46.66921" lon="0.55872">
        <ele>82.6</ele>
        <time>2024-09-08T08:47:22Z</time>
      </trkpt>
      <trkpt lat="46.66923" lon="0.5588">
        <ele>81.8</ele>
        <time>2024-09-08T08:47:26Z</time>
      </trkpt>
      <trkpt lat="46.66931" lon="0.55893">
        <ele>81.6</ele>
        <time>2024-09-08T08:47:32Z</time>
      </trkpt>
      <trkpt lat="46.66933" lon="0.55898">
        <ele>81.6</ele>
        <time>2024-09-08T08:47:34Z</time>
      </trkpt>
      <trkpt lat="46.66933" lon="0.559">
        <ele>81.6</ele>
        <time>2024-09-08T08:47:35Z</time>
      </trkpt>
      <trkpt lat="46.66933" lon="0.55905">
        <ele>80.8</ele>
        <time>2024-09-08T08:47:37Z</time>
      </trkpt>
      <trkpt lat="46.66934" lon="0.55908">
        <ele>80.6</ele>
        <time>2024-09-08T08:47:38Z</time>
      </trkpt>
      <trkpt lat="46.66935" lon="0.5591">
        <ele>80</ele>
        <time>2024-09-08T08:47:39Z</time>
      </trkpt>
      <trkpt lat="46.66936" lon="0.55912">
        <ele>79.8</ele>
        <time>2024-09-08T08:47:40Z</time>
      </trkpt>
      <trkpt lat="46.6694" lon="0.55915">
        <ele>79.6</ele>
        <time>2024-09-08T08:47:43Z</time>
      </trkpt>
      <trkpt lat="46.66943" lon="0.55915">
        <ele>80.2</ele>
        <time>2024-09-08T08:47:45Z</time>
      </trkpt>
      <trkpt lat="46.66954" lon="0.55917">
        <ele>81.6</ele>
        <time>2024-09-08T08:47:50Z</time>
      </trkpt>
      <trkpt lat="46.66955" lon="0.55918">
        <ele>81.8</ele>
        <time>2024-09-08T08:47:51Z</time>
      </trkpt>
      <trkpt lat="46.66956" lon="0.55918">
        <ele>82.6</ele>
        <time>2024-09-08T08:47:52Z</time>
      </trkpt>
      <trkpt lat="46.6696" lon="0.55917">
        <ele>83.8</ele>
        <time>2024-09-08T08:47:55Z</time>
      </trkpt>
      <trkpt lat="46.66963" lon="0.55917">
        <ele>84.8</ele>
        <time>2024-09-08T08:47:58Z</time>
      </trkpt>
      <trkpt lat="46.66967" lon="0.55917">
        <ele>86</ele>
        <time>2024-09-08T08:48:01Z</time>
      </trkpt>
      <trkpt lat="46.66971" lon="0.55921">
        <ele>86.4</ele>
        <time>2024-09-08T08:48:04Z</time>
      </trkpt>
      <trkpt lat="46.66976" lon="0.55927">
        <ele>86.4</ele>
        <time>2024-09-08T08:48:09Z</time>
      </trkpt>
      <trkpt lat="46.66978" lon="0.5593">
        <ele>86</ele>
        <time>2024-09-08T08:48:10Z</time>
      </trkpt>
      <trkpt lat="46.66984" lon="0.55947">
        <ele>85</ele>
        <time>2024-09-08T08:48:13Z</time>
      </trkpt>
      <trkpt lat="46.66986" lon="0.5595">
        <ele>84.6</ele>
        <time>2024-09-08T08:48:15Z</time>
      </trkpt>
      <trkpt lat="46.66988" lon="0.55956">
        <ele>83.4</ele>
        <time>2024-09-08T08:48:17Z</time>
      </trkpt>
      <trkpt lat="46.6699" lon="0.5596">
        <ele>82.6</ele>
        <time>2024-09-08T08:48:19Z</time>
      </trkpt>
      <trkpt lat="46.66991" lon="0.55962">
        <ele>82.4</ele>
        <time>2024-09-08T08:48:20Z</time>
      </trkpt>
      <trkpt lat="46.66999" lon="0.55967">
        <ele>82.2</ele>
        <time>2024-09-08T08:48:27Z</time>
      </trkpt>
      <trkpt lat="46.67005" lon="0.55972">
        <ele>83.4</ele>
        <time>2024-09-08T08:48:31Z</time>
      </trkpt>
      <trkpt lat="46.67007" lon="0.55974">
        <ele>83.8</ele>
        <time>2024-09-08T08:48:33Z</time>
      </trkpt>
      <trkpt lat="46.67015" lon="0.5598">
        <ele>84.2</ele>
        <time>2024-09-08T08:48:40Z</time>
      </trkpt>
      <trkpt lat="46.67024" lon="0.55991">
        <ele>83.6</ele>
        <time>2024-09-08T08:48:46Z</time>
      </trkpt>
      <trkpt lat="46.67026" lon="0.55991">
        <ele>83.6</ele>
        <time>2024-09-08T08:48:47Z</time>
      </trkpt>
      <trkpt lat="46.67036" lon="0.55991">
        <ele>83.2</ele>
        <time>2024-09-08T08:48:54Z</time>
      </trkpt>
      <trkpt lat="46.67046" lon="0.55997">
        <ele>83.6</ele>
        <time>2024-09-08T08:49:01Z</time>
      </trkpt>
      <trkpt lat="46.67045" lon="0.56001">
        <ele>83</ele>
        <time>2024-09-08T08:49:05Z</time>
      </trkpt>
      <trkpt lat="46.67045" lon="0.56005">
        <ele>82.4</ele>
        <time>2024-09-08T08:49:07Z</time>
      </trkpt>
      <trkpt lat="46.67045" lon="0.56007">
        <ele>82.2</ele>
        <time>2024-09-08T08:49:08Z</time>
      </trkpt>
      <trkpt lat="46.67046" lon="0.56013">
        <ele>82</ele>
        <time>2024-09-08T08:49:10Z</time>
      </trkpt>
      <trkpt lat="46.67048" lon="0.56025">
        <ele>81.2</ele>
        <time>2024-09-08T08:49:14Z</time>
      </trkpt>
      <trkpt lat="46.67055" lon="0.56052">
        <ele>81.6</ele>
        <time>2024-09-08T08:49:22Z</time>
      </trkpt>
      <trkpt lat="46.67063" lon="0.56078">
        <ele>80.2</ele>
        <time>2024-09-08T08:49:28Z</time>
      </trkpt>
      <trkpt lat="46.67069" lon="0.56102">
        <ele>81.2</ele>
        <time>2024-09-08T08:49:35Z</time>
      </trkpt>
      <trkpt lat="46.67074" lon="0.56129">
        <ele>82.4</ele>
        <time>2024-09-08T08:49:41Z</time>
      </trkpt>
      <trkpt lat="46.67076" lon="0.5614">
        <ele>82.8</ele>
        <time>2024-09-08T08:49:45Z</time>
      </trkpt>
      <trkpt lat="46.67075" lon="0.56146">
        <ele>82.8</ele>
        <time>2024-09-08T08:49:47Z</time>
      </trkpt>
      <trkpt lat="46.67074" lon="0.56164">
        <ele>82.4</ele>
        <time>2024-09-08T08:49:53Z</time>
      </trkpt>
      <trkpt lat="46.67071" lon="0.56177">
        <ele>81.4</ele>
        <time>2024-09-08T08:49:58Z</time>
      </trkpt>
      <trkpt lat="46.6707" lon="0.5618">
        <ele>80.8</ele>
        <time>2024-09-08T08:49:59Z</time>
      </trkpt>
      <trkpt lat="46.67069" lon="0.56183">
        <ele>80.2</ele>
        <time>2024-09-08T08:50:00Z</time>
      </trkpt>
      <trkpt lat="46.67067" lon="0.56188">
        <ele>79.6</ele>
        <time>2024-09-08T08:50:02Z</time>
      </trkpt>
      <trkpt lat="46.67066" lon="0.5619">
        <ele>78.8</ele>
        <time>2024-09-08T08:50:03Z</time>
      </trkpt>
      <trkpt lat="46.67063" lon="0.56194">
        <ele>77.8</ele>
        <time>2024-09-08T08:50:05Z</time>
      </trkpt>
      <trkpt lat="46.6706" lon="0.56198">
        <ele>76.4</ele>
        <time>2024-09-08T08:50:07Z</time>
      </trkpt>
      <trkpt lat="46.6706" lon="0.56201">
        <ele>76.2</ele>
        <time>2024-09-08T08:50:08Z</time>
      </trkpt>
      <trkpt lat="46.6706" lon="0.56213">
        <ele>75.6</ele>
        <time>2024-09-08T08:50:11Z</time>
      </trkpt>
      <trkpt lat="46.67059" lon="0.56224">
        <ele>75.8</ele>
        <time>2024-09-08T08:50:14Z</time>
      </trkpt>
      <trkpt lat="46.6706" lon="0.56231">
        <ele>75.8</ele>
        <time>2024-09-08T08:50:16Z</time>
      </trkpt>
      <trkpt lat="46.67059" lon="0.56235">
        <ele>75.8</ele>
        <time>2024-09-08T08:50:17Z</time>
      </trkpt>
      <trkpt lat="46.67057" lon="0.56247">
        <ele>75.4</ele>
        <time>2024-09-08T08:50:20Z</time>
      </trkpt>
      <trkpt lat="46.67055" lon="0.56251">
        <ele>75.2</ele>
        <time>2024-09-08T08:50:22Z</time>
      </trkpt>
      <trkpt lat="46.67055" lon="0.56255">
        <ele>74.8</ele>
        <time>2024-09-08T08:50:23Z</time>
      </trkpt>
      <trkpt lat="46.67053" lon="0.5626">
        <ele>74.2</ele>
        <time>2024-09-08T08:50:25Z</time>
      </trkpt>
      <trkpt lat="46.67053" lon="0.56263">
        <ele>74</ele>
        <time>2024-09-08T08:50:26Z</time>
      </trkpt>
      <trkpt lat="46.67053" lon="0.56267">
        <ele>73.6</ele>
        <time>2024-09-08T08:50:27Z</time>
      </trkpt>
      <trkpt lat="46.67051" lon="0.56293">
        <ele>73.4</ele>
        <time>2024-09-08T08:50:34Z</time>
      </trkpt>
      <trkpt lat="46.67053" lon="0.56303">
        <ele>73.6</ele>
        <time>2024-09-08T08:50:37Z</time>
      </trkpt>
      <trkpt lat="46.67056" lon="0.56322">
        <ele>74.2</ele>
        <time>2024-09-08T08:50:42Z</time>
      </trkpt>
      <trkpt lat="46.67058" lon="0.56326">
        <ele>74.2</ele>
        <time>2024-09-08T08:50:43Z</time>
      </trkpt>
      <trkpt lat="46.67063" lon="0.56339">
        <ele>74.6</ele>
        <time>2024-09-08T08:50:47Z</time>
      </trkpt>
      <trkpt lat="46.67064" lon="0.5634">
        <ele>74.6</ele>
        <time>2024-09-08T08:50:48Z</time>
      </trkpt>
      <trkpt lat="46.6707" lon="0.5635">
        <ele>75.2</ele>
        <time>2024-09-08T08:50:53Z</time>
      </trkpt>
      <trkpt lat="46.67073" lon="0.56355">
        <ele>75.4</ele>
        <time>2024-09-08T08:50:55Z</time>
      </trkpt>
      <trkpt lat="46.67079" lon="0.5636">
        <ele>75.8</ele>
        <time>2024-09-08T08:51:00Z</time>
      </trkpt>
      <trkpt lat="46.6709" lon="0.56372">
        <ele>75.6</ele>
        <time>2024-09-08T08:51:07Z</time>
      </trkpt>
      <trkpt lat="46.67092" lon="0.56374">
        <ele>75.2</ele>
        <time>2024-09-08T08:51:08Z</time>
      </trkpt>
      <trkpt lat="46.67102" lon="0.56385">
        <ele>74.6</ele>
        <time>2024-09-08T08:51:13Z</time>
      </trkpt>
      <trkpt lat="46.67106" lon="0.56388">
        <ele>74.6</ele>
        <time>2024-09-08T08:51:15Z</time>
      </trkpt>
      <trkpt lat="46.6711" lon="0.56389">
        <ele>74.6</ele>
        <time>2024-09-08T08:51:17Z</time>
      </trkpt>
      <trkpt lat="46.67111" lon="0.56389">
        <ele>74.6</ele>
        <time>2024-09-08T08:51:18Z</time>
      </trkpt>
      <trkpt lat="46.67125" lon="0.56389">
        <ele>75.8</ele>
        <time>2024-09-08T08:51:24Z</time>
      </trkpt>
      <trkpt lat="46.67132" lon="0.56392">
        <ele>75.4</ele>
        <time>2024-09-08T08:51:27Z</time>
      </trkpt>
      <trkpt lat="46.67135" lon="0.56397">
        <ele>75.2</ele>
        <time>2024-09-08T08:51:29Z</time>
      </trkpt>
      <trkpt lat="46.67137" lon="0.56403">
        <ele>74.4</ele>
        <time>2024-09-08T08:51:31Z</time>
      </trkpt>
      <trkpt lat="46.6714" lon="0.56409">
        <ele>73.8</ele>
        <time>2024-09-08T08:51:33Z</time>
      </trkpt>
      <trkpt lat="46.67142" lon="0.5641">
        <ele>73.6</ele>
        <time>2024-09-08T08:51:34Z</time>
      </trkpt>
      <trkpt lat="46.67145" lon="0.56413">
        <ele>73.2</ele>
        <time>2024-09-08T08:51:36Z</time>
      </trkpt>
      <trkpt lat="46.67148" lon="0.56416">
        <ele>73</ele>
        <time>2024-09-08T08:51:41Z</time>
      </trkpt>
      <trkpt lat="46.67152" lon="0.5642">
        <ele>73</ele>
        <time>2024-09-08T08:51:58Z</time>
      </trkpt>
      <trkpt lat="46.67159" lon="0.56431">
        <ele>72.6</ele>
        <time>2024-09-08T08:52:09Z</time>
      </trkpt>
      <trkpt lat="46.67161" lon="0.56439">
        <ele>72.2</ele>
        <time>2024-09-08T08:52:11Z</time>
      </trkpt>
      <trkpt lat="46.67163" lon="0.56447">
        <ele>71</ele>
        <time>2024-09-08T08:52:13Z</time>
      </trkpt>
      <trkpt lat="46.67165" lon="0.56452">
        <ele>70</ele>
        <time>2024-09-08T08:52:15Z</time>
      </trkpt>
      <trkpt lat="46.67166" lon="0.56455">
        <ele>69.8</ele>
        <time>2024-09-08T08:52:16Z</time>
      </trkpt>
      <trkpt lat="46.67165" lon="0.56458">
        <ele>69.6</ele>
        <time>2024-09-08T08:52:17Z</time>
      </trkpt>
      <trkpt lat="46.67165" lon="0.56461">
        <ele>69.2</ele>
        <time>2024-09-08T08:52:19Z</time>
      </trkpt>
      <trkpt lat="46.67164" lon="0.56462">
        <ele>69.2</ele>
        <time>2024-09-08T08:52:20Z</time>
      </trkpt>
      <trkpt lat="46.67163" lon="0.56458">
        <ele>70.2</ele>
        <time>2024-09-08T08:52:26Z</time>
      </trkpt>
      <trkpt lat="46.67162" lon="0.56454">
        <ele>71</ele>
        <time>2024-09-08T08:52:29Z</time>
      </trkpt>
      <trkpt lat="46.67161" lon="0.56451">
        <ele>72</ele>
        <time>2024-09-08T08:52:32Z</time>
      </trkpt>
      <trkpt lat="46.67156" lon="0.56446">
        <ele>72.8</ele>
        <time>2024-09-08T08:52:37Z</time>
      </trkpt>
      <trkpt lat="46.67156" lon="0.56445">
        <ele>72.8</ele>
        <time>2024-09-08T08:52:39Z</time>
      </trkpt>
      <trkpt lat="46.67155" lon="0.56445">
        <ele>72.8</ele>
        <time>2024-09-08T08:52:40Z</time>
      </trkpt>
      <trkpt lat="46.67152" lon="0.56443">
        <ele>72.8</ele>
        <time>2024-09-08T08:52:52Z</time>
      </trkpt>
      <trkpt lat="46.67153" lon="0.56448">
        <ele>72.8</ele>
        <time>2024-09-08T08:53:01Z</time>
      </trkpt>
      <trkpt lat="46.67151" lon="0.56458">
        <ele>72.8</ele>
        <time>2024-09-08T08:53:10Z</time>
      </trkpt>
      <trkpt lat="46.67145" lon="0.56458">
        <ele>72.8</ele>
        <time>2024-09-08T08:53:18Z</time>
      </trkpt>
      <trkpt lat="46.67137" lon="0.56459">
        <ele>63.8</ele>
        <time>2024-09-08T08:53:24Z</time>
      </trkpt>
      <trkpt lat="46.67134" lon="0.5646">
        <ele>63.8</ele>
        <time>2024-09-08T08:53:28Z</time>
      </trkpt>
      <trkpt lat="46.67129" lon="0.56461">
        <ele>64.8</ele>
        <time>2024-09-08T08:53:39Z</time>
      </trkpt>
      <trkpt lat="46.67122" lon="0.5646">
        <ele>66.2</ele>
        <time>2024-09-08T08:53:49Z</time>
      </trkpt>
      <trkpt lat="46.67121" lon="0.56461">
        <ele>66.8</ele>
        <time>2024-09-08T08:53:51Z</time>
      </trkpt>
      <trkpt lat="46.6712" lon="0.56464">
        <ele>67.2</ele>
        <time>2024-09-08T08:53:54Z</time>
      </trkpt>
      <trkpt lat="46.67118" lon="0.56464">
        <ele>67.2</ele>
        <time>2024-09-08T08:53:59Z</time>
      </trkpt>
      <trkpt lat="46.67108" lon="0.56458">
        <ele>67.6</ele>
        <time>2024-09-08T08:54:11Z</time>
      </trkpt>
      <trkpt lat="46.67099" lon="0.56449">
        <ele>68.4</ele>
        <time>2024-09-08T08:54:18Z</time>
      </trkpt>
      <trkpt lat="46.67093" lon="0.56445">
        <ele>68.6</ele>
        <time>2024-09-08T08:54:22Z</time>
      </trkpt>
      <trkpt lat="46.67078" lon="0.56427">
        <ele>68.4</ele>
        <time>2024-09-08T08:54:30Z</time>
      </trkpt>
      <trkpt lat="46.67063" lon="0.564">
        <ele>68.8</ele>
        <time>2024-09-08T08:54:37Z</time>
      </trkpt>
      <trkpt lat="46.67052" lon="0.56377">
        <ele>69.2</ele>
        <time>2024-09-08T08:54:43Z</time>
      </trkpt>
      <trkpt lat="46.67049" lon="0.56353">
        <ele>69.2</ele>
        <time>2024-09-08T08:54:49Z</time>
      </trkpt>
      <trkpt lat="46.6705" lon="0.56346">
        <ele>69.6</ele>
        <time>2024-09-08T08:54:51Z</time>
      </trkpt>
      <trkpt lat="46.67053" lon="0.56335">
        <ele>70.2</ele>
        <time>2024-09-08T08:54:55Z</time>
      </trkpt>
      <trkpt lat="46.67055" lon="0.56328">
        <ele>70.8</ele>
        <time>2024-09-08T08:54:57Z</time>
      </trkpt>
      <trkpt lat="46.67056" lon="0.5631">
        <ele>71</ele>
        <time>2024-09-08T08:55:02Z</time>
      </trkpt>
      <trkpt lat="46.67058" lon="0.56294">
        <ele>71.6</ele>
        <time>2024-09-08T08:55:08Z</time>
      </trkpt>
      <trkpt lat="46.67058" lon="0.56262">
        <ele>71.8</ele>
        <time>2024-09-08T08:55:14Z</time>
      </trkpt>
      <trkpt lat="46.6706" lon="0.56236">
        <ele>72.6</ele>
        <time>2024-09-08T08:55:20Z</time>
      </trkpt>
      <trkpt lat="46.67059" lon="0.56221">
        <ele>73</ele>
        <time>2024-09-08T08:55:24Z</time>
      </trkpt>
      <trkpt lat="46.6706" lon="0.56207">
        <ele>73.6</ele>
        <time>2024-09-08T08:55:28Z</time>
      </trkpt>
      <trkpt lat="46.67062" lon="0.56181">
        <ele>74</ele>
        <time>2024-09-08T08:55:33Z</time>
      </trkpt>
      <trkpt lat="46.67062" lon="0.56175">
        <ele>74.2</ele>
        <time>2024-09-08T08:55:34Z</time>
      </trkpt>
      <trkpt lat="46.67058" lon="0.56146">
        <ele>74.6</ele>
        <time>2024-09-08T08:55:40Z</time>
      </trkpt>
      <trkpt lat="46.67058" lon="0.56141">
        <ele>75.2</ele>
        <time>2024-09-08T08:55:41Z</time>
      </trkpt>
      <trkpt lat="46.67054" lon="0.56122">
        <ele>75.8</ele>
        <time>2024-09-08T08:55:46Z</time>
      </trkpt>
      <trkpt lat="46.67041" lon="0.56096">
        <ele>75.8</ele>
        <time>2024-09-08T08:55:52Z</time>
      </trkpt>
      <trkpt lat="46.67029" lon="0.56071">
        <ele>76.4</ele>
        <time>2024-09-08T08:55:58Z</time>
      </trkpt>
      <trkpt lat="46.67013" lon="0.56041">
        <ele>77.4</ele>
        <time>2024-09-08T08:56:06Z</time>
      </trkpt>
      <trkpt lat="46.67001" lon="0.56018">
        <ele>77.8</ele>
        <time>2024-09-08T08:56:12Z</time>
      </trkpt>
      <trkpt lat="46.66989" lon="0.55999">
        <ele>77.8</ele>
        <time>2024-09-08T08:56:17Z</time>
      </trkpt>
      <trkpt lat="46.66974" lon="0.55974">
        <ele>78.4</ele>
        <time>2024-09-08T08:56:24Z</time>
      </trkpt>
      <trkpt lat="46.66959" lon="0.55957">
        <ele>79</ele>
        <time>2024-09-08T08:56:30Z</time>
      </trkpt>
      <trkpt lat="46.66942" lon="0.55938">
        <ele>79.4</ele>
        <time>2024-09-08T08:56:35Z</time>
      </trkpt>
      <trkpt lat="46.66938" lon="0.55932">
        <ele>79.6</ele>
        <time>2024-09-08T08:56:37Z</time>
      </trkpt>
      <trkpt lat="46.66927" lon="0.55913">
        <ele>80.4</ele>
        <time>2024-09-08T08:56:42Z</time>
      </trkpt>
      <trkpt lat="46.66922" lon="0.55906">
        <ele>80.8</ele>
        <time>2024-09-08T08:56:44Z</time>
      </trkpt>
      <trkpt lat="46.66911" lon="0.55885">
        <ele>81.2</ele>
        <time>2024-09-08T08:56:50Z</time>
      </trkpt>
      <trkpt lat="46.66907" lon="0.55879">
        <ele>81.6</ele>
        <time>2024-09-08T08:56:52Z</time>
      </trkpt>
      <trkpt lat="46.669" lon="0.55864">
        <ele>82.2</ele>
        <time>2024-09-08T08:56:56Z</time>
      </trkpt>
      <trkpt lat="46.66889" lon="0.55842">
        <ele>82.2</ele>
        <time>2024-09-08T08:57:02Z</time>
      </trkpt>
      <trkpt lat="46.66879" lon="0.5583">
        <ele>82.2</ele>
        <time>2024-09-08T08:57:06Z</time>
      </trkpt>
      <trkpt lat="46.66865" lon="0.55819">
        <ele>82.4</ele>
        <time>2024-09-08T08:57:15Z</time>
      </trkpt>
      <trkpt lat="46.66863" lon="0.55817">
        <ele>82.6</ele>
        <time>2024-09-08T08:57:16Z</time>
      </trkpt>
      <trkpt lat="46.66855" lon="0.55801">
        <ele>83.2</ele>
        <time>2024-09-08T08:57:22Z</time>
      </trkpt>
      <trkpt lat="46.66842" lon="0.55785">
        <ele>83.6</ele>
        <time>2024-09-08T08:57:29Z</time>
      </trkpt>
      <trkpt lat="46.6684" lon="0.55783">
        <ele>83.8</ele>
        <time>2024-09-08T08:57:30Z</time>
      </trkpt>
      <trkpt lat="46.66827" lon="0.55766">
        <ele>84</ele>
        <time>2024-09-08T08:57:36Z</time>
      </trkpt>
      <trkpt lat="46.66815" lon="0.55757">
        <ele>84.8</ele>
        <time>2024-09-08T08:57:41Z</time>
      </trkpt>
      <trkpt lat="46.6681" lon="0.55753">
        <ele>85.2</ele>
        <time>2024-09-08T08:57:43Z</time>
      </trkpt>
      <trkpt lat="46.66794" lon="0.55735">
        <ele>85.6</ele>
        <time>2024-09-08T08:57:49Z</time>
      </trkpt>
      <trkpt lat="46.6677" lon="0.55712">
        <ele>85.4</ele>
        <time>2024-09-08T08:57:57Z</time>
      </trkpt>
      <trkpt lat="46.66762" lon="0.55705">
        <ele>86</ele>
        <time>2024-09-08T08:58:00Z</time>
      </trkpt>
      <trkpt lat="46.66752" lon="0.55703">
        <ele>86.2</ele>
        <time>2024-09-08T08:58:03Z</time>
      </trkpt>
      <trkpt lat="46.66739" lon="0.55704">
        <ele>87</ele>
        <time>2024-09-08T08:58:07Z</time>
      </trkpt>
      <trkpt lat="46.66729" lon="0.55704">
        <ele>88.2</ele>
        <time>2024-09-08T08:58:10Z</time>
      </trkpt>
      <trkpt lat="46.66721" lon="0.55705">
        <ele>89.4</ele>
        <time>2024-09-08T08:58:13Z</time>
      </trkpt>
      <trkpt lat="46.66718" lon="0.55706">
        <ele>90</ele>
        <time>2024-09-08T08:58:15Z</time>
      </trkpt>
      <trkpt lat="46.66713" lon="0.5571">
        <ele>90.6</ele>
        <time>2024-09-08T08:58:18Z</time>
      </trkpt>
      <trkpt lat="46.66708" lon="0.55713">
        <ele>91.8</ele>
        <time>2024-09-08T08:58:21Z</time>
      </trkpt>
      <trkpt lat="46.66698" lon="0.55721">
        <ele>93</ele>
        <time>2024-09-08T08:58:26Z</time>
      </trkpt>
      <trkpt lat="46.66695" lon="0.55724">
        <ele>93.8</ele>
        <time>2024-09-08T08:58:28Z</time>
      </trkpt>
      <trkpt lat="46.66691" lon="0.55727">
        <ele>94</ele>
        <time>2024-09-08T08:58:30Z</time>
      </trkpt>
      <trkpt lat="46.66684" lon="0.55731">
        <ele>95.2</ele>
        <time>2024-09-08T08:58:33Z</time>
      </trkpt>
      <trkpt lat="46.66679" lon="0.55735">
        <ele>95.6</ele>
        <time>2024-09-08T08:58:36Z</time>
      </trkpt>
      <trkpt lat="46.66675" lon="0.55738">
        <ele>96.2</ele>
        <time>2024-09-08T08:58:39Z</time>
      </trkpt>
      <trkpt lat="46.66669" lon="0.55743">
        <ele>97.4</ele>
        <time>2024-09-08T08:58:43Z</time>
      </trkpt>
      <trkpt lat="46.66668" lon="0.55745">
        <ele>97.6</ele>
        <time>2024-09-08T08:58:44Z</time>
      </trkpt>
      <trkpt lat="46.66662" lon="0.55749">
        <ele>98.6</ele>
        <time>2024-09-08T08:58:47Z</time>
      </trkpt>
      <trkpt lat="46.66655" lon="0.55755">
        <ele>99.4</ele>
        <time>2024-09-08T08:58:51Z</time>
      </trkpt>
      <trkpt lat="46.66653" lon="0.55757">
        <ele>99.6</ele>
        <time>2024-09-08T08:58:52Z</time>
      </trkpt>
      <trkpt lat="46.66644" lon="0.55766">
        <ele>100.8</ele>
        <time>2024-09-08T08:58:58Z</time>
      </trkpt>
      <trkpt lat="46.66642" lon="0.55767">
        <ele>101</ele>
        <time>2024-09-08T08:58:59Z</time>
      </trkpt>
      <trkpt lat="46.6663" lon="0.55757">
        <ele>101.8</ele>
        <time>2024-09-08T08:59:07Z</time>
      </trkpt>
      <trkpt lat="46.66618" lon="0.55743">
        <ele>102.4</ele>
        <time>2024-09-08T08:59:13Z</time>
      </trkpt>
      <trkpt lat="46.66604" lon="0.55729">
        <ele>102.6</ele>
        <time>2024-09-08T08:59:18Z</time>
      </trkpt>
      <trkpt lat="46.66588" lon="0.55712">
        <ele>103</ele>
        <time>2024-09-08T08:59:23Z</time>
      </trkpt>
      <trkpt lat="46.66585" lon="0.55709">
        <ele>103.2</ele>
        <time>2024-09-08T08:59:24Z</time>
      </trkpt>
      <trkpt lat="46.66567" lon="0.5569">
        <ele>104</ele>
        <time>2024-09-08T08:59:30Z</time>
      </trkpt>
      <trkpt lat="46.66563" lon="0.55687">
        <ele>104</ele>
        <time>2024-09-08T08:59:31Z</time>
      </trkpt>
      <trkpt lat="46.66543" lon="0.55668">
        <ele>105</ele>
        <time>2024-09-08T08:59:38Z</time>
      </trkpt>
      <trkpt lat="46.66525" lon="0.55655">
        <ele>105.2</ele>
        <time>2024-09-08T08:59:43Z</time>
      </trkpt>
      <trkpt lat="46.66521" lon="0.55653">
        <ele>105.2</ele>
        <time>2024-09-08T08:59:44Z</time>
      </trkpt>
      <trkpt lat="46.66502" lon="0.55637">
        <ele>105.4</ele>
        <time>2024-09-08T08:59:50Z</time>
      </trkpt>
      <trkpt lat="46.66484" lon="0.55626">
        <ele>106.4</ele>
        <time>2024-09-08T08:59:56Z</time>
      </trkpt>
      <trkpt lat="46.66458" lon="0.55612">
        <ele>107</ele>
        <time>2024-09-08T09:00:05Z</time>
      </trkpt>
      <trkpt lat="46.66447" lon="0.55605">
        <ele>107.4</ele>
        <time>2024-09-08T09:00:09Z</time>
      </trkpt>
      <trkpt lat="46.66442" lon="0.55601">
        <ele>107.4</ele>
        <time>2024-09-08T09:00:11Z</time>
      </trkpt>
      <trkpt lat="46.66421" lon="0.55591">
        <ele>107.8</ele>
        <time>2024-09-08T09:00:18Z</time>
      </trkpt>
      <trkpt lat="46.66409" lon="0.55583">
        <ele>108.4</ele>
        <time>2024-09-08T09:00:22Z</time>
      </trkpt>
      <trkpt lat="46.66406" lon="0.5558">
        <ele>108.4</ele>
        <time>2024-09-08T09:00:23Z</time>
      </trkpt>
      <trkpt lat="46.66391" lon="0.55563">
        <ele>108.8</ele>
        <time>2024-09-08T09:00:29Z</time>
      </trkpt>
      <trkpt lat="46.66378" lon="0.55543">
        <ele>109</ele>
        <time>2024-09-08T09:00:35Z</time>
      </trkpt>
      <trkpt lat="46.66366" lon="0.55521">
        <ele>109.4</ele>
        <time>2024-09-08T09:00:42Z</time>
      </trkpt>
      <trkpt lat="46.66365" lon="0.55519">
        <ele>109.6</ele>
        <time>2024-09-08T09:00:43Z</time>
      </trkpt>
      <trkpt lat="46.66356" lon="0.55507">
        <ele>110</ele>
        <time>2024-09-08T09:00:49Z</time>
      </trkpt>
      <trkpt lat="46.66353" lon="0.55501">
        <ele>109.6</ele>
        <time>2024-09-08T09:00:53Z</time>
      </trkpt>
      <trkpt lat="46.6635" lon="0.55497">
        <ele>109.4</ele>
        <time>2024-09-08T09:00:57Z</time>
      </trkpt>
      <trkpt lat="46.66343" lon="0.55491">
        <ele>109.2</ele>
        <time>2024-09-08T09:01:11Z</time>
      </trkpt>
      <trkpt lat="46.66343" lon="0.55483">
        <ele>109.4</ele>
        <time>2024-09-08T09:01:21Z</time>
      </trkpt>
      <trkpt lat="46.66342" lon="0.55461">
        <ele>109</ele>
        <time>2024-09-08T09:01:28Z</time>
      </trkpt>
      <trkpt lat="46.66345" lon="0.55442">
        <ele>109.6</ele>
        <time>2024-09-08T09:01:34Z</time>
      </trkpt>
      <trkpt lat="46.6635" lon="0.55418">
        <ele>110.2</ele>
        <time>2024-09-08T09:01:41Z</time>
      </trkpt>
      <trkpt lat="46.66349" lon="0.55405">
        <ele>110.6</ele>
        <time>2024-09-08T09:01:44Z</time>
      </trkpt>
      <trkpt lat="46.66347" lon="0.55396">
        <ele>111.4</ele>
        <time>2024-09-08T09:01:46Z</time>
      </trkpt>
      <trkpt lat="46.66344" lon="0.55388">
        <ele>111.8</ele>
        <time>2024-09-08T09:01:48Z</time>
      </trkpt>
      <trkpt lat="46.66339" lon="0.55378">
        <ele>112.6</ele>
        <time>2024-09-08T09:01:51Z</time>
      </trkpt>
      <trkpt lat="46.66339" lon="0.55375">
        <ele>113</ele>
        <time>2024-09-08T09:01:52Z</time>
      </trkpt>
      <trkpt lat="46.66333" lon="0.55361">
        <ele>114</ele>
        <time>2024-09-08T09:01:56Z</time>
      </trkpt>
      <trkpt lat="46.66327" lon="0.55346">
        <ele>115.2</ele>
        <time>2024-09-08T09:02:00Z</time>
      </trkpt>
      <trkpt lat="46.66319" lon="0.5533">
        <ele>116.2</ele>
        <time>2024-09-08T09:02:04Z</time>
      </trkpt>
      <trkpt lat="46.66315" lon="0.55322">
        <ele>116.6</ele>
        <time>2024-09-08T09:02:06Z</time>
      </trkpt>
      <trkpt lat="46.66308" lon="0.55306">
        <ele>117.8</ele>
        <time>2024-09-08T09:02:10Z</time>
      </trkpt>
      <trkpt lat="46.66303" lon="0.55296">
        <ele>118.8</ele>
        <time>2024-09-08T09:02:13Z</time>
      </trkpt>
      <trkpt lat="46.663" lon="0.55288">
        <ele>119.2</ele>
        <time>2024-09-08T09:02:15Z</time>
      </trkpt>
      <trkpt lat="46.66296" lon="0.55281">
        <ele>120</ele>
        <time>2024-09-08T09:02:17Z</time>
      </trkpt>
      <trkpt lat="46.66294" lon="0.55276">
        <ele>120.4</ele>
        <time>2024-09-08T09:02:19Z</time>
      </trkpt>
      <trkpt lat="46.66291" lon="0.55269">
        <ele>121</ele>
        <time>2024-09-08T09:02:23Z</time>
      </trkpt>
      <trkpt lat="46.6629" lon="0.55268">
        <ele>121.2</ele>
        <time>2024-09-08T09:02:24Z</time>
      </trkpt>
      <trkpt lat="46.66288" lon="0.55267">
        <ele>121.4</ele>
        <time>2024-09-08T09:02:26Z</time>
      </trkpt>
      <trkpt lat="46.6629" lon="0.55261">
        <ele>121.4</ele>
        <time>2024-09-08T09:02:31Z</time>
      </trkpt>
      <trkpt lat="46.6629" lon="0.55259">
        <ele>121.4</ele>
        <time>2024-09-08T09:02:32Z</time>
      </trkpt>
      <trkpt lat="46.66294" lon="0.55251">
        <ele>120.6</ele>
        <time>2024-09-08T09:02:37Z</time>
      </trkpt>
      <trkpt lat="46.66294" lon="0.5525">
        <ele>120.4</ele>
        <time>2024-09-08T09:02:38Z</time>
      </trkpt>
      <trkpt lat="46.66298" lon="0.55244">
        <ele>120.2</ele>
        <time>2024-09-08T09:02:41Z</time>
      </trkpt>
      <trkpt lat="46.66304" lon="0.55236">
        <ele>120.2</ele>
        <time>2024-09-08T09:02:44Z</time>
      </trkpt>
      <trkpt lat="46.66321" lon="0.55209">
        <ele>118.8</ele>
        <time>2024-09-08T09:02:51Z</time>
      </trkpt>
      <trkpt lat="46.6633" lon="0.55198">
        <ele>117.8</ele>
        <time>2024-09-08T09:02:54Z</time>
      </trkpt>
      <trkpt lat="46.6634" lon="0.55188">
        <ele>117.6</ele>
        <time>2024-09-08T09:02:57Z</time>
      </trkpt>
      <trkpt lat="46.66363" lon="0.55162">
        <ele>117.6</ele>
        <time>2024-09-08T09:03:04Z</time>
      </trkpt>
      <trkpt lat="46.66381" lon="0.55144">
        <ele>117.8</ele>
        <time>2024-09-08T09:03:10Z</time>
      </trkpt>
      <trkpt lat="46.66398" lon="0.55123">
        <ele>118.6</ele>
        <time>2024-09-08T09:03:18Z</time>
      </trkpt>
      <trkpt lat="46.66401" lon="0.5512">
        <ele>118.8</ele>
        <time>2024-09-08T09:03:19Z</time>
      </trkpt>
      <trkpt lat="46.66417" lon="0.551">
        <ele>119.2</ele>
        <time>2024-09-08T09:03:25Z</time>
      </trkpt>
      <trkpt lat="46.66435" lon="0.55084">
        <ele>119</ele>
        <time>2024-09-08T09:03:30Z</time>
      </trkpt>
      <trkpt lat="46.6645" lon="0.55065">
        <ele>118.6</ele>
        <time>2024-09-08T09:03:36Z</time>
      </trkpt>
      <trkpt lat="46.66464" lon="0.5505">
        <ele>117.6</ele>
        <time>2024-09-08T09:03:40Z</time>
      </trkpt>
      <trkpt lat="46.66467" lon="0.55048">
        <ele>117</ele>
        <time>2024-09-08T09:03:41Z</time>
      </trkpt>
      <trkpt lat="46.66473" lon="0.55042">
        <ele>116.2</ele>
        <time>2024-09-08T09:03:43Z</time>
      </trkpt>
      <trkpt lat="46.66488" lon="0.55025">
        <ele>115.2</ele>
        <time>2024-09-08T09:03:48Z</time>
      </trkpt>
      <trkpt lat="46.66493" lon="0.55018">
        <ele>115</ele>
        <time>2024-09-08T09:03:50Z</time>
      </trkpt>
      <trkpt lat="46.66504" lon="0.55002">
        <ele>114</ele>
        <time>2024-09-08T09:03:54Z</time>
      </trkpt>
      <trkpt lat="46.66506" lon="0.55">
        <ele>113.8</ele>
        <time>2024-09-08T09:03:55Z</time>
      </trkpt>
      <trkpt lat="46.66517" lon="0.54993">
        <ele>113</ele>
        <time>2024-09-08T09:03:57Z</time>
      </trkpt>
      <trkpt lat="46.66529" lon="0.54979">
        <ele>112.6</ele>
        <time>2024-09-08T09:04:00Z</time>
      </trkpt>
      <trkpt lat="46.6653" lon="0.54973">
        <ele>112.4</ele>
        <time>2024-09-08T09:04:01Z</time>
      </trkpt>
      <trkpt lat="46.66533" lon="0.54961">
        <ele>112.4</ele>
        <time>2024-09-08T09:04:03Z</time>
      </trkpt>
      <trkpt lat="46.66536" lon="0.54934">
        <ele>112.8</ele>
        <time>2024-09-08T09:04:09Z</time>
      </trkpt>
      <trkpt lat="46.6653" lon="0.54907">
        <ele>114.2</ele>
        <time>2024-09-08T09:04:15Z</time>
      </trkpt>
      <trkpt lat="46.66527" lon="0.54894">
        <ele>115.2</ele>
        <time>2024-09-08T09:04:19Z</time>
      </trkpt>
      <trkpt lat="46.66525" lon="0.54888">
        <ele>115.8</ele>
        <time>2024-09-08T09:04:21Z</time>
      </trkpt>
      <trkpt lat="46.66523" lon="0.54876">
        <ele>116.4</ele>
        <time>2024-09-08T09:04:24Z</time>
      </trkpt>
      <trkpt lat="46.66519" lon="0.54863">
        <ele>117</ele>
        <time>2024-09-08T09:04:27Z</time>
      </trkpt>
      <trkpt lat="46.66515" lon="0.54851">
        <ele>117.4</ele>
        <time>2024-09-08T09:04:30Z</time>
      </trkpt>
      <trkpt lat="46.6651" lon="0.54838">
        <ele>118</ele>
        <time>2024-09-08T09:04:33Z</time>
      </trkpt>
      <trkpt lat="46.66506" lon="0.5483">
        <ele>118.8</ele>
        <time>2024-09-08T09:04:35Z</time>
      </trkpt>
      <trkpt lat="46.665" lon="0.54824">
        <ele>119.2</ele>
        <time>2024-09-08T09:04:38Z</time>
      </trkpt>
      <trkpt lat="46.66493" lon="0.54819">
        <ele>119.8</ele>
        <time>2024-09-08T09:04:42Z</time>
      </trkpt>
      <trkpt lat="46.66493" lon="0.54815">
        <ele>120.2</ele>
        <time>2024-09-08T09:04:44Z</time>
      </trkpt>
      <trkpt lat="46.66488" lon="0.5479">
        <ele>120.4</ele>
        <time>2024-09-08T09:04:51Z</time>
      </trkpt>
      <trkpt lat="46.66474" lon="0.5476">
        <ele>120.6</ele>
        <time>2024-09-08T09:04:58Z</time>
      </trkpt>
      <trkpt lat="46.66471" lon="0.54749">
        <ele>121</ele>
        <time>2024-09-08T09:05:01Z</time>
      </trkpt>
      <trkpt lat="46.66467" lon="0.54743">
        <ele>121.6</ele>
        <time>2024-09-08T09:05:03Z</time>
      </trkpt>
      <trkpt lat="46.66459" lon="0.5473">
        <ele>122.2</ele>
        <time>2024-09-08T09:05:07Z</time>
      </trkpt>
      <trkpt lat="46.66456" lon="0.54723">
        <ele>122.4</ele>
        <time>2024-09-08T09:05:09Z</time>
      </trkpt>
      <trkpt lat="46.66452" lon="0.54713">
        <ele>123.2</ele>
        <time>2024-09-08T09:05:12Z</time>
      </trkpt>
      <trkpt lat="46.66445" lon="0.54702">
        <ele>123.6</ele>
        <time>2024-09-08T09:05:15Z</time>
      </trkpt>
      <trkpt lat="46.66433" lon="0.54682">
        <ele>124.4</ele>
        <time>2024-09-08T09:05:20Z</time>
      </trkpt>
      <trkpt lat="46.6643" lon="0.54675">
        <ele>124.8</ele>
        <time>2024-09-08T09:05:22Z</time>
      </trkpt>
      <trkpt lat="46.66418" lon="0.54649">
        <ele>125.8</ele>
        <time>2024-09-08T09:05:28Z</time>
      </trkpt>
      <trkpt lat="46.66414" lon="0.5464">
        <ele>126.2</ele>
        <time>2024-09-08T09:05:30Z</time>
      </trkpt>
      <trkpt lat="46.66408" lon="0.5463">
        <ele>127</ele>
        <time>2024-09-08T09:05:33Z</time>
      </trkpt>
      <trkpt lat="46.66403" lon="0.54618">
        <ele>127.6</ele>
        <time>2024-09-08T09:05:36Z</time>
      </trkpt>
      <trkpt lat="46.66399" lon="0.5461">
        <ele>128</ele>
        <time>2024-09-08T09:05:38Z</time>
      </trkpt>
      <trkpt lat="46.66389" lon="0.54591">
        <ele>128.6</ele>
        <time>2024-09-08T09:05:43Z</time>
      </trkpt>
      <trkpt lat="46.66382" lon="0.54573">
        <ele>129.2</ele>
        <time>2024-09-08T09:05:47Z</time>
      </trkpt>
      <trkpt lat="46.66376" lon="0.5456">
        <ele>129.6</ele>
        <time>2024-09-08T09:05:50Z</time>
      </trkpt>
      <trkpt lat="46.66365" lon="0.54533">
        <ele>130.2</ele>
        <time>2024-09-08T09:05:56Z</time>
      </trkpt>
      <trkpt lat="46.66362" lon="0.54529">
        <ele>130.4</ele>
        <time>2024-09-08T09:05:57Z</time>
      </trkpt>
      <trkpt lat="46.66349" lon="0.54507">
        <ele>131.4</ele>
        <time>2024-09-08T09:06:02Z</time>
      </trkpt>
      <trkpt lat="46.66344" lon="0.54499">
        <ele>131.6</ele>
        <time>2024-09-08T09:06:04Z</time>
      </trkpt>
      <trkpt lat="46.66336" lon="0.54481">
        <ele>132</ele>
        <time>2024-09-08T09:06:08Z</time>
      </trkpt>
      <trkpt lat="46.66322" lon="0.54453">
        <ele>132.4</ele>
        <time>2024-09-08T09:06:14Z</time>
      </trkpt>
      <trkpt lat="46.6632" lon="0.54448">
        <ele>132.8</ele>
        <time>2024-09-08T09:06:15Z</time>
      </trkpt>
      <trkpt lat="46.66303" lon="0.54413">
        <ele>132.6</ele>
        <time>2024-09-08T09:06:22Z</time>
      </trkpt>
      <trkpt lat="46.66283" lon="0.54376">
        <ele>132.8</ele>
        <time>2024-09-08T09:06:29Z</time>
      </trkpt>
      <trkpt lat="46.66269" lon="0.54347">
        <ele>133.4</ele>
        <time>2024-09-08T09:06:34Z</time>
      </trkpt>
      <trkpt lat="46.66257" lon="0.54321">
        <ele>133.2</ele>
        <time>2024-09-08T09:06:39Z</time>
      </trkpt>
      <trkpt lat="46.66242" lon="0.54293">
        <ele>133.2</ele>
        <time>2024-09-08T09:06:45Z</time>
      </trkpt>
      <trkpt lat="46.66227" lon="0.54265">
        <ele>133.4</ele>
        <time>2024-09-08T09:06:51Z</time>
      </trkpt>
      <trkpt lat="46.66219" lon="0.54247">
        <ele>133.8</ele>
        <time>2024-09-08T09:06:55Z</time>
      </trkpt>
      <trkpt lat="46.66217" lon="0.54243">
        <ele>133.8</ele>
        <time>2024-09-08T09:06:56Z</time>
      </trkpt>
      <trkpt lat="46.66213" lon="0.54233">
        <ele>133.2</ele>
        <time>2024-09-08T09:07:00Z</time>
      </trkpt>
      <trkpt lat="46.66218" lon="0.5422">
        <ele>132.8</ele>
        <time>2024-09-08T09:07:07Z</time>
      </trkpt>
      <trkpt lat="46.66218" lon="0.54214">
        <ele>132.6</ele>
        <time>2024-09-08T09:07:09Z</time>
      </trkpt>
      <trkpt lat="46.66219" lon="0.54205">
        <ele>132.6</ele>
        <time>2024-09-08T09:07:12Z</time>
      </trkpt>
      <trkpt lat="46.66221" lon="0.54199">
        <ele>132.8</ele>
        <time>2024-09-08T09:07:14Z</time>
      </trkpt>
      <trkpt lat="46.66224" lon="0.54194">
        <ele>132.6</ele>
        <time>2024-09-08T09:07:16Z</time>
      </trkpt>
      <trkpt lat="46.66232" lon="0.54178">
        <ele>132.6</ele>
        <time>2024-09-08T09:07:23Z</time>
      </trkpt>
      <trkpt lat="46.66244" lon="0.54158">
        <ele>132</ele>
        <time>2024-09-08T09:07:30Z</time>
      </trkpt>
      <trkpt lat="46.66261" lon="0.54136">
        <ele>132.4</ele>
        <time>2024-09-08T09:07:36Z</time>
      </trkpt>
      <trkpt lat="46.66276" lon="0.54117">
        <ele>133</ele>
        <time>2024-09-08T09:07:41Z</time>
      </trkpt>
      <trkpt lat="46.66292" lon="0.54102">
        <ele>132.4</ele>
        <time>2024-09-08T09:07:46Z</time>
      </trkpt>
      <trkpt lat="46.66313" lon="0.5408">
        <ele>132</ele>
        <time>2024-09-08T09:07:53Z</time>
      </trkpt>
      <trkpt lat="46.66331" lon="0.54059">
        <ele>132.2</ele>
        <time>2024-09-08T09:07:59Z</time>
      </trkpt>
      <trkpt lat="46.6635" lon="0.54041">
        <ele>132.2</ele>
        <time>2024-09-08T09:08:05Z</time>
      </trkpt>
      <trkpt lat="46.66369" lon="0.54021">
        <ele>132</ele>
        <time>2024-09-08T09:08:11Z</time>
      </trkpt>
      <trkpt lat="46.66396" lon="0.53994">
        <ele>132</ele>
        <time>2024-09-08T09:08:18Z</time>
      </trkpt>
      <trkpt lat="46.66418" lon="0.53971">
        <ele>131.8</ele>
        <time>2024-09-08T09:08:24Z</time>
      </trkpt>
      <trkpt lat="46.66437" lon="0.5395">
        <ele>131.8</ele>
        <time>2024-09-08T09:08:29Z</time>
      </trkpt>
      <trkpt lat="46.66447" lon="0.53941">
        <ele>131.6</ele>
        <time>2024-09-08T09:08:32Z</time>
      </trkpt>
      <trkpt lat="46.66451" lon="0.53932">
        <ele>131.2</ele>
        <time>2024-09-08T09:08:35Z</time>
      </trkpt>
      <trkpt lat="46.66454" lon="0.53928">
        <ele>131.2</ele>
        <time>2024-09-08T09:08:37Z</time>
      </trkpt>
      <trkpt lat="46.66457" lon="0.53925">
        <ele>131.2</ele>
        <time>2024-09-08T09:08:41Z</time>
      </trkpt>
      <trkpt lat="46.66466" lon="0.53918">
        <ele>131.4</ele>
        <time>2024-09-08T09:08:53Z</time>
      </trkpt>
      <trkpt lat="46.6647" lon="0.53904">
        <ele>131.4</ele>
        <time>2024-09-08T09:09:01Z</time>
      </trkpt>
      <trkpt lat="46.66474" lon="0.53914">
        <ele>131.2</ele>
        <time>2024-09-08T09:09:06Z</time>
      </trkpt>
      <trkpt lat="46.66487" lon="0.5393">
        <ele>131.8</ele>
        <time>2024-09-08T09:09:12Z</time>
      </trkpt>
      <trkpt lat="46.66499" lon="0.53952">
        <ele>132.2</ele>
        <time>2024-09-08T09:09:18Z</time>
      </trkpt>
      <trkpt lat="46.66514" lon="0.53977">
        <ele>132.6</ele>
        <time>2024-09-08T09:09:23Z</time>
      </trkpt>
      <trkpt lat="46.66517" lon="0.53982">
        <ele>132.6</ele>
        <time>2024-09-08T09:09:24Z</time>
      </trkpt>
      <trkpt lat="46.6653" lon="0.54007">
        <ele>132.6</ele>
        <time>2024-09-08T09:09:29Z</time>
      </trkpt>
      <trkpt lat="46.66544" lon="0.54032">
        <ele>133</ele>
        <time>2024-09-08T09:09:34Z</time>
      </trkpt>
      <trkpt lat="46.66559" lon="0.54064">
        <ele>133.4</ele>
        <time>2024-09-08T09:09:40Z</time>
      </trkpt>
      <trkpt lat="46.66571" lon="0.54087">
        <ele>133.6</ele>
        <time>2024-09-08T09:09:44Z</time>
      </trkpt>
      <trkpt lat="46.66577" lon="0.54097">
        <ele>133.6</ele>
        <time>2024-09-08T09:09:46Z</time>
      </trkpt>
      <trkpt lat="46.66596" lon="0.5413">
        <ele>133.2</ele>
        <time>2024-09-08T09:09:53Z</time>
      </trkpt>
      <trkpt lat="46.66615" lon="0.54166">
        <ele>133.4</ele>
        <time>2024-09-08T09:10:00Z</time>
      </trkpt>
      <trkpt lat="46.66636" lon="0.54217">
        <ele>133.2</ele>
        <time>2024-09-08T09:10:08Z</time>
      </trkpt>
      <trkpt lat="46.66655" lon="0.54256">
        <ele>132.8</ele>
        <time>2024-09-08T09:10:15Z</time>
      </trkpt>
      <trkpt lat="46.66664" lon="0.54273">
        <ele>132.6</ele>
        <time>2024-09-08T09:10:20Z</time>
      </trkpt>
      <trkpt lat="46.66665" lon="0.54271">
        <ele>132.6</ele>
        <time>2024-09-08T09:10:21Z</time>
      </trkpt>
      <trkpt lat="46.66662" lon="0.54261">
        <ele>132.6</ele>
        <time>2024-09-08T09:10:25Z</time>
      </trkpt>
      <trkpt lat="46.66654" lon="0.54244">
        <ele>132.8</ele>
        <time>2024-09-08T09:10:29Z</time>
      </trkpt>
      <trkpt lat="46.66638" lon="0.54211">
        <ele>133.6</ele>
        <time>2024-09-08T09:10:35Z</time>
      </trkpt>
      <trkpt lat="46.66633" lon="0.54199">
        <ele>134</ele>
        <time>2024-09-08T09:10:37Z</time>
      </trkpt>
      <trkpt lat="46.6663" lon="0.54194">
        <ele>134</ele>
        <time>2024-09-08T09:10:38Z</time>
      </trkpt>
      <trkpt lat="46.66614" lon="0.54161">
        <ele>134.2</ele>
        <time>2024-09-08T09:10:44Z</time>
      </trkpt>
      <trkpt lat="46.66599" lon="0.54131">
        <ele>134</ele>
        <time>2024-09-08T09:10:50Z</time>
      </trkpt>
      <trkpt lat="46.66591" lon="0.54114">
        <ele>133.6</ele>
        <time>2024-09-08T09:10:57Z</time>
      </trkpt>
      <trkpt lat="46.6659" lon="0.54112">
        <ele>133.6</ele>
        <time>2024-09-08T09:10:58Z</time>
      </trkpt>
      <trkpt lat="46.66589" lon="0.5411">
        <ele>132.8</ele>
        <time>2024-09-08T09:11:03Z</time>
      </trkpt>
      <trkpt lat="46.66584" lon="0.54102">
        <ele>132.8</ele>
        <time>2024-09-08T09:11:10Z</time>
      </trkpt>
      <trkpt lat="46.66589" lon="0.54102">
        <ele>132.8</ele>
        <time>2024-09-08T09:11:17Z</time>
      </trkpt>
      <trkpt lat="46.66592" lon="0.54094">
        <ele>132.8</ele>
        <time>2024-09-08T09:11:25Z</time>
      </trkpt>
      <trkpt lat="46.66604" lon="0.54088">
        <ele>132.8</ele>
        <time>2024-09-08T09:11:35Z</time>
      </trkpt>
      <trkpt lat="46.66619" lon="0.54083">
        <ele>134</ele>
        <time>2024-09-08T09:11:47Z</time>
      </trkpt>
      <trkpt lat="46.66632" lon="0.54072">
        <ele>134</ele>
        <time>2024-09-08T09:11:59Z</time>
      </trkpt>
      <trkpt lat="46.66644" lon="0.54057">
        <ele>133.6</ele>
        <time>2024-09-08T09:12:08Z</time>
      </trkpt>
      <trkpt lat="46.66661" lon="0.54033">
        <ele>134.2</ele>
        <time>2024-09-08T09:12:20Z</time>
      </trkpt>
      <trkpt lat="46.66665" lon="0.54025">
        <ele>134.4</ele>
        <time>2024-09-08T09:12:23Z</time>
      </trkpt>
      <trkpt lat="46.66663" lon="0.54023">
        <ele>134.2</ele>
        <time>2024-09-08T09:12:25Z</time>
      </trkpt>
      <trkpt lat="46.66662" lon="0.54019">
        <ele>134.2</ele>
        <time>2024-09-08T09:12:27Z</time>
      </trkpt>
      <trkpt lat="46.66659" lon="0.54015">
        <ele>134</ele>
        <time>2024-09-08T09:12:30Z</time>
      </trkpt>
      <trkpt lat="46.66657" lon="0.54012">
        <ele>134.2</ele>
        <time>2024-09-08T09:12:32Z</time>
      </trkpt>
      <trkpt lat="46.66656" lon="0.54007">
        <ele>134.2</ele>
        <time>2024-09-08T09:12:36Z</time>
      </trkpt>
      <trkpt lat="46.66656" lon="0.54006">
        <ele>134.2</ele>
        <time>2024-09-08T09:12:37Z</time>
      </trkpt>
      <trkpt lat="46.66662" lon="0.54">
        <ele>134.4</ele>
        <time>2024-09-08T09:12:42Z</time>
      </trkpt>
      <trkpt lat="46.66664" lon="0.53995">
        <ele>134.4</ele>
        <time>2024-09-08T09:12:45Z</time>
      </trkpt>
      <trkpt lat="46.66665" lon="0.5399">
        <ele>134.2</ele>
        <time>2024-09-08T09:12:48Z</time>
      </trkpt>
      <trkpt lat="46.66665" lon="0.53986">
        <ele>134.4</ele>
        <time>2024-09-08T09:12:55Z</time>
      </trkpt>
      <trkpt lat="46.66666" lon="0.53982">
        <ele>134.2</ele>
        <time>2024-09-08T09:13:08Z</time>
      </trkpt>
      <trkpt lat="46.66665" lon="0.53979">
        <ele>134.2</ele>
        <time>2024-09-08T09:13:24Z</time>
      </trkpt>
      <trkpt lat="46.66664" lon="0.53977">
        <ele>134.2</ele>
        <time>2024-09-08T09:13:40Z</time>
      </trkpt>
      <trkpt lat="46.6666" lon="0.53969">
        <ele>134.2</ele>
        <time>2024-09-08T09:13:49Z</time>
      </trkpt>
      <trkpt lat="46.66661" lon="0.53953">
        <ele>134.4</ele>
        <time>2024-09-08T09:13:57Z</time>
      </trkpt>
      <trkpt lat="46.66663" lon="0.53941">
        <ele>134.2</ele>
        <time>2024-09-08T09:14:01Z</time>
      </trkpt>
      <trkpt lat="46.66663" lon="0.53935">
        <ele>134.2</ele>
        <time>2024-09-08T09:14:03Z</time>
      </trkpt>
      <trkpt lat="46.66664" lon="0.53932">
        <ele>134.2</ele>
        <time>2024-09-08T09:14:04Z</time>
      </trkpt>
      <trkpt lat="46.66667" lon="0.53924">
        <ele>134.2</ele>
        <time>2024-09-08T09:14:08Z</time>
      </trkpt>
      <trkpt lat="46.66668" lon="0.53912">
        <ele>134.2</ele>
        <time>2024-09-08T09:14:14Z</time>
      </trkpt>
      <trkpt lat="46.66669" lon="0.53906">
        <ele>134.2</ele>
        <time>2024-09-08T09:14:16Z</time>
      </trkpt>
      <trkpt lat="46.66671" lon="0.53887">
        <ele>134.4</ele>
        <time>2024-09-08T09:14:24Z</time>
      </trkpt>
      <trkpt lat="46.66671" lon="0.53886">
        <ele>134.4</ele>
        <time>2024-09-08T09:14:25Z</time>
      </trkpt>
      <trkpt lat="46.66672" lon="0.53874">
        <ele>134</ele>
        <time>2024-09-08T09:14:31Z</time>
      </trkpt>
      <trkpt lat="46.66672" lon="0.53844">
        <ele>133.2</ele>
        <time>2024-09-08T09:14:42Z</time>
      </trkpt>
      <trkpt lat="46.66672" lon="0.53827">
        <ele>133.4</ele>
        <time>2024-09-08T09:14:47Z</time>
      </trkpt>
      <trkpt lat="46.66671" lon="0.53806">
        <ele>133.4</ele>
        <time>2024-09-08T09:14:54Z</time>
      </trkpt>
      <trkpt lat="46.66674" lon="0.5379">
        <ele>133.2</ele>
        <time>2024-09-08T09:15:00Z</time>
      </trkpt>
      <trkpt lat="46.66674" lon="0.53766">
        <ele>133.2</ele>
        <time>2024-09-08T09:15:07Z</time>
      </trkpt>
      <trkpt lat="46.66674" lon="0.53742">
        <ele>133.2</ele>
        <time>2024-09-08T09:15:14Z</time>
      </trkpt>
      <trkpt lat="46.66671" lon="0.53731">
        <ele>133</ele>
        <time>2024-09-08T09:15:17Z</time>
      </trkpt>
      <trkpt lat="46.66671" lon="0.53724">
        <ele>133</ele>
        <time>2024-09-08T09:15:19Z</time>
      </trkpt>
      <trkpt lat="46.66675" lon="0.53702">
        <ele>133</ele>
        <time>2024-09-08T09:15:25Z</time>
      </trkpt>
      <trkpt lat="46.66674" lon="0.5369">
        <ele>132.6</ele>
        <time>2024-09-08T09:15:30Z</time>
      </trkpt>
      <trkpt lat="46.66673" lon="0.5369">
        <ele>132.6</ele>
        <time>2024-09-08T09:15:31Z</time>
      </trkpt>
      <trkpt lat="46.66673" lon="0.5368">
        <ele>132</ele>
        <time>2024-09-08T09:15:37Z</time>
      </trkpt>
      <trkpt lat="46.66667" lon="0.53661">
        <ele>132.2</ele>
        <time>2024-09-08T09:15:49Z</time>
      </trkpt>
      <trkpt lat="46.66665" lon="0.53633">
        <ele>132</ele>
        <time>2024-09-08T09:15:58Z</time>
      </trkpt>
      <trkpt lat="46.66665" lon="0.53619">
        <ele>131.6</ele>
        <time>2024-09-08T09:16:02Z</time>
      </trkpt>
      <trkpt lat="46.66664" lon="0.53612">
        <ele>131.4</ele>
        <time>2024-09-08T09:16:04Z</time>
      </trkpt>
      <trkpt lat="46.66663" lon="0.53603">
        <ele>131.4</ele>
        <time>2024-09-08T09:16:07Z</time>
      </trkpt>
      <trkpt lat="46.66662" lon="0.5359">
        <ele>131.6</ele>
        <time>2024-09-08T09:16:10Z</time>
      </trkpt>
      <trkpt lat="46.66659" lon="0.53573">
        <ele>131.2</ele>
        <time>2024-09-08T09:16:16Z</time>
      </trkpt>
      <trkpt lat="46.6666" lon="0.53571">
        <ele>131</ele>
        <time>2024-09-08T09:16:17Z</time>
      </trkpt>
      <trkpt lat="46.66665" lon="0.53565">
        <ele>130.8</ele>
        <time>2024-09-08T09:16:21Z</time>
      </trkpt>
      <trkpt lat="46.66666" lon="0.53562">
        <ele>130.8</ele>
        <time>2024-09-08T09:16:22Z</time>
      </trkpt>
      <trkpt lat="46.66665" lon="0.53548">
        <ele>131</ele>
        <time>2024-09-08T09:16:26Z</time>
      </trkpt>
      <trkpt lat="46.66666" lon="0.53518">
        <ele>130.8</ele>
        <time>2024-09-08T09:16:33Z</time>
      </trkpt>
      <trkpt lat="46.66665" lon="0.53497">
        <ele>131</ele>
        <time>2024-09-08T09:16:39Z</time>
      </trkpt>
      <trkpt lat="46.66664" lon="0.53495">
        <ele>131</ele>
        <time>2024-09-08T09:16:40Z</time>
      </trkpt>
      <trkpt lat="46.66666" lon="0.53484">
        <ele>130.6</ele>
        <time>2024-09-08T09:16:46Z</time>
      </trkpt>
      <trkpt lat="46.66669" lon="0.53473">
        <ele>131</ele>
        <time>2024-09-08T09:16:54Z</time>
      </trkpt>
      <trkpt lat="46.66671" lon="0.53462">
        <ele>131</ele>
        <time>2024-09-08T09:17:04Z</time>
      </trkpt>
      <trkpt lat="46.66677" lon="0.53439">
        <ele>131.2</ele>
        <time>2024-09-08T09:17:11Z</time>
      </trkpt>
      <trkpt lat="46.6668" lon="0.53413">
        <ele>131.4</ele>
        <time>2024-09-08T09:17:17Z</time>
      </trkpt>
      <trkpt lat="46.66683" lon="0.53384">
        <ele>131.4</ele>
        <time>2024-09-08T09:17:25Z</time>
      </trkpt>
      <trkpt lat="46.66685" lon="0.53351">
        <ele>131.6</ele>
        <time>2024-09-08T09:17:34Z</time>
      </trkpt>
      <trkpt lat="46.66685" lon="0.53327">
        <ele>132.2</ele>
        <time>2024-09-08T09:17:40Z</time>
      </trkpt>
      <trkpt lat="46.66686" lon="0.53295">
        <ele>132.8</ele>
        <time>2024-09-08T09:17:47Z</time>
      </trkpt>
      <trkpt lat="46.66687" lon="0.53271">
        <ele>133</ele>
        <time>2024-09-08T09:17:52Z</time>
      </trkpt>
      <trkpt lat="46.66689" lon="0.53247">
        <ele>132.6</ele>
        <time>2024-09-08T09:17:57Z</time>
      </trkpt>
      <trkpt lat="46.66689" lon="0.53217">
        <ele>132</ele>
        <time>2024-09-08T09:18:03Z</time>
      </trkpt>
      <trkpt lat="46.66689" lon="0.53213">
        <ele>131.6</ele>
        <time>2024-09-08T09:18:04Z</time>
      </trkpt>
      <trkpt lat="46.66687" lon="0.53187">
        <ele>131.4</ele>
        <time>2024-09-08T09:18:09Z</time>
      </trkpt>
      <trkpt lat="46.66686" lon="0.53161">
        <ele>131.8</ele>
        <time>2024-09-08T09:18:15Z</time>
      </trkpt>
      <trkpt lat="46.6669" lon="0.53137">
        <ele>131.8</ele>
        <time>2024-09-08T09:18:20Z</time>
      </trkpt>
      <trkpt lat="46.66694" lon="0.53116">
        <ele>131.6</ele>
        <time>2024-09-08T09:18:25Z</time>
      </trkpt>
      <trkpt lat="46.66697" lon="0.531">
        <ele>131.8</ele>
        <time>2024-09-08T09:18:32Z</time>
      </trkpt>
      <trkpt lat="46.66696" lon="0.53098">
        <ele>131.8</ele>
        <time>2024-09-08T09:18:33Z</time>
      </trkpt>
      <trkpt lat="46.66699" lon="0.5308">
        <ele>131.6</ele>
        <time>2024-09-08T09:18:46Z</time>
      </trkpt>
      <trkpt lat="46.66708" lon="0.53065">
        <ele>132.2</ele>
        <time>2024-09-08T09:18:52Z</time>
      </trkpt>
      <trkpt lat="46.66721" lon="0.53047">
        <ele>132.2</ele>
        <time>2024-09-08T09:18:58Z</time>
      </trkpt>
      <trkpt lat="46.66738" lon="0.53022">
        <ele>132.2</ele>
        <time>2024-09-08T09:19:05Z</time>
      </trkpt>
      <trkpt lat="46.66746" lon="0.53011">
        <ele>132.6</ele>
        <time>2024-09-08T09:19:08Z</time>
      </trkpt>
      <trkpt lat="46.66758" lon="0.52996">
        <ele>132.6</ele>
        <time>2024-09-08T09:19:12Z</time>
      </trkpt>
      <trkpt lat="46.66782" lon="0.5296">
        <ele>132.2</ele>
        <time>2024-09-08T09:19:20Z</time>
      </trkpt>
      <trkpt lat="46.66798" lon="0.52934">
        <ele>132.2</ele>
        <time>2024-09-08T09:19:26Z</time>
      </trkpt>
      <trkpt lat="46.66818" lon="0.52906">
        <ele>132.2</ele>
        <time>2024-09-08T09:19:32Z</time>
      </trkpt>
      <trkpt lat="46.66842" lon="0.52874">
        <ele>132.4</ele>
        <time>2024-09-08T09:19:39Z</time>
      </trkpt>
      <trkpt lat="46.66864" lon="0.52842">
        <ele>132</ele>
        <time>2024-09-08T09:19:45Z</time>
      </trkpt>
      <trkpt lat="46.66874" lon="0.52829">
        <ele>131.8</ele>
        <time>2024-09-08T09:19:48Z</time>
      </trkpt>
      <trkpt lat="46.66879" lon="0.52822">
        <ele>131.8</ele>
        <time>2024-09-08T09:19:50Z</time>
      </trkpt>
      <trkpt lat="46.6688" lon="0.52817">
        <ele>131.6</ele>
        <time>2024-09-08T09:19:51Z</time>
      </trkpt>
      <trkpt lat="46.66879" lon="0.52813">
        <ele>131.6</ele>
        <time>2024-09-08T09:19:52Z</time>
      </trkpt>
      <trkpt lat="46.66878" lon="0.5281">
        <ele>131.6</ele>
        <time>2024-09-08T09:19:53Z</time>
      </trkpt>
      <trkpt lat="46.6687" lon="0.52799">
        <ele>131.2</ele>
        <time>2024-09-08T09:19:58Z</time>
      </trkpt>
      <trkpt lat="46.6686" lon="0.52784">
        <ele>130.6</ele>
        <time>2024-09-08T09:20:03Z</time>
      </trkpt>
      <trkpt lat="46.66858" lon="0.52781">
        <ele>130.6</ele>
        <time>2024-09-08T09:20:04Z</time>
      </trkpt>
      <trkpt lat="46.66844" lon="0.52762">
        <ele>130.2</ele>
        <time>2024-09-08T09:20:10Z</time>
      </trkpt>
      <trkpt lat="46.66822" lon="0.52743">
        <ele>129.4</ele>
        <time>2024-09-08T09:20:16Z</time>
      </trkpt>
      <trkpt lat="46.66814" lon="0.52732">
        <ele>128.4</ele>
        <time>2024-09-08T09:20:19Z</time>
      </trkpt>
      <trkpt lat="46.66813" lon="0.52728">
        <ele>128.4</ele>
        <time>2024-09-08T09:20:20Z</time>
      </trkpt>
      <trkpt lat="46.66806" lon="0.52697">
        <ele>127</ele>
        <time>2024-09-08T09:20:27Z</time>
      </trkpt>
      <trkpt lat="46.66795" lon="0.52666">
        <ele>126.4</ele>
        <time>2024-09-08T09:20:32Z</time>
      </trkpt>
      <trkpt lat="46.66791" lon="0.52656">
        <ele>125.2</ele>
        <time>2024-09-08T09:20:34Z</time>
      </trkpt>
      <trkpt lat="46.66787" lon="0.52644">
        <ele>124.2</ele>
        <time>2024-09-08T09:20:36Z</time>
      </trkpt>
      <trkpt lat="46.66781" lon="0.52631">
        <ele>123.4</ele>
        <time>2024-09-08T09:20:38Z</time>
      </trkpt>
      <trkpt lat="46.66777" lon="0.52625">
        <ele>122.8</ele>
        <time>2024-09-08T09:20:39Z</time>
      </trkpt>
      <trkpt lat="46.66764" lon="0.52599">
        <ele>121.2</ele>
        <time>2024-09-08T09:20:43Z</time>
      </trkpt>
      <trkpt lat="46.66758" lon="0.52588">
        <ele>119.6</ele>
        <time>2024-09-08T09:20:45Z</time>
      </trkpt>
      <trkpt lat="46.66749" lon="0.52575">
        <ele>118.8</ele>
        <time>2024-09-08T09:20:47Z</time>
      </trkpt>
      <trkpt lat="46.66744" lon="0.52569">
        <ele>118.2</ele>
        <time>2024-09-08T09:20:48Z</time>
      </trkpt>
      <trkpt lat="46.66732" lon="0.52557">
        <ele>117.8</ele>
        <time>2024-09-08T09:20:50Z</time>
      </trkpt>
      <trkpt lat="46.66701" lon="0.52527">
        <ele>117</ele>
        <time>2024-09-08T09:20:55Z</time>
      </trkpt>
      <trkpt lat="46.66695" lon="0.52521">
        <ele>117</ele>
        <time>2024-09-08T09:20:56Z</time>
      </trkpt>
      <trkpt lat="46.66683" lon="0.52511">
        <ele>116</ele>
        <time>2024-09-08T09:20:58Z</time>
      </trkpt>
      <trkpt lat="46.66666" lon="0.52496">
        <ele>114.4</ele>
        <time>2024-09-08T09:21:01Z</time>
      </trkpt>
      <trkpt lat="46.66661" lon="0.52491">
        <ele>114</ele>
        <time>2024-09-08T09:21:02Z</time>
      </trkpt>
      <trkpt lat="46.66653" lon="0.52481">
        <ele>113.6</ele>
        <time>2024-09-08T09:21:04Z</time>
      </trkpt>
      <trkpt lat="46.66648" lon="0.52474">
        <ele>113</ele>
        <time>2024-09-08T09:21:05Z</time>
      </trkpt>
      <trkpt lat="46.66644" lon="0.52466">
        <ele>112.4</ele>
        <time>2024-09-08T09:21:06Z</time>
      </trkpt>
      <trkpt lat="46.66637" lon="0.52453">
        <ele>111.6</ele>
        <time>2024-09-08T09:21:08Z</time>
      </trkpt>
      <trkpt lat="46.66628" lon="0.52439">
        <ele>110.6</ele>
        <time>2024-09-08T09:21:10Z</time>
      </trkpt>
      <trkpt lat="46.66624" lon="0.52432">
        <ele>110.2</ele>
        <time>2024-09-08T09:21:11Z</time>
      </trkpt>
      <trkpt lat="46.66617" lon="0.52418">
        <ele>109.4</ele>
        <time>2024-09-08T09:21:13Z</time>
      </trkpt>
      <trkpt lat="46.66604" lon="0.52394">
        <ele>108.4</ele>
        <time>2024-09-08T09:21:16Z</time>
      </trkpt>
      <trkpt lat="46.66596" lon="0.52374">
        <ele>107.4</ele>
        <time>2024-09-08T09:21:19Z</time>
      </trkpt>
      <trkpt lat="46.66593" lon="0.52368">
        <ele>107.2</ele>
        <time>2024-09-08T09:21:20Z</time>
      </trkpt>
      <trkpt lat="46.6658" lon="0.52331">
        <ele>107.6</ele>
        <time>2024-09-08T09:21:26Z</time>
      </trkpt>
      <trkpt lat="46.66572" lon="0.52313">
        <ele>107.4</ele>
        <time>2024-09-08T09:21:29Z</time>
      </trkpt>
      <trkpt lat="46.66563" lon="0.52293">
        <ele>106.6</ele>
        <time>2024-09-08T09:21:32Z</time>
      </trkpt>
      <trkpt lat="46.6656" lon="0.52279">
        <ele>106</ele>
        <time>2024-09-08T09:21:34Z</time>
      </trkpt>
      <trkpt lat="46.66562" lon="0.5227">
        <ele>105.8</ele>
        <time>2024-09-08T09:21:36Z</time>
      </trkpt>
      <trkpt lat="46.66571" lon="0.52237">
        <ele>106.2</ele>
        <time>2024-09-08T09:21:43Z</time>
      </trkpt>
      <trkpt lat="46.66573" lon="0.52216">
        <ele>106.2</ele>
        <time>2024-09-08T09:21:47Z</time>
      </trkpt>
      <trkpt lat="46.66575" lon="0.52211">
        <ele>106.2</ele>
        <time>2024-09-08T09:21:48Z</time>
      </trkpt>
      <trkpt lat="46.66577" lon="0.522">
        <ele>107</ele>
        <time>2024-09-08T09:21:50Z</time>
      </trkpt>
      <trkpt lat="46.66579" lon="0.5219">
        <ele>108.2</ele>
        <time>2024-09-08T09:21:52Z</time>
      </trkpt>
      <trkpt lat="46.6658" lon="0.52179">
        <ele>108.8</ele>
        <time>2024-09-08T09:21:55Z</time>
      </trkpt>
      <trkpt lat="46.6658" lon="0.52172">
        <ele>109.4</ele>
        <time>2024-09-08T09:21:57Z</time>
      </trkpt>
      <trkpt lat="46.66586" lon="0.52159">
        <ele>110.2</ele>
        <time>2024-09-08T09:22:01Z</time>
      </trkpt>
      <trkpt lat="46.66587" lon="0.52156">
        <ele>110.8</ele>
        <time>2024-09-08T09:22:02Z</time>
      </trkpt>
      <trkpt lat="46.66592" lon="0.5214">
        <ele>111.8</ele>
        <time>2024-09-08T09:22:07Z</time>
      </trkpt>
      <trkpt lat="46.66593" lon="0.52134">
        <ele>111.8</ele>
        <time>2024-09-08T09:22:08Z</time>
      </trkpt>
      <trkpt lat="46.66597" lon="0.52121">
        <ele>113</ele>
        <time>2024-09-08T09:22:12Z</time>
      </trkpt>
      <trkpt lat="46.66601" lon="0.52109">
        <ele>114</ele>
        <time>2024-09-08T09:22:16Z</time>
      </trkpt>
      <trkpt lat="46.66603" lon="0.52103">
        <ele>114.4</ele>
        <time>2024-09-08T09:22:18Z</time>
      </trkpt>
      <trkpt lat="46.66609" lon="0.52092">
        <ele>114.6</ele>
        <time>2024-09-08T09:22:22Z</time>
      </trkpt>
      <trkpt lat="46.66613" lon="0.52087">
        <ele>115.2</ele>
        <time>2024-09-08T09:22:24Z</time>
      </trkpt>
      <trkpt lat="46.66616" lon="0.52083">
        <ele>115.6</ele>
        <time>2024-09-08T09:22:26Z</time>
      </trkpt>
      <trkpt lat="46.6662" lon="0.52078">
        <ele>116</ele>
        <time>2024-09-08T09:22:28Z</time>
      </trkpt>
      <trkpt lat="46.66625" lon="0.52073">
        <ele>116.2</ele>
        <time>2024-09-08T09:22:31Z</time>
      </trkpt>
      <trkpt lat="46.66636" lon="0.52065">
        <ele>117.4</ele>
        <time>2024-09-08T09:22:36Z</time>
      </trkpt>
      <trkpt lat="46.66649" lon="0.52055">
        <ele>118</ele>
        <time>2024-09-08T09:22:42Z</time>
      </trkpt>
      <trkpt lat="46.66665" lon="0.52048">
        <ele>118.2</ele>
        <time>2024-09-08T09:22:47Z</time>
      </trkpt>
      <trkpt lat="46.66677" lon="0.52034">
        <ele>118</ele>
        <time>2024-09-08T09:22:52Z</time>
      </trkpt>
      <trkpt lat="46.66691" lon="0.52003">
        <ele>117.2</ele>
        <time>2024-09-08T09:22:59Z</time>
      </trkpt>
      <trkpt lat="46.667" lon="0.51973">
        <ele>116</ele>
        <time>2024-09-08T09:23:04Z</time>
      </trkpt>
      <trkpt lat="46.66701" lon="0.51967">
        <ele>115.6</ele>
        <time>2024-09-08T09:23:05Z</time>
      </trkpt>
      <trkpt lat="46.66703" lon="0.51955">
        <ele>114.6</ele>
        <time>2024-09-08T09:23:07Z</time>
      </trkpt>
      <trkpt lat="46.66708" lon="0.51931">
        <ele>114</ele>
        <time>2024-09-08T09:23:10Z</time>
      </trkpt>
      <trkpt lat="46.66709" lon="0.51924">
        <ele>113.6</ele>
        <time>2024-09-08T09:23:11Z</time>
      </trkpt>
      <trkpt lat="46.66711" lon="0.51903">
        <ele>113.4</ele>
        <time>2024-09-08T09:23:14Z</time>
      </trkpt>
      <trkpt lat="46.66705" lon="0.51874">
        <ele>112</ele>
        <time>2024-09-08T09:23:18Z</time>
      </trkpt>
      <trkpt lat="46.66704" lon="0.51868">
        <ele>111.2</ele>
        <time>2024-09-08T09:23:19Z</time>
      </trkpt>
      <trkpt lat="46.66704" lon="0.51855">
        <ele>110.2</ele>
        <time>2024-09-08T09:23:20Z</time>
      </trkpt>
      <trkpt lat="46.66704" lon="0.51842">
        <ele>109.8</ele>
        <time>2024-09-08T09:23:22Z</time>
      </trkpt>
      <trkpt lat="46.66704" lon="0.51823">
        <ele>109.2</ele>
        <time>2024-09-08T09:23:24Z</time>
      </trkpt>
      <trkpt lat="46.66703" lon="0.51814">
        <ele>108.6</ele>
        <time>2024-09-08T09:23:25Z</time>
      </trkpt>
      <trkpt lat="46.66703" lon="0.51807">
        <ele>108</ele>
        <time>2024-09-08T09:23:26Z</time>
      </trkpt>
      <trkpt lat="46.66704" lon="0.51801">
        <ele>107</ele>
        <time>2024-09-08T09:23:27Z</time>
      </trkpt>
      <trkpt lat="46.66703" lon="0.51788">
        <ele>105.6</ele>
        <time>2024-09-08T09:23:29Z</time>
      </trkpt>
      <trkpt lat="46.66703" lon="0.51782">
        <ele>104.6</ele>
        <time>2024-09-08T09:23:30Z</time>
      </trkpt>
      <trkpt lat="46.66702" lon="0.51776">
        <ele>103.2</ele>
        <time>2024-09-08T09:23:32Z</time>
      </trkpt>
      <trkpt lat="46.66701" lon="0.51761">
        <ele>101.4</ele>
        <time>2024-09-08T09:23:34Z</time>
      </trkpt>
      <trkpt lat="46.66702" lon="0.51756">
        <ele>100.4</ele>
        <time>2024-09-08T09:23:35Z</time>
      </trkpt>
      <trkpt lat="46.66704" lon="0.5175">
        <ele>99.4</ele>
        <time>2024-09-08T09:23:36Z</time>
      </trkpt>
      <trkpt lat="46.66708" lon="0.51729">
        <ele>97.2</ele>
        <time>2024-09-08T09:23:39Z</time>
      </trkpt>
      <trkpt lat="46.6671" lon="0.51714">
        <ele>95.6</ele>
        <time>2024-09-08T09:23:41Z</time>
      </trkpt>
      <trkpt lat="46.66709" lon="0.51704">
        <ele>95.2</ele>
        <time>2024-09-08T09:23:42Z</time>
      </trkpt>
      <trkpt lat="46.66708" lon="0.51685">
        <ele>94.8</ele>
        <time>2024-09-08T09:23:44Z</time>
      </trkpt>
      <trkpt lat="46.66707" lon="0.51669">
        <ele>94.4</ele>
        <time>2024-09-08T09:23:46Z</time>
      </trkpt>
      <trkpt lat="46.66705" lon="0.5165">
        <ele>92</ele>
        <time>2024-09-08T09:23:49Z</time>
      </trkpt>
      <trkpt lat="46.66704" lon="0.51642">
        <ele>90.8</ele>
        <time>2024-09-08T09:23:50Z</time>
      </trkpt>
      <trkpt lat="46.66702" lon="0.51635">
        <ele>89.4</ele>
        <time>2024-09-08T09:23:51Z</time>
      </trkpt>
      <trkpt lat="46.66696" lon="0.51626">
        <ele>88</ele>
        <time>2024-09-08T09:23:53Z</time>
      </trkpt>
      <trkpt lat="46.66693" lon="0.51624">
        <ele>87.6</ele>
        <time>2024-09-08T09:23:54Z</time>
      </trkpt>
      <trkpt lat="46.66676" lon="0.51616">
        <ele>88</ele>
        <time>2024-09-08T09:24:01Z</time>
      </trkpt>
      <trkpt lat="46.66662" lon="0.5161">
        <ele>88.2</ele>
        <time>2024-09-08T09:24:07Z</time>
      </trkpt>
      <trkpt lat="46.66657" lon="0.51608">
        <ele>88</ele>
        <time>2024-09-08T09:24:11Z</time>
      </trkpt>
      <trkpt lat="46.66656" lon="0.51608">
        <ele>88</ele>
        <time>2024-09-08T09:24:12Z</time>
      </trkpt>
      <trkpt lat="46.66653" lon="0.5161">
        <ele>88</ele>
        <time>2024-09-08T09:24:19Z</time>
      </trkpt>
      <trkpt lat="46.66652" lon="0.51622">
        <ele>89</ele>
        <time>2024-09-08T09:24:25Z</time>
      </trkpt>
      <trkpt lat="46.66652" lon="0.51624">
        <ele>89.4</ele>
        <time>2024-09-08T09:24:26Z</time>
      </trkpt>
      <trkpt lat="46.66652" lon="0.51629">
        <ele>90</ele>
        <time>2024-09-08T09:24:29Z</time>
      </trkpt>
      <trkpt lat="46.66652" lon="0.51631">
        <ele>90.2</ele>
        <time>2024-09-08T09:24:30Z</time>
      </trkpt>
      <trkpt lat="46.66649" lon="0.51637">
        <ele>90.8</ele>
        <time>2024-09-08T09:24:34Z</time>
      </trkpt>
      <trkpt lat="46.66645" lon="0.51642">
        <ele>91.2</ele>
        <time>2024-09-08T09:24:37Z</time>
      </trkpt>
      <trkpt lat="46.6664" lon="0.5165">
        <ele>92</ele>
        <time>2024-09-08T09:24:41Z</time>
      </trkpt>
      <trkpt lat="46.66635" lon="0.51656">
        <ele>92.4</ele>
        <time>2024-09-08T09:24:44Z</time>
      </trkpt>
      <trkpt lat="46.66631" lon="0.51662">
        <ele>93.2</ele>
        <time>2024-09-08T09:24:47Z</time>
      </trkpt>
      <trkpt lat="46.6663" lon="0.51664">
        <ele>93.4</ele>
        <time>2024-09-08T09:24:48Z</time>
      </trkpt>
      <trkpt lat="46.66626" lon="0.51675">
        <ele>94.6</ele>
        <time>2024-09-08T09:24:53Z</time>
      </trkpt>
      <trkpt lat="46.66625" lon="0.51678">
        <ele>94.8</ele>
        <time>2024-09-08T09:24:54Z</time>
      </trkpt>
      <trkpt lat="46.66625" lon="0.51687">
        <ele>95.8</ele>
        <time>2024-09-08T09:24:57Z</time>
      </trkpt>
      <trkpt lat="46.66625" lon="0.51692">
        <ele>96.2</ele>
        <time>2024-09-08T09:24:59Z</time>
      </trkpt>
      <trkpt lat="46.66626" lon="0.51699">
        <ele>97</ele>
        <time>2024-09-08T09:25:02Z</time>
      </trkpt>
      <trkpt lat="46.66627" lon="0.51711">
        <ele>98.2</ele>
        <time>2024-09-08T09:25:07Z</time>
      </trkpt>
      <trkpt lat="46.66627" lon="0.51721">
        <ele>99.4</ele>
        <time>2024-09-08T09:25:11Z</time>
      </trkpt>
      <trkpt lat="46.66629" lon="0.51732">
        <ele>100.2</ele>
        <time>2024-09-08T09:25:15Z</time>
      </trkpt>
      <trkpt lat="46.66629" lon="0.51734">
        <ele>100.6</ele>
        <time>2024-09-08T09:25:16Z</time>
      </trkpt>
      <trkpt lat="46.66634" lon="0.51746">
        <ele>101.4</ele>
        <time>2024-09-08T09:25:21Z</time>
      </trkpt>
      <trkpt lat="46.66636" lon="0.51751">
        <ele>101.6</ele>
        <time>2024-09-08T09:25:23Z</time>
      </trkpt>
      <trkpt lat="46.66639" lon="0.51765">
        <ele>102.8</ele>
        <time>2024-09-08T09:25:29Z</time>
      </trkpt>
      <trkpt lat="46.66642" lon="0.51779">
        <ele>103.8</ele>
        <time>2024-09-08T09:25:34Z</time>
      </trkpt>
      <trkpt lat="46.66643" lon="0.51787">
        <ele>104.2</ele>
        <time>2024-09-08T09:25:37Z</time>
      </trkpt>
      <trkpt lat="46.66646" lon="0.51796">
        <ele>105</ele>
        <time>2024-09-08T09:25:41Z</time>
      </trkpt>
      <trkpt lat="46.66647" lon="0.51801">
        <ele>105.6</ele>
        <time>2024-09-08T09:25:43Z</time>
      </trkpt>
      <trkpt lat="46.66646" lon="0.5181">
        <ele>106.4</ele>
        <time>2024-09-08T09:25:47Z</time>
      </trkpt>
      <trkpt lat="46.66645" lon="0.51812">
        <ele>106.8</ele>
        <time>2024-09-08T09:25:48Z</time>
      </trkpt>
      <trkpt lat="46.66639" lon="0.5182">
        <ele>107.4</ele>
        <time>2024-09-08T09:25:53Z</time>
      </trkpt>
      <trkpt lat="46.66636" lon="0.51824">
        <ele>108</ele>
        <time>2024-09-08T09:25:55Z</time>
      </trkpt>
      <trkpt lat="46.6663" lon="0.5183">
        <ele>108.6</ele>
        <time>2024-09-08T09:25:58Z</time>
      </trkpt>
      <trkpt lat="46.66624" lon="0.51839">
        <ele>109</ele>
        <time>2024-09-08T09:26:02Z</time>
      </trkpt>
      <trkpt lat="46.6661" lon="0.51857">
        <ele>109</ele>
        <time>2024-09-08T09:26:08Z</time>
      </trkpt>
      <trkpt lat="46.66584" lon="0.51881">
        <ele>109.4</ele>
        <time>2024-09-08T09:26:17Z</time>
      </trkpt>
      <trkpt lat="46.66567" lon="0.519">
        <ele>107.6</ele>
        <time>2024-09-08T09:26:24Z</time>
      </trkpt>
      <trkpt lat="46.66565" lon="0.51904">
        <ele>107.2</ele>
        <time>2024-09-08T09:26:25Z</time>
      </trkpt>
      <trkpt lat="46.66554" lon="0.51916">
        <ele>106.6</ele>
        <time>2024-09-08T09:26:28Z</time>
      </trkpt>
      <trkpt lat="46.66546" lon="0.51925">
        <ele>105.8</ele>
        <time>2024-09-08T09:26:30Z</time>
      </trkpt>
      <trkpt lat="46.66533" lon="0.51938">
        <ele>104.2</ele>
        <time>2024-09-08T09:26:33Z</time>
      </trkpt>
      <trkpt lat="46.66528" lon="0.5194">
        <ele>102.8</ele>
        <time>2024-09-08T09:26:34Z</time>
      </trkpt>
      <trkpt lat="46.66523" lon="0.51943">
        <ele>101.8</ele>
        <time>2024-09-08T09:26:35Z</time>
      </trkpt>
      <trkpt lat="46.66518" lon="0.51947">
        <ele>100.8</ele>
        <time>2024-09-08T09:26:36Z</time>
      </trkpt>
      <trkpt lat="46.66513" lon="0.51952">
        <ele>99.6</ele>
        <time>2024-09-08T09:26:37Z</time>
      </trkpt>
      <trkpt lat="46.66501" lon="0.51962">
        <ele>98.2</ele>
        <time>2024-09-08T09:26:39Z</time>
      </trkpt>
      <trkpt lat="46.66484" lon="0.5198">
        <ele>97.6</ele>
        <time>2024-09-08T09:26:43Z</time>
      </trkpt>
      <trkpt lat="46.6647" lon="0.51992">
        <ele>98.4</ele>
        <time>2024-09-08T09:26:47Z</time>
      </trkpt>
      <trkpt lat="46.66467" lon="0.51992">
        <ele>99.2</ele>
        <time>2024-09-08T09:26:48Z</time>
      </trkpt>
      <trkpt lat="46.66462" lon="0.51993">
        <ele>100.6</ele>
        <time>2024-09-08T09:26:50Z</time>
      </trkpt>
      <trkpt lat="46.66456" lon="0.5199">
        <ele>101</ele>
        <time>2024-09-08T09:26:52Z</time>
      </trkpt>
      <trkpt lat="46.66444" lon="0.51979">
        <ele>101.6</ele>
        <time>2024-09-08T09:26:57Z</time>
      </trkpt>
      <trkpt lat="46.66439" lon="0.51975">
        <ele>102</ele>
        <time>2024-09-08T09:26:59Z</time>
      </trkpt>
      <trkpt lat="46.66423" lon="0.51952">
        <ele>101.8</ele>
        <time>2024-09-08T09:27:05Z</time>
      </trkpt>
      <trkpt lat="46.66405" lon="0.51921">
        <ele>102.4</ele>
        <time>2024-09-08T09:27:12Z</time>
      </trkpt>
      <trkpt lat="46.66403" lon="0.51917">
        <ele>102.8</ele>
        <time>2024-09-08T09:27:13Z</time>
      </trkpt>
      <trkpt lat="46.66394" lon="0.51899">
        <ele>103.6</ele>
        <time>2024-09-08T09:27:18Z</time>
      </trkpt>
      <trkpt lat="46.6639" lon="0.5189">
        <ele>103.8</ele>
        <time>2024-09-08T09:27:20Z</time>
      </trkpt>
      <trkpt lat="46.66383" lon="0.51873">
        <ele>104.2</ele>
        <time>2024-09-08T09:27:24Z</time>
      </trkpt>
      <trkpt lat="46.66371" lon="0.51846">
        <ele>104.6</ele>
        <time>2024-09-08T09:27:30Z</time>
      </trkpt>
      <trkpt lat="46.66358" lon="0.51825">
        <ele>104</ele>
        <time>2024-09-08T09:27:34Z</time>
      </trkpt>
      <trkpt lat="46.66342" lon="0.51794">
        <ele>103</ele>
        <time>2024-09-08T09:27:39Z</time>
      </trkpt>
      <trkpt lat="46.66336" lon="0.51784">
        <ele>102.8</ele>
        <time>2024-09-08T09:27:41Z</time>
      </trkpt>
      <trkpt lat="46.66331" lon="0.51776">
        <ele>102.4</ele>
        <time>2024-09-08T09:27:43Z</time>
      </trkpt>
      <trkpt lat="46.6633" lon="0.5177">
        <ele>102.4</ele>
        <time>2024-09-08T09:27:45Z</time>
      </trkpt>
      <trkpt lat="46.66331" lon="0.51765">
        <ele>102</ele>
        <time>2024-09-08T09:27:47Z</time>
      </trkpt>
      <trkpt lat="46.6634" lon="0.51748">
        <ele>101.8</ele>
        <time>2024-09-08T09:27:52Z</time>
      </trkpt>
      <trkpt lat="46.66344" lon="0.5174">
        <ele>101.8</ele>
        <time>2024-09-08T09:27:54Z</time>
      </trkpt>
      <trkpt lat="46.66357" lon="0.51722">
        <ele>101</ele>
        <time>2024-09-08T09:27:58Z</time>
      </trkpt>
      <trkpt lat="46.66366" lon="0.51709">
        <ele>100.6</ele>
        <time>2024-09-08T09:28:01Z</time>
      </trkpt>
      <trkpt lat="46.66377" lon="0.51693">
        <ele>99.4</ele>
        <time>2024-09-08T09:28:04Z</time>
      </trkpt>
      <trkpt lat="46.66384" lon="0.51682">
        <ele>97.8</ele>
        <time>2024-09-08T09:28:06Z</time>
      </trkpt>
      <trkpt lat="46.66394" lon="0.51671">
        <ele>96.6</ele>
        <time>2024-09-08T09:28:08Z</time>
      </trkpt>
      <trkpt lat="46.66403" lon="0.51661">
        <ele>95.6</ele>
        <time>2024-09-08T09:28:10Z</time>
      </trkpt>
      <trkpt lat="46.66407" lon="0.51656">
        <ele>94.4</ele>
        <time>2024-09-08T09:28:11Z</time>
      </trkpt>
      <trkpt lat="46.66416" lon="0.51647">
        <ele>93</ele>
        <time>2024-09-08T09:28:13Z</time>
      </trkpt>
      <trkpt lat="46.66418" lon="0.51643">
        <ele>92.4</ele>
        <time>2024-09-08T09:28:14Z</time>
      </trkpt>
      <trkpt lat="46.66421" lon="0.51639">
        <ele>92.2</ele>
        <time>2024-09-08T09:28:15Z</time>
      </trkpt>
      <trkpt lat="46.66421" lon="0.51635">
        <ele>92</ele>
        <time>2024-09-08T09:28:16Z</time>
      </trkpt>
      <trkpt lat="46.6642" lon="0.51629">
        <ele>91.8</ele>
        <time>2024-09-08T09:28:17Z</time>
      </trkpt>
      <trkpt lat="46.66406" lon="0.5161">
        <ele>92.2</ele>
        <time>2024-09-08T09:28:22Z</time>
      </trkpt>
      <trkpt lat="46.66376" lon="0.5159">
        <ele>92.6</ele>
        <time>2024-09-08T09:28:29Z</time>
      </trkpt>
      <trkpt lat="46.66344" lon="0.51573">
        <ele>92.4</ele>
        <time>2024-09-08T09:28:35Z</time>
      </trkpt>
      <trkpt lat="46.66338" lon="0.51571">
        <ele>92.4</ele>
        <time>2024-09-08T09:28:36Z</time>
      </trkpt>
      <trkpt lat="46.66322" lon="0.51564">
        <ele>93</ele>
        <time>2024-09-08T09:28:39Z</time>
      </trkpt>
      <trkpt lat="46.66313" lon="0.5156">
        <ele>93.2</ele>
        <time>2024-09-08T09:28:41Z</time>
      </trkpt>
      <trkpt lat="46.66308" lon="0.51558">
        <ele>93.2</ele>
        <time>2024-09-08T09:28:42Z</time>
      </trkpt>
      <trkpt lat="46.66277" lon="0.51544">
        <ele>93.4</ele>
        <time>2024-09-08T09:28:49Z</time>
      </trkpt>
      <trkpt lat="46.66239" lon="0.51516">
        <ele>93.6</ele>
        <time>2024-09-08T09:28:57Z</time>
      </trkpt>
      <trkpt lat="46.6622" lon="0.51502">
        <ele>93.6</ele>
        <time>2024-09-08T09:29:01Z</time>
      </trkpt>
      <trkpt lat="46.66211" lon="0.51495">
        <ele>94</ele>
        <time>2024-09-08T09:29:03Z</time>
      </trkpt>
      <trkpt lat="46.66206" lon="0.51491">
        <ele>94.2</ele>
        <time>2024-09-08T09:29:04Z</time>
      </trkpt>
      <trkpt lat="46.66173" lon="0.51468">
        <ele>94.4</ele>
        <time>2024-09-08T09:29:11Z</time>
      </trkpt>
      <trkpt lat="46.66146" lon="0.51444">
        <ele>94.6</ele>
        <time>2024-09-08T09:29:17Z</time>
      </trkpt>
      <trkpt lat="46.66122" lon="0.51424">
        <ele>95.2</ele>
        <time>2024-09-08T09:29:22Z</time>
      </trkpt>
      <trkpt lat="46.66118" lon="0.5142">
        <ele>95.2</ele>
        <time>2024-09-08T09:29:23Z</time>
      </trkpt>
      <trkpt lat="46.66104" lon="0.51408">
        <ele>95.4</ele>
        <time>2024-09-08T09:29:26Z</time>
      </trkpt>
      <trkpt lat="46.6609" lon="0.51394">
        <ele>96</ele>
        <time>2024-09-08T09:29:29Z</time>
      </trkpt>
      <trkpt lat="46.66085" lon="0.5139">
        <ele>96.2</ele>
        <time>2024-09-08T09:29:30Z</time>
      </trkpt>
      <trkpt lat="46.66063" lon="0.51374">
        <ele>96.8</ele>
        <time>2024-09-08T09:29:34Z</time>
      </trkpt>
      <trkpt lat="46.66045" lon="0.51363">
        <ele>97.2</ele>
        <time>2024-09-08T09:29:37Z</time>
      </trkpt>
      <trkpt lat="46.66023" lon="0.5135">
        <ele>97.4</ele>
        <time>2024-09-08T09:29:41Z</time>
      </trkpt>
      <trkpt lat="46.65998" lon="0.51335">
        <ele>98.4</ele>
        <time>2024-09-08T09:29:46Z</time>
      </trkpt>
      <trkpt lat="46.65994" lon="0.51333">
        <ele>98.4</ele>
        <time>2024-09-08T09:29:47Z</time>
      </trkpt>
      <trkpt lat="46.65989" lon="0.51331">
        <ele>98.6</ele>
        <time>2024-09-08T09:29:48Z</time>
      </trkpt>
      <trkpt lat="46.65958" lon="0.5132">
        <ele>98.8</ele>
        <time>2024-09-08T09:29:54Z</time>
      </trkpt>
      <trkpt lat="46.65935" lon="0.51321">
        <ele>99.4</ele>
        <time>2024-09-08T09:29:59Z</time>
      </trkpt>
      <trkpt lat="46.6593" lon="0.51322">
        <ele>99.4</ele>
        <time>2024-09-08T09:30:00Z</time>
      </trkpt>
      <trkpt lat="46.65926" lon="0.51324">
        <ele>99.6</ele>
        <time>2024-09-08T09:30:01Z</time>
      </trkpt>
      <trkpt lat="46.65909" lon="0.51331">
        <ele>100</ele>
        <time>2024-09-08T09:30:05Z</time>
      </trkpt>
      <trkpt lat="46.65905" lon="0.51332">
        <ele>100</ele>
        <time>2024-09-08T09:30:06Z</time>
      </trkpt>
      <trkpt lat="46.65877" lon="0.51335">
        <ele>100</ele>
        <time>2024-09-08T09:30:12Z</time>
      </trkpt>
      <trkpt lat="46.6586" lon="0.51342">
        <ele>100.4</ele>
        <time>2024-09-08T09:30:16Z</time>
      </trkpt>
      <trkpt lat="46.65852" lon="0.51345">
        <ele>100.6</ele>
        <time>2024-09-08T09:30:18Z</time>
      </trkpt>
      <trkpt lat="46.65834" lon="0.51353">
        <ele>101.4</ele>
        <time>2024-09-08T09:30:23Z</time>
      </trkpt>
      <trkpt lat="46.65825" lon="0.51359">
        <ele>101.4</ele>
        <time>2024-09-08T09:30:26Z</time>
      </trkpt>
      <trkpt lat="46.65808" lon="0.51371">
        <ele>102.2</ele>
        <time>2024-09-08T09:30:33Z</time>
      </trkpt>
      <trkpt lat="46.65799" lon="0.51378">
        <ele>102</ele>
        <time>2024-09-08T09:30:40Z</time>
      </trkpt>
      <trkpt lat="46.65791" lon="0.51385">
        <ele>102.2</ele>
        <time>2024-09-08T09:30:50Z</time>
      </trkpt>
      <trkpt lat="46.65786" lon="0.51386">
        <ele>102.4</ele>
        <time>2024-09-08T09:30:57Z</time>
      </trkpt>
      <trkpt lat="46.65785" lon="0.51386">
        <ele>102.4</ele>
        <time>2024-09-08T09:30:58Z</time>
      </trkpt>
      <trkpt lat="46.65782" lon="0.51388">
        <ele>102.4</ele>
        <time>2024-09-08T09:31:06Z</time>
      </trkpt>
      <trkpt lat="46.6579" lon="0.51384">
        <ele>102.2</ele>
        <time>2024-09-08T09:31:17Z</time>
      </trkpt>
      <trkpt lat="46.6579" lon="0.51384">
        <ele>102.2</ele>
        <time>2024-09-08T09:31:24Z</time>
      </trkpt>
      <trkpt lat="46.65786" lon="0.51384">
        <ele>102.2</ele>
        <time>2024-09-08T09:31:31Z</time>
      </trkpt>
      <trkpt lat="46.65778" lon="0.51388">
        <ele>102.6</ele>
        <time>2024-09-08T09:31:39Z</time>
      </trkpt>
      <trkpt lat="46.65775" lon="0.51387">
        <ele>102.8</ele>
        <time>2024-09-08T09:31:42Z</time>
      </trkpt>
      <trkpt lat="46.65776" lon="0.51385">
        <ele>102.8</ele>
        <time>2024-09-08T09:31:44Z</time>
      </trkpt>
      <trkpt lat="46.65775" lon="0.51383">
        <ele>102.8</ele>
        <time>2024-09-08T09:31:46Z</time>
      </trkpt>
      <trkpt lat="46.65775" lon="0.51382">
        <ele>102.8</ele>
        <time>2024-09-08T09:31:56Z</time>
      </trkpt>
      <trkpt lat="46.65774" lon="0.51381">
        <ele>102.8</ele>
        <time>2024-09-08T09:32:17Z</time>
      </trkpt>
      <trkpt lat="46.6578" lon="0.51374">
        <ele>102.8</ele>
        <time>2024-09-08T09:32:25Z</time>
      </trkpt>
      <trkpt lat="46.6579" lon="0.51362">
        <ele>102.8</ele>
        <time>2024-09-08T09:32:31Z</time>
      </trkpt>
      <trkpt lat="46.65802" lon="0.5135">
        <ele>103</ele>
        <time>2024-09-08T09:32:36Z</time>
      </trkpt>
      <trkpt lat="46.65817" lon="0.51332">
        <ele>103</ele>
        <time>2024-09-08T09:32:42Z</time>
      </trkpt>
      <trkpt lat="46.65819" lon="0.51328">
        <ele>103</ele>
        <time>2024-09-08T09:32:43Z</time>
      </trkpt>
      <trkpt lat="46.6584" lon="0.51306">
        <ele>102.6</ele>
        <time>2024-09-08T09:32:49Z</time>
      </trkpt>
      <trkpt lat="46.65861" lon="0.51281">
        <ele>102.6</ele>
        <time>2024-09-08T09:32:55Z</time>
      </trkpt>
      <trkpt lat="46.65892" lon="0.51248">
        <ele>102</ele>
        <time>2024-09-08T09:33:02Z</time>
      </trkpt>
      <trkpt lat="46.65906" lon="0.51233">
        <ele>101.4</ele>
        <time>2024-09-08T09:33:05Z</time>
      </trkpt>
      <trkpt lat="46.65926" lon="0.51215">
        <ele>101</ele>
        <time>2024-09-08T09:33:09Z</time>
      </trkpt>
      <trkpt lat="46.65934" lon="0.51207">
        <ele>100.2</ele>
        <time>2024-09-08T09:33:11Z</time>
      </trkpt>
      <trkpt lat="46.65942" lon="0.512">
        <ele>99.6</ele>
        <time>2024-09-08T09:33:13Z</time>
      </trkpt>
      <trkpt lat="46.6595" lon="0.51192">
        <ele>99.6</ele>
        <time>2024-09-08T09:33:15Z</time>
      </trkpt>
      <trkpt lat="46.65973" lon="0.51171">
        <ele>99.8</ele>
        <time>2024-09-08T09:33:21Z</time>
      </trkpt>
      <trkpt lat="46.65999" lon="0.51141">
        <ele>100.4</ele>
        <time>2024-09-08T09:33:27Z</time>
      </trkpt>
      <trkpt lat="46.66032" lon="0.51101">
        <ele>100.6</ele>
        <time>2024-09-08T09:33:34Z</time>
      </trkpt>
      <trkpt lat="46.66052" lon="0.51081">
        <ele>101.2</ele>
        <time>2024-09-08T09:33:38Z</time>
      </trkpt>
      <trkpt lat="46.6606" lon="0.51072">
        <ele>101.6</ele>
        <time>2024-09-08T09:33:40Z</time>
      </trkpt>
      <trkpt lat="46.66063" lon="0.51068">
        <ele>102.2</ele>
        <time>2024-09-08T09:33:41Z</time>
      </trkpt>
      <trkpt lat="46.66078" lon="0.51052">
        <ele>103.4</ele>
        <time>2024-09-08T09:33:46Z</time>
      </trkpt>
      <trkpt lat="46.66089" lon="0.5104">
        <ele>104.6</ele>
        <time>2024-09-08T09:33:50Z</time>
      </trkpt>
      <trkpt lat="46.66095" lon="0.51032">
        <ele>105.6</ele>
        <time>2024-09-08T09:33:52Z</time>
      </trkpt>
      <trkpt lat="46.66101" lon="0.51024">
        <ele>106.2</ele>
        <time>2024-09-08T09:33:54Z</time>
      </trkpt>
      <trkpt lat="46.66114" lon="0.51009">
        <ele>106.8</ele>
        <time>2024-09-08T09:33:57Z</time>
      </trkpt>
      <trkpt lat="46.66128" lon="0.50995">
        <ele>107.6</ele>
        <time>2024-09-08T09:34:00Z</time>
      </trkpt>
      <trkpt lat="46.66135" lon="0.50987">
        <ele>108</ele>
        <time>2024-09-08T09:34:02Z</time>
      </trkpt>
      <trkpt lat="46.6616" lon="0.50966">
        <ele>108.4</ele>
        <time>2024-09-08T09:34:07Z</time>
      </trkpt>
      <trkpt lat="46.66182" lon="0.50942">
        <ele>107.6</ele>
        <time>2024-09-08T09:34:12Z</time>
      </trkpt>
      <trkpt lat="46.66204" lon="0.50922">
        <ele>106.8</ele>
        <time>2024-09-08T09:34:16Z</time>
      </trkpt>
      <trkpt lat="46.66223" lon="0.50903">
        <ele>106</ele>
        <time>2024-09-08T09:34:20Z</time>
      </trkpt>
      <trkpt lat="46.66256" lon="0.50867">
        <ele>105.8</ele>
        <time>2024-09-08T09:34:27Z</time>
      </trkpt>
      <trkpt lat="46.66264" lon="0.50858">
        <ele>105.6</ele>
        <time>2024-09-08T09:34:29Z</time>
      </trkpt>
      <trkpt lat="46.66282" lon="0.50839">
        <ele>105</ele>
        <time>2024-09-08T09:34:33Z</time>
      </trkpt>
      <trkpt lat="46.66318" lon="0.50802">
        <ele>106</ele>
        <time>2024-09-08T09:34:39Z</time>
      </trkpt>
      <trkpt lat="46.66329" lon="0.50793">
        <ele>106.8</ele>
        <time>2024-09-08T09:34:41Z</time>
      </trkpt>
      <trkpt lat="46.66346" lon="0.50775">
        <ele>107.2</ele>
        <time>2024-09-08T09:34:45Z</time>
      </trkpt>
      <trkpt lat="46.66364" lon="0.50754">
        <ele>107.8</ele>
        <time>2024-09-08T09:34:50Z</time>
      </trkpt>
      <trkpt lat="46.66372" lon="0.50746">
        <ele>108.2</ele>
        <time>2024-09-08T09:34:52Z</time>
      </trkpt>
      <trkpt lat="46.66384" lon="0.50733">
        <ele>109.2</ele>
        <time>2024-09-08T09:34:55Z</time>
      </trkpt>
      <trkpt lat="46.66399" lon="0.50717">
        <ele>110.2</ele>
        <time>2024-09-08T09:34:59Z</time>
      </trkpt>
      <trkpt lat="46.66403" lon="0.50713">
        <ele>110.6</ele>
        <time>2024-09-08T09:35:00Z</time>
      </trkpt>
      <trkpt lat="46.66416" lon="0.50698">
        <ele>111.2</ele>
        <time>2024-09-08T09:35:04Z</time>
      </trkpt>
      <trkpt lat="46.6642" lon="0.50694">
        <ele>111.4</ele>
        <time>2024-09-08T09:35:05Z</time>
      </trkpt>
      <trkpt lat="46.66446" lon="0.50667">
        <ele>112</ele>
        <time>2024-09-08T09:35:12Z</time>
      </trkpt>
      <trkpt lat="46.66468" lon="0.50642">
        <ele>112.4</ele>
        <time>2024-09-08T09:35:18Z</time>
      </trkpt>
      <trkpt lat="46.66496" lon="0.50612">
        <ele>112</ele>
        <time>2024-09-08T09:35:25Z</time>
      </trkpt>
      <trkpt lat="46.66523" lon="0.50582">
        <ele>112</ele>
        <time>2024-09-08T09:35:32Z</time>
      </trkpt>
      <trkpt lat="46.6656" lon="0.50545">
        <ele>112.2</ele>
        <time>2024-09-08T09:35:41Z</time>
      </trkpt>
      <trkpt lat="46.6658" lon="0.50524">
        <ele>113.2</ele>
        <time>2024-09-08T09:35:47Z</time>
      </trkpt>
      <trkpt lat="46.66583" lon="0.5052">
        <ele>113.6</ele>
        <time>2024-09-08T09:35:48Z</time>
      </trkpt>
      <trkpt lat="46.66592" lon="0.5051">
        <ele>114.2</ele>
        <time>2024-09-08T09:35:52Z</time>
      </trkpt>
      <trkpt lat="46.66599" lon="0.50502">
        <ele>114.6</ele>
        <time>2024-09-08T09:35:55Z</time>
      </trkpt>
      <trkpt lat="46.66605" lon="0.50495">
        <ele>115.2</ele>
        <time>2024-09-08T09:35:57Z</time>
      </trkpt>
      <trkpt lat="46.66611" lon="0.50488">
        <ele>115.8</ele>
        <time>2024-09-08T09:35:59Z</time>
      </trkpt>
      <trkpt lat="46.66634" lon="0.50464">
        <ele>116.8</ele>
        <time>2024-09-08T09:36:06Z</time>
      </trkpt>
      <trkpt lat="46.66645" lon="0.50452">
        <ele>117</ele>
        <time>2024-09-08T09:36:09Z</time>
      </trkpt>
      <trkpt lat="46.66661" lon="0.50435">
        <ele>117.8</ele>
        <time>2024-09-08T09:36:13Z</time>
      </trkpt>
      <trkpt lat="46.66665" lon="0.50431">
        <ele>118</ele>
        <time>2024-09-08T09:36:14Z</time>
      </trkpt>
      <trkpt lat="46.66691" lon="0.50404">
        <ele>118.8</ele>
        <time>2024-09-08T09:36:21Z</time>
      </trkpt>
      <trkpt lat="46.66716" lon="0.50378">
        <ele>119.2</ele>
        <time>2024-09-08T09:36:28Z</time>
      </trkpt>
      <trkpt lat="46.66723" lon="0.50371">
        <ele>119.4</ele>
        <time>2024-09-08T09:36:30Z</time>
      </trkpt>
      <trkpt lat="46.66738" lon="0.50356">
        <ele>120.2</ele>
        <time>2024-09-08T09:36:34Z</time>
      </trkpt>
      <trkpt lat="46.66748" lon="0.50344">
        <ele>120.8</ele>
        <time>2024-09-08T09:36:37Z</time>
      </trkpt>
      <trkpt lat="46.66766" lon="0.50326">
        <ele>121.4</ele>
        <time>2024-09-08T09:36:42Z</time>
      </trkpt>
      <trkpt lat="46.66776" lon="0.50315">
        <ele>122.6</ele>
        <time>2024-09-08T09:36:45Z</time>
      </trkpt>
      <trkpt lat="46.66793" lon="0.50297">
        <ele>123.8</ele>
        <time>2024-09-08T09:36:50Z</time>
      </trkpt>
      <trkpt lat="46.66803" lon="0.50287">
        <ele>124.2</ele>
        <time>2024-09-08T09:36:53Z</time>
      </trkpt>
      <trkpt lat="46.66813" lon="0.50276">
        <ele>125</ele>
        <time>2024-09-08T09:36:56Z</time>
      </trkpt>
      <trkpt lat="46.66825" lon="0.50263">
        <ele>126</ele>
        <time>2024-09-08T09:37:00Z</time>
      </trkpt>
      <trkpt lat="46.66827" lon="0.5026">
        <ele>126.2</ele>
        <time>2024-09-08T09:37:01Z</time>
      </trkpt>
      <trkpt lat="46.66838" lon="0.50249">
        <ele>127.2</ele>
        <time>2024-09-08T09:37:05Z</time>
      </trkpt>
      <trkpt lat="46.66845" lon="0.50241">
        <ele>128</ele>
        <time>2024-09-08T09:37:08Z</time>
      </trkpt>
      <trkpt lat="46.66847" lon="0.50238">
        <ele>128.4</ele>
        <time>2024-09-08T09:37:09Z</time>
      </trkpt>
      <trkpt lat="46.66857" lon="0.50229">
        <ele>129.6</ele>
        <time>2024-09-08T09:37:13Z</time>
      </trkpt>
      <trkpt lat="46.66865" lon="0.50222">
        <ele>130.2</ele>
        <time>2024-09-08T09:37:16Z</time>
      </trkpt>
      <trkpt lat="46.66873" lon="0.50215">
        <ele>130.6</ele>
        <time>2024-09-08T09:37:19Z</time>
      </trkpt>
      <trkpt lat="46.66882" lon="0.50205">
        <ele>131.6</ele>
        <time>2024-09-08T09:37:23Z</time>
      </trkpt>
      <trkpt lat="46.66893" lon="0.50193">
        <ele>132.6</ele>
        <time>2024-09-08T09:37:28Z</time>
      </trkpt>
      <trkpt lat="46.66895" lon="0.50191">
        <ele>132.8</ele>
        <time>2024-09-08T09:37:29Z</time>
      </trkpt>
      <trkpt lat="46.66905" lon="0.50179">
        <ele>133.8</ele>
        <time>2024-09-08T09:37:33Z</time>
      </trkpt>
      <trkpt lat="46.66919" lon="0.50164">
        <ele>135</ele>
        <time>2024-09-08T09:37:38Z</time>
      </trkpt>
      <trkpt lat="46.66921" lon="0.50161">
        <ele>135.2</ele>
        <time>2024-09-08T09:37:39Z</time>
      </trkpt>
      <trkpt lat="46.66932" lon="0.50148">
        <ele>136.2</ele>
        <time>2024-09-08T09:37:43Z</time>
      </trkpt>
      <trkpt lat="46.66941" lon="0.50137">
        <ele>136.6</ele>
        <time>2024-09-08T09:37:46Z</time>
      </trkpt>
      <trkpt lat="46.66953" lon="0.50125">
        <ele>137.2</ele>
        <time>2024-09-08T09:37:50Z</time>
      </trkpt>
      <trkpt lat="46.66962" lon="0.50116">
        <ele>137.6</ele>
        <time>2024-09-08T09:37:53Z</time>
      </trkpt>
      <trkpt lat="46.66984" lon="0.50093">
        <ele>138.2</ele>
        <time>2024-09-08T09:38:00Z</time>
      </trkpt>
      <trkpt lat="46.67009" lon="0.50067">
        <ele>138.4</ele>
        <time>2024-09-08T09:38:07Z</time>
      </trkpt>
      <trkpt lat="46.67037" lon="0.50038">
        <ele>139.2</ele>
        <time>2024-09-08T09:38:15Z</time>
      </trkpt>
      <trkpt lat="46.6704" lon="0.50034">
        <ele>139.4</ele>
        <time>2024-09-08T09:38:16Z</time>
      </trkpt>
      <trkpt lat="46.67058" lon="0.50012">
        <ele>139.8</ele>
        <time>2024-09-08T09:38:22Z</time>
      </trkpt>
      <trkpt lat="46.67076" lon="0.49995">
        <ele>139.8</ele>
        <time>2024-09-08T09:38:28Z</time>
      </trkpt>
      <trkpt lat="46.67091" lon="0.4998">
        <ele>139.6</ele>
        <time>2024-09-08T09:38:34Z</time>
      </trkpt>
      <trkpt lat="46.67105" lon="0.49966">
        <ele>139.6</ele>
        <time>2024-09-08T09:38:41Z</time>
      </trkpt>
      <trkpt lat="46.67121" lon="0.49947">
        <ele>139.6</ele>
        <time>2024-09-08T09:38:47Z</time>
      </trkpt>
      <trkpt lat="46.67142" lon="0.49925">
        <ele>139.2</ele>
        <time>2024-09-08T09:38:53Z</time>
      </trkpt>
      <trkpt lat="46.67163" lon="0.49898">
        <ele>138.2</ele>
        <time>2024-09-08T09:38:59Z</time>
      </trkpt>
      <trkpt lat="46.67168" lon="0.49893">
        <ele>138</ele>
        <time>2024-09-08T09:39:00Z</time>
      </trkpt>
      <trkpt lat="46.67185" lon="0.49873">
        <ele>137.2</ele>
        <time>2024-09-08T09:39:03Z</time>
      </trkpt>
      <trkpt lat="46.67198" lon="0.49859">
        <ele>136.4</ele>
        <time>2024-09-08T09:39:05Z</time>
      </trkpt>
      <trkpt lat="46.67212" lon="0.49844">
        <ele>135.6</ele>
        <time>2024-09-08T09:39:07Z</time>
      </trkpt>
      <trkpt lat="46.67232" lon="0.49821">
        <ele>134.4</ele>
        <time>2024-09-08T09:39:10Z</time>
      </trkpt>
      <trkpt lat="46.67246" lon="0.49807">
        <ele>134.2</ele>
        <time>2024-09-08T09:39:12Z</time>
      </trkpt>
      <trkpt lat="46.67285" lon="0.49767">
        <ele>134</ele>
        <time>2024-09-08T09:39:18Z</time>
      </trkpt>
      <trkpt lat="46.6732" lon="0.4973">
        <ele>135.6</ele>
        <time>2024-09-08T09:39:25Z</time>
      </trkpt>
      <trkpt lat="46.67341" lon="0.49706">
        <ele>137.2</ele>
        <time>2024-09-08T09:39:30Z</time>
      </trkpt>
      <trkpt lat="46.67349" lon="0.49697">
        <ele>137.8</ele>
        <time>2024-09-08T09:39:32Z</time>
      </trkpt>
      <trkpt lat="46.67361" lon="0.49684">
        <ele>138.2</ele>
        <time>2024-09-08T09:39:35Z</time>
      </trkpt>
      <trkpt lat="46.67364" lon="0.4968">
        <ele>138.6</ele>
        <time>2024-09-08T09:39:36Z</time>
      </trkpt>
      <trkpt lat="46.67371" lon="0.49673">
        <ele>139.2</ele>
        <time>2024-09-08T09:39:38Z</time>
      </trkpt>
      <trkpt lat="46.67382" lon="0.4966">
        <ele>140.4</ele>
        <time>2024-09-08T09:39:41Z</time>
      </trkpt>
      <trkpt lat="46.674" lon="0.49641">
        <ele>141.4</ele>
        <time>2024-09-08T09:39:45Z</time>
      </trkpt>
      <trkpt lat="46.67419" lon="0.49621">
        <ele>142.6</ele>
        <time>2024-09-08T09:39:50Z</time>
      </trkpt>
      <trkpt lat="46.67426" lon="0.49613">
        <ele>143</ele>
        <time>2024-09-08T09:39:52Z</time>
      </trkpt>
      <trkpt lat="46.67438" lon="0.49602">
        <ele>143.8</ele>
        <time>2024-09-08T09:39:55Z</time>
      </trkpt>
      <trkpt lat="46.67449" lon="0.49588">
        <ele>144.2</ele>
        <time>2024-09-08T09:39:58Z</time>
      </trkpt>
      <trkpt lat="46.67473" lon="0.49565">
        <ele>144.8</ele>
        <time>2024-09-08T09:40:04Z</time>
      </trkpt>
      <trkpt lat="46.67481" lon="0.49557">
        <ele>144.8</ele>
        <time>2024-09-08T09:40:06Z</time>
      </trkpt>
      <trkpt lat="46.675" lon="0.49535">
        <ele>145.4</ele>
        <time>2024-09-08T09:40:11Z</time>
      </trkpt>
      <trkpt lat="46.67527" lon="0.49508">
        <ele>145.4</ele>
        <time>2024-09-08T09:40:17Z</time>
      </trkpt>
      <trkpt lat="46.67557" lon="0.49477">
        <ele>146</ele>
        <time>2024-09-08T09:40:24Z</time>
      </trkpt>
      <trkpt lat="46.67591" lon="0.49439">
        <ele>146.2</ele>
        <time>2024-09-08T09:40:31Z</time>
      </trkpt>
      <trkpt lat="46.67626" lon="0.49403">
        <ele>146.6</ele>
        <time>2024-09-08T09:40:38Z</time>
      </trkpt>
      <trkpt lat="46.67653" lon="0.49376">
        <ele>146</ele>
        <time>2024-09-08T09:40:44Z</time>
      </trkpt>
      <trkpt lat="46.67662" lon="0.49364">
        <ele>146</ele>
        <time>2024-09-08T09:40:47Z</time>
      </trkpt>
      <trkpt lat="46.67666" lon="0.49352">
        <ele>145.8</ele>
        <time>2024-09-08T09:40:49Z</time>
      </trkpt>
      <trkpt lat="46.67667" lon="0.49345">
        <ele>145.8</ele>
        <time>2024-09-08T09:40:50Z</time>
      </trkpt>
      <trkpt lat="46.67664" lon="0.49333">
        <ele>145.8</ele>
        <time>2024-09-08T09:40:52Z</time>
      </trkpt>
      <trkpt lat="46.6765" lon="0.493">
        <ele>146</ele>
        <time>2024-09-08T09:40:59Z</time>
      </trkpt>
      <trkpt lat="46.67631" lon="0.49262">
        <ele>145.6</ele>
        <time>2024-09-08T09:41:07Z</time>
      </trkpt>
      <trkpt lat="46.67612" lon="0.49224">
        <ele>146.4</ele>
        <time>2024-09-08T09:41:14Z</time>
      </trkpt>
      <trkpt lat="46.67592" lon="0.49184">
        <ele>146.6</ele>
        <time>2024-09-08T09:41:21Z</time>
      </trkpt>
      <trkpt lat="46.67571" lon="0.49143">
        <ele>146.8</ele>
        <time>2024-09-08T09:41:28Z</time>
      </trkpt>
      <trkpt lat="46.67568" lon="0.49137">
        <ele>147</ele>
        <time>2024-09-08T09:41:29Z</time>
      </trkpt>
      <trkpt lat="46.67547" lon="0.49094">
        <ele>146.6</ele>
        <time>2024-09-08T09:41:36Z</time>
      </trkpt>
      <trkpt lat="46.67529" lon="0.49055">
        <ele>146.6</ele>
        <time>2024-09-08T09:41:43Z</time>
      </trkpt>
      <trkpt lat="46.67512" lon="0.4902">
        <ele>146.4</ele>
        <time>2024-09-08T09:41:50Z</time>
      </trkpt>
      <trkpt lat="46.67495" lon="0.48982">
        <ele>146.6</ele>
        <time>2024-09-08T09:41:57Z</time>
      </trkpt>
      <trkpt lat="46.67472" lon="0.48935">
        <ele>146.6</ele>
        <time>2024-09-08T09:42:05Z</time>
      </trkpt>
      <trkpt lat="46.67443" lon="0.48886">
        <ele>147.2</ele>
        <time>2024-09-08T09:42:13Z</time>
      </trkpt>
      <trkpt lat="46.67416" lon="0.48835">
        <ele>147.8</ele>
        <time>2024-09-08T09:42:21Z</time>
      </trkpt>
      <trkpt lat="46.67392" lon="0.48786">
        <ele>147.2</ele>
        <time>2024-09-08T09:42:29Z</time>
      </trkpt>
      <trkpt lat="46.67375" lon="0.48756">
        <ele>147.2</ele>
        <time>2024-09-08T09:42:34Z</time>
      </trkpt>
      <trkpt lat="46.67353" lon="0.4871">
        <ele>147.4</ele>
        <time>2024-09-08T09:42:41Z</time>
      </trkpt>
      <trkpt lat="46.67325" lon="0.48657">
        <ele>147.2</ele>
        <time>2024-09-08T09:42:49Z</time>
      </trkpt>
      <trkpt lat="46.67295" lon="0.48599">
        <ele>146.4</ele>
        <time>2024-09-08T09:42:58Z</time>
      </trkpt>
      <trkpt lat="46.67273" lon="0.48549">
        <ele>146</ele>
        <time>2024-09-08T09:43:05Z</time>
      </trkpt>
      <trkpt lat="46.6727" lon="0.48543">
        <ele>145.8</ele>
        <time>2024-09-08T09:43:06Z</time>
      </trkpt>
      <trkpt lat="46.6725" lon="0.48494">
        <ele>146.4</ele>
        <time>2024-09-08T09:43:13Z</time>
      </trkpt>
      <trkpt lat="46.6724" lon="0.48452">
        <ele>146.2</ele>
        <time>2024-09-08T09:43:19Z</time>
      </trkpt>
      <trkpt lat="46.67234" lon="0.48421">
        <ele>146.2</ele>
        <time>2024-09-08T09:43:24Z</time>
      </trkpt>
      <trkpt lat="46.67232" lon="0.48416">
        <ele>146.2</ele>
        <time>2024-09-08T09:43:25Z</time>
      </trkpt>
      <trkpt lat="46.67229" lon="0.48411">
        <ele>146.2</ele>
        <time>2024-09-08T09:43:26Z</time>
      </trkpt>
      <trkpt lat="46.67216" lon="0.48395">
        <ele>146.6</ele>
        <time>2024-09-08T09:43:30Z</time>
      </trkpt>
      <trkpt lat="46.672" lon="0.4838">
        <ele>147</ele>
        <time>2024-09-08T09:43:34Z</time>
      </trkpt>
      <trkpt lat="46.67185" lon="0.48366">
        <ele>147.2</ele>
        <time>2024-09-08T09:43:37Z</time>
      </trkpt>
      <trkpt lat="46.67157" lon="0.48341">
        <ele>146.6</ele>
        <time>2024-09-08T09:43:44Z</time>
      </trkpt>
      <trkpt lat="46.67154" lon="0.48339">
        <ele>146.2</ele>
        <time>2024-09-08T09:43:46Z</time>
      </trkpt>
      <trkpt lat="46.67153" lon="0.48333">
        <ele>146</ele>
        <time>2024-09-08T09:43:48Z</time>
      </trkpt>
      <trkpt lat="46.67154" lon="0.48331">
        <ele>146</ele>
        <time>2024-09-08T09:43:49Z</time>
      </trkpt>
      <trkpt lat="46.67155" lon="0.48325">
        <ele>145.8</ele>
        <time>2024-09-08T09:43:51Z</time>
      </trkpt>
      <trkpt lat="46.67154" lon="0.48321">
        <ele>146</ele>
        <time>2024-09-08T09:43:52Z</time>
      </trkpt>
      <trkpt lat="46.67142" lon="0.48292">
        <ele>145.6</ele>
        <time>2024-09-08T09:43:58Z</time>
      </trkpt>
      <trkpt lat="46.67123" lon="0.48251">
        <ele>144.8</ele>
        <time>2024-09-08T09:44:05Z</time>
      </trkpt>
      <trkpt lat="46.6712" lon="0.48245">
        <ele>144.6</ele>
        <time>2024-09-08T09:44:06Z</time>
      </trkpt>
      <trkpt lat="46.67105" lon="0.48207">
        <ele>144.2</ele>
        <time>2024-09-08T09:44:12Z</time>
      </trkpt>
      <trkpt lat="46.67099" lon="0.48196">
        <ele>143.8</ele>
        <time>2024-09-08T09:44:14Z</time>
      </trkpt>
      <trkpt lat="46.67088" lon="0.4817">
        <ele>142.8</ele>
        <time>2024-09-08T09:44:18Z</time>
      </trkpt>
      <trkpt lat="46.67085" lon="0.48164">
        <ele>142.4</ele>
        <time>2024-09-08T09:44:19Z</time>
      </trkpt>
      <trkpt lat="46.67076" lon="0.48146">
        <ele>141.4</ele>
        <time>2024-09-08T09:44:22Z</time>
      </trkpt>
      <trkpt lat="46.6707" lon="0.48132">
        <ele>141</ele>
        <time>2024-09-08T09:44:24Z</time>
      </trkpt>
      <trkpt lat="46.67042" lon="0.48079">
        <ele>140.2</ele>
        <time>2024-09-08T09:44:32Z</time>
      </trkpt>
      <trkpt lat="46.67028" lon="0.4805">
        <ele>139</ele>
        <time>2024-09-08T09:44:36Z</time>
      </trkpt>
      <trkpt lat="46.67017" lon="0.48029">
        <ele>138.4</ele>
        <time>2024-09-08T09:44:39Z</time>
      </trkpt>
      <trkpt lat="46.67012" lon="0.48017">
        <ele>137.8</ele>
        <time>2024-09-08T09:44:41Z</time>
      </trkpt>
      <trkpt lat="46.6701" lon="0.48009">
        <ele>137.2</ele>
        <time>2024-09-08T09:44:43Z</time>
      </trkpt>
      <trkpt lat="46.67003" lon="0.47994">
        <ele>137</ele>
        <time>2024-09-08T09:44:48Z</time>
      </trkpt>
      <trkpt lat="46.67003" lon="0.47966">
        <ele>137</ele>
        <time>2024-09-08T09:44:53Z</time>
      </trkpt>
      <trkpt lat="46.67003" lon="0.4796">
        <ele>136.8</ele>
        <time>2024-09-08T09:44:54Z</time>
      </trkpt>
      <trkpt lat="46.67007" lon="0.47938">
        <ele>136.6</ele>
        <time>2024-09-08T09:44:57Z</time>
      </trkpt>
      <trkpt lat="46.67007" lon="0.4793">
        <ele>136.4</ele>
        <time>2024-09-08T09:44:58Z</time>
      </trkpt>
      <trkpt lat="46.67007" lon="0.47923">
        <ele>136.2</ele>
        <time>2024-09-08T09:44:59Z</time>
      </trkpt>
      <trkpt lat="46.67007" lon="0.47923">
        <ele>135.8</ele>
        <time>2024-09-08T09:45:02Z</time>
      </trkpt>
      <trkpt lat="46.67008" lon="0.47889">
        <ele>135.2</ele>
        <time>2024-09-08T09:45:04Z</time>
      </trkpt>
      <trkpt lat="46.6701" lon="0.4785">
        <ele>134.6</ele>
        <time>2024-09-08T09:45:09Z</time>
      </trkpt>
      <trkpt lat="46.6701" lon="0.47832">
        <ele>134.4</ele>
        <time>2024-09-08T09:45:11Z</time>
      </trkpt>
      <trkpt lat="46.67013" lon="0.47791">
        <ele>133.6</ele>
        <time>2024-09-08T09:45:16Z</time>
      </trkpt>
      <trkpt lat="46.67017" lon="0.47751">
        <ele>132.2</ele>
        <time>2024-09-08T09:45:21Z</time>
      </trkpt>
      <trkpt lat="46.67019" lon="0.4773">
        <ele>131.8</ele>
        <time>2024-09-08T09:45:23Z</time>
      </trkpt>
      <trkpt lat="46.67021" lon="0.47707">
        <ele>131</ele>
        <time>2024-09-08T09:45:25Z</time>
      </trkpt>
      <trkpt lat="46.67027" lon="0.47671">
        <ele>129.4</ele>
        <time>2024-09-08T09:45:28Z</time>
      </trkpt>
      <trkpt lat="46.6703" lon="0.47659">
        <ele>128.2</ele>
        <time>2024-09-08T09:45:29Z</time>
      </trkpt>
      <trkpt lat="46.67035" lon="0.47632">
        <ele>126.6</ele>
        <time>2024-09-08T09:45:31Z</time>
      </trkpt>
      <trkpt lat="46.67037" lon="0.47616">
        <ele>126.2</ele>
        <time>2024-09-08T09:45:32Z</time>
      </trkpt>
      <trkpt lat="46.67039" lon="0.47601">
        <ele>126</ele>
        <time>2024-09-08T09:45:33Z</time>
      </trkpt>
      <trkpt lat="46.67039" lon="0.47554">
        <ele>125.4</ele>
        <time>2024-09-08T09:45:36Z</time>
      </trkpt>
      <trkpt lat="46.6704" lon="0.47526">
        <ele>123.6</ele>
        <time>2024-09-08T09:45:38Z</time>
      </trkpt>
      <trkpt lat="46.6704" lon="0.47499">
        <ele>122.2</ele>
        <time>2024-09-08T09:45:40Z</time>
      </trkpt>
      <trkpt lat="46.67041" lon="0.4746">
        <ele>120.8</ele>
        <time>2024-09-08T09:45:43Z</time>
      </trkpt>
      <trkpt lat="46.67041" lon="0.47448">
        <ele>120.2</ele>
        <time>2024-09-08T09:45:44Z</time>
      </trkpt>
      <trkpt lat="46.67041" lon="0.47437">
        <ele>119.8</ele>
        <time>2024-09-08T09:45:45Z</time>
      </trkpt>
      <trkpt lat="46.67043" lon="0.47392">
        <ele>118.6</ele>
        <time>2024-09-08T09:45:49Z</time>
      </trkpt>
      <trkpt lat="46.67043" lon="0.47381">
        <ele>118.4</ele>
        <time>2024-09-08T09:45:50Z</time>
      </trkpt>
      <trkpt lat="46.67044" lon="0.47357">
        <ele>117.2</ele>
        <time>2024-09-08T09:45:53Z</time>
      </trkpt>
      <trkpt lat="46.67044" lon="0.47351">
        <ele>116.8</ele>
        <time>2024-09-08T09:45:54Z</time>
      </trkpt>
      <trkpt lat="46.67044" lon="0.47347">
        <ele>116.4</ele>
        <time>2024-09-08T09:45:55Z</time>
      </trkpt>
      <trkpt lat="46.67043" lon="0.47341">
        <ele>116</ele>
        <time>2024-09-08T09:45:57Z</time>
      </trkpt>
      <trkpt lat="46.67042" lon="0.47339">
        <ele>115.8</ele>
        <time>2024-09-08T09:45:58Z</time>
      </trkpt>
      <trkpt lat="46.67037" lon="0.47336">
        <ele>115.6</ele>
        <time>2024-09-08T09:46:01Z</time>
      </trkpt>
      <trkpt lat="46.67036" lon="0.47334">
        <ele>115.6</ele>
        <time>2024-09-08T09:46:02Z</time>
      </trkpt>
      <trkpt lat="46.67036" lon="0.47331">
        <ele>115.6</ele>
        <time>2024-09-08T09:46:03Z</time>
      </trkpt>
      <trkpt lat="46.67038" lon="0.47319">
        <ele>115.2</ele>
        <time>2024-09-08T09:46:06Z</time>
      </trkpt>
      <trkpt lat="46.67036" lon="0.473">
        <ele>115</ele>
        <time>2024-09-08T09:46:10Z</time>
      </trkpt>
      <trkpt lat="46.67034" lon="0.47297">
        <ele>114.8</ele>
        <time>2024-09-08T09:46:11Z</time>
      </trkpt>
      <trkpt lat="46.67031" lon="0.47296">
        <ele>114.8</ele>
        <time>2024-09-08T09:46:12Z</time>
      </trkpt>
      <trkpt lat="46.67023" lon="0.47295">
        <ele>114.6</ele>
        <time>2024-09-08T09:46:15Z</time>
      </trkpt>
      <trkpt lat="46.67017" lon="0.47294">
        <ele>114.4</ele>
        <time>2024-09-08T09:46:17Z</time>
      </trkpt>
      <trkpt lat="46.67013" lon="0.47292">
        <ele>114.4</ele>
        <time>2024-09-08T09:46:19Z</time>
      </trkpt>
      <trkpt lat="46.67011" lon="0.4729">
        <ele>114.2</ele>
        <time>2024-09-08T09:46:21Z</time>
      </trkpt>
      <trkpt lat="46.67011" lon="0.47286">
        <ele>113.8</ele>
        <time>2024-09-08T09:46:24Z</time>
      </trkpt>
      <trkpt lat="46.67016" lon="0.47271">
        <ele>113.8</ele>
        <time>2024-09-08T09:46:29Z</time>
      </trkpt>
      <trkpt lat="46.67023" lon="0.4726">
        <ele>113.6</ele>
        <time>2024-09-08T09:46:33Z</time>
      </trkpt>
      <trkpt lat="46.67023" lon="0.4725">
        <ele>113.2</ele>
        <time>2024-09-08T09:46:36Z</time>
      </trkpt>
      <trkpt lat="46.67024" lon="0.47246">
        <ele>113</ele>
        <time>2024-09-08T09:46:37Z</time>
      </trkpt>
      <trkpt lat="46.67026" lon="0.47233">
        <ele>113.2</ele>
        <time>2024-09-08T09:46:40Z</time>
      </trkpt>
      <trkpt lat="46.67025" lon="0.4723">
        <ele>113.2</ele>
        <time>2024-09-08T09:46:41Z</time>
      </trkpt>
      <trkpt lat="46.67024" lon="0.47223">
        <ele>113</ele>
        <time>2024-09-08T09:46:43Z</time>
      </trkpt>
      <trkpt lat="46.67025" lon="0.4722">
        <ele>112.8</ele>
        <time>2024-09-08T09:46:44Z</time>
      </trkpt>
      <trkpt lat="46.67026" lon="0.47218">
        <ele>112.6</ele>
        <time>2024-09-08T09:46:45Z</time>
      </trkpt>
      <trkpt lat="46.67034" lon="0.47204">
        <ele>112</ele>
        <time>2024-09-08T09:46:50Z</time>
      </trkpt>
      <trkpt lat="46.67041" lon="0.47177">
        <ele>112</ele>
        <time>2024-09-08T09:46:56Z</time>
      </trkpt>
      <trkpt lat="46.67043" lon="0.47153">
        <ele>111.8</ele>
        <time>2024-09-08T09:47:01Z</time>
      </trkpt>
      <trkpt lat="46.67044" lon="0.47144">
        <ele>111.2</ele>
        <time>2024-09-08T09:47:03Z</time>
      </trkpt>
      <trkpt lat="46.67045" lon="0.47133">
        <ele>110.8</ele>
        <time>2024-09-08T09:47:06Z</time>
      </trkpt>
      <trkpt lat="46.67044" lon="0.47124">
        <ele>110.4</ele>
        <time>2024-09-08T09:47:08Z</time>
      </trkpt>
      <trkpt lat="46.6704" lon="0.47103">
        <ele>109.8</ele>
        <time>2024-09-08T09:47:13Z</time>
      </trkpt>
      <trkpt lat="46.67041" lon="0.47098">
        <ele>109.6</ele>
        <time>2024-09-08T09:47:14Z</time>
      </trkpt>
      <trkpt lat="46.67043" lon="0.47088">
        <ele>109</ele>
        <time>2024-09-08T09:47:17Z</time>
      </trkpt>
      <trkpt lat="46.67044" lon="0.4708">
        <ele>108.8</ele>
        <time>2024-09-08T09:47:19Z</time>
      </trkpt>
      <trkpt lat="46.67044" lon="0.47072">
        <ele>108.4</ele>
        <time>2024-09-08T09:47:21Z</time>
      </trkpt>
      <trkpt lat="46.67044" lon="0.47067">
        <ele>108.4</ele>
        <time>2024-09-08T09:47:22Z</time>
      </trkpt>
      <trkpt lat="46.67043" lon="0.47053">
        <ele>107.8</ele>
        <time>2024-09-08T09:47:25Z</time>
      </trkpt>
      <trkpt lat="46.6704" lon="0.47044">
        <ele>107.6</ele>
        <time>2024-09-08T09:47:27Z</time>
      </trkpt>
      <trkpt lat="46.67039" lon="0.47039">
        <ele>107.4</ele>
        <time>2024-09-08T09:47:28Z</time>
      </trkpt>
      <trkpt lat="46.6703" lon="0.47014">
        <ele>106.8</ele>
        <time>2024-09-08T09:47:33Z</time>
      </trkpt>
      <trkpt lat="46.67028" lon="0.47004">
        <ele>106.4</ele>
        <time>2024-09-08T09:47:34Z</time>
      </trkpt>
      <trkpt lat="46.67027" lon="0.46993">
        <ele>106</ele>
        <time>2024-09-08T09:47:37Z</time>
      </trkpt>
      <trkpt lat="46.67024" lon="0.46974">
        <ele>106</ele>
        <time>2024-09-08T09:47:41Z</time>
      </trkpt>
      <trkpt lat="46.67023" lon="0.46974">
        <ele>105.6</ele>
        <time>2024-09-08T09:47:42Z</time>
      </trkpt>
      <trkpt lat="46.67021" lon="0.46976">
        <ele>105.4</ele>
        <time>2024-09-08T09:47:44Z</time>
      </trkpt>
      <trkpt lat="46.67022" lon="0.46978">
        <ele>105.4</ele>
        <time>2024-09-08T09:47:46Z</time>
      </trkpt>
      <trkpt lat="46.67021" lon="0.4698">
        <ele>105.4</ele>
        <time>2024-09-08T09:47:47Z</time>
      </trkpt>
      <trkpt lat="46.67019" lon="0.46983">
        <ele>105.4</ele>
        <time>2024-09-08T09:47:49Z</time>
      </trkpt>
      <trkpt lat="46.67016" lon="0.46982">
        <ele>105.4</ele>
        <time>2024-09-08T09:47:50Z</time>
      </trkpt>
      <trkpt lat="46.67014" lon="0.4698">
        <ele>105.4</ele>
        <time>2024-09-08T09:47:51Z</time>
      </trkpt>
      <trkpt lat="46.67013" lon="0.46974">
        <ele>105.4</ele>
        <time>2024-09-08T09:47:53Z</time>
      </trkpt>
      <trkpt lat="46.67012" lon="0.46955">
        <ele>105.2</ele>
        <time>2024-09-08T09:47:58Z</time>
      </trkpt>
      <trkpt lat="46.67015" lon="0.46944">
        <ele>105</ele>
        <time>2024-09-08T09:48:01Z</time>
      </trkpt>
      <trkpt lat="46.67016" lon="0.46943">
        <ele>105</ele>
        <time>2024-09-08T09:48:02Z</time>
      </trkpt>
      <trkpt lat="46.67018" lon="0.46941">
        <ele>104.8</ele>
        <time>2024-09-08T09:48:04Z</time>
      </trkpt>
      <trkpt lat="46.67018" lon="0.46938">
        <ele>105</ele>
        <time>2024-09-08T09:48:06Z</time>
      </trkpt>
      <trkpt lat="46.67014" lon="0.46933">
        <ele>105</ele>
        <time>2024-09-08T09:48:09Z</time>
      </trkpt>
      <trkpt lat="46.67012" lon="0.46932">
        <ele>105</ele>
        <time>2024-09-08T09:48:10Z</time>
      </trkpt>
      <trkpt lat="46.67004" lon="0.46934">
        <ele>105.2</ele>
        <time>2024-09-08T09:48:13Z</time>
      </trkpt>
      <trkpt lat="46.67003" lon="0.46937">
        <ele>105.2</ele>
        <time>2024-09-08T09:48:14Z</time>
      </trkpt>
      <trkpt lat="46.67" lon="0.46942">
        <ele>105.2</ele>
        <time>2024-09-08T09:48:18Z</time>
      </trkpt>
      <trkpt lat="46.66996" lon="0.46944">
        <ele>105.6</ele>
        <time>2024-09-08T09:48:20Z</time>
      </trkpt>
      <trkpt lat="46.66988" lon="0.4695">
        <ele>106</ele>
        <time>2024-09-08T09:48:24Z</time>
      </trkpt>
      <trkpt lat="46.66986" lon="0.46955">
        <ele>106.2</ele>
        <time>2024-09-08T09:48:26Z</time>
      </trkpt>
      <trkpt lat="46.66983" lon="0.46959">
        <ele>106.4</ele>
        <time>2024-09-08T09:48:28Z</time>
      </trkpt>
      <trkpt lat="46.66978" lon="0.46958">
        <ele>106.6</ele>
        <time>2024-09-08T09:48:30Z</time>
      </trkpt>
      <trkpt lat="46.6697" lon="0.4695">
        <ele>106</ele>
        <time>2024-09-08T09:48:35Z</time>
      </trkpt>
      <trkpt lat="46.66968" lon="0.46953">
        <ele>106</ele>
        <time>2024-09-08T09:48:37Z</time>
      </trkpt>
      <trkpt lat="46.66965" lon="0.46958">
        <ele>106</ele>
        <time>2024-09-08T09:48:40Z</time>
      </trkpt>
      <trkpt lat="46.66963" lon="0.46967">
        <ele>106.2</ele>
        <time>2024-09-08T09:48:45Z</time>
      </trkpt>
      <trkpt lat="46.66963" lon="0.46973">
        <ele>106.2</ele>
        <time>2024-09-08T09:48:48Z</time>
      </trkpt>
      <trkpt lat="46.66965" lon="0.46974">
        <ele>106.4</ele>
        <time>2024-09-08T09:48:50Z</time>
      </trkpt>
      <trkpt lat="46.66966" lon="0.46974">
        <ele>106.4</ele>
        <time>2024-09-08T09:48:51Z</time>
      </trkpt>
      <trkpt lat="46.66972" lon="0.46972">
        <ele>106</ele>
        <time>2024-09-08T09:48:56Z</time>
      </trkpt>
      <trkpt lat="46.66974" lon="0.46973">
        <ele>105.8</ele>
        <time>2024-09-08T09:48:57Z</time>
      </trkpt>
      <trkpt lat="46.66975" lon="0.46976">
        <ele>105.8</ele>
        <time>2024-09-08T09:48:58Z</time>
      </trkpt>
      <trkpt lat="46.66977" lon="0.46986">
        <ele>105.8</ele>
        <time>2024-09-08T09:49:01Z</time>
      </trkpt>
      <trkpt lat="46.66981" lon="0.47006">
        <ele>106.8</ele>
        <time>2024-09-08T09:49:08Z</time>
      </trkpt>
      <trkpt lat="46.66981" lon="0.47008">
        <ele>107</ele>
        <time>2024-09-08T09:49:09Z</time>
      </trkpt>
      <trkpt lat="46.66981" lon="0.47013">
        <ele>106.8</ele>
        <time>2024-09-08T09:49:11Z</time>
      </trkpt>
      <trkpt lat="46.6698" lon="0.47017">
        <ele>107</ele>
        <time>2024-09-08T09:49:13Z</time>
      </trkpt>
      <trkpt lat="46.66971" lon="0.47021">
        <ele>107.2</ele>
        <time>2024-09-08T09:49:18Z</time>
      </trkpt>
      <trkpt lat="46.66967" lon="0.47029">
        <ele>107.4</ele>
        <time>2024-09-08T09:49:24Z</time>
      </trkpt>
      <trkpt lat="46.66964" lon="0.47032">
        <ele>107</ele>
        <time>2024-09-08T09:49:26Z</time>
      </trkpt>
      <trkpt lat="46.66959" lon="0.47032">
        <ele>107.4</ele>
        <time>2024-09-08T09:49:28Z</time>
      </trkpt>
      <trkpt lat="46.66956" lon="0.47031">
        <ele>107.4</ele>
        <time>2024-09-08T09:49:29Z</time>
      </trkpt>
      <trkpt lat="46.66954" lon="0.4703">
        <ele>107.4</ele>
        <time>2024-09-08T09:49:30Z</time>
      </trkpt>
      <trkpt lat="46.66951" lon="0.47026">
        <ele>107.6</ele>
        <time>2024-09-08T09:49:32Z</time>
      </trkpt>
      <trkpt lat="46.66946" lon="0.47021">
        <ele>107.8</ele>
        <time>2024-09-08T09:49:35Z</time>
      </trkpt>
      <trkpt lat="46.66945" lon="0.4702">
        <ele>108</ele>
        <time>2024-09-08T09:49:36Z</time>
      </trkpt>
      <trkpt lat="46.66941" lon="0.47013">
        <ele>108</ele>
        <time>2024-09-08T09:49:39Z</time>
      </trkpt>
      <trkpt lat="46.66941" lon="0.4699">
        <ele>107.6</ele>
        <time>2024-09-08T09:49:45Z</time>
      </trkpt>
      <trkpt lat="46.66945" lon="0.46972">
        <ele>106.6</ele>
        <time>2024-09-08T09:49:50Z</time>
      </trkpt>
      <trkpt lat="46.66946" lon="0.46967">
        <ele>106.4</ele>
        <time>2024-09-08T09:49:52Z</time>
      </trkpt>
      <trkpt lat="46.66947" lon="0.46965">
        <ele>106.4</ele>
        <time>2024-09-08T09:49:53Z</time>
      </trkpt>
      <trkpt lat="46.66947" lon="0.46963">
        <ele>106.4</ele>
        <time>2024-09-08T09:49:54Z</time>
      </trkpt>
      <trkpt lat="46.66948" lon="0.46959">
        <ele>106.2</ele>
        <time>2024-09-08T09:49:56Z</time>
      </trkpt>
      <trkpt lat="46.66951" lon="0.46954">
        <ele>105.8</ele>
        <time>2024-09-08T09:49:59Z</time>
      </trkpt>
      <trkpt lat="46.66951" lon="0.46952">
        <ele>105.8</ele>
        <time>2024-09-08T09:50:00Z</time>
      </trkpt>
      <trkpt lat="46.66953" lon="0.46946">
        <ele>105.4</ele>
        <time>2024-09-08T09:50:04Z</time>
      </trkpt>
      <trkpt lat="46.66954" lon="0.46945">
        <ele>105.2</ele>
        <time>2024-09-08T09:50:05Z</time>
      </trkpt>
      <trkpt lat="46.66956" lon="0.46943">
        <ele>105</ele>
        <time>2024-09-08T09:50:06Z</time>
      </trkpt>
      <trkpt lat="46.66963" lon="0.46931">
        <ele>104.4</ele>
        <time>2024-09-08T09:50:11Z</time>
      </trkpt>
      <trkpt lat="46.66964" lon="0.46929">
        <ele>104.4</ele>
        <time>2024-09-08T09:50:12Z</time>
      </trkpt>
      <trkpt lat="46.66971" lon="0.46924">
        <ele>104.2</ele>
        <time>2024-09-08T09:50:16Z</time>
      </trkpt>
      <trkpt lat="46.66975" lon="0.46923">
        <ele>104.4</ele>
        <time>2024-09-08T09:50:18Z</time>
      </trkpt>
      <trkpt lat="46.6698" lon="0.46925">
        <ele>104.4</ele>
        <time>2024-09-08T09:50:20Z</time>
      </trkpt>
      <trkpt lat="46.66993" lon="0.46927">
        <ele>104.6</ele>
        <time>2024-09-08T09:50:25Z</time>
      </trkpt>
      <trkpt lat="46.66995" lon="0.46927">
        <ele>104.6</ele>
        <time>2024-09-08T09:50:26Z</time>
      </trkpt>
      <trkpt lat="46.66999" lon="0.46923">
        <ele>104.8</ele>
        <time>2024-09-08T09:50:28Z</time>
      </trkpt>
      <trkpt lat="46.67001" lon="0.46918">
        <ele>105</ele>
        <time>2024-09-08T09:50:29Z</time>
      </trkpt>
      <trkpt lat="46.67003" lon="0.46908">
        <ele>105.2</ele>
        <time>2024-09-08T09:50:32Z</time>
      </trkpt>
      <trkpt lat="46.67006" lon="0.46904">
        <ele>104.8</ele>
        <time>2024-09-08T09:50:34Z</time>
      </trkpt>
      <trkpt lat="46.6701" lon="0.46902">
        <ele>104.4</ele>
        <time>2024-09-08T09:50:36Z</time>
      </trkpt>
      <trkpt lat="46.67012" lon="0.46899">
        <ele>104.2</ele>
        <time>2024-09-08T09:50:38Z</time>
      </trkpt>
      <trkpt lat="46.67014" lon="0.46896">
        <ele>104.2</ele>
        <time>2024-09-08T09:50:39Z</time>
      </trkpt>
      <trkpt lat="46.67015" lon="0.46892">
        <ele>104.2</ele>
        <time>2024-09-08T09:50:40Z</time>
      </trkpt>
      <trkpt lat="46.67016" lon="0.4686">
        <ele>104.2</ele>
        <time>2024-09-08T09:50:45Z</time>
      </trkpt>
      <trkpt lat="46.67018" lon="0.46821">
        <ele>103.6</ele>
        <time>2024-09-08T09:50:51Z</time>
      </trkpt>
      <trkpt lat="46.67025" lon="0.46786">
        <ele>103.4</ele>
        <time>2024-09-08T09:50:57Z</time>
      </trkpt>
      <trkpt lat="46.6703" lon="0.46751">
        <ele>103.4</ele>
        <time>2024-09-08T09:51:03Z</time>
      </trkpt>
      <trkpt lat="46.67033" lon="0.46723">
        <ele>103.2</ele>
        <time>2024-09-08T09:51:08Z</time>
      </trkpt>
      <trkpt lat="46.67038" lon="0.46668">
        <ele>103.4</ele>
        <time>2024-09-08T09:51:16Z</time>
      </trkpt>
      <trkpt lat="46.67039" lon="0.46652">
        <ele>103.2</ele>
        <time>2024-09-08T09:51:18Z</time>
      </trkpt>
      <trkpt lat="46.6704" lon="0.46615">
        <ele>103.2</ele>
        <time>2024-09-08T09:51:23Z</time>
      </trkpt>
      <trkpt lat="46.67039" lon="0.46601">
        <ele>103.2</ele>
        <time>2024-09-08T09:51:25Z</time>
      </trkpt>
      <trkpt lat="46.67036" lon="0.46584">
        <ele>103.2</ele>
        <time>2024-09-08T09:51:28Z</time>
      </trkpt>
      <trkpt lat="46.67031" lon="0.46566">
        <ele>103</ele>
        <time>2024-09-08T09:51:34Z</time>
      </trkpt>
      <trkpt lat="46.6703" lon="0.46551">
        <ele>103</ele>
        <time>2024-09-08T09:51:41Z</time>
      </trkpt>
      <trkpt lat="46.67039" lon="0.46539">
        <ele>103.2</ele>
        <time>2024-09-08T09:51:47Z</time>
      </trkpt>
      <trkpt lat="46.67046" lon="0.46521">
        <ele>103</ele>
        <time>2024-09-08T09:51:54Z</time>
      </trkpt>
      <trkpt lat="46.67052" lon="0.46502">
        <ele>103.4</ele>
        <time>2024-09-08T09:52:00Z</time>
      </trkpt>
      <trkpt lat="46.67054" lon="0.46489">
        <ele>103.8</ele>
        <time>2024-09-08T09:52:04Z</time>
      </trkpt>
      <trkpt lat="46.67054" lon="0.46486">
        <ele>104</ele>
        <time>2024-09-08T09:52:05Z</time>
      </trkpt>
      <trkpt lat="46.67054" lon="0.46484">
        <ele>104.2</ele>
        <time>2024-09-08T09:52:06Z</time>
      </trkpt>
      <trkpt lat="46.67052" lon="0.46477">
        <ele>104.8</ele>
        <time>2024-09-08T09:52:09Z</time>
      </trkpt>
      <trkpt lat="46.67051" lon="0.46475">
        <ele>105</ele>
        <time>2024-09-08T09:52:10Z</time>
      </trkpt>
      <trkpt lat="46.67049" lon="0.46473">
        <ele>105.4</ele>
        <time>2024-09-08T09:52:11Z</time>
      </trkpt>
      <trkpt lat="46.67042" lon="0.46464">
        <ele>106</ele>
        <time>2024-09-08T09:52:15Z</time>
      </trkpt>
      <trkpt lat="46.67039" lon="0.46447">
        <ele>106.2</ele>
        <time>2024-09-08T09:52:20Z</time>
      </trkpt>
      <trkpt lat="46.67037" lon="0.46441">
        <ele>106.6</ele>
        <time>2024-09-08T09:52:22Z</time>
      </trkpt>
      <trkpt lat="46.67035" lon="0.4644">
        <ele>107</ele>
        <time>2024-09-08T09:52:24Z</time>
      </trkpt>
      <trkpt lat="46.6703" lon="0.46443">
        <ele>107.2</ele>
        <time>2024-09-08T09:52:28Z</time>
      </trkpt>
      <trkpt lat="46.67026" lon="0.46443">
        <ele>107.2</ele>
        <time>2024-09-08T09:52:30Z</time>
      </trkpt>
      <trkpt lat="46.67011" lon="0.46437">
        <ele>107</ele>
        <time>2024-09-08T09:52:35Z</time>
      </trkpt>
      <trkpt lat="46.67003" lon="0.4643">
        <ele>106.8</ele>
        <time>2024-09-08T09:52:40Z</time>
      </trkpt>
      <trkpt lat="46.67002" lon="0.46428">
        <ele>106.8</ele>
        <time>2024-09-08T09:52:41Z</time>
      </trkpt>
      <trkpt lat="46.67003" lon="0.46424">
        <ele>107</ele>
        <time>2024-09-08T09:52:44Z</time>
      </trkpt>
      <trkpt lat="46.67002" lon="0.46421">
        <ele>107</ele>
        <time>2024-09-08T09:52:46Z</time>
      </trkpt>
      <trkpt lat="46.67002" lon="0.46417">
        <ele>107</ele>
        <time>2024-09-08T09:52:48Z</time>
      </trkpt>
      <trkpt lat="46.67005" lon="0.46399">
        <ele>107.6</ele>
        <time>2024-09-08T09:52:54Z</time>
      </trkpt>
      <trkpt lat="46.67006" lon="0.46396">
        <ele>107.8</ele>
        <time>2024-09-08T09:52:55Z</time>
      </trkpt>
      <trkpt lat="46.67007" lon="0.46393">
        <ele>107.8</ele>
        <time>2024-09-08T09:52:56Z</time>
      </trkpt>
      <trkpt lat="46.67013" lon="0.46385">
        <ele>108.4</ele>
        <time>2024-09-08T09:53:00Z</time>
      </trkpt>
      <trkpt lat="46.67015" lon="0.4638">
        <ele>108.8</ele>
        <time>2024-09-08T09:53:02Z</time>
      </trkpt>
      <trkpt lat="46.67018" lon="0.46367">
        <ele>109</ele>
        <time>2024-09-08T09:53:06Z</time>
      </trkpt>
      <trkpt lat="46.67018" lon="0.46355">
        <ele>109.2</ele>
        <time>2024-09-08T09:53:10Z</time>
      </trkpt>
      <trkpt lat="46.6702" lon="0.46351">
        <ele>109.2</ele>
        <time>2024-09-08T09:53:12Z</time>
      </trkpt>
      <trkpt lat="46.67024" lon="0.46348">
        <ele>109.2</ele>
        <time>2024-09-08T09:53:14Z</time>
      </trkpt>
      <trkpt lat="46.67028" lon="0.46348">
        <ele>109.4</ele>
        <time>2024-09-08T09:53:17Z</time>
      </trkpt>
      <trkpt lat="46.67033" lon="0.46348">
        <ele>109.4</ele>
        <time>2024-09-08T09:53:22Z</time>
      </trkpt>
      <trkpt lat="46.67033" lon="0.46346">
        <ele>109.4</ele>
        <time>2024-09-08T09:53:23Z</time>
      </trkpt>
      <trkpt lat="46.67034" lon="0.46343">
        <ele>109.4</ele>
        <time>2024-09-08T09:53:25Z</time>
      </trkpt>
      <trkpt lat="46.67033" lon="0.46338">
        <ele>109.4</ele>
        <time>2024-09-08T09:53:28Z</time>
      </trkpt>
      <trkpt lat="46.67035" lon="0.46333">
        <ele>109.4</ele>
        <time>2024-09-08T09:53:31Z</time>
      </trkpt>
      <trkpt lat="46.67038" lon="0.46331">
        <ele>109.6</ele>
        <time>2024-09-08T09:53:33Z</time>
      </trkpt>
      <trkpt lat="46.67044" lon="0.46333">
        <ele>109.8</ele>
        <time>2024-09-08T09:53:39Z</time>
      </trkpt>
      <trkpt lat="46.67047" lon="0.46336">
        <ele>109.2</ele>
        <time>2024-09-08T09:53:42Z</time>
      </trkpt>
      <trkpt lat="46.67048" lon="0.46339">
        <ele>109.2</ele>
        <time>2024-09-08T09:53:44Z</time>
      </trkpt>
      <trkpt lat="46.67054" lon="0.46349">
        <ele>109</ele>
        <time>2024-09-08T09:53:50Z</time>
      </trkpt>
      <trkpt lat="46.67054" lon="0.46351">
        <ele>109</ele>
        <time>2024-09-08T09:53:51Z</time>
      </trkpt>
      <trkpt lat="46.67057" lon="0.46362">
        <ele>108.8</ele>
        <time>2024-09-08T09:53:55Z</time>
      </trkpt>
      <trkpt lat="46.67068" lon="0.46373">
        <ele>107.8</ele>
        <time>2024-09-08T09:54:01Z</time>
      </trkpt>
      <trkpt lat="46.67079" lon="0.46375">
        <ele>107.8</ele>
        <time>2024-09-08T09:54:06Z</time>
      </trkpt>
      <trkpt lat="46.67094" lon="0.46379">
        <ele>107.4</ele>
        <time>2024-09-08T09:54:12Z</time>
      </trkpt>
      <trkpt lat="46.67107" lon="0.46387">
        <ele>107.2</ele>
        <time>2024-09-08T09:54:18Z</time>
      </trkpt>
      <trkpt lat="46.67122" lon="0.46397">
        <ele>107.2</ele>
        <time>2024-09-08T09:54:24Z</time>
      </trkpt>
      <trkpt lat="46.67132" lon="0.46402">
        <ele>106.6</ele>
        <time>2024-09-08T09:54:27Z</time>
      </trkpt>
      <trkpt lat="46.6714" lon="0.46412">
        <ele>106.6</ele>
        <time>2024-09-08T09:54:30Z</time>
      </trkpt>
      <trkpt lat="46.67146" lon="0.46419">
        <ele>105.6</ele>
        <time>2024-09-08T09:54:33Z</time>
      </trkpt>
      <trkpt lat="46.67149" lon="0.46422">
        <ele>105</ele>
        <time>2024-09-08T09:54:35Z</time>
      </trkpt>
      <trkpt lat="46.67162" lon="0.46433">
        <ele>104.8</ele>
        <time>2024-09-08T09:54:40Z</time>
      </trkpt>
      <trkpt lat="46.67169" lon="0.46434">
        <ele>104.6</ele>
        <time>2024-09-08T09:54:43Z</time>
      </trkpt>
      <trkpt lat="46.67171" lon="0.46435">
        <ele>104.6</ele>
        <time>2024-09-08T09:54:44Z</time>
      </trkpt>
      <trkpt lat="46.67173" lon="0.46436">
        <ele>104.6</ele>
        <time>2024-09-08T09:54:45Z</time>
      </trkpt>
      <trkpt lat="46.67182" lon="0.46437">
        <ele>105.4</ele>
        <time>2024-09-08T09:54:49Z</time>
      </trkpt>
      <trkpt lat="46.67192" lon="0.46438">
        <ele>105.6</ele>
        <time>2024-09-08T09:54:53Z</time>
      </trkpt>
      <trkpt lat="46.67195" lon="0.46438">
        <ele>105.8</ele>
        <time>2024-09-08T09:54:54Z</time>
      </trkpt>
      <trkpt lat="46.67202" lon="0.46437">
        <ele>106</ele>
        <time>2024-09-08T09:54:57Z</time>
      </trkpt>
      <trkpt lat="46.67207" lon="0.4644">
        <ele>106.2</ele>
        <time>2024-09-08T09:54:59Z</time>
      </trkpt>
      <trkpt lat="46.67212" lon="0.46446">
        <ele>105.6</ele>
        <time>2024-09-08T09:55:02Z</time>
      </trkpt>
      <trkpt lat="46.67215" lon="0.46444">
        <ele>105.6</ele>
        <time>2024-09-08T09:55:04Z</time>
      </trkpt>
      <trkpt lat="46.67219" lon="0.46443">
        <ele>105.6</ele>
        <time>2024-09-08T09:55:07Z</time>
      </trkpt>
      <trkpt lat="46.67221" lon="0.46443">
        <ele>105.8</ele>
        <time>2024-09-08T09:55:08Z</time>
      </trkpt>
      <trkpt lat="46.67232" lon="0.46441">
        <ele>106.4</ele>
        <time>2024-09-08T09:55:13Z</time>
      </trkpt>
      <trkpt lat="46.67238" lon="0.46439">
        <ele>106.6</ele>
        <time>2024-09-08T09:55:16Z</time>
      </trkpt>
      <trkpt lat="46.67242" lon="0.46442">
        <ele>106.6</ele>
        <time>2024-09-08T09:55:18Z</time>
      </trkpt>
      <trkpt lat="46.67243" lon="0.46444">
        <ele>106.6</ele>
        <time>2024-09-08T09:55:19Z</time>
      </trkpt>
      <trkpt lat="46.67246" lon="0.46447">
        <ele>106</ele>
        <time>2024-09-08T09:55:22Z</time>
      </trkpt>
      <trkpt lat="46.67246" lon="0.46449">
        <ele>105.8</ele>
        <time>2024-09-08T09:55:23Z</time>
      </trkpt>
      <trkpt lat="46.67249" lon="0.4645">
        <ele>105.8</ele>
        <time>2024-09-08T09:55:25Z</time>
      </trkpt>
      <trkpt lat="46.67251" lon="0.46454">
        <ele>105.8</ele>
        <time>2024-09-08T09:55:27Z</time>
      </trkpt>
      <trkpt lat="46.67253" lon="0.46454">
        <ele>105.8</ele>
        <time>2024-09-08T09:55:28Z</time>
      </trkpt>
      <trkpt lat="46.67259" lon="0.46454">
        <ele>105.8</ele>
        <time>2024-09-08T09:55:31Z</time>
      </trkpt>
      <trkpt lat="46.6727" lon="0.46465">
        <ele>105.6</ele>
        <time>2024-09-08T09:55:36Z</time>
      </trkpt>
      <trkpt lat="46.6728" lon="0.46481">
        <ele>105</ele>
        <time>2024-09-08T09:55:41Z</time>
      </trkpt>
      <trkpt lat="46.67281" lon="0.46485">
        <ele>104.6</ele>
        <time>2024-09-08T09:55:42Z</time>
      </trkpt>
      <trkpt lat="46.67279" lon="0.46494">
        <ele>104</ele>
        <time>2024-09-08T09:55:45Z</time>
      </trkpt>
      <trkpt lat="46.67282" lon="0.46498">
        <ele>103.8</ele>
        <time>2024-09-08T09:55:48Z</time>
      </trkpt>
      <trkpt lat="46.67284" lon="0.46496">
        <ele>104</ele>
        <time>2024-09-08T09:55:49Z</time>
      </trkpt>
      <trkpt lat="46.67287" lon="0.46493">
        <ele>104</ele>
        <time>2024-09-08T09:55:51Z</time>
      </trkpt>
      <trkpt lat="46.67294" lon="0.46491">
        <ele>104.2</ele>
        <time>2024-09-08T09:55:54Z</time>
      </trkpt>
      <trkpt lat="46.67299" lon="0.4649">
        <ele>104.4</ele>
        <time>2024-09-08T09:55:56Z</time>
      </trkpt>
      <trkpt lat="46.67312" lon="0.46493">
        <ele>104.4</ele>
        <time>2024-09-08T09:56:00Z</time>
      </trkpt>
      <trkpt lat="46.67331" lon="0.46489">
        <ele>104.2</ele>
        <time>2024-09-08T09:56:05Z</time>
      </trkpt>
      <trkpt lat="46.67338" lon="0.46485">
        <ele>104</ele>
        <time>2024-09-08T09:56:08Z</time>
      </trkpt>
      <trkpt lat="46.6734" lon="0.46486">
        <ele>104</ele>
        <time>2024-09-08T09:56:09Z</time>
      </trkpt>
      <trkpt lat="46.67342" lon="0.46488">
        <ele>103.8</ele>
        <time>2024-09-08T09:56:11Z</time>
      </trkpt>
      <trkpt lat="46.67346" lon="0.46489">
        <ele>103.4</ele>
        <time>2024-09-08T09:56:13Z</time>
      </trkpt>
      <trkpt lat="46.67351" lon="0.46488">
        <ele>103.4</ele>
        <time>2024-09-08T09:56:15Z</time>
      </trkpt>
      <trkpt lat="46.67355" lon="0.46483">
        <ele>103.4</ele>
        <time>2024-09-08T09:56:18Z</time>
      </trkpt>
      <trkpt lat="46.67356" lon="0.46479">
        <ele>103.6</ele>
        <time>2024-09-08T09:56:20Z</time>
      </trkpt>
      <trkpt lat="46.67363" lon="0.46463">
        <ele>104.4</ele>
        <time>2024-09-08T09:56:26Z</time>
      </trkpt>
      <trkpt lat="46.67364" lon="0.46461">
        <ele>104.6</ele>
        <time>2024-09-08T09:56:27Z</time>
      </trkpt>
      <trkpt lat="46.67366" lon="0.46458">
        <ele>104.6</ele>
        <time>2024-09-08T09:56:29Z</time>
      </trkpt>
      <trkpt lat="46.67366" lon="0.46455">
        <ele>104.4</ele>
        <time>2024-09-08T09:56:30Z</time>
      </trkpt>
      <trkpt lat="46.67367" lon="0.46452">
        <ele>104.4</ele>
        <time>2024-09-08T09:56:31Z</time>
      </trkpt>
      <trkpt lat="46.67371" lon="0.46442">
        <ele>104.4</ele>
        <time>2024-09-08T09:56:34Z</time>
      </trkpt>
      <trkpt lat="46.67372" lon="0.4644">
        <ele>104.2</ele>
        <time>2024-09-08T09:56:35Z</time>
      </trkpt>
      <trkpt lat="46.67378" lon="0.46441">
        <ele>104</ele>
        <time>2024-09-08T09:56:38Z</time>
      </trkpt>
      <trkpt lat="46.67378" lon="0.46444">
        <ele>103.8</ele>
        <time>2024-09-08T09:56:42Z</time>
      </trkpt>
      <trkpt lat="46.67379" lon="0.46444">
        <ele>103.8</ele>
        <time>2024-09-08T09:56:43Z</time>
      </trkpt>
      <trkpt lat="46.67386" lon="0.46449">
        <ele>104</ele>
        <time>2024-09-08T09:56:47Z</time>
      </trkpt>
      <trkpt lat="46.67389" lon="0.46453">
        <ele>104</ele>
        <time>2024-09-08T09:56:49Z</time>
      </trkpt>
      <trkpt lat="46.67392" lon="0.46453">
        <ele>103.8</ele>
        <time>2024-09-08T09:56:51Z</time>
      </trkpt>
      <trkpt lat="46.67395" lon="0.4645">
        <ele>103.4</ele>
        <time>2024-09-08T09:56:53Z</time>
      </trkpt>
      <trkpt lat="46.67399" lon="0.46445">
        <ele>103.4</ele>
        <time>2024-09-08T09:56:56Z</time>
      </trkpt>
      <trkpt lat="46.67402" lon="0.46437">
        <ele>103.2</ele>
        <time>2024-09-08T09:56:59Z</time>
      </trkpt>
      <trkpt lat="46.67403" lon="0.46436">
        <ele>103.4</ele>
        <time>2024-09-08T09:57:00Z</time>
      </trkpt>
      <trkpt lat="46.67403" lon="0.46436">
        <ele>103.4</ele>
        <time>2024-09-08T09:57:01Z</time>
      </trkpt>
      <trkpt lat="46.67402" lon="0.46438">
        <ele>103.4</ele>
        <time>2024-09-08T09:57:05Z</time>
      </trkpt>
      <trkpt lat="46.67402" lon="0.46437">
        <ele>103.4</ele>
        <time>2024-09-08T09:57:06Z</time>
      </trkpt>
      <trkpt lat="46.67402" lon="0.4643">
        <ele>103.8</ele>
        <time>2024-09-08T09:57:10Z</time>
      </trkpt>
      <trkpt lat="46.67405" lon="0.46423">
        <ele>104</ele>
        <time>2024-09-08T09:57:13Z</time>
      </trkpt>
      <trkpt lat="46.67404" lon="0.46419">
        <ele>104</ele>
        <time>2024-09-08T09:57:15Z</time>
      </trkpt>
      <trkpt lat="46.67403" lon="0.46419">
        <ele>104</ele>
        <time>2024-09-08T09:57:16Z</time>
      </trkpt>
      <trkpt lat="46.67401" lon="0.46423">
        <ele>104</ele>
        <time>2024-09-08T09:57:19Z</time>
      </trkpt>
      <trkpt lat="46.67401" lon="0.46421">
        <ele>104.2</ele>
        <time>2024-09-08T09:57:21Z</time>
      </trkpt>
      <trkpt lat="46.674" lon="0.46416">
        <ele>104.2</ele>
        <time>2024-09-08T09:57:24Z</time>
      </trkpt>
      <trkpt lat="46.6739" lon="0.46414">
        <ele>104.6</ele>
        <time>2024-09-08T09:57:31Z</time>
      </trkpt>
      <trkpt lat="46.67377" lon="0.46411">
        <ele>105.2</ele>
        <time>2024-09-08T09:57:37Z</time>
      </trkpt>
      <trkpt lat="46.67368" lon="0.46408">
        <ele>105.6</ele>
        <time>2024-09-08T09:57:40Z</time>
      </trkpt>
      <trkpt lat="46.67358" lon="0.46403">
        <ele>106</ele>
        <time>2024-09-08T09:57:43Z</time>
      </trkpt>
      <trkpt lat="46.67346" lon="0.46397">
        <ele>106.6</ele>
        <time>2024-09-08T09:57:47Z</time>
      </trkpt>
      <trkpt lat="46.67342" lon="0.46396">
        <ele>106.6</ele>
        <time>2024-09-08T09:57:48Z</time>
      </trkpt>
      <trkpt lat="46.67325" lon="0.46393">
        <ele>106.6</ele>
        <time>2024-09-08T09:57:53Z</time>
      </trkpt>
      <trkpt lat="46.67307" lon="0.4639">
        <ele>107</ele>
        <time>2024-09-08T09:57:59Z</time>
      </trkpt>
      <trkpt lat="46.67302" lon="0.46388">
        <ele>107.6</ele>
        <time>2024-09-08T09:58:01Z</time>
      </trkpt>
      <trkpt lat="46.67301" lon="0.46382">
        <ele>108</ele>
        <time>2024-09-08T09:58:04Z</time>
      </trkpt>
      <trkpt lat="46.67301" lon="0.4638">
        <ele>107.8</ele>
        <time>2024-09-08T09:58:05Z</time>
      </trkpt>
      <trkpt lat="46.67301" lon="0.46365">
        <ele>107.8</ele>
        <time>2024-09-08T09:58:10Z</time>
      </trkpt>
      <trkpt lat="46.67301" lon="0.46344">
        <ele>108.2</ele>
        <time>2024-09-08T09:58:16Z</time>
      </trkpt>
      <trkpt lat="46.67299" lon="0.46332">
        <ele>108.6</ele>
        <time>2024-09-08T09:58:21Z</time>
      </trkpt>
      <trkpt lat="46.67299" lon="0.46326">
        <ele>108.8</ele>
        <time>2024-09-08T09:58:23Z</time>
      </trkpt>
      <trkpt lat="46.673" lon="0.46323">
        <ele>108.4</ele>
        <time>2024-09-08T09:58:25Z</time>
      </trkpt>
      <trkpt lat="46.67301" lon="0.4632">
        <ele>108.6</ele>
        <time>2024-09-08T09:58:26Z</time>
      </trkpt>
      <trkpt lat="46.67303" lon="0.46315">
        <ele>108.2</ele>
        <time>2024-09-08T09:58:29Z</time>
      </trkpt>
      <trkpt lat="46.67301" lon="0.46313">
        <ele>108.2</ele>
        <time>2024-09-08T09:58:30Z</time>
      </trkpt>
      <trkpt lat="46.67293" lon="0.46305">
        <ele>108.8</ele>
        <time>2024-09-08T09:58:35Z</time>
      </trkpt>
      <trkpt lat="46.67291" lon="0.46303">
        <ele>108.8</ele>
        <time>2024-09-08T09:58:36Z</time>
      </trkpt>
      <trkpt lat="46.67286" lon="0.46298">
        <ele>108.8</ele>
        <time>2024-09-08T09:58:39Z</time>
      </trkpt>
      <trkpt lat="46.67284" lon="0.46296">
        <ele>108.8</ele>
        <time>2024-09-08T09:58:40Z</time>
      </trkpt>
      <trkpt lat="46.6727" lon="0.46284">
        <ele>109.4</ele>
        <time>2024-09-08T09:58:46Z</time>
      </trkpt>
      <trkpt lat="46.67265" lon="0.46279">
        <ele>109.6</ele>
        <time>2024-09-08T09:58:48Z</time>
      </trkpt>
      <trkpt lat="46.67263" lon="0.46277">
        <ele>109.8</ele>
        <time>2024-09-08T09:58:49Z</time>
      </trkpt>
      <trkpt lat="46.67259" lon="0.46276">
        <ele>110</ele>
        <time>2024-09-08T09:58:51Z</time>
      </trkpt>
      <trkpt lat="46.67256" lon="0.46276">
        <ele>110</ele>
        <time>2024-09-08T09:58:53Z</time>
      </trkpt>
      <trkpt lat="46.67251" lon="0.46277">
        <ele>110</ele>
        <time>2024-09-08T09:58:56Z</time>
      </trkpt>
      <trkpt lat="46.67245" lon="0.4628">
        <ele>110.2</ele>
        <time>2024-09-08T09:59:00Z</time>
      </trkpt>
      <trkpt lat="46.67244" lon="0.46283">
        <ele>110.2</ele>
        <time>2024-09-08T09:59:01Z</time>
      </trkpt>
      <trkpt lat="46.67242" lon="0.46284">
        <ele>110.2</ele>
        <time>2024-09-08T09:59:02Z</time>
      </trkpt>
      <trkpt lat="46.67233" lon="0.46292">
        <ele>110.4</ele>
        <time>2024-09-08T09:59:06Z</time>
      </trkpt>
      <trkpt lat="46.67223" lon="0.46302">
        <ele>110</ele>
        <time>2024-09-08T09:59:11Z</time>
      </trkpt>
      <trkpt lat="46.67213" lon="0.46302">
        <ele>110.4</ele>
        <time>2024-09-08T09:59:15Z</time>
      </trkpt>
      <trkpt lat="46.67209" lon="0.46288">
        <ele>110.6</ele>
        <time>2024-09-08T09:59:21Z</time>
      </trkpt>
      <trkpt lat="46.67208" lon="0.46283">
        <ele>110.6</ele>
        <time>2024-09-08T09:59:23Z</time>
      </trkpt>
      <trkpt lat="46.67209" lon="0.46277">
        <ele>110.8</ele>
        <time>2024-09-08T09:59:26Z</time>
      </trkpt>
      <trkpt lat="46.67208" lon="0.46274">
        <ele>110.8</ele>
        <time>2024-09-08T09:59:27Z</time>
      </trkpt>
      <trkpt lat="46.67204" lon="0.46261">
        <ele>111.2</ele>
        <time>2024-09-08T09:59:31Z</time>
      </trkpt>
      <trkpt lat="46.67196" lon="0.46241">
        <ele>111.4</ele>
        <time>2024-09-08T09:59:37Z</time>
      </trkpt>
      <trkpt lat="46.67194" lon="0.46233">
        <ele>112</ele>
        <time>2024-09-08T09:59:39Z</time>
      </trkpt>
      <trkpt lat="46.67195" lon="0.46225">
        <ele>112</ele>
        <time>2024-09-08T09:59:41Z</time>
      </trkpt>
      <trkpt lat="46.672" lon="0.46206">
        <ele>111.8</ele>
        <time>2024-09-08T09:59:46Z</time>
      </trkpt>
      <trkpt lat="46.67203" lon="0.46198">
        <ele>111.8</ele>
        <time>2024-09-08T09:59:48Z</time>
      </trkpt>
      <trkpt lat="46.67211" lon="0.46169">
        <ele>112</ele>
        <time>2024-09-08T09:59:55Z</time>
      </trkpt>
      <trkpt lat="46.67219" lon="0.46135">
        <ele>111.6</ele>
        <time>2024-09-08T10:00:02Z</time>
      </trkpt>
      <trkpt lat="46.67231" lon="0.46102">
        <ele>111.6</ele>
        <time>2024-09-08T10:00:08Z</time>
      </trkpt>
      <trkpt lat="46.67241" lon="0.46069">
        <ele>112.2</ele>
        <time>2024-09-08T10:00:14Z</time>
      </trkpt>
      <trkpt lat="46.67249" lon="0.46031">
        <ele>112.6</ele>
        <time>2024-09-08T10:00:21Z</time>
      </trkpt>
      <trkpt lat="46.67254" lon="0.45995">
        <ele>112.8</ele>
        <time>2024-09-08T10:00:28Z</time>
      </trkpt>
      <trkpt lat="46.67259" lon="0.45947">
        <ele>113</ele>
        <time>2024-09-08T10:00:36Z</time>
      </trkpt>
      <trkpt lat="46.67265" lon="0.45903">
        <ele>112.6</ele>
        <time>2024-09-08T10:00:43Z</time>
      </trkpt>
      <trkpt lat="46.67268" lon="0.45871">
        <ele>112.4</ele>
        <time>2024-09-08T10:00:48Z</time>
      </trkpt>
      <trkpt lat="46.67273" lon="0.45832">
        <ele>112.8</ele>
        <time>2024-09-08T10:00:54Z</time>
      </trkpt>
      <trkpt lat="46.67278" lon="0.45798">
        <ele>110.6</ele>
        <time>2024-09-08T10:00:59Z</time>
      </trkpt>
      <trkpt lat="46.67281" lon="0.45781">
        <ele>110.4</ele>
        <time>2024-09-08T10:01:01Z</time>
      </trkpt>
      <trkpt lat="46.67289" lon="0.45718">
        <ele>110.8</ele>
        <time>2024-09-08T10:01:09Z</time>
      </trkpt>
      <trkpt lat="46.67303" lon="0.45648">
        <ele>111.4</ele>
        <time>2024-09-08T10:01:20Z</time>
      </trkpt>
      <trkpt lat="46.67321" lon="0.45588">
        <ele>111.4</ele>
        <time>2024-09-08T10:01:30Z</time>
      </trkpt>
      <trkpt lat="46.6733" lon="0.45563">
        <ele>111.6</ele>
        <time>2024-09-08T10:01:34Z</time>
      </trkpt>
      <trkpt lat="46.67338" lon="0.45539">
        <ele>111.4</ele>
        <time>2024-09-08T10:01:38Z</time>
      </trkpt>
      <trkpt lat="46.6734" lon="0.45533">
        <ele>111.2</ele>
        <time>2024-09-08T10:01:39Z</time>
      </trkpt>
      <trkpt lat="46.67341" lon="0.45528">
        <ele>110.8</ele>
        <time>2024-09-08T10:01:40Z</time>
      </trkpt>
      <trkpt lat="46.67341" lon="0.45523">
        <ele>110.4</ele>
        <time>2024-09-08T10:01:41Z</time>
      </trkpt>
      <trkpt lat="46.67342" lon="0.45505">
        <ele>110.8</ele>
        <time>2024-09-08T10:01:44Z</time>
      </trkpt>
      <trkpt lat="46.67337" lon="0.45465">
        <ele>111.2</ele>
        <time>2024-09-08T10:01:50Z</time>
      </trkpt>
      <trkpt lat="46.67333" lon="0.45442">
        <ele>110.2</ele>
        <time>2024-09-08T10:01:54Z</time>
      </trkpt>
      <trkpt lat="46.67331" lon="0.45427">
        <ele>110.2</ele>
        <time>2024-09-08T10:01:57Z</time>
      </trkpt>
      <trkpt lat="46.67324" lon="0.45383">
        <ele>110.6</ele>
        <time>2024-09-08T10:02:05Z</time>
      </trkpt>
      <trkpt lat="46.67316" lon="0.4533">
        <ele>111</ele>
        <time>2024-09-08T10:02:14Z</time>
      </trkpt>
      <trkpt lat="46.67311" lon="0.45289">
        <ele>111</ele>
        <time>2024-09-08T10:02:21Z</time>
      </trkpt>
      <trkpt lat="46.67307" lon="0.45264">
        <ele>111.6</ele>
        <time>2024-09-08T10:02:25Z</time>
      </trkpt>
      <trkpt lat="46.67302" lon="0.45232">
        <ele>112</ele>
        <time>2024-09-08T10:02:30Z</time>
      </trkpt>
      <trkpt lat="46.67297" lon="0.45193">
        <ele>112.2</ele>
        <time>2024-09-08T10:02:36Z</time>
      </trkpt>
      <trkpt lat="46.67287" lon="0.45126">
        <ele>112.2</ele>
        <time>2024-09-08T10:02:46Z</time>
      </trkpt>
      <trkpt lat="46.6728" lon="0.45074">
        <ele>112.2</ele>
        <time>2024-09-08T10:02:54Z</time>
      </trkpt>
      <trkpt lat="46.67279" lon="0.45069">
        <ele>112.2</ele>
        <time>2024-09-08T10:02:55Z</time>
      </trkpt>
      <trkpt lat="46.67282" lon="0.4506">
        <ele>112.4</ele>
        <time>2024-09-08T10:02:57Z</time>
      </trkpt>
      <trkpt lat="46.67285" lon="0.45057">
        <ele>112.4</ele>
        <time>2024-09-08T10:02:58Z</time>
      </trkpt>
      <trkpt lat="46.67296" lon="0.45057">
        <ele>112.4</ele>
        <time>2024-09-08T10:03:02Z</time>
      </trkpt>
      <trkpt lat="46.67335" lon="0.45067">
        <ele>112.6</ele>
        <time>2024-09-08T10:03:10Z</time>
      </trkpt>
      <trkpt lat="46.67361" lon="0.45072">
        <ele>113.8</ele>
        <time>2024-09-08T10:03:16Z</time>
      </trkpt>
      <trkpt lat="46.67383" lon="0.45077">
        <ele>114.2</ele>
        <time>2024-09-08T10:03:21Z</time>
      </trkpt>
      <trkpt lat="46.67404" lon="0.45082">
        <ele>115</ele>
        <time>2024-09-08T10:03:26Z</time>
      </trkpt>
      <trkpt lat="46.67432" lon="0.45088">
        <ele>115</ele>
        <time>2024-09-08T10:03:32Z</time>
      </trkpt>
      <trkpt lat="46.67479" lon="0.45098">
        <ele>114.6</ele>
        <time>2024-09-08T10:03:42Z</time>
      </trkpt>
      <trkpt lat="46.67493" lon="0.451">
        <ele>114.4</ele>
        <time>2024-09-08T10:03:45Z</time>
      </trkpt>
      <trkpt lat="46.67502" lon="0.45103">
        <ele>114.2</ele>
        <time>2024-09-08T10:03:47Z</time>
      </trkpt>
      <trkpt lat="46.67506" lon="0.45103">
        <ele>114.4</ele>
        <time>2024-09-08T10:03:48Z</time>
      </trkpt>
      <trkpt lat="46.67512" lon="0.45097">
        <ele>114.6</ele>
        <time>2024-09-08T10:03:50Z</time>
      </trkpt>
      <trkpt lat="46.67513" lon="0.45093">
        <ele>115.2</ele>
        <time>2024-09-08T10:03:51Z</time>
      </trkpt>
      <trkpt lat="46.67513" lon="0.45082">
        <ele>116.2</ele>
        <time>2024-09-08T10:03:53Z</time>
      </trkpt>
      <trkpt lat="46.67509" lon="0.45068">
        <ele>116.6</ele>
        <time>2024-09-08T10:03:56Z</time>
      </trkpt>
      <trkpt lat="46.67506" lon="0.45059">
        <ele>116.6</ele>
        <time>2024-09-08T10:03:58Z</time>
      </trkpt>
      <trkpt lat="46.67502" lon="0.45042">
        <ele>117</ele>
        <time>2024-09-08T10:04:01Z</time>
      </trkpt>
      <trkpt lat="46.675" lon="0.45032">
        <ele>117.2</ele>
        <time>2024-09-08T10:04:03Z</time>
      </trkpt>
      <trkpt lat="46.67492" lon="0.44999">
        <ele>118.4</ele>
        <time>2024-09-08T10:04:10Z</time>
      </trkpt>
      <trkpt lat="46.67491" lon="0.44994">
        <ele>118.4</ele>
        <time>2024-09-08T10:04:11Z</time>
      </trkpt>
      <trkpt lat="46.67486" lon="0.44969">
        <ele>119.4</ele>
        <time>2024-09-08T10:04:16Z</time>
      </trkpt>
      <trkpt lat="46.67485" lon="0.4496">
        <ele>120</ele>
        <time>2024-09-08T10:04:18Z</time>
      </trkpt>
      <trkpt lat="46.67478" lon="0.44932">
        <ele>120.6</ele>
        <time>2024-09-08T10:04:24Z</time>
      </trkpt>
      <trkpt lat="46.67477" lon="0.44927">
        <ele>120.6</ele>
        <time>2024-09-08T10:04:25Z</time>
      </trkpt>
      <trkpt lat="46.6747" lon="0.44898">
        <ele>121.6</ele>
        <time>2024-09-08T10:04:31Z</time>
      </trkpt>
      <trkpt lat="46.67469" lon="0.44893">
        <ele>121.6</ele>
        <time>2024-09-08T10:04:32Z</time>
      </trkpt>
      <trkpt lat="46.6746" lon="0.44844">
        <ele>121</ele>
        <time>2024-09-08T10:04:41Z</time>
      </trkpt>
      <trkpt lat="46.67458" lon="0.44814">
        <ele>120.8</ele>
        <time>2024-09-08T10:04:46Z</time>
      </trkpt>
      <trkpt lat="46.67458" lon="0.44802">
        <ele>121</ele>
        <time>2024-09-08T10:04:48Z</time>
      </trkpt>
      <trkpt lat="46.67461" lon="0.44769">
        <ele>121.6</ele>
        <time>2024-09-08T10:04:54Z</time>
      </trkpt>
      <trkpt lat="46.67466" lon="0.44736">
        <ele>122.8</ele>
        <time>2024-09-08T10:05:00Z</time>
      </trkpt>
      <trkpt lat="46.67468" lon="0.44719">
        <ele>123</ele>
        <time>2024-09-08T10:05:03Z</time>
      </trkpt>
      <trkpt lat="46.67476" lon="0.44672">
        <ele>123.2</ele>
        <time>2024-09-08T10:05:11Z</time>
      </trkpt>
      <trkpt lat="46.67478" lon="0.4466">
        <ele>123</ele>
        <time>2024-09-08T10:05:13Z</time>
      </trkpt>
      <trkpt lat="46.67485" lon="0.44615">
        <ele>123.4</ele>
        <time>2024-09-08T10:05:21Z</time>
      </trkpt>
      <trkpt lat="46.6749" lon="0.44589">
        <ele>123.2</ele>
        <time>2024-09-08T10:05:27Z</time>
      </trkpt>
      <trkpt lat="46.67489" lon="0.44586">
        <ele>123.2</ele>
        <time>2024-09-08T10:05:28Z</time>
      </trkpt>
      <trkpt lat="46.67486" lon="0.44582">
        <ele>123.2</ele>
        <time>2024-09-08T10:05:30Z</time>
      </trkpt>
      <trkpt lat="46.67482" lon="0.44579">
        <ele>123</ele>
        <time>2024-09-08T10:05:32Z</time>
      </trkpt>
      <trkpt lat="46.67477" lon="0.44577">
        <ele>122.6</ele>
        <time>2024-09-08T10:05:35Z</time>
      </trkpt>
      <trkpt lat="46.67466" lon="0.4457">
        <ele>122.8</ele>
        <time>2024-09-08T10:05:41Z</time>
      </trkpt>
      <trkpt lat="46.67463" lon="0.44558">
        <ele>122.6</ele>
        <time>2024-09-08T10:05:47Z</time>
      </trkpt>
      <trkpt lat="46.67464" lon="0.44556">
        <ele>122.6</ele>
        <time>2024-09-08T10:05:50Z</time>
      </trkpt>
      <trkpt lat="46.67465" lon="0.44554">
        <ele>122.4</ele>
        <time>2024-09-08T10:05:51Z</time>
      </trkpt>
      <trkpt lat="46.6747" lon="0.44541">
        <ele>122.4</ele>
        <time>2024-09-08T10:05:57Z</time>
      </trkpt>
      <trkpt lat="46.67471" lon="0.4454">
        <ele>122.4</ele>
        <time>2024-09-08T10:05:58Z</time>
      </trkpt>
      <trkpt lat="46.67471" lon="0.44538">
        <ele>122.4</ele>
        <time>2024-09-08T10:05:59Z</time>
      </trkpt>
      <trkpt lat="46.67473" lon="0.44529">
        <ele>122.4</ele>
        <time>2024-09-08T10:06:03Z</time>
      </trkpt>
      <trkpt lat="46.67474" lon="0.44515">
        <ele>122.2</ele>
        <time>2024-09-08T10:06:07Z</time>
      </trkpt>
      <trkpt lat="46.67474" lon="0.44509">
        <ele>121.6</ele>
        <time>2024-09-08T10:06:09Z</time>
      </trkpt>
      <trkpt lat="46.67474" lon="0.44503">
        <ele>121.4</ele>
        <time>2024-09-08T10:06:11Z</time>
      </trkpt>
      <trkpt lat="46.67472" lon="0.445">
        <ele>121.4</ele>
        <time>2024-09-08T10:06:13Z</time>
      </trkpt>
      <trkpt lat="46.67472" lon="0.44499">
        <ele>121.4</ele>
        <time>2024-09-08T10:06:14Z</time>
      </trkpt>
      <trkpt lat="46.67469" lon="0.44494">
        <ele>121.6</ele>
        <time>2024-09-08T10:06:20Z</time>
      </trkpt>
      <trkpt lat="46.67462" lon="0.44485">
        <ele>122.4</ele>
        <time>2024-09-08T10:06:30Z</time>
      </trkpt>
      <trkpt lat="46.67461" lon="0.44481">
        <ele>122.4</ele>
        <time>2024-09-08T10:06:32Z</time>
      </trkpt>
      <trkpt lat="46.6746" lon="0.44469">
        <ele>122.4</ele>
        <time>2024-09-08T10:06:36Z</time>
      </trkpt>
      <trkpt lat="46.67462" lon="0.44451">
        <ele>121.8</ele>
        <time>2024-09-08T10:06:42Z</time>
      </trkpt>
      <trkpt lat="46.67463" lon="0.44438">
        <ele>121.4</ele>
        <time>2024-09-08T10:06:48Z</time>
      </trkpt>
      <trkpt lat="46.67465" lon="0.44429">
        <ele>121.2</ele>
        <time>2024-09-08T10:06:52Z</time>
      </trkpt>
      <trkpt lat="46.67465" lon="0.44428">
        <ele>121.2</ele>
        <time>2024-09-08T10:06:53Z</time>
      </trkpt>
      <trkpt lat="46.67466" lon="0.44427">
        <ele>121</ele>
        <time>2024-09-08T10:06:54Z</time>
      </trkpt>
      <trkpt lat="46.67468" lon="0.44417">
        <ele>121</ele>
        <time>2024-09-08T10:06:58Z</time>
      </trkpt>
      <trkpt lat="46.67472" lon="0.44417">
        <ele>121</ele>
        <time>2024-09-08T10:07:01Z</time>
      </trkpt>
      <trkpt lat="46.67473" lon="0.44418">
        <ele>121</ele>
        <time>2024-09-08T10:07:02Z</time>
      </trkpt>
      <trkpt lat="46.67475" lon="0.44419">
        <ele>120.8</ele>
        <time>2024-09-08T10:07:04Z</time>
      </trkpt>
      <trkpt lat="46.67479" lon="0.44415">
        <ele>121</ele>
        <time>2024-09-08T10:07:07Z</time>
      </trkpt>
      <trkpt lat="46.67482" lon="0.44411">
        <ele>121.4</ele>
        <time>2024-09-08T10:07:12Z</time>
      </trkpt>
      <trkpt lat="46.67484" lon="0.4441">
        <ele>121.4</ele>
        <time>2024-09-08T10:07:13Z</time>
      </trkpt>
      <trkpt lat="46.67489" lon="0.44408">
        <ele>121.6</ele>
        <time>2024-09-08T10:07:16Z</time>
      </trkpt>
      <trkpt lat="46.67491" lon="0.44406">
        <ele>121.8</ele>
        <time>2024-09-08T10:07:17Z</time>
      </trkpt>
      <trkpt lat="46.67501" lon="0.44389">
        <ele>122.2</ele>
        <time>2024-09-08T10:07:24Z</time>
      </trkpt>
      <trkpt lat="46.67501" lon="0.44383">
        <ele>121.6</ele>
        <time>2024-09-08T10:07:26Z</time>
      </trkpt>
      <trkpt lat="46.67504" lon="0.44378">
        <ele>121.4</ele>
        <time>2024-09-08T10:07:28Z</time>
      </trkpt>
      <trkpt lat="46.67505" lon="0.44375">
        <ele>121.2</ele>
        <time>2024-09-08T10:07:29Z</time>
      </trkpt>
      <trkpt lat="46.67507" lon="0.44373">
        <ele>121.2</ele>
        <time>2024-09-08T10:07:30Z</time>
      </trkpt>
      <trkpt lat="46.6751" lon="0.44361">
        <ele>120.8</ele>
        <time>2024-09-08T10:07:34Z</time>
      </trkpt>
      <trkpt lat="46.6751" lon="0.44358">
        <ele>120.8</ele>
        <time>2024-09-08T10:07:35Z</time>
      </trkpt>
      <trkpt lat="46.67516" lon="0.44349">
        <ele>120.8</ele>
        <time>2024-09-08T10:07:38Z</time>
      </trkpt>
      <trkpt lat="46.67528" lon="0.44329">
        <ele>121.4</ele>
        <time>2024-09-08T10:07:43Z</time>
      </trkpt>
      <trkpt lat="46.67533" lon="0.44303">
        <ele>121.6</ele>
        <time>2024-09-08T10:07:49Z</time>
      </trkpt>
      <trkpt lat="46.67541" lon="0.44274">
        <ele>120.4</ele>
        <time>2024-09-08T10:07:55Z</time>
      </trkpt>
      <trkpt lat="46.67542" lon="0.4427">
        <ele>120.4</ele>
        <time>2024-09-08T10:07:56Z</time>
      </trkpt>
      <trkpt lat="46.67554" lon="0.44247">
        <ele>119.8</ele>
        <time>2024-09-08T10:08:02Z</time>
      </trkpt>
      <trkpt lat="46.67566" lon="0.44222">
        <ele>119.4</ele>
        <time>2024-09-08T10:08:09Z</time>
      </trkpt>
      <trkpt lat="46.67579" lon="0.44185">
        <ele>119.2</ele>
        <time>2024-09-08T10:08:17Z</time>
      </trkpt>
      <trkpt lat="46.6759" lon="0.44146">
        <ele>119.2</ele>
        <time>2024-09-08T10:08:24Z</time>
      </trkpt>
      <trkpt lat="46.67601" lon="0.44106">
        <ele>119</ele>
        <time>2024-09-08T10:08:30Z</time>
      </trkpt>
      <trkpt lat="46.67616" lon="0.44053">
        <ele>118.6</ele>
        <time>2024-09-08T10:08:37Z</time>
      </trkpt>
      <trkpt lat="46.67626" lon="0.44017">
        <ele>118.6</ele>
        <time>2024-09-08T10:08:42Z</time>
      </trkpt>
      <trkpt lat="46.67629" lon="0.44002">
        <ele>118.6</ele>
        <time>2024-09-08T10:08:44Z</time>
      </trkpt>
      <trkpt lat="46.67631" lon="0.43994">
        <ele>118.4</ele>
        <time>2024-09-08T10:08:45Z</time>
      </trkpt>
      <trkpt lat="46.67641" lon="0.43947">
        <ele>118</ele>
        <time>2024-09-08T10:08:51Z</time>
      </trkpt>
      <trkpt lat="46.6765" lon="0.43911">
        <ele>117.4</ele>
        <time>2024-09-08T10:08:56Z</time>
      </trkpt>
      <trkpt lat="46.67652" lon="0.43904">
        <ele>117.4</ele>
        <time>2024-09-08T10:08:57Z</time>
      </trkpt>
      <trkpt lat="46.67655" lon="0.43897">
        <ele>117.2</ele>
        <time>2024-09-08T10:08:58Z</time>
      </trkpt>
      <trkpt lat="46.67671" lon="0.43863">
        <ele>117.4</ele>
        <time>2024-09-08T10:09:03Z</time>
      </trkpt>
      <trkpt lat="46.67696" lon="0.43802">
        <ele>117</ele>
        <time>2024-09-08T10:09:11Z</time>
      </trkpt>
      <trkpt lat="46.67709" lon="0.43769">
        <ele>116.4</ele>
        <time>2024-09-08T10:09:15Z</time>
      </trkpt>
      <trkpt lat="46.67727" lon="0.43726">
        <ele>116</ele>
        <time>2024-09-08T10:09:20Z</time>
      </trkpt>
      <trkpt lat="46.67733" lon="0.43709">
        <ele>115.2</ele>
        <time>2024-09-08T10:09:22Z</time>
      </trkpt>
      <trkpt lat="46.67747" lon="0.43678">
        <ele>115</ele>
        <time>2024-09-08T10:09:26Z</time>
      </trkpt>
      <trkpt lat="46.6775" lon="0.4367">
        <ele>115</ele>
        <time>2024-09-08T10:09:27Z</time>
      </trkpt>
      <trkpt lat="46.67756" lon="0.43655">
        <ele>114.8</ele>
        <time>2024-09-08T10:09:29Z</time>
      </trkpt>
      <trkpt lat="46.67761" lon="0.43638">
        <ele>114.2</ele>
        <time>2024-09-08T10:09:31Z</time>
      </trkpt>
      <trkpt lat="46.67766" lon="0.43621">
        <ele>114</ele>
        <time>2024-09-08T10:09:33Z</time>
      </trkpt>
      <trkpt lat="46.67781" lon="0.43578">
        <ele>113.2</ele>
        <time>2024-09-08T10:09:38Z</time>
      </trkpt>
      <trkpt lat="46.67797" lon="0.43535">
        <ele>112.4</ele>
        <time>2024-09-08T10:09:43Z</time>
      </trkpt>
      <trkpt lat="46.67804" lon="0.43517">
        <ele>112.2</ele>
        <time>2024-09-08T10:09:45Z</time>
      </trkpt>
      <trkpt lat="46.67817" lon="0.43481">
        <ele>111.2</ele>
        <time>2024-09-08T10:09:49Z</time>
      </trkpt>
      <trkpt lat="46.67833" lon="0.43436">
        <ele>110</ele>
        <time>2024-09-08T10:09:54Z</time>
      </trkpt>
      <trkpt lat="46.67837" lon="0.43427">
        <ele>109.8</ele>
        <time>2024-09-08T10:09:55Z</time>
      </trkpt>
      <trkpt lat="46.67854" lon="0.43382">
        <ele>108.8</ele>
        <time>2024-09-08T10:10:00Z</time>
      </trkpt>
      <trkpt lat="46.67866" lon="0.43345">
        <ele>107.6</ele>
        <time>2024-09-08T10:10:04Z</time>
      </trkpt>
      <trkpt lat="46.67879" lon="0.43308">
        <ele>106.4</ele>
        <time>2024-09-08T10:10:08Z</time>
      </trkpt>
      <trkpt lat="46.67901" lon="0.43253">
        <ele>106</ele>
        <time>2024-09-08T10:10:14Z</time>
      </trkpt>
      <trkpt lat="46.67909" lon="0.43236">
        <ele>105.2</ele>
        <time>2024-09-08T10:10:16Z</time>
      </trkpt>
      <trkpt lat="46.67927" lon="0.432">
        <ele>104.4</ele>
        <time>2024-09-08T10:10:20Z</time>
      </trkpt>
      <trkpt lat="46.67935" lon="0.43182">
        <ele>104.2</ele>
        <time>2024-09-08T10:10:22Z</time>
      </trkpt>
      <trkpt lat="46.67949" lon="0.43156">
        <ele>103</ele>
        <time>2024-09-08T10:10:25Z</time>
      </trkpt>
      <trkpt lat="46.67957" lon="0.43138">
        <ele>102</ele>
        <time>2024-09-08T10:10:27Z</time>
      </trkpt>
      <trkpt lat="46.67966" lon="0.4312">
        <ele>101.8</ele>
        <time>2024-09-08T10:10:29Z</time>
      </trkpt>
      <trkpt lat="46.67992" lon="0.43059">
        <ele>100.6</ele>
        <time>2024-09-08T10:10:36Z</time>
      </trkpt>
      <trkpt lat="46.68002" lon="0.43031">
        <ele>99.6</ele>
        <time>2024-09-08T10:10:39Z</time>
      </trkpt>
      <trkpt lat="46.68012" lon="0.43">
        <ele>98.6</ele>
        <time>2024-09-08T10:10:42Z</time>
      </trkpt>
      <trkpt lat="46.68019" lon="0.42979">
        <ele>97.8</ele>
        <time>2024-09-08T10:10:44Z</time>
      </trkpt>
      <trkpt lat="46.68023" lon="0.42968">
        <ele>97.2</ele>
        <time>2024-09-08T10:10:45Z</time>
      </trkpt>
      <trkpt lat="46.68032" lon="0.42939">
        <ele>95.2</ele>
        <time>2024-09-08T10:10:48Z</time>
      </trkpt>
      <trkpt lat="46.68039" lon="0.42922">
        <ele>94</ele>
        <time>2024-09-08T10:10:50Z</time>
      </trkpt>
      <trkpt lat="46.68042" lon="0.42914">
        <ele>93.8</ele>
        <time>2024-09-08T10:10:51Z</time>
      </trkpt>
      <trkpt lat="46.68064" lon="0.42878">
        <ele>93.6</ele>
        <time>2024-09-08T10:10:56Z</time>
      </trkpt>
      <trkpt lat="46.68098" lon="0.42835">
        <ele>93.4</ele>
        <time>2024-09-08T10:11:03Z</time>
      </trkpt>
      <trkpt lat="46.6812" lon="0.42808">
        <ele>93.4</ele>
        <time>2024-09-08T10:11:08Z</time>
      </trkpt>
      <trkpt lat="46.68151" lon="0.42768">
        <ele>93.6</ele>
        <time>2024-09-08T10:11:16Z</time>
      </trkpt>
      <trkpt lat="46.68153" lon="0.42763">
        <ele>93.6</ele>
        <time>2024-09-08T10:11:17Z</time>
      </trkpt>
      <trkpt lat="46.68156" lon="0.42755">
        <ele>94</ele>
        <time>2024-09-08T10:11:19Z</time>
      </trkpt>
      <trkpt lat="46.68157" lon="0.42753">
        <ele>94.6</ele>
        <time>2024-09-08T10:11:21Z</time>
      </trkpt>
      <trkpt lat="46.68161" lon="0.42753">
        <ele>94.8</ele>
        <time>2024-09-08T10:11:24Z</time>
      </trkpt>
      <trkpt lat="46.68162" lon="0.42752">
        <ele>94.8</ele>
        <time>2024-09-08T10:11:25Z</time>
      </trkpt>
      <trkpt lat="46.68167" lon="0.42743">
        <ele>94.4</ele>
        <time>2024-09-08T10:11:29Z</time>
      </trkpt>
      <trkpt lat="46.68177" lon="0.42728">
        <ele>94.6</ele>
        <time>2024-09-08T10:11:35Z</time>
      </trkpt>
      <trkpt lat="46.68183" lon="0.42719">
        <ele>94.6</ele>
        <time>2024-09-08T10:11:40Z</time>
      </trkpt>
      <trkpt lat="46.68195" lon="0.42701">
        <ele>95.2</ele>
        <time>2024-09-08T10:11:45Z</time>
      </trkpt>
      <trkpt lat="46.68203" lon="0.42688">
        <ele>95.4</ele>
        <time>2024-09-08T10:11:48Z</time>
      </trkpt>
      <trkpt lat="46.68217" lon="0.42656">
        <ele>96</ele>
        <time>2024-09-08T10:11:54Z</time>
      </trkpt>
      <trkpt lat="46.68219" lon="0.4265">
        <ele>96.2</ele>
        <time>2024-09-08T10:11:55Z</time>
      </trkpt>
      <trkpt lat="46.68224" lon="0.42624">
        <ele>97.4</ele>
        <time>2024-09-08T10:11:59Z</time>
      </trkpt>
      <trkpt lat="46.68226" lon="0.42618">
        <ele>97.6</ele>
        <time>2024-09-08T10:12:00Z</time>
      </trkpt>
      <trkpt lat="46.68239" lon="0.4257">
        <ele>98.8</ele>
        <time>2024-09-08T10:12:07Z</time>
      </trkpt>
      <trkpt lat="46.68243" lon="0.42558">
        <ele>99.2</ele>
        <time>2024-09-08T10:12:09Z</time>
      </trkpt>
      <trkpt lat="46.68248" lon="0.42546">
        <ele>99.8</ele>
        <time>2024-09-08T10:12:11Z</time>
      </trkpt>
      <trkpt lat="46.68263" lon="0.42508">
        <ele>100</ele>
        <time>2024-09-08T10:12:17Z</time>
      </trkpt>
      <trkpt lat="46.68278" lon="0.42464">
        <ele>98.8</ele>
        <time>2024-09-08T10:12:23Z</time>
      </trkpt>
      <trkpt lat="46.68281" lon="0.42457">
        <ele>98.6</ele>
        <time>2024-09-08T10:12:24Z</time>
      </trkpt>
      <trkpt lat="46.68304" lon="0.42403">
        <ele>97.8</ele>
        <time>2024-09-08T10:12:31Z</time>
      </trkpt>
      <trkpt lat="46.68308" lon="0.42396">
        <ele>96.6</ele>
        <time>2024-09-08T10:12:32Z</time>
      </trkpt>
      <trkpt lat="46.68325" lon="0.42368">
        <ele>95.6</ele>
        <time>2024-09-08T10:12:36Z</time>
      </trkpt>
      <trkpt lat="46.68333" lon="0.42355">
        <ele>95</ele>
        <time>2024-09-08T10:12:38Z</time>
      </trkpt>
      <trkpt lat="46.6835" lon="0.42327">
        <ele>94.6</ele>
        <time>2024-09-08T10:12:42Z</time>
      </trkpt>
      <trkpt lat="46.68374" lon="0.42283">
        <ele>94.4</ele>
        <time>2024-09-08T10:12:48Z</time>
      </trkpt>
      <trkpt lat="46.68394" lon="0.42247">
        <ele>93.4</ele>
        <time>2024-09-08T10:12:53Z</time>
      </trkpt>
      <trkpt lat="46.6841" lon="0.42217">
        <ele>93</ele>
        <time>2024-09-08T10:12:57Z</time>
      </trkpt>
      <trkpt lat="46.68437" lon="0.42165">
        <ele>92.4</ele>
        <time>2024-09-08T10:13:04Z</time>
      </trkpt>
      <trkpt lat="46.68445" lon="0.42151">
        <ele>92.2</ele>
        <time>2024-09-08T10:13:06Z</time>
      </trkpt>
      <trkpt lat="46.68472" lon="0.42084">
        <ele>92.6</ele>
        <time>2024-09-08T10:13:15Z</time>
      </trkpt>
      <trkpt lat="46.68499" lon="0.42005">
        <ele>91.6</ele>
        <time>2024-09-08T10:13:25Z</time>
      </trkpt>
      <trkpt lat="46.68501" lon="0.41997">
        <ele>91.4</ele>
        <time>2024-09-08T10:13:26Z</time>
      </trkpt>
      <trkpt lat="46.68519" lon="0.41933">
        <ele>91</ele>
        <time>2024-09-08T10:13:34Z</time>
      </trkpt>
      <trkpt lat="46.68531" lon="0.41882">
        <ele>90.2</ele>
        <time>2024-09-08T10:13:40Z</time>
      </trkpt>
      <trkpt lat="46.68533" lon="0.41873">
        <ele>90</ele>
        <time>2024-09-08T10:13:41Z</time>
      </trkpt>
      <trkpt lat="46.68555" lon="0.41793">
        <ele>89.4</ele>
        <time>2024-09-08T10:13:50Z</time>
      </trkpt>
      <trkpt lat="46.68558" lon="0.41785">
        <ele>89.4</ele>
        <time>2024-09-08T10:13:51Z</time>
      </trkpt>
      <trkpt lat="46.68567" lon="0.4177">
        <ele>89.4</ele>
        <time>2024-09-08T10:13:53Z</time>
      </trkpt>
      <trkpt lat="46.68572" lon="0.41764">
        <ele>89</ele>
        <time>2024-09-08T10:13:54Z</time>
      </trkpt>
      <trkpt lat="46.68613" lon="0.41717">
        <ele>88.6</ele>
        <time>2024-09-08T10:14:02Z</time>
      </trkpt>
      <trkpt lat="46.68653" lon="0.41669">
        <ele>88.2</ele>
        <time>2024-09-08T10:14:10Z</time>
      </trkpt>
      <trkpt lat="46.6868" lon="0.41642">
        <ele>88</ele>
        <time>2024-09-08T10:14:15Z</time>
      </trkpt>
      <trkpt lat="46.68691" lon="0.41632">
        <ele>87.8</ele>
        <time>2024-09-08T10:14:17Z</time>
      </trkpt>
      <trkpt lat="46.68726" lon="0.416">
        <ele>87.2</ele>
        <time>2024-09-08T10:14:24Z</time>
      </trkpt>
      <trkpt lat="46.68734" lon="0.41593">
        <ele>87</ele>
        <time>2024-09-08T10:14:26Z</time>
      </trkpt>
      <trkpt lat="46.68738" lon="0.41586">
        <ele>86.8</ele>
        <time>2024-09-08T10:14:28Z</time>
      </trkpt>
      <trkpt lat="46.68739" lon="0.41584">
        <ele>86.6</ele>
        <time>2024-09-08T10:14:29Z</time>
      </trkpt>
      <trkpt lat="46.6874" lon="0.41582">
        <ele>86</ele>
        <time>2024-09-08T10:14:33Z</time>
      </trkpt>
      <trkpt lat="46.6874" lon="0.41582">
        <ele>86</ele>
        <time>2024-09-08T10:14:34Z</time>
      </trkpt>
      <trkpt lat="46.68739" lon="0.41573">
        <ele>85.8</ele>
        <time>2024-09-08T10:14:40Z</time>
      </trkpt>
      <trkpt lat="46.68727" lon="0.41557">
        <ele>86</ele>
        <time>2024-09-08T10:14:45Z</time>
      </trkpt>
      <trkpt lat="46.68714" lon="0.41553">
        <ele>86</ele>
        <time>2024-09-08T10:14:48Z</time>
      </trkpt>
      <trkpt lat="46.68673" lon="0.41543">
        <ele>85.4</ele>
        <time>2024-09-08T10:14:56Z</time>
      </trkpt>
      <trkpt lat="46.68665" lon="0.41542">
        <ele>85</ele>
        <time>2024-09-08T10:14:58Z</time>
      </trkpt>
      <trkpt lat="46.68653" lon="0.41539">
        <ele>85</ele>
        <time>2024-09-08T10:15:01Z</time>
      </trkpt>
      <trkpt lat="46.68622" lon="0.41533">
        <ele>84.8</ele>
        <time>2024-09-08T10:15:09Z</time>
      </trkpt>
      <trkpt lat="46.68585" lon="0.41527">
        <ele>84</ele>
        <time>2024-09-08T10:15:18Z</time>
      </trkpt>
      <trkpt lat="46.68554" lon="0.41521">
        <ele>84.2</ele>
        <time>2024-09-08T10:15:26Z</time>
      </trkpt>
      <trkpt lat="46.68546" lon="0.41517">
        <ele>84.4</ele>
        <time>2024-09-08T10:15:28Z</time>
      </trkpt>
      <trkpt lat="46.68535" lon="0.41509">
        <ele>84.2</ele>
        <time>2024-09-08T10:15:31Z</time>
      </trkpt>
      <trkpt lat="46.68511" lon="0.41499">
        <ele>85</ele>
        <time>2024-09-08T10:15:37Z</time>
      </trkpt>
      <trkpt lat="46.68488" lon="0.41482">
        <ele>86</ele>
        <time>2024-09-08T10:15:43Z</time>
      </trkpt>
      <trkpt lat="46.68485" lon="0.41479">
        <ele>86.2</ele>
        <time>2024-09-08T10:15:44Z</time>
      </trkpt>
      <trkpt lat="46.68476" lon="0.41469">
        <ele>86.4</ele>
        <time>2024-09-08T10:15:47Z</time>
      </trkpt>
      <trkpt lat="46.68473" lon="0.41461">
        <ele>86.6</ele>
        <time>2024-09-08T10:15:49Z</time>
      </trkpt>
      <trkpt lat="46.68481" lon="0.41443">
        <ele>86.2</ele>
        <time>2024-09-08T10:15:53Z</time>
      </trkpt>
      <trkpt lat="46.68492" lon="0.41415">
        <ele>85.8</ele>
        <time>2024-09-08T10:15:58Z</time>
      </trkpt>
      <trkpt lat="46.68494" lon="0.41409">
        <ele>85.8</ele>
        <time>2024-09-08T10:15:59Z</time>
      </trkpt>
      <trkpt lat="46.685" lon="0.41384">
        <ele>85.6</ele>
        <time>2024-09-08T10:16:05Z</time>
      </trkpt>
      <trkpt lat="46.68501" lon="0.41375">
        <ele>85.4</ele>
        <time>2024-09-08T10:16:07Z</time>
      </trkpt>
      <trkpt lat="46.68498" lon="0.41369">
        <ele>85.4</ele>
        <time>2024-09-08T10:16:09Z</time>
      </trkpt>
      <trkpt lat="46.68491" lon="0.41364">
        <ele>85.8</ele>
        <time>2024-09-08T10:16:12Z</time>
      </trkpt>
      <trkpt lat="46.68488" lon="0.41365">
        <ele>85.8</ele>
        <time>2024-09-08T10:16:13Z</time>
      </trkpt>
      <trkpt lat="46.68485" lon="0.41365">
        <ele>85.6</ele>
        <time>2024-09-08T10:16:14Z</time>
      </trkpt>
      <trkpt lat="46.6848" lon="0.4136">
        <ele>85.6</ele>
        <time>2024-09-08T10:16:16Z</time>
      </trkpt>
      <trkpt lat="46.68479" lon="0.41353">
        <ele>85.6</ele>
        <time>2024-09-08T10:16:18Z</time>
      </trkpt>
      <trkpt lat="46.68479" lon="0.41349">
        <ele>85.6</ele>
        <time>2024-09-08T10:16:19Z</time>
      </trkpt>
      <trkpt lat="46.68478" lon="0.41345">
        <ele>85.6</ele>
        <time>2024-09-08T10:16:20Z</time>
      </trkpt>
      <trkpt lat="46.68476" lon="0.41338">
        <ele>85.6</ele>
        <time>2024-09-08T10:16:22Z</time>
      </trkpt>
      <trkpt lat="46.68476" lon="0.41334">
        <ele>85.6</ele>
        <time>2024-09-08T10:16:23Z</time>
      </trkpt>
      <trkpt lat="46.6847" lon="0.41318">
        <ele>85.4</ele>
        <time>2024-09-08T10:16:27Z</time>
      </trkpt>
      <trkpt lat="46.68465" lon="0.4131">
        <ele>85.2</ele>
        <time>2024-09-08T10:16:30Z</time>
      </trkpt>
      <trkpt lat="46.68463" lon="0.41309">
        <ele>85.2</ele>
        <time>2024-09-08T10:16:31Z</time>
      </trkpt>
      <trkpt lat="46.68447" lon="0.41297">
        <ele>85.8</ele>
        <time>2024-09-08T10:16:37Z</time>
      </trkpt>
      <trkpt lat="46.68442" lon="0.41295">
        <ele>86</ele>
        <time>2024-09-08T10:16:39Z</time>
      </trkpt>
      <trkpt lat="46.68437" lon="0.41294">
        <ele>85.8</ele>
        <time>2024-09-08T10:16:41Z</time>
      </trkpt>
      <trkpt lat="46.68437" lon="0.41287">
        <ele>85.6</ele>
        <time>2024-09-08T10:16:44Z</time>
      </trkpt>
      <trkpt lat="46.68437" lon="0.41265">
        <ele>85.6</ele>
        <time>2024-09-08T10:16:49Z</time>
      </trkpt>
      <trkpt lat="46.68438" lon="0.41257">
        <ele>85.8</ele>
        <time>2024-09-08T10:16:52Z</time>
      </trkpt>
      <trkpt lat="46.68439" lon="0.41257">
        <ele>85.8</ele>
        <time>2024-09-08T10:16:53Z</time>
      </trkpt>
      <trkpt lat="46.68441" lon="0.41257">
        <ele>85.8</ele>
        <time>2024-09-08T10:16:55Z</time>
      </trkpt>
      <trkpt lat="46.68443" lon="0.41255">
        <ele>85.8</ele>
        <time>2024-09-08T10:16:56Z</time>
      </trkpt>
      <trkpt lat="46.68447" lon="0.41249">
        <ele>85.8</ele>
        <time>2024-09-08T10:16:58Z</time>
      </trkpt>
      <trkpt lat="46.68445" lon="0.41243">
        <ele>85.8</ele>
        <time>2024-09-08T10:17:00Z</time>
      </trkpt>
      <trkpt lat="46.6844" lon="0.41232">
        <ele>85.6</ele>
        <time>2024-09-08T10:17:03Z</time>
      </trkpt>
      <trkpt lat="46.6844" lon="0.41226">
        <ele>85.8</ele>
        <time>2024-09-08T10:17:05Z</time>
      </trkpt>
      <trkpt lat="46.68441" lon="0.41223">
        <ele>86.2</ele>
        <time>2024-09-08T10:17:07Z</time>
      </trkpt>
      <trkpt lat="46.68438" lon="0.41221">
        <ele>86.4</ele>
        <time>2024-09-08T10:17:09Z</time>
      </trkpt>
      <trkpt lat="46.68435" lon="0.41221">
        <ele>86.4</ele>
        <time>2024-09-08T10:17:12Z</time>
      </trkpt>
      <trkpt lat="46.68431" lon="0.41216">
        <ele>86.4</ele>
        <time>2024-09-08T10:17:15Z</time>
      </trkpt>
      <trkpt lat="46.68426" lon="0.41218">
        <ele>86.6</ele>
        <time>2024-09-08T10:17:18Z</time>
      </trkpt>
      <trkpt lat="46.68425" lon="0.41217">
        <ele>86.6</ele>
        <time>2024-09-08T10:17:19Z</time>
      </trkpt>
      <trkpt lat="46.68422" lon="0.41215">
        <ele>86.6</ele>
        <time>2024-09-08T10:17:21Z</time>
      </trkpt>
      <trkpt lat="46.68416" lon="0.41213">
        <ele>86.8</ele>
        <time>2024-09-08T10:17:24Z</time>
      </trkpt>
      <trkpt lat="46.68415" lon="0.41206">
        <ele>86.8</ele>
        <time>2024-09-08T10:17:26Z</time>
      </trkpt>
      <trkpt lat="46.68416" lon="0.41202">
        <ele>86.8</ele>
        <time>2024-09-08T10:17:27Z</time>
      </trkpt>
      <trkpt lat="46.68425" lon="0.41193">
        <ele>86.8</ele>
        <time>2024-09-08T10:17:31Z</time>
      </trkpt>
      <trkpt lat="46.68426" lon="0.41195">
        <ele>86.8</ele>
        <time>2024-09-08T10:17:32Z</time>
      </trkpt>
      <trkpt lat="46.68433" lon="0.41194">
        <ele>86.6</ele>
        <time>2024-09-08T10:17:35Z</time>
      </trkpt>
      <trkpt lat="46.68437" lon="0.4119">
        <ele>86.6</ele>
        <time>2024-09-08T10:17:37Z</time>
      </trkpt>
      <trkpt lat="46.68439" lon="0.41188">
        <ele>86.6</ele>
        <time>2024-09-08T10:17:38Z</time>
      </trkpt>
      <trkpt lat="46.68441" lon="0.41187">
        <ele>86.6</ele>
        <time>2024-09-08T10:17:39Z</time>
      </trkpt>
      <trkpt lat="46.68446" lon="0.41184">
        <ele>86.6</ele>
        <time>2024-09-08T10:17:41Z</time>
      </trkpt>
      <trkpt lat="46.6845" lon="0.41177">
        <ele>86.6</ele>
        <time>2024-09-08T10:17:43Z</time>
      </trkpt>
      <trkpt lat="46.68454" lon="0.4117">
        <ele>87</ele>
        <time>2024-09-08T10:17:45Z</time>
      </trkpt>
      <trkpt lat="46.68456" lon="0.41168">
        <ele>87.2</ele>
        <time>2024-09-08T10:17:46Z</time>
      </trkpt>
      <trkpt lat="46.68468" lon="0.41159">
        <ele>87.6</ele>
        <time>2024-09-08T10:17:50Z</time>
      </trkpt>
      <trkpt lat="46.68481" lon="0.4114">
        <ele>86.8</ele>
        <time>2024-09-08T10:17:55Z</time>
      </trkpt>
      <trkpt lat="46.68484" lon="0.41135">
        <ele>86.6</ele>
        <time>2024-09-08T10:17:56Z</time>
      </trkpt>
      <trkpt lat="46.68487" lon="0.41126">
        <ele>86.4</ele>
        <time>2024-09-08T10:17:58Z</time>
      </trkpt>
      <trkpt lat="46.68498" lon="0.41105">
        <ele>86.4</ele>
        <time>2024-09-08T10:18:03Z</time>
      </trkpt>
      <trkpt lat="46.68512" lon="0.41091">
        <ele>86.8</ele>
        <time>2024-09-08T10:18:07Z</time>
      </trkpt>
      <trkpt lat="46.68518" lon="0.41086">
        <ele>86.8</ele>
        <time>2024-09-08T10:18:09Z</time>
      </trkpt>
      <trkpt lat="46.68522" lon="0.41086">
        <ele>86.8</ele>
        <time>2024-09-08T10:18:10Z</time>
      </trkpt>
      <trkpt lat="46.68529" lon="0.41083">
        <ele>86.8</ele>
        <time>2024-09-08T10:18:12Z</time>
      </trkpt>
      <trkpt lat="46.68533" lon="0.4108">
        <ele>86.6</ele>
        <time>2024-09-08T10:18:13Z</time>
      </trkpt>
      <trkpt lat="46.68549" lon="0.41064">
        <ele>86.2</ele>
        <time>2024-09-08T10:18:18Z</time>
      </trkpt>
      <trkpt lat="46.68551" lon="0.41064">
        <ele>86.2</ele>
        <time>2024-09-08T10:18:19Z</time>
      </trkpt>
      <trkpt lat="46.68558" lon="0.4107">
        <ele>86</ele>
        <time>2024-09-08T10:18:22Z</time>
      </trkpt>
      <trkpt lat="46.68564" lon="0.41077">
        <ele>86</ele>
        <time>2024-09-08T10:18:25Z</time>
      </trkpt>
      <trkpt lat="46.68566" lon="0.41082">
        <ele>86</ele>
        <time>2024-09-08T10:18:27Z</time>
      </trkpt>
      <trkpt lat="46.68572" lon="0.41093">
        <ele>86</ele>
        <time>2024-09-08T10:18:31Z</time>
      </trkpt>
      <trkpt lat="46.68588" lon="0.41095">
        <ele>85.8</ele>
        <time>2024-09-08T10:18:36Z</time>
      </trkpt>
      <trkpt lat="46.686" lon="0.411">
        <ele>85.6</ele>
        <time>2024-09-08T10:18:40Z</time>
      </trkpt>
      <trkpt lat="46.68613" lon="0.41116">
        <ele>85.6</ele>
        <time>2024-09-08T10:18:46Z</time>
      </trkpt>
      <trkpt lat="46.68616" lon="0.41119">
        <ele>85.6</ele>
        <time>2024-09-08T10:18:47Z</time>
      </trkpt>
      <trkpt lat="46.68624" lon="0.41123">
        <ele>85.6</ele>
        <time>2024-09-08T10:18:50Z</time>
      </trkpt>
      <trkpt lat="46.68636" lon="0.41138">
        <ele>85.8</ele>
        <time>2024-09-08T10:18:55Z</time>
      </trkpt>
      <trkpt lat="46.68652" lon="0.4115">
        <ele>85.4</ele>
        <time>2024-09-08T10:19:00Z</time>
      </trkpt>
      <trkpt lat="46.68668" lon="0.41174">
        <ele>85.6</ele>
        <time>2024-09-08T10:19:06Z</time>
      </trkpt>
      <trkpt lat="46.68675" lon="0.41185">
        <ele>85.4</ele>
        <time>2024-09-08T10:19:09Z</time>
      </trkpt>
      <trkpt lat="46.68681" lon="0.41185">
        <ele>85.2</ele>
        <time>2024-09-08T10:19:11Z</time>
      </trkpt>
      <trkpt lat="46.68686" lon="0.4118">
        <ele>85</ele>
        <time>2024-09-08T10:19:13Z</time>
      </trkpt>
      <trkpt lat="46.68693" lon="0.41176">
        <ele>85</ele>
        <time>2024-09-08T10:19:16Z</time>
      </trkpt>
      <trkpt lat="46.68696" lon="0.41171">
        <ele>85</ele>
        <time>2024-09-08T10:19:18Z</time>
      </trkpt>
      <trkpt lat="46.68701" lon="0.41168">
        <ele>85.2</ele>
        <time>2024-09-08T10:19:20Z</time>
      </trkpt>
      <trkpt lat="46.68709" lon="0.41155">
        <ele>85</ele>
        <time>2024-09-08T10:19:24Z</time>
      </trkpt>
      <trkpt lat="46.68718" lon="0.41146">
        <ele>84.8</ele>
        <time>2024-09-08T10:19:28Z</time>
      </trkpt>
      <trkpt lat="46.6872" lon="0.41148">
        <ele>84.8</ele>
        <time>2024-09-08T10:19:29Z</time>
      </trkpt>
      <trkpt lat="46.6873" lon="0.41164">
        <ele>84</ele>
        <time>2024-09-08T10:19:34Z</time>
      </trkpt>
      <trkpt lat="46.68732" lon="0.41174">
        <ele>84</ele>
        <time>2024-09-08T10:19:38Z</time>
      </trkpt>
      <trkpt lat="46.68735" lon="0.41177">
        <ele>84</ele>
        <time>2024-09-08T10:19:40Z</time>
      </trkpt>
      <trkpt lat="46.68736" lon="0.41177">
        <ele>84</ele>
        <time>2024-09-08T10:19:41Z</time>
      </trkpt>
      <trkpt lat="46.68737" lon="0.41174">
        <ele>83.8</ele>
        <time>2024-09-08T10:19:42Z</time>
      </trkpt>
      <trkpt lat="46.68741" lon="0.41161">
        <ele>83.6</ele>
        <time>2024-09-08T10:19:46Z</time>
      </trkpt>
      <trkpt lat="46.68738" lon="0.41145">
        <ele>84.2</ele>
        <time>2024-09-08T10:19:50Z</time>
      </trkpt>
      <trkpt lat="46.68735" lon="0.4114">
        <ele>84.4</ele>
        <time>2024-09-08T10:19:52Z</time>
      </trkpt>
      <trkpt lat="46.6873" lon="0.41136">
        <ele>84.8</ele>
        <time>2024-09-08T10:19:55Z</time>
      </trkpt>
      <trkpt lat="46.68729" lon="0.41131">
        <ele>85</ele>
        <time>2024-09-08T10:19:57Z</time>
      </trkpt>
      <trkpt lat="46.68728" lon="0.41125">
        <ele>85</ele>
        <time>2024-09-08T10:19:59Z</time>
      </trkpt>
      <trkpt lat="46.68718" lon="0.41108">
        <ele>85</ele>
        <time>2024-09-08T10:20:04Z</time>
      </trkpt>
      <trkpt lat="46.68705" lon="0.41102">
        <ele>85.4</ele>
        <time>2024-09-08T10:20:10Z</time>
      </trkpt>
      <trkpt lat="46.68704" lon="0.41099">
        <ele>85.4</ele>
        <time>2024-09-08T10:20:12Z</time>
      </trkpt>
      <trkpt lat="46.68702" lon="0.41092">
        <ele>85.6</ele>
        <time>2024-09-08T10:20:14Z</time>
      </trkpt>
      <trkpt lat="46.68699" lon="0.41089">
        <ele>85.8</ele>
        <time>2024-09-08T10:20:15Z</time>
      </trkpt>
      <trkpt lat="46.68695" lon="0.41084">
        <ele>85.8</ele>
        <time>2024-09-08T10:20:17Z</time>
      </trkpt>
      <trkpt lat="46.68683" lon="0.41077">
        <ele>85.6</ele>
        <time>2024-09-08T10:20:22Z</time>
      </trkpt>
      <trkpt lat="46.68678" lon="0.41075">
        <ele>85.6</ele>
        <time>2024-09-08T10:20:24Z</time>
      </trkpt>
      <trkpt lat="46.68675" lon="0.41068">
        <ele>85.6</ele>
        <time>2024-09-08T10:20:26Z</time>
      </trkpt>
      <trkpt lat="46.68672" lon="0.41062">
        <ele>85.8</ele>
        <time>2024-09-08T10:20:28Z</time>
      </trkpt>
      <trkpt lat="46.68667" lon="0.41062">
        <ele>85.8</ele>
        <time>2024-09-08T10:20:30Z</time>
      </trkpt>
      <trkpt lat="46.68665" lon="0.41068">
        <ele>85.8</ele>
        <time>2024-09-08T10:20:33Z</time>
      </trkpt>
      <trkpt lat="46.68662" lon="0.41072">
        <ele>85.8</ele>
        <time>2024-09-08T10:20:35Z</time>
      </trkpt>
      <trkpt lat="46.68655" lon="0.41073">
        <ele>85.8</ele>
        <time>2024-09-08T10:20:37Z</time>
      </trkpt>
      <trkpt lat="46.68644" lon="0.41065">
        <ele>86</ele>
        <time>2024-09-08T10:20:41Z</time>
      </trkpt>
      <trkpt lat="46.68633" lon="0.41052">
        <ele>86</ele>
        <time>2024-09-08T10:20:45Z</time>
      </trkpt>
      <trkpt lat="46.68629" lon="0.41052">
        <ele>86</ele>
        <time>2024-09-08T10:20:46Z</time>
      </trkpt>
      <trkpt lat="46.68626" lon="0.41051">
        <ele>86</ele>
        <time>2024-09-08T10:20:47Z</time>
      </trkpt>
      <trkpt lat="46.68624" lon="0.41045">
        <ele>86</ele>
        <time>2024-09-08T10:20:49Z</time>
      </trkpt>
      <trkpt lat="46.68622" lon="0.41041">
        <ele>86</ele>
        <time>2024-09-08T10:20:50Z</time>
      </trkpt>
      <trkpt lat="46.68617" lon="0.41032">
        <ele>86.2</ele>
        <time>2024-09-08T10:20:52Z</time>
      </trkpt>
      <trkpt lat="46.68597" lon="0.40989">
        <ele>87</ele>
        <time>2024-09-08T10:20:59Z</time>
      </trkpt>
      <trkpt lat="46.68595" lon="0.40983">
        <ele>87.2</ele>
        <time>2024-09-08T10:21:00Z</time>
      </trkpt>
      <trkpt lat="46.68597" lon="0.40972">
        <ele>87.4</ele>
        <time>2024-09-08T10:21:02Z</time>
      </trkpt>
      <trkpt lat="46.686" lon="0.40969">
        <ele>87.4</ele>
        <time>2024-09-08T10:21:03Z</time>
      </trkpt>
      <trkpt lat="46.68619" lon="0.40947">
        <ele>87.2</ele>
        <time>2024-09-08T10:21:10Z</time>
      </trkpt>
      <trkpt lat="46.68641" lon="0.40922">
        <ele>86.8</ele>
        <time>2024-09-08T10:21:18Z</time>
      </trkpt>
      <trkpt lat="46.68659" lon="0.40902">
        <ele>86</ele>
        <time>2024-09-08T10:21:24Z</time>
      </trkpt>
      <trkpt lat="46.68663" lon="0.40898">
        <ele>85.8</ele>
        <time>2024-09-08T10:21:25Z</time>
      </trkpt>
      <trkpt lat="46.68691" lon="0.40866">
        <ele>85</ele>
        <time>2024-09-08T10:21:33Z</time>
      </trkpt>
      <trkpt lat="46.68695" lon="0.40862">
        <ele>84.8</ele>
        <time>2024-09-08T10:21:34Z</time>
      </trkpt>
      <trkpt lat="46.68708" lon="0.40851">
        <ele>83.4</ele>
        <time>2024-09-08T10:21:37Z</time>
      </trkpt>
      <trkpt lat="46.68719" lon="0.40843">
        <ele>82.6</ele>
        <time>2024-09-08T10:21:39Z</time>
      </trkpt>
      <trkpt lat="46.68725" lon="0.40839">
        <ele>82</ele>
        <time>2024-09-08T10:21:40Z</time>
      </trkpt>
      <trkpt lat="46.68738" lon="0.40831">
        <ele>80.6</ele>
        <time>2024-09-08T10:21:42Z</time>
      </trkpt>
      <trkpt lat="46.68744" lon="0.40828">
        <ele>79</ele>
        <time>2024-09-08T10:21:43Z</time>
      </trkpt>
      <trkpt lat="46.68749" lon="0.40824">
        <ele>78.2</ele>
        <time>2024-09-08T10:21:44Z</time>
      </trkpt>
      <trkpt lat="46.68753" lon="0.40822">
        <ele>76.8</ele>
        <time>2024-09-08T10:21:45Z</time>
      </trkpt>
      <trkpt lat="46.68756" lon="0.40821">
        <ele>75.8</ele>
        <time>2024-09-08T10:21:46Z</time>
      </trkpt>
      <trkpt lat="46.68759" lon="0.40818">
        <ele>75.4</ele>
        <time>2024-09-08T10:21:47Z</time>
      </trkpt>
      <trkpt lat="46.68766" lon="0.40797">
        <ele>74.6</ele>
        <time>2024-09-08T10:21:51Z</time>
      </trkpt>
      <trkpt lat="46.68779" lon="0.40748">
        <ele>75.8</ele>
        <time>2024-09-08T10:21:59Z</time>
      </trkpt>
      <trkpt lat="46.68782" lon="0.40738">
        <ele>76.4</ele>
        <time>2024-09-08T10:22:01Z</time>
      </trkpt>
      <trkpt lat="46.68785" lon="0.40728">
        <ele>77.8</ele>
        <time>2024-09-08T10:22:03Z</time>
      </trkpt>
      <trkpt lat="46.6879" lon="0.40718">
        <ele>79</ele>
        <time>2024-09-08T10:22:05Z</time>
      </trkpt>
      <trkpt lat="46.68791" lon="0.40713">
        <ele>79.8</ele>
        <time>2024-09-08T10:22:06Z</time>
      </trkpt>
      <trkpt lat="46.68792" lon="0.40707">
        <ele>80.4</ele>
        <time>2024-09-08T10:22:07Z</time>
      </trkpt>
      <trkpt lat="46.68791" lon="0.40699">
        <ele>81.2</ele>
        <time>2024-09-08T10:22:09Z</time>
      </trkpt>
      <trkpt lat="46.68787" lon="0.40697">
        <ele>81.6</ele>
        <time>2024-09-08T10:22:10Z</time>
      </trkpt>
      <trkpt lat="46.6878" lon="0.40694">
        <ele>81.8</ele>
        <time>2024-09-08T10:22:12Z</time>
      </trkpt>
      <trkpt lat="46.68749" lon="0.40685">
        <ele>82.4</ele>
        <time>2024-09-08T10:22:19Z</time>
      </trkpt>
      <trkpt lat="46.68731" lon="0.40681">
        <ele>82.8</ele>
        <time>2024-09-08T10:22:23Z</time>
      </trkpt>
      <trkpt lat="46.68708" lon="0.40672">
        <ele>83.2</ele>
        <time>2024-09-08T10:22:28Z</time>
      </trkpt>
      <trkpt lat="46.68664" lon="0.40654">
        <ele>83.6</ele>
        <time>2024-09-08T10:22:38Z</time>
      </trkpt>
      <trkpt lat="46.68638" lon="0.40642">
        <ele>83.4</ele>
        <time>2024-09-08T10:22:44Z</time>
      </trkpt>
      <trkpt lat="46.6863" lon="0.40638">
        <ele>83.4</ele>
        <time>2024-09-08T10:22:46Z</time>
      </trkpt>
      <trkpt lat="46.68603" lon="0.4063">
        <ele>83</ele>
        <time>2024-09-08T10:22:51Z</time>
      </trkpt>
      <trkpt lat="46.6859" lon="0.40625">
        <ele>81.8</ele>
        <time>2024-09-08T10:22:53Z</time>
      </trkpt>
      <trkpt lat="46.68577" lon="0.40619">
        <ele>80.6</ele>
        <time>2024-09-08T10:22:55Z</time>
      </trkpt>
      <trkpt lat="46.68564" lon="0.40611">
        <ele>79.8</ele>
        <time>2024-09-08T10:22:57Z</time>
      </trkpt>
      <trkpt lat="46.68546" lon="0.40598">
        <ele>79.6</ele>
        <time>2024-09-08T10:23:00Z</time>
      </trkpt>
      <trkpt lat="46.68516" lon="0.40578">
        <ele>78.6</ele>
        <time>2024-09-08T10:23:05Z</time>
      </trkpt>
      <trkpt lat="46.6851" lon="0.40573">
        <ele>78.6</ele>
        <time>2024-09-08T10:23:06Z</time>
      </trkpt>
      <trkpt lat="46.68464" lon="0.4054">
        <ele>78.2</ele>
        <time>2024-09-08T10:23:14Z</time>
      </trkpt>
      <trkpt lat="46.68422" lon="0.40522">
        <ele>78.4</ele>
        <time>2024-09-08T10:23:21Z</time>
      </trkpt>
      <trkpt lat="46.68391" lon="0.40509">
        <ele>78.2</ele>
        <time>2024-09-08T10:23:26Z</time>
      </trkpt>
      <trkpt lat="46.68385" lon="0.40509">
        <ele>78.2</ele>
        <time>2024-09-08T10:23:27Z</time>
      </trkpt>
      <trkpt lat="46.68373" lon="0.40512">
        <ele>78.4</ele>
        <time>2024-09-08T10:23:29Z</time>
      </trkpt>
      <trkpt lat="46.68366" lon="0.40516">
        <ele>78.4</ele>
        <time>2024-09-08T10:23:30Z</time>
      </trkpt>
      <trkpt lat="46.68332" lon="0.40537">
        <ele>78.6</ele>
        <time>2024-09-08T10:23:36Z</time>
      </trkpt>
      <trkpt lat="46.68327" lon="0.4054">
        <ele>78.6</ele>
        <time>2024-09-08T10:23:37Z</time>
      </trkpt>
      <trkpt lat="46.6829" lon="0.40557">
        <ele>79</ele>
        <time>2024-09-08T10:23:43Z</time>
      </trkpt>
      <trkpt lat="46.6824" lon="0.40589">
        <ele>79.2</ele>
        <time>2024-09-08T10:23:51Z</time>
      </trkpt>
      <trkpt lat="46.68229" lon="0.406">
        <ele>79.6</ele>
        <time>2024-09-08T10:23:53Z</time>
      </trkpt>
      <trkpt lat="46.68207" lon="0.40621">
        <ele>79.8</ele>
        <time>2024-09-08T10:23:57Z</time>
      </trkpt>
      <trkpt lat="46.68172" lon="0.40659">
        <ele>79.2</ele>
        <time>2024-09-08T10:24:04Z</time>
      </trkpt>
      <trkpt lat="46.68165" lon="0.40655">
        <ele>79</ele>
        <time>2024-09-08T10:24:06Z</time>
      </trkpt>
      <trkpt lat="46.68162" lon="0.40652">
        <ele>78.8</ele>
        <time>2024-09-08T10:24:07Z</time>
      </trkpt>
      <trkpt lat="46.68147" lon="0.40635">
        <ele>79.2</ele>
        <time>2024-09-08T10:24:12Z</time>
      </trkpt>
      <trkpt lat="46.68139" lon="0.40638">
        <ele>79.4</ele>
        <time>2024-09-08T10:24:14Z</time>
      </trkpt>
      <trkpt lat="46.68131" lon="0.40646">
        <ele>79.6</ele>
        <time>2024-09-08T10:24:16Z</time>
      </trkpt>
      <trkpt lat="46.68114" lon="0.40673">
        <ele>80.2</ele>
        <time>2024-09-08T10:24:21Z</time>
      </trkpt>
      <trkpt lat="46.68111" lon="0.4068">
        <ele>80.2</ele>
        <time>2024-09-08T10:24:22Z</time>
      </trkpt>
      <trkpt lat="46.68097" lon="0.40715">
        <ele>80</ele>
        <time>2024-09-08T10:24:27Z</time>
      </trkpt>
      <trkpt lat="46.68093" lon="0.40722">
        <ele>79.8</ele>
        <time>2024-09-08T10:24:28Z</time>
      </trkpt>
      <trkpt lat="46.68081" lon="0.4074">
        <ele>79.4</ele>
        <time>2024-09-08T10:24:31Z</time>
      </trkpt>
      <trkpt lat="46.68072" lon="0.4075">
        <ele>79</ele>
        <time>2024-09-08T10:24:33Z</time>
      </trkpt>
      <trkpt lat="46.68063" lon="0.40761">
        <ele>79.4</ele>
        <time>2024-09-08T10:24:35Z</time>
      </trkpt>
      <trkpt lat="46.68057" lon="0.40773">
        <ele>80</ele>
        <time>2024-09-08T10:24:37Z</time>
      </trkpt>
      <trkpt lat="46.68029" lon="0.40796">
        <ele>80.2</ele>
        <time>2024-09-08T10:24:43Z</time>
      </trkpt>
      <trkpt lat="46.68015" lon="0.40803">
        <ele>80.2</ele>
        <time>2024-09-08T10:24:46Z</time>
      </trkpt>
      <trkpt lat="46.68001" lon="0.40813">
        <ele>80.4</ele>
        <time>2024-09-08T10:24:49Z</time>
      </trkpt>
      <trkpt lat="46.67997" lon="0.40816">
        <ele>80.6</ele>
        <time>2024-09-08T10:24:50Z</time>
      </trkpt>
      <trkpt lat="46.6796" lon="0.40839">
        <ele>81.4</ele>
        <time>2024-09-08T10:24:58Z</time>
      </trkpt>
      <trkpt lat="46.67951" lon="0.40842">
        <ele>81.8</ele>
        <time>2024-09-08T10:25:00Z</time>
      </trkpt>
      <trkpt lat="46.6793" lon="0.40848">
        <ele>82.4</ele>
        <time>2024-09-08T10:25:05Z</time>
      </trkpt>
      <trkpt lat="46.67917" lon="0.4085">
        <ele>83</ele>
        <time>2024-09-08T10:25:08Z</time>
      </trkpt>
      <trkpt lat="46.67909" lon="0.40847">
        <ele>83</ele>
        <time>2024-09-08T10:25:10Z</time>
      </trkpt>
      <trkpt lat="46.67905" lon="0.40846">
        <ele>83</ele>
        <time>2024-09-08T10:25:11Z</time>
      </trkpt>
      <trkpt lat="46.67896" lon="0.40845">
        <ele>83</ele>
        <time>2024-09-08T10:25:13Z</time>
      </trkpt>
      <trkpt lat="46.67892" lon="0.40844">
        <ele>83</ele>
        <time>2024-09-08T10:25:14Z</time>
      </trkpt>
      <trkpt lat="46.67862" lon="0.40832">
        <ele>83</ele>
        <time>2024-09-08T10:25:20Z</time>
      </trkpt>
      <trkpt lat="46.67852" lon="0.40828">
        <ele>82.6</ele>
        <time>2024-09-08T10:25:22Z</time>
      </trkpt>
      <trkpt lat="46.67837" lon="0.40824">
        <ele>82.2</ele>
        <time>2024-09-08T10:25:25Z</time>
      </trkpt>
      <trkpt lat="46.67832" lon="0.40822">
        <ele>82</ele>
        <time>2024-09-08T10:25:26Z</time>
      </trkpt>
      <trkpt lat="46.67805" lon="0.40818">
        <ele>81.8</ele>
        <time>2024-09-08T10:25:31Z</time>
      </trkpt>
      <trkpt lat="46.67773" lon="0.40802">
        <ele>82.4</ele>
        <time>2024-09-08T10:25:38Z</time>
      </trkpt>
      <trkpt lat="46.67762" lon="0.40793">
        <ele>82.8</ele>
        <time>2024-09-08T10:25:41Z</time>
      </trkpt>
      <trkpt lat="46.67753" lon="0.4078">
        <ele>82.8</ele>
        <time>2024-09-08T10:25:44Z</time>
      </trkpt>
      <trkpt lat="46.67751" lon="0.40776">
        <ele>82.8</ele>
        <time>2024-09-08T10:25:45Z</time>
      </trkpt>
      <trkpt lat="46.6774" lon="0.40757">
        <ele>82.8</ele>
        <time>2024-09-08T10:25:49Z</time>
      </trkpt>
      <trkpt lat="46.67733" lon="0.40747">
        <ele>83</ele>
        <time>2024-09-08T10:25:51Z</time>
      </trkpt>
      <trkpt lat="46.67726" lon="0.40737">
        <ele>83.4</ele>
        <time>2024-09-08T10:25:53Z</time>
      </trkpt>
      <trkpt lat="46.67718" lon="0.40733">
        <ele>83.8</ele>
        <time>2024-09-08T10:25:55Z</time>
      </trkpt>
      <trkpt lat="46.67714" lon="0.40731">
        <ele>83.8</ele>
        <time>2024-09-08T10:25:56Z</time>
      </trkpt>
      <trkpt lat="46.67705" lon="0.40723">
        <ele>83.8</ele>
        <time>2024-09-08T10:25:58Z</time>
      </trkpt>
      <trkpt lat="46.67703" lon="0.40717">
        <ele>83.8</ele>
        <time>2024-09-08T10:25:59Z</time>
      </trkpt>
      <trkpt lat="46.677" lon="0.40712">
        <ele>83.8</ele>
        <time>2024-09-08T10:26:00Z</time>
      </trkpt>
      <trkpt lat="46.67692" lon="0.40706">
        <ele>83.8</ele>
        <time>2024-09-08T10:26:02Z</time>
      </trkpt>
      <trkpt lat="46.67683" lon="0.40705">
        <ele>84</ele>
        <time>2024-09-08T10:26:04Z</time>
      </trkpt>
      <trkpt lat="46.67678" lon="0.40704">
        <ele>84.2</ele>
        <time>2024-09-08T10:26:05Z</time>
      </trkpt>
      <trkpt lat="46.67673" lon="0.40701">
        <ele>84.2</ele>
        <time>2024-09-08T10:26:06Z</time>
      </trkpt>
      <trkpt lat="46.67665" lon="0.40695">
        <ele>84.2</ele>
        <time>2024-09-08T10:26:08Z</time>
      </trkpt>
      <trkpt lat="46.67655" lon="0.40684">
        <ele>84.6</ele>
        <time>2024-09-08T10:26:11Z</time>
      </trkpt>
      <trkpt lat="46.67641" lon="0.40671">
        <ele>85</ele>
        <time>2024-09-08T10:26:16Z</time>
      </trkpt>
      <trkpt lat="46.6764" lon="0.40669">
        <ele>85.2</ele>
        <time>2024-09-08T10:26:17Z</time>
      </trkpt>
      <trkpt lat="46.67641" lon="0.40668">
        <ele>85.2</ele>
        <time>2024-09-08T10:26:18Z</time>
      </trkpt>
      <trkpt lat="46.67642" lon="0.40662">
        <ele>85.6</ele>
        <time>2024-09-08T10:26:21Z</time>
      </trkpt>
      <trkpt lat="46.67643" lon="0.40656">
        <ele>86.6</ele>
        <time>2024-09-08T10:26:25Z</time>
      </trkpt>
      <trkpt lat="46.67643" lon="0.40651">
        <ele>87.8</ele>
        <time>2024-09-08T10:26:29Z</time>
      </trkpt>
      <trkpt lat="46.67644" lon="0.40649">
        <ele>88.2</ele>
        <time>2024-09-08T10:26:30Z</time>
      </trkpt>
      <trkpt lat="46.67644" lon="0.40647">
        <ele>88.8</ele>
        <time>2024-09-08T10:26:32Z</time>
      </trkpt>
      <trkpt lat="46.67645" lon="0.40643">
        <ele>90</ele>
        <time>2024-09-08T10:26:35Z</time>
      </trkpt>
      <trkpt lat="46.67645" lon="0.4064">
        <ele>90.4</ele>
        <time>2024-09-08T10:26:37Z</time>
      </trkpt>
      <trkpt lat="46.67647" lon="0.40638">
        <ele>91</ele>
        <time>2024-09-08T10:26:39Z</time>
      </trkpt>
      <trkpt lat="46.67648" lon="0.4063">
        <ele>92.2</ele>
        <time>2024-09-08T10:26:44Z</time>
      </trkpt>
      <trkpt lat="46.67648" lon="0.40629">
        <ele>92.4</ele>
        <time>2024-09-08T10:26:45Z</time>
      </trkpt>
      <trkpt lat="46.67649" lon="0.40626">
        <ele>93.4</ele>
        <time>2024-09-08T10:26:48Z</time>
      </trkpt>
      <trkpt lat="46.67651" lon="0.40618">
        <ele>94.4</ele>
        <time>2024-09-08T10:26:54Z</time>
      </trkpt>
      <trkpt lat="46.67652" lon="0.40616">
        <ele>95.2</ele>
        <time>2024-09-08T10:26:56Z</time>
      </trkpt>
      <trkpt lat="46.67653" lon="0.40615">
        <ele>95.2</ele>
        <time>2024-09-08T10:26:57Z</time>
      </trkpt>
      <trkpt lat="46.67655" lon="0.4061">
        <ele>95.6</ele>
        <time>2024-09-08T10:27:00Z</time>
      </trkpt>
      <trkpt lat="46.67657" lon="0.40606">
        <ele>96.2</ele>
        <time>2024-09-08T10:27:03Z</time>
      </trkpt>
      <trkpt lat="46.6766" lon="0.40607">
        <ele>96.4</ele>
        <time>2024-09-08T10:27:05Z</time>
      </trkpt>
      <trkpt lat="46.67668" lon="0.4062">
        <ele>95.8</ele>
        <time>2024-09-08T10:27:09Z</time>
      </trkpt>
      <trkpt lat="46.67682" lon="0.4064">
        <ele>95</ele>
        <time>2024-09-08T10:27:13Z</time>
      </trkpt>
      <trkpt lat="46.67686" lon="0.40646">
        <ele>94.8</ele>
        <time>2024-09-08T10:27:14Z</time>
      </trkpt>
      <trkpt lat="46.6769" lon="0.40653">
        <ele>94</ele>
        <time>2024-09-08T10:27:15Z</time>
      </trkpt>
      <trkpt lat="46.67706" lon="0.40674">
        <ele>92.8</ele>
        <time>2024-09-08T10:27:18Z</time>
      </trkpt>
      <trkpt lat="46.67712" lon="0.40681">
        <ele>92.6</ele>
        <time>2024-09-08T10:27:19Z</time>
      </trkpt>
      <trkpt lat="46.67717" lon="0.4069">
        <ele>91.6</ele>
        <time>2024-09-08T10:27:20Z</time>
      </trkpt>
      <trkpt lat="46.67721" lon="0.40699">
        <ele>91</ele>
        <time>2024-09-08T10:27:21Z</time>
      </trkpt>
      <trkpt lat="46.67723" lon="0.40707">
        <ele>89.8</ele>
        <time>2024-09-08T10:27:22Z</time>
      </trkpt>
      <trkpt lat="46.67723" lon="0.40716">
        <ele>88.8</ele>
        <time>2024-09-08T10:27:23Z</time>
      </trkpt>
      <trkpt lat="46.67722" lon="0.40723">
        <ele>87.6</ele>
        <time>2024-09-08T10:27:24Z</time>
      </trkpt>
      <trkpt lat="46.67719" lon="0.4073">
        <ele>86.6</ele>
        <time>2024-09-08T10:27:25Z</time>
      </trkpt>
      <trkpt lat="46.67709" lon="0.40738">
        <ele>85.6</ele>
        <time>2024-09-08T10:27:27Z</time>
      </trkpt>
      <trkpt lat="46.67703" lon="0.40739">
        <ele>85.4</ele>
        <time>2024-09-08T10:27:28Z</time>
      </trkpt>
      <trkpt lat="46.67697" lon="0.40738">
        <ele>85.2</ele>
        <time>2024-09-08T10:27:29Z</time>
      </trkpt>
      <trkpt lat="46.67687" lon="0.40733">
        <ele>84.6</ele>
        <time>2024-09-08T10:27:31Z</time>
      </trkpt>
      <trkpt lat="46.67677" lon="0.40726">
        <ele>84.2</ele>
        <time>2024-09-08T10:27:33Z</time>
      </trkpt>
      <trkpt lat="46.67672" lon="0.40722">
        <ele>84</ele>
        <time>2024-09-08T10:27:34Z</time>
      </trkpt>
      <trkpt lat="46.67659" lon="0.4071">
        <ele>83.6</ele>
        <time>2024-09-08T10:27:37Z</time>
      </trkpt>
      <trkpt lat="46.67629" lon="0.40687">
        <ele>84</ele>
        <time>2024-09-08T10:27:43Z</time>
      </trkpt>
      <trkpt lat="46.67601" lon="0.40665">
        <ele>84.4</ele>
        <time>2024-09-08T10:27:49Z</time>
      </trkpt>
      <trkpt lat="46.67573" lon="0.40646">
        <ele>85.2</ele>
        <time>2024-09-08T10:27:55Z</time>
      </trkpt>
      <trkpt lat="46.67568" lon="0.40642">
        <ele>85.2</ele>
        <time>2024-09-08T10:27:56Z</time>
      </trkpt>
      <trkpt lat="46.67533" lon="0.40619">
        <ele>86</ele>
        <time>2024-09-08T10:28:03Z</time>
      </trkpt>
      <trkpt lat="46.67502" lon="0.40597">
        <ele>86</ele>
        <time>2024-09-08T10:28:09Z</time>
      </trkpt>
      <trkpt lat="46.67471" lon="0.40574">
        <ele>86</ele>
        <time>2024-09-08T10:28:15Z</time>
      </trkpt>
      <trkpt lat="46.67431" lon="0.40544">
        <ele>85.8</ele>
        <time>2024-09-08T10:28:23Z</time>
      </trkpt>
      <trkpt lat="46.67421" lon="0.40538">
        <ele>86.4</ele>
        <time>2024-09-08T10:28:25Z</time>
      </trkpt>
      <trkpt lat="46.67405" lon="0.4053">
        <ele>87.4</ele>
        <time>2024-09-08T10:28:28Z</time>
      </trkpt>
      <trkpt lat="46.67395" lon="0.40524">
        <ele>87.8</ele>
        <time>2024-09-08T10:28:30Z</time>
      </trkpt>
      <trkpt lat="46.6737" lon="0.40506">
        <ele>88.4</ele>
        <time>2024-09-08T10:28:36Z</time>
      </trkpt>
      <trkpt lat="46.67361" lon="0.40499">
        <ele>88.6</ele>
        <time>2024-09-08T10:28:38Z</time>
      </trkpt>
      <trkpt lat="46.67342" lon="0.40488">
        <ele>89</ele>
        <time>2024-09-08T10:28:42Z</time>
      </trkpt>
      <trkpt lat="46.67329" lon="0.40481">
        <ele>89.6</ele>
        <time>2024-09-08T10:28:45Z</time>
      </trkpt>
      <trkpt lat="46.67321" lon="0.40477">
        <ele>89.6</ele>
        <time>2024-09-08T10:28:47Z</time>
      </trkpt>
      <trkpt lat="46.67301" lon="0.40467">
        <ele>89.6</ele>
        <time>2024-09-08T10:28:51Z</time>
      </trkpt>
      <trkpt lat="46.67288" lon="0.40449">
        <ele>89.2</ele>
        <time>2024-09-08T10:28:54Z</time>
      </trkpt>
      <trkpt lat="46.67281" lon="0.40441">
        <ele>88.8</ele>
        <time>2024-09-08T10:28:56Z</time>
      </trkpt>
      <trkpt lat="46.67264" lon="0.40431">
        <ele>89.4</ele>
        <time>2024-09-08T10:28:59Z</time>
      </trkpt>
      <trkpt lat="46.67253" lon="0.40426">
        <ele>89.6</ele>
        <time>2024-09-08T10:29:01Z</time>
      </trkpt>
      <trkpt lat="46.67237" lon="0.40418">
        <ele>89.6</ele>
        <time>2024-09-08T10:29:04Z</time>
      </trkpt>
      <trkpt lat="46.67228" lon="0.4042">
        <ele>89.4</ele>
        <time>2024-09-08T10:29:06Z</time>
      </trkpt>
      <trkpt lat="46.67218" lon="0.40422">
        <ele>89.4</ele>
        <time>2024-09-08T10:29:08Z</time>
      </trkpt>
      <trkpt lat="46.67207" lon="0.4042">
        <ele>89.2</ele>
        <time>2024-09-08T10:29:10Z</time>
      </trkpt>
      <trkpt lat="46.67202" lon="0.40419">
        <ele>89</ele>
        <time>2024-09-08T10:29:11Z</time>
      </trkpt>
      <trkpt lat="46.67191" lon="0.40418">
        <ele>88.8</ele>
        <time>2024-09-08T10:29:13Z</time>
      </trkpt>
      <trkpt lat="46.67187" lon="0.40416">
        <ele>88.8</ele>
        <time>2024-09-08T10:29:14Z</time>
      </trkpt>
      <trkpt lat="46.67182" lon="0.40412">
        <ele>88.8</ele>
        <time>2024-09-08T10:29:15Z</time>
      </trkpt>
      <trkpt lat="46.67163" lon="0.40396">
        <ele>89.4</ele>
        <time>2024-09-08T10:29:19Z</time>
      </trkpt>
      <trkpt lat="46.67125" lon="0.40361">
        <ele>90.6</ele>
        <time>2024-09-08T10:29:27Z</time>
      </trkpt>
      <trkpt lat="46.67092" lon="0.40333">
        <ele>90.8</ele>
        <time>2024-09-08T10:29:34Z</time>
      </trkpt>
      <trkpt lat="46.67087" lon="0.4033">
        <ele>90.8</ele>
        <time>2024-09-08T10:29:35Z</time>
      </trkpt>
      <trkpt lat="46.67051" lon="0.40295">
        <ele>91.8</ele>
        <time>2024-09-08T10:29:43Z</time>
      </trkpt>
      <trkpt lat="46.67042" lon="0.40287">
        <ele>91.8</ele>
        <time>2024-09-08T10:29:45Z</time>
      </trkpt>
      <trkpt lat="46.6701" lon="0.40258">
        <ele>92.6</ele>
        <time>2024-09-08T10:29:52Z</time>
      </trkpt>
      <trkpt lat="46.6701" lon="0.40258">
        <ele>93</ele>
        <time>2024-09-08T10:29:53Z</time>
      </trkpt>
      <trkpt lat="46.66988" lon="0.40237">
        <ele>94</ele>
        <time>2024-09-08T10:29:57Z</time>
      </trkpt>
      <trkpt lat="46.66981" lon="0.40229">
        <ele>94.4</ele>
        <time>2024-09-08T10:29:59Z</time>
      </trkpt>
      <trkpt lat="46.66974" lon="0.40221">
        <ele>94.4</ele>
        <time>2024-09-08T10:30:01Z</time>
      </trkpt>
      <trkpt lat="46.66969" lon="0.40221">
        <ele>94.2</ele>
        <time>2024-09-08T10:30:03Z</time>
      </trkpt>
      <trkpt lat="46.66965" lon="0.40238">
        <ele>94.2</ele>
        <time>2024-09-08T10:30:06Z</time>
      </trkpt>
      <trkpt lat="46.66964" lon="0.40254">
        <ele>93.4</ele>
        <time>2024-09-08T10:30:08Z</time>
      </trkpt>
      <trkpt lat="46.66963" lon="0.40272">
        <ele>92.8</ele>
        <time>2024-09-08T10:30:10Z</time>
      </trkpt>
      <trkpt lat="46.66961" lon="0.40291">
        <ele>92.2</ele>
        <time>2024-09-08T10:30:12Z</time>
      </trkpt>
      <trkpt lat="46.66956" lon="0.40306">
        <ele>91.8</ele>
        <time>2024-09-08T10:30:14Z</time>
      </trkpt>
      <trkpt lat="46.66953" lon="0.4031">
        <ele>91.4</ele>
        <time>2024-09-08T10:30:15Z</time>
      </trkpt>
      <trkpt lat="46.66949" lon="0.40313">
        <ele>91.2</ele>
        <time>2024-09-08T10:30:16Z</time>
      </trkpt>
      <trkpt lat="46.66946" lon="0.40313">
        <ele>91</ele>
        <time>2024-09-08T10:30:17Z</time>
      </trkpt>
      <trkpt lat="46.66943" lon="0.40313">
        <ele>91</ele>
        <time>2024-09-08T10:30:18Z</time>
      </trkpt>
      <trkpt lat="46.66933" lon="0.4031">
        <ele>91.2</ele>
        <time>2024-09-08T10:30:22Z</time>
      </trkpt>
      <trkpt lat="46.6691" lon="0.40302">
        <ele>91</ele>
        <time>2024-09-08T10:30:27Z</time>
      </trkpt>
      <trkpt lat="46.669" lon="0.403">
        <ele>91.2</ele>
        <time>2024-09-08T10:30:30Z</time>
      </trkpt>
      <trkpt lat="46.66899" lon="0.40302">
        <ele>90.8</ele>
        <time>2024-09-08T10:30:31Z</time>
      </trkpt>
      <trkpt lat="46.66897" lon="0.40322">
        <ele>90.4</ele>
        <time>2024-09-08T10:30:35Z</time>
      </trkpt>
      <trkpt lat="46.66895" lon="0.40327">
        <ele>90.2</ele>
        <time>2024-09-08T10:30:36Z</time>
      </trkpt>
      <trkpt lat="46.66888" lon="0.40332">
        <ele>90.4</ele>
        <time>2024-09-08T10:30:38Z</time>
      </trkpt>
      <trkpt lat="46.66875" lon="0.40328">
        <ele>90.6</ele>
        <time>2024-09-08T10:30:41Z</time>
      </trkpt>
      <trkpt lat="46.66858" lon="0.40319">
        <ele>91</ele>
        <time>2024-09-08T10:30:45Z</time>
      </trkpt>
      <trkpt lat="46.66851" lon="0.40311">
        <ele>91.4</ele>
        <time>2024-09-08T10:30:47Z</time>
      </trkpt>
      <trkpt lat="46.66831" lon="0.40278">
        <ele>91.4</ele>
        <time>2024-09-08T10:30:54Z</time>
      </trkpt>
      <trkpt lat="46.66825" lon="0.40272">
        <ele>91.4</ele>
        <time>2024-09-08T10:30:56Z</time>
      </trkpt>
      <trkpt lat="46.66821" lon="0.40269">
        <ele>92</ele>
        <time>2024-09-08T10:30:58Z</time>
      </trkpt>
      <trkpt lat="46.66819" lon="0.40267">
        <ele>92.2</ele>
        <time>2024-09-08T10:30:59Z</time>
      </trkpt>
      <trkpt lat="46.66818" lon="0.40265">
        <ele>92.4</ele>
        <time>2024-09-08T10:31:00Z</time>
      </trkpt>
      <trkpt lat="46.66817" lon="0.40258">
        <ele>92.6</ele>
        <time>2024-09-08T10:31:02Z</time>
      </trkpt>
      <trkpt lat="46.66822" lon="0.40243">
        <ele>93</ele>
        <time>2024-09-08T10:31:07Z</time>
      </trkpt>
      <trkpt lat="46.66826" lon="0.40226">
        <ele>93.4</ele>
        <time>2024-09-08T10:31:14Z</time>
      </trkpt>
      <trkpt lat="46.66827" lon="0.40225">
        <ele>93.2</ele>
        <time>2024-09-08T10:31:15Z</time>
      </trkpt>
      <trkpt lat="46.66826" lon="0.40225">
        <ele>93.2</ele>
        <time>2024-09-08T10:31:19Z</time>
      </trkpt>
      <trkpt lat="46.66828" lon="0.40222">
        <ele>93.2</ele>
        <time>2024-09-08T11:06:27Z</time>
      </trkpt>
      <trkpt lat="46.66831" lon="0.4022">
        <ele>93.2</ele>
        <time>2024-09-08T11:06:40Z</time>
      </trkpt>
      <trkpt lat="46.6683" lon="0.4022">
        <ele>93.2</ele>
        <time>2024-09-08T11:06:59Z</time>
      </trkpt>
      <trkpt lat="46.66834" lon="0.40218">
        <ele>93.2</ele>
        <time>2024-09-08T11:07:13Z</time>
      </trkpt>
      <trkpt lat="46.66832" lon="0.40229">
        <ele>93.2</ele>
        <time>2024-09-08T11:07:24Z</time>
      </trkpt>
      <trkpt lat="46.66823" lon="0.4025">
        <ele>93.4</ele>
        <time>2024-09-08T11:07:34Z</time>
      </trkpt>
      <trkpt lat="46.66819" lon="0.40266">
        <ele>93.4</ele>
        <time>2024-09-08T11:07:39Z</time>
      </trkpt>
      <trkpt lat="46.6682" lon="0.40268">
        <ele>93.4</ele>
        <time>2024-09-08T11:07:40Z</time>
      </trkpt>
      <trkpt lat="46.66825" lon="0.40273">
        <ele>93.4</ele>
        <time>2024-09-08T11:07:43Z</time>
      </trkpt>
      <trkpt lat="46.66833" lon="0.40289">
        <ele>92.6</ele>
        <time>2024-09-08T11:07:47Z</time>
      </trkpt>
      <trkpt lat="46.66834" lon="0.40294">
        <ele>92.4</ele>
        <time>2024-09-08T11:07:48Z</time>
      </trkpt>
      <trkpt lat="46.66835" lon="0.403">
        <ele>91.8</ele>
        <time>2024-09-08T11:07:51Z</time>
      </trkpt>
    </trkseg>
  </trk>
</gpx>